<?xml version="1.0" encoding="UTF-8" standalone="no" ?>
<gpx xmlns="http://www.topografix.com/GPX/1/1" xmlns:xsi="http://www.w3.org/2001/XMLSchema-instance" xsi:schemaLocation="http://www.topografix.com/GPX/1/1 http://www.topografix.com/GPX/1/1/gpx.xsd" version="1.1" creator="VisuGPX - https://www.visugpx.com">
  <metadata>
    <name>Ploufragan circuit n° 10 de St Brieuc Agglo</name>
    <desc><![CDATA[Station VTT St Brieuc Agglo Ploufragan, départ du Pont Noir.
Circuit "bleu" assez contrasté, avec quelques parties amusantes, un peu techniques.
Débutant possible à condition d'être déjà monté sur un vélo, malgré quelque passages bitume,ce n'est pas de la "voie verte".
Le circuit est bien balisé, facile à suivre.]]></desc>
  </metadata>
  <trk>
    <name><![CDATA[20180825160315-e37Hu]]></name>
    <trkseg>
      <trkpt lat="48.48793" lon="-2.84363">
        <ele>102</ele>
        <time>2017-01-05T13:14:57.000Z</time>
      </trkpt>
      <trkpt lat="48.48791" lon="-2.84362">
        <ele>102</ele>
        <time>2017-01-05T13:15:08.000Z</time>
      </trkpt>
      <trkpt lat="48.48789" lon="-2.84365">
        <ele>102</ele>
        <time>2017-01-05T13:16:01.000Z</time>
      </trkpt>
      <trkpt lat="48.48788" lon="-2.84367">
        <ele>102</ele>
        <time>2017-01-05T13:16:03.000Z</time>
      </trkpt>
      <trkpt lat="48.48785" lon="-2.84368">
        <ele>102</ele>
        <time>2017-01-05T13:16:05.000Z</time>
      </trkpt>
      <trkpt lat="48.48783" lon="-2.84369">
        <ele>102</ele>
        <time>2017-01-05T13:16:07.000Z</time>
      </trkpt>
      <trkpt lat="48.48782" lon="-2.84372">
        <ele>103</ele>
        <time>2017-01-05T13:16:17.000Z</time>
      </trkpt>
      <trkpt lat="48.48779" lon="-2.84374">
        <ele>103</ele>
        <time>2017-01-05T13:16:19.000Z</time>
      </trkpt>
      <trkpt lat="48.48776" lon="-2.84375">
        <ele>103</ele>
        <time>2017-01-05T13:16:20.000Z</time>
      </trkpt>
      <trkpt lat="48.48773" lon="-2.84376">
        <ele>103</ele>
        <time>2017-01-05T13:16:21.000Z</time>
      </trkpt>
      <trkpt lat="48.4877" lon="-2.84377">
        <ele>103</ele>
        <time>2017-01-05T13:16:22.000Z</time>
      </trkpt>
      <trkpt lat="48.48767" lon="-2.84377">
        <ele>103</ele>
        <time>2017-01-05T13:16:23.000Z</time>
      </trkpt>
      <trkpt lat="48.48764" lon="-2.84377">
        <ele>103</ele>
        <time>2017-01-05T13:16:24.000Z</time>
      </trkpt>
      <trkpt lat="48.48761" lon="-2.84377">
        <ele>103</ele>
        <time>2017-01-05T13:16:25.000Z</time>
      </trkpt>
      <trkpt lat="48.48758" lon="-2.84376">
        <ele>103</ele>
        <time>2017-01-05T13:16:26.000Z</time>
      </trkpt>
      <trkpt lat="48.48755" lon="-2.84376">
        <ele>103</ele>
        <time>2017-01-05T13:16:27.000Z</time>
      </trkpt>
      <trkpt lat="48.48751" lon="-2.84375">
        <ele>103</ele>
        <time>2017-01-05T13:16:28.000Z</time>
      </trkpt>
      <trkpt lat="48.48747" lon="-2.84376">
        <ele>107</ele>
        <time>2017-01-05T13:16:29.000Z</time>
      </trkpt>
      <trkpt lat="48.48743" lon="-2.84376">
        <ele>107</ele>
        <time>2017-01-05T13:16:30.000Z</time>
      </trkpt>
      <trkpt lat="48.48738" lon="-2.84375">
        <ele>107</ele>
        <time>2017-01-05T13:16:31.000Z</time>
      </trkpt>
      <trkpt lat="48.48734" lon="-2.84374">
        <ele>107</ele>
        <time>2017-01-05T13:16:32.000Z</time>
      </trkpt>
      <trkpt lat="48.48731" lon="-2.84373">
        <ele>107</ele>
        <time>2017-01-05T13:16:33.000Z</time>
      </trkpt>
      <trkpt lat="48.48728" lon="-2.84373">
        <ele>107</ele>
        <time>2017-01-05T13:16:34.000Z</time>
      </trkpt>
      <trkpt lat="48.48725" lon="-2.84372">
        <ele>107</ele>
        <time>2017-01-05T13:16:35.000Z</time>
      </trkpt>
      <trkpt lat="48.4872" lon="-2.84371">
        <ele>107</ele>
        <time>2017-01-05T13:16:36.000Z</time>
      </trkpt>
      <trkpt lat="48.48716" lon="-2.8437">
        <ele>107</ele>
        <time>2017-01-05T13:16:37.000Z</time>
      </trkpt>
      <trkpt lat="48.48712" lon="-2.84369">
        <ele>108</ele>
        <time>2017-01-05T13:16:38.000Z</time>
      </trkpt>
      <trkpt lat="48.48708" lon="-2.84368">
        <ele>108</ele>
        <time>2017-01-05T13:16:39.000Z</time>
      </trkpt>
      <trkpt lat="48.48704" lon="-2.84366">
        <ele>108</ele>
        <time>2017-01-05T13:16:40.000Z</time>
      </trkpt>
      <trkpt lat="48.487" lon="-2.84364">
        <ele>108</ele>
        <time>2017-01-05T13:16:41.000Z</time>
      </trkpt>
      <trkpt lat="48.48696" lon="-2.84362">
        <ele>108</ele>
        <time>2017-01-05T13:16:42.000Z</time>
      </trkpt>
      <trkpt lat="48.48692" lon="-2.8436">
        <ele>108</ele>
        <time>2017-01-05T13:16:43.000Z</time>
      </trkpt>
      <trkpt lat="48.48689" lon="-2.84359">
        <ele>108</ele>
        <time>2017-01-05T13:16:44.000Z</time>
      </trkpt>
      <trkpt lat="48.48685" lon="-2.84358">
        <ele>108</ele>
        <time>2017-01-05T13:16:45.000Z</time>
      </trkpt>
      <trkpt lat="48.48681" lon="-2.84356">
        <ele>108</ele>
        <time>2017-01-05T13:16:46.000Z</time>
      </trkpt>
      <trkpt lat="48.48676" lon="-2.84354">
        <ele>108</ele>
        <time>2017-01-05T13:16:47.000Z</time>
      </trkpt>
      <trkpt lat="48.48671" lon="-2.84352">
        <ele>108</ele>
        <time>2017-01-05T13:16:48.000Z</time>
      </trkpt>
      <trkpt lat="48.48667" lon="-2.8435">
        <ele>108</ele>
        <time>2017-01-05T13:16:49.000Z</time>
      </trkpt>
      <trkpt lat="48.48663" lon="-2.84348">
        <ele>110</ele>
        <time>2017-01-05T13:16:50.000Z</time>
      </trkpt>
      <trkpt lat="48.48658" lon="-2.84345">
        <ele>110</ele>
        <time>2017-01-05T13:16:51.000Z</time>
      </trkpt>
      <trkpt lat="48.48653" lon="-2.84342">
        <ele>110</ele>
        <time>2017-01-05T13:16:52.000Z</time>
      </trkpt>
      <trkpt lat="48.48649" lon="-2.8434">
        <ele>111</ele>
        <time>2017-01-05T13:16:53.000Z</time>
      </trkpt>
      <trkpt lat="48.48645" lon="-2.84337">
        <ele>111</ele>
        <time>2017-01-05T13:16:54.000Z</time>
      </trkpt>
      <trkpt lat="48.48641" lon="-2.84335">
        <ele>111</ele>
        <time>2017-01-05T13:16:55.000Z</time>
      </trkpt>
      <trkpt lat="48.48637" lon="-2.84332">
        <ele>107</ele>
        <time>2017-01-05T13:16:56.000Z</time>
      </trkpt>
      <trkpt lat="48.48634" lon="-2.84329">
        <ele>107</ele>
        <time>2017-01-05T13:16:57.000Z</time>
      </trkpt>
      <trkpt lat="48.48631" lon="-2.84326">
        <ele>107</ele>
        <time>2017-01-05T13:16:58.000Z</time>
      </trkpt>
      <trkpt lat="48.48628" lon="-2.84322">
        <ele>107</ele>
        <time>2017-01-05T13:16:59.000Z</time>
      </trkpt>
      <trkpt lat="48.48625" lon="-2.84319">
        <ele>107</ele>
        <time>2017-01-05T13:17:00.000Z</time>
      </trkpt>
      <trkpt lat="48.48618" lon="-2.84311">
        <ele>107</ele>
        <time>2017-01-05T13:17:02.000Z</time>
      </trkpt>
      <trkpt lat="48.48615" lon="-2.84306">
        <ele>107</ele>
        <time>2017-01-05T13:17:03.000Z</time>
      </trkpt>
      <trkpt lat="48.48607" lon="-2.84298">
        <ele>107</ele>
        <time>2017-01-05T13:17:05.000Z</time>
      </trkpt>
      <trkpt lat="48.48602" lon="-2.84294">
        <ele>107</ele>
        <time>2017-01-05T13:17:06.000Z</time>
      </trkpt>
      <trkpt lat="48.48598" lon="-2.84291">
        <ele>107</ele>
        <time>2017-01-05T13:17:07.000Z</time>
      </trkpt>
      <trkpt lat="48.48593" lon="-2.84287">
        <ele>106</ele>
        <time>2017-01-05T13:17:08.000Z</time>
      </trkpt>
      <trkpt lat="48.48583" lon="-2.8428">
        <ele>109</ele>
        <time>2017-01-05T13:17:10.000Z</time>
      </trkpt>
      <trkpt lat="48.48573" lon="-2.84274">
        <ele>109</ele>
        <time>2017-01-05T13:17:12.000Z</time>
      </trkpt>
      <trkpt lat="48.48569" lon="-2.84271">
        <ele>109</ele>
        <time>2017-01-05T13:17:13.000Z</time>
      </trkpt>
      <trkpt lat="48.48564" lon="-2.84268">
        <ele>109</ele>
        <time>2017-01-05T13:17:14.000Z</time>
      </trkpt>
      <trkpt lat="48.48559" lon="-2.84266">
        <ele>109</ele>
        <time>2017-01-05T13:17:15.000Z</time>
      </trkpt>
      <trkpt lat="48.48554" lon="-2.84266">
        <ele>110</ele>
        <time>2017-01-05T13:17:16.000Z</time>
      </trkpt>
      <trkpt lat="48.48549" lon="-2.84266">
        <ele>110</ele>
        <time>2017-01-05T13:17:17.000Z</time>
      </trkpt>
      <trkpt lat="48.48544" lon="-2.84267">
        <ele>110</ele>
        <time>2017-01-05T13:17:18.000Z</time>
      </trkpt>
      <trkpt lat="48.4854" lon="-2.84267">
        <ele>111</ele>
        <time>2017-01-05T13:17:19.000Z</time>
      </trkpt>
      <trkpt lat="48.48536" lon="-2.84268">
        <ele>111</ele>
        <time>2017-01-05T13:17:20.000Z</time>
      </trkpt>
      <trkpt lat="48.48531" lon="-2.84267">
        <ele>111</ele>
        <time>2017-01-05T13:17:21.000Z</time>
      </trkpt>
      <trkpt lat="48.48528" lon="-2.84266">
        <ele>111</ele>
        <time>2017-01-05T13:17:22.000Z</time>
      </trkpt>
      <trkpt lat="48.48525" lon="-2.84265">
        <ele>111</ele>
        <time>2017-01-05T13:17:23.000Z</time>
      </trkpt>
      <trkpt lat="48.48522" lon="-2.84263">
        <ele>111</ele>
        <time>2017-01-05T13:17:24.000Z</time>
      </trkpt>
      <trkpt lat="48.48519" lon="-2.8426">
        <ele>111</ele>
        <time>2017-01-05T13:17:25.000Z</time>
      </trkpt>
      <trkpt lat="48.48516" lon="-2.84258">
        <ele>111</ele>
        <time>2017-01-05T13:17:26.000Z</time>
      </trkpt>
      <trkpt lat="48.48514" lon="-2.84256">
        <ele>112</ele>
        <time>2017-01-05T13:17:27.000Z</time>
      </trkpt>
      <trkpt lat="48.48512" lon="-2.84254">
        <ele>112</ele>
        <time>2017-01-05T13:17:28.000Z</time>
      </trkpt>
      <trkpt lat="48.48509" lon="-2.84251">
        <ele>112</ele>
        <time>2017-01-05T13:17:29.000Z</time>
      </trkpt>
      <trkpt lat="48.48507" lon="-2.84249">
        <ele>110</ele>
        <time>2017-01-05T13:17:30.000Z</time>
      </trkpt>
      <trkpt lat="48.48504" lon="-2.84247">
        <ele>110</ele>
        <time>2017-01-05T13:17:31.000Z</time>
      </trkpt>
      <trkpt lat="48.48501" lon="-2.84244">
        <ele>110</ele>
        <time>2017-01-05T13:17:32.000Z</time>
      </trkpt>
      <trkpt lat="48.48498" lon="-2.84241">
        <ele>111</ele>
        <time>2017-01-05T13:17:33.000Z</time>
      </trkpt>
      <trkpt lat="48.48494" lon="-2.84239">
        <ele>111</ele>
        <time>2017-01-05T13:17:34.000Z</time>
      </trkpt>
      <trkpt lat="48.4849" lon="-2.84238">
        <ele>110</ele>
        <time>2017-01-05T13:17:35.000Z</time>
      </trkpt>
      <trkpt lat="48.48486" lon="-2.84236">
        <ele>110</ele>
        <time>2017-01-05T13:17:36.000Z</time>
      </trkpt>
      <trkpt lat="48.48482" lon="-2.84235">
        <ele>110</ele>
        <time>2017-01-05T13:17:37.000Z</time>
      </trkpt>
      <trkpt lat="48.48479" lon="-2.84234">
        <ele>110</ele>
        <time>2017-01-05T13:17:38.000Z</time>
      </trkpt>
      <trkpt lat="48.48476" lon="-2.84234">
        <ele>110</ele>
        <time>2017-01-05T13:17:39.000Z</time>
      </trkpt>
      <trkpt lat="48.48473" lon="-2.84235">
        <ele>110</ele>
        <time>2017-01-05T13:17:40.000Z</time>
      </trkpt>
      <trkpt lat="48.48471" lon="-2.84235">
        <ele>110</ele>
        <time>2017-01-05T13:17:41.000Z</time>
      </trkpt>
      <trkpt lat="48.48468" lon="-2.84235">
        <ele>110</ele>
        <time>2017-01-05T13:17:42.000Z</time>
      </trkpt>
      <trkpt lat="48.48466" lon="-2.84236">
        <ele>110</ele>
        <time>2017-01-05T13:17:43.000Z</time>
      </trkpt>
      <trkpt lat="48.48463" lon="-2.84236">
        <ele>110</ele>
        <time>2017-01-05T13:17:44.000Z</time>
      </trkpt>
      <trkpt lat="48.4846" lon="-2.84235">
        <ele>110</ele>
        <time>2017-01-05T13:17:45.000Z</time>
      </trkpt>
      <trkpt lat="48.48456" lon="-2.84233">
        <ele>110</ele>
        <time>2017-01-05T13:17:46.000Z</time>
      </trkpt>
      <trkpt lat="48.48453" lon="-2.84232">
        <ele>110</ele>
        <time>2017-01-05T13:17:47.000Z</time>
      </trkpt>
      <trkpt lat="48.4845" lon="-2.8423">
        <ele>110</ele>
        <time>2017-01-05T13:17:48.000Z</time>
      </trkpt>
      <trkpt lat="48.48446" lon="-2.84231">
        <ele>111</ele>
        <time>2017-01-05T13:17:49.000Z</time>
      </trkpt>
      <trkpt lat="48.48443" lon="-2.8423">
        <ele>111</ele>
        <time>2017-01-05T13:17:50.000Z</time>
      </trkpt>
      <trkpt lat="48.4844" lon="-2.8423">
        <ele>111</ele>
        <time>2017-01-05T13:17:51.000Z</time>
      </trkpt>
      <trkpt lat="48.48437" lon="-2.84229">
        <ele>111</ele>
        <time>2017-01-05T13:17:52.000Z</time>
      </trkpt>
      <trkpt lat="48.48433" lon="-2.84228">
        <ele>111</ele>
        <time>2017-01-05T13:17:53.000Z</time>
      </trkpt>
      <trkpt lat="48.48429" lon="-2.84228">
        <ele>111</ele>
        <time>2017-01-05T13:17:54.000Z</time>
      </trkpt>
      <trkpt lat="48.48426" lon="-2.84227">
        <ele>111</ele>
        <time>2017-01-05T13:17:55.000Z</time>
      </trkpt>
      <trkpt lat="48.48422" lon="-2.84226">
        <ele>111</ele>
        <time>2017-01-05T13:17:56.000Z</time>
      </trkpt>
      <trkpt lat="48.48418" lon="-2.84225">
        <ele>111</ele>
        <time>2017-01-05T13:17:57.000Z</time>
      </trkpt>
      <trkpt lat="48.48414" lon="-2.84224">
        <ele>113</ele>
        <time>2017-01-05T13:17:58.000Z</time>
      </trkpt>
      <trkpt lat="48.48411" lon="-2.84224">
        <ele>113</ele>
        <time>2017-01-05T13:17:59.000Z</time>
      </trkpt>
      <trkpt lat="48.48408" lon="-2.84225">
        <ele>113</ele>
        <time>2017-01-05T13:18:00.000Z</time>
      </trkpt>
      <trkpt lat="48.48405" lon="-2.84225">
        <ele>113</ele>
        <time>2017-01-05T13:18:01.000Z</time>
      </trkpt>
      <trkpt lat="48.48402" lon="-2.84226">
        <ele>113</ele>
        <time>2017-01-05T13:18:02.000Z</time>
      </trkpt>
      <trkpt lat="48.484" lon="-2.84226">
        <ele>112</ele>
        <time>2017-01-05T13:18:03.000Z</time>
      </trkpt>
      <trkpt lat="48.48397" lon="-2.84226">
        <ele>112</ele>
        <time>2017-01-05T13:18:04.000Z</time>
      </trkpt>
      <trkpt lat="48.48394" lon="-2.84226">
        <ele>112</ele>
        <time>2017-01-05T13:18:05.000Z</time>
      </trkpt>
      <trkpt lat="48.48391" lon="-2.84227">
        <ele>112</ele>
        <time>2017-01-05T13:18:06.000Z</time>
      </trkpt>
      <trkpt lat="48.48387" lon="-2.84227">
        <ele>112</ele>
        <time>2017-01-05T13:18:07.000Z</time>
      </trkpt>
      <trkpt lat="48.48384" lon="-2.84227">
        <ele>112</ele>
        <time>2017-01-05T13:18:08.000Z</time>
      </trkpt>
      <trkpt lat="48.48381" lon="-2.84227">
        <ele>112</ele>
        <time>2017-01-05T13:18:09.000Z</time>
      </trkpt>
      <trkpt lat="48.48377" lon="-2.84225">
        <ele>112</ele>
        <time>2017-01-05T13:18:10.000Z</time>
      </trkpt>
      <trkpt lat="48.48372" lon="-2.84222">
        <ele>112</ele>
        <time>2017-01-05T13:18:11.000Z</time>
      </trkpt>
      <trkpt lat="48.48367" lon="-2.84218">
        <ele>112</ele>
        <time>2017-01-05T13:18:12.000Z</time>
      </trkpt>
      <trkpt lat="48.48363" lon="-2.84214">
        <ele>112</ele>
        <time>2017-01-05T13:18:13.000Z</time>
      </trkpt>
      <trkpt lat="48.4836" lon="-2.84208">
        <ele>112</ele>
        <time>2017-01-05T13:18:14.000Z</time>
      </trkpt>
      <trkpt lat="48.48358" lon="-2.84202">
        <ele>112</ele>
        <time>2017-01-05T13:18:15.000Z</time>
      </trkpt>
      <trkpt lat="48.48356" lon="-2.84197">
        <ele>111</ele>
        <time>2017-01-05T13:18:16.000Z</time>
      </trkpt>
      <trkpt lat="48.48354" lon="-2.84192">
        <ele>111</ele>
        <time>2017-01-05T13:18:17.000Z</time>
      </trkpt>
      <trkpt lat="48.48353" lon="-2.84187">
        <ele>111</ele>
        <time>2017-01-05T13:18:18.000Z</time>
      </trkpt>
      <trkpt lat="48.48353" lon="-2.84182">
        <ele>111</ele>
        <time>2017-01-05T13:18:19.000Z</time>
      </trkpt>
      <trkpt lat="48.48353" lon="-2.84177">
        <ele>111</ele>
        <time>2017-01-05T13:18:20.000Z</time>
      </trkpt>
      <trkpt lat="48.48353" lon="-2.84172">
        <ele>111</ele>
        <time>2017-01-05T13:18:21.000Z</time>
      </trkpt>
      <trkpt lat="48.48353" lon="-2.84167">
        <ele>111</ele>
        <time>2017-01-05T13:18:22.000Z</time>
      </trkpt>
      <trkpt lat="48.48355" lon="-2.84162">
        <ele>107</ele>
        <time>2017-01-05T13:18:23.000Z</time>
      </trkpt>
      <trkpt lat="48.48357" lon="-2.84158">
        <ele>107</ele>
        <time>2017-01-05T13:18:24.000Z</time>
      </trkpt>
      <trkpt lat="48.48358" lon="-2.84153">
        <ele>106</ele>
        <time>2017-01-05T13:18:25.000Z</time>
      </trkpt>
      <trkpt lat="48.4836" lon="-2.84149">
        <ele>106</ele>
        <time>2017-01-05T13:18:26.000Z</time>
      </trkpt>
      <trkpt lat="48.48362" lon="-2.8414">
        <ele>105</ele>
        <time>2017-01-05T13:18:28.000Z</time>
      </trkpt>
      <trkpt lat="48.48367" lon="-2.84126">
        <ele>104</ele>
        <time>2017-01-05T13:18:31.000Z</time>
      </trkpt>
      <trkpt lat="48.48369" lon="-2.84109">
        <ele>103</ele>
        <time>2017-01-05T13:18:34.000Z</time>
      </trkpt>
      <trkpt lat="48.48368" lon="-2.84105">
        <ele>103</ele>
        <time>2017-01-05T13:18:35.000Z</time>
      </trkpt>
      <trkpt lat="48.48366" lon="-2.84102">
        <ele>103</ele>
        <time>2017-01-05T13:18:36.000Z</time>
      </trkpt>
      <trkpt lat="48.48363" lon="-2.84099">
        <ele>103</ele>
        <time>2017-01-05T13:18:37.000Z</time>
      </trkpt>
      <trkpt lat="48.48361" lon="-2.84097">
        <ele>103</ele>
        <time>2017-01-05T13:18:38.000Z</time>
      </trkpt>
      <trkpt lat="48.48359" lon="-2.84097">
        <ele>103</ele>
        <time>2017-01-05T13:18:39.000Z</time>
      </trkpt>
      <trkpt lat="48.48356" lon="-2.84096">
        <ele>103</ele>
        <time>2017-01-05T13:18:40.000Z</time>
      </trkpt>
      <trkpt lat="48.48353" lon="-2.84096">
        <ele>103</ele>
        <time>2017-01-05T13:18:41.000Z</time>
      </trkpt>
      <trkpt lat="48.4835" lon="-2.84096">
        <ele>103</ele>
        <time>2017-01-05T13:18:42.000Z</time>
      </trkpt>
      <trkpt lat="48.48346" lon="-2.84095">
        <ele>104</ele>
        <time>2017-01-05T13:18:43.000Z</time>
      </trkpt>
      <trkpt lat="48.48342" lon="-2.84095">
        <ele>104</ele>
        <time>2017-01-05T13:18:44.000Z</time>
      </trkpt>
      <trkpt lat="48.48338" lon="-2.84095">
        <ele>104</ele>
        <time>2017-01-05T13:18:45.000Z</time>
      </trkpt>
      <trkpt lat="48.48335" lon="-2.84094">
        <ele>104</ele>
        <time>2017-01-05T13:18:46.000Z</time>
      </trkpt>
      <trkpt lat="48.48331" lon="-2.84094">
        <ele>105</ele>
        <time>2017-01-05T13:18:47.000Z</time>
      </trkpt>
      <trkpt lat="48.48328" lon="-2.84094">
        <ele>106</ele>
        <time>2017-01-05T13:18:48.000Z</time>
      </trkpt>
      <trkpt lat="48.48324" lon="-2.84093">
        <ele>106</ele>
        <time>2017-01-05T13:18:49.000Z</time>
      </trkpt>
      <trkpt lat="48.48321" lon="-2.84093">
        <ele>106</ele>
        <time>2017-01-05T13:18:50.000Z</time>
      </trkpt>
      <trkpt lat="48.48317" lon="-2.84093">
        <ele>106</ele>
        <time>2017-01-05T13:18:51.000Z</time>
      </trkpt>
      <trkpt lat="48.48313" lon="-2.84092">
        <ele>106</ele>
        <time>2017-01-05T13:18:52.000Z</time>
      </trkpt>
      <trkpt lat="48.48309" lon="-2.84092">
        <ele>106</ele>
        <time>2017-01-05T13:18:53.000Z</time>
      </trkpt>
      <trkpt lat="48.48306" lon="-2.84091">
        <ele>107</ele>
        <time>2017-01-05T13:18:54.000Z</time>
      </trkpt>
      <trkpt lat="48.48302" lon="-2.8409">
        <ele>107</ele>
        <time>2017-01-05T13:18:55.000Z</time>
      </trkpt>
      <trkpt lat="48.48298" lon="-2.8409">
        <ele>107</ele>
        <time>2017-01-05T13:18:56.000Z</time>
      </trkpt>
      <trkpt lat="48.48294" lon="-2.84091">
        <ele>107</ele>
        <time>2017-01-05T13:18:57.000Z</time>
      </trkpt>
      <trkpt lat="48.4829" lon="-2.84092">
        <ele>107</ele>
        <time>2017-01-05T13:18:58.000Z</time>
      </trkpt>
      <trkpt lat="48.48286" lon="-2.84092">
        <ele>107</ele>
        <time>2017-01-05T13:18:59.000Z</time>
      </trkpt>
      <trkpt lat="48.48282" lon="-2.84093">
        <ele>107</ele>
        <time>2017-01-05T13:19:00.000Z</time>
      </trkpt>
      <trkpt lat="48.48278" lon="-2.84094">
        <ele>107</ele>
        <time>2017-01-05T13:19:01.000Z</time>
      </trkpt>
      <trkpt lat="48.48275" lon="-2.84095">
        <ele>107</ele>
        <time>2017-01-05T13:19:02.000Z</time>
      </trkpt>
      <trkpt lat="48.48271" lon="-2.84096">
        <ele>107</ele>
        <time>2017-01-05T13:19:03.000Z</time>
      </trkpt>
      <trkpt lat="48.48267" lon="-2.84096">
        <ele>107</ele>
        <time>2017-01-05T13:19:04.000Z</time>
      </trkpt>
      <trkpt lat="48.48263" lon="-2.84097">
        <ele>107</ele>
        <time>2017-01-05T13:19:05.000Z</time>
      </trkpt>
      <trkpt lat="48.48259" lon="-2.84098">
        <ele>106</ele>
        <time>2017-01-05T13:19:06.000Z</time>
      </trkpt>
      <trkpt lat="48.48255" lon="-2.84098">
        <ele>106</ele>
        <time>2017-01-05T13:19:07.000Z</time>
      </trkpt>
      <trkpt lat="48.48247" lon="-2.841">
        <ele>106</ele>
        <time>2017-01-05T13:19:09.000Z</time>
      </trkpt>
      <trkpt lat="48.48244" lon="-2.84102">
        <ele>106</ele>
        <time>2017-01-05T13:19:10.000Z</time>
      </trkpt>
      <trkpt lat="48.4824" lon="-2.84102">
        <ele>106</ele>
        <time>2017-01-05T13:19:11.000Z</time>
      </trkpt>
      <trkpt lat="48.48236" lon="-2.84103">
        <ele>106</ele>
        <time>2017-01-05T13:19:12.000Z</time>
      </trkpt>
      <trkpt lat="48.48232" lon="-2.84105">
        <ele>106</ele>
        <time>2017-01-05T13:19:13.000Z</time>
      </trkpt>
      <trkpt lat="48.48229" lon="-2.84106">
        <ele>106</ele>
        <time>2017-01-05T13:19:14.000Z</time>
      </trkpt>
      <trkpt lat="48.48225" lon="-2.84107">
        <ele>106</ele>
        <time>2017-01-05T13:19:15.000Z</time>
      </trkpt>
      <trkpt lat="48.48221" lon="-2.84108">
        <ele>106</ele>
        <time>2017-01-05T13:19:16.000Z</time>
      </trkpt>
      <trkpt lat="48.48217" lon="-2.84109">
        <ele>106</ele>
        <time>2017-01-05T13:19:17.000Z</time>
      </trkpt>
      <trkpt lat="48.48213" lon="-2.84109">
        <ele>106</ele>
        <time>2017-01-05T13:19:18.000Z</time>
      </trkpt>
      <trkpt lat="48.48209" lon="-2.84109">
        <ele>105</ele>
        <time>2017-01-05T13:19:19.000Z</time>
      </trkpt>
      <trkpt lat="48.48205" lon="-2.84109">
        <ele>105</ele>
        <time>2017-01-05T13:19:20.000Z</time>
      </trkpt>
      <trkpt lat="48.482" lon="-2.8411">
        <ele>105</ele>
        <time>2017-01-05T13:19:21.000Z</time>
      </trkpt>
      <trkpt lat="48.48195" lon="-2.8411">
        <ele>105</ele>
        <time>2017-01-05T13:19:22.000Z</time>
      </trkpt>
      <trkpt lat="48.48191" lon="-2.8411">
        <ele>105</ele>
        <time>2017-01-05T13:19:23.000Z</time>
      </trkpt>
      <trkpt lat="48.48186" lon="-2.84111">
        <ele>105</ele>
        <time>2017-01-05T13:19:24.000Z</time>
      </trkpt>
      <trkpt lat="48.48182" lon="-2.84111">
        <ele>105</ele>
        <time>2017-01-05T13:19:25.000Z</time>
      </trkpt>
      <trkpt lat="48.48177" lon="-2.84113">
        <ele>104</ele>
        <time>2017-01-05T13:19:26.000Z</time>
      </trkpt>
      <trkpt lat="48.48172" lon="-2.84113">
        <ele>104</ele>
        <time>2017-01-05T13:19:27.000Z</time>
      </trkpt>
      <trkpt lat="48.48168" lon="-2.84114">
        <ele>104</ele>
        <time>2017-01-05T13:19:28.000Z</time>
      </trkpt>
      <trkpt lat="48.48163" lon="-2.84115">
        <ele>102</ele>
        <time>2017-01-05T13:19:29.000Z</time>
      </trkpt>
      <trkpt lat="48.48158" lon="-2.84116">
        <ele>102</ele>
        <time>2017-01-05T13:19:30.000Z</time>
      </trkpt>
      <trkpt lat="48.48154" lon="-2.84117">
        <ele>102</ele>
        <time>2017-01-05T13:19:31.000Z</time>
      </trkpt>
      <trkpt lat="48.4815" lon="-2.84117">
        <ele>102</ele>
        <time>2017-01-05T13:19:32.000Z</time>
      </trkpt>
      <trkpt lat="48.48146" lon="-2.84118">
        <ele>102</ele>
        <time>2017-01-05T13:19:33.000Z</time>
      </trkpt>
      <trkpt lat="48.48143" lon="-2.84118">
        <ele>102</ele>
        <time>2017-01-05T13:19:34.000Z</time>
      </trkpt>
      <trkpt lat="48.48139" lon="-2.84118">
        <ele>102</ele>
        <time>2017-01-05T13:19:35.000Z</time>
      </trkpt>
      <trkpt lat="48.48135" lon="-2.84117">
        <ele>102</ele>
        <time>2017-01-05T13:19:36.000Z</time>
      </trkpt>
      <trkpt lat="48.48131" lon="-2.84116">
        <ele>102</ele>
        <time>2017-01-05T13:19:37.000Z</time>
      </trkpt>
      <trkpt lat="48.48128" lon="-2.84116">
        <ele>102</ele>
        <time>2017-01-05T13:19:38.000Z</time>
      </trkpt>
      <trkpt lat="48.48124" lon="-2.84115">
        <ele>102</ele>
        <time>2017-01-05T13:19:39.000Z</time>
      </trkpt>
      <trkpt lat="48.48121" lon="-2.84113">
        <ele>101</ele>
        <time>2017-01-05T13:19:40.000Z</time>
      </trkpt>
      <trkpt lat="48.48118" lon="-2.84113">
        <ele>101</ele>
        <time>2017-01-05T13:19:41.000Z</time>
      </trkpt>
      <trkpt lat="48.48115" lon="-2.84111">
        <ele>101</ele>
        <time>2017-01-05T13:19:42.000Z</time>
      </trkpt>
      <trkpt lat="48.48112" lon="-2.84111">
        <ele>101</ele>
        <time>2017-01-05T13:19:43.000Z</time>
      </trkpt>
      <trkpt lat="48.48108" lon="-2.8411">
        <ele>101</ele>
        <time>2017-01-05T13:19:44.000Z</time>
      </trkpt>
      <trkpt lat="48.48105" lon="-2.84109">
        <ele>101</ele>
        <time>2017-01-05T13:19:45.000Z</time>
      </trkpt>
      <trkpt lat="48.48102" lon="-2.84108">
        <ele>101</ele>
        <time>2017-01-05T13:19:46.000Z</time>
      </trkpt>
      <trkpt lat="48.48099" lon="-2.84107">
        <ele>100</ele>
        <time>2017-01-05T13:19:47.000Z</time>
      </trkpt>
      <trkpt lat="48.48096" lon="-2.84107">
        <ele>100</ele>
        <time>2017-01-05T13:19:48.000Z</time>
      </trkpt>
      <trkpt lat="48.48093" lon="-2.84108">
        <ele>100</ele>
        <time>2017-01-05T13:19:49.000Z</time>
      </trkpt>
      <trkpt lat="48.48089" lon="-2.84112">
        <ele>100</ele>
        <time>2017-01-05T13:19:50.000Z</time>
      </trkpt>
      <trkpt lat="48.48086" lon="-2.84116">
        <ele>101</ele>
        <time>2017-01-05T13:19:51.000Z</time>
      </trkpt>
      <trkpt lat="48.48084" lon="-2.84121">
        <ele>101</ele>
        <time>2017-01-05T13:19:52.000Z</time>
      </trkpt>
      <trkpt lat="48.48081" lon="-2.84126">
        <ele>99</ele>
        <time>2017-01-05T13:19:53.000Z</time>
      </trkpt>
      <trkpt lat="48.48079" lon="-2.84132">
        <ele>100</ele>
        <time>2017-01-05T13:19:54.000Z</time>
      </trkpt>
      <trkpt lat="48.48077" lon="-2.84139">
        <ele>100</ele>
        <time>2017-01-05T13:19:55.000Z</time>
      </trkpt>
      <trkpt lat="48.48074" lon="-2.84145">
        <ele>100</ele>
        <time>2017-01-05T13:19:56.000Z</time>
      </trkpt>
      <trkpt lat="48.48071" lon="-2.84152">
        <ele>101</ele>
        <time>2017-01-05T13:19:57.000Z</time>
      </trkpt>
      <trkpt lat="48.48068" lon="-2.84157">
        <ele>101</ele>
        <time>2017-01-05T13:19:58.000Z</time>
      </trkpt>
      <trkpt lat="48.48064" lon="-2.84163">
        <ele>101</ele>
        <time>2017-01-05T13:19:59.000Z</time>
      </trkpt>
      <trkpt lat="48.48061" lon="-2.84167">
        <ele>104</ele>
        <time>2017-01-05T13:20:00.000Z</time>
      </trkpt>
      <trkpt lat="48.48059" lon="-2.84172">
        <ele>104</ele>
        <time>2017-01-05T13:20:01.000Z</time>
      </trkpt>
      <trkpt lat="48.48057" lon="-2.84177">
        <ele>104</ele>
        <time>2017-01-05T13:20:02.000Z</time>
      </trkpt>
      <trkpt lat="48.48056" lon="-2.84181">
        <ele>105</ele>
        <time>2017-01-05T13:20:03.000Z</time>
      </trkpt>
      <trkpt lat="48.48055" lon="-2.84186">
        <ele>105</ele>
        <time>2017-01-05T13:20:04.000Z</time>
      </trkpt>
      <trkpt lat="48.48055" lon="-2.84191">
        <ele>105</ele>
        <time>2017-01-05T13:20:05.000Z</time>
      </trkpt>
      <trkpt lat="48.48056" lon="-2.84194">
        <ele>105</ele>
        <time>2017-01-05T13:20:06.000Z</time>
      </trkpt>
      <trkpt lat="48.48056" lon="-2.84198">
        <ele>105</ele>
        <time>2017-01-05T13:20:07.000Z</time>
      </trkpt>
      <trkpt lat="48.48056" lon="-2.84202">
        <ele>105</ele>
        <time>2017-01-05T13:20:08.000Z</time>
      </trkpt>
      <trkpt lat="48.48057" lon="-2.84205">
        <ele>105</ele>
        <time>2017-01-05T13:20:09.000Z</time>
      </trkpt>
      <trkpt lat="48.48058" lon="-2.84208">
        <ele>106</ele>
        <time>2017-01-05T13:20:10.000Z</time>
      </trkpt>
      <trkpt lat="48.48059" lon="-2.84211">
        <ele>106</ele>
        <time>2017-01-05T13:20:11.000Z</time>
      </trkpt>
      <trkpt lat="48.48059" lon="-2.84215">
        <ele>106</ele>
        <time>2017-01-05T13:20:12.000Z</time>
      </trkpt>
      <trkpt lat="48.48059" lon="-2.84218">
        <ele>106</ele>
        <time>2017-01-05T13:20:13.000Z</time>
      </trkpt>
      <trkpt lat="48.48059" lon="-2.84222">
        <ele>106</ele>
        <time>2017-01-05T13:20:14.000Z</time>
      </trkpt>
      <trkpt lat="48.4806" lon="-2.84225">
        <ele>106</ele>
        <time>2017-01-05T13:20:15.000Z</time>
      </trkpt>
      <trkpt lat="48.4806" lon="-2.84228">
        <ele>106</ele>
        <time>2017-01-05T13:20:16.000Z</time>
      </trkpt>
      <trkpt lat="48.48061" lon="-2.84233">
        <ele>107</ele>
        <time>2017-01-05T13:20:17.000Z</time>
      </trkpt>
      <trkpt lat="48.48062" lon="-2.84237">
        <ele>107</ele>
        <time>2017-01-05T13:20:18.000Z</time>
      </trkpt>
      <trkpt lat="48.48063" lon="-2.84241">
        <ele>107</ele>
        <time>2017-01-05T13:20:19.000Z</time>
      </trkpt>
      <trkpt lat="48.48064" lon="-2.84244">
        <ele>107</ele>
        <time>2017-01-05T13:20:20.000Z</time>
      </trkpt>
      <trkpt lat="48.48065" lon="-2.84248">
        <ele>107</ele>
        <time>2017-01-05T13:20:21.000Z</time>
      </trkpt>
      <trkpt lat="48.48065" lon="-2.84251">
        <ele>110</ele>
        <time>2017-01-05T13:20:22.000Z</time>
      </trkpt>
      <trkpt lat="48.48065" lon="-2.84254">
        <ele>110</ele>
        <time>2017-01-05T13:20:23.000Z</time>
      </trkpt>
      <trkpt lat="48.48066" lon="-2.84258">
        <ele>110</ele>
        <time>2017-01-05T13:20:24.000Z</time>
      </trkpt>
      <trkpt lat="48.48067" lon="-2.84262">
        <ele>110</ele>
        <time>2017-01-05T13:20:25.000Z</time>
      </trkpt>
      <trkpt lat="48.48068" lon="-2.84265">
        <ele>110</ele>
        <time>2017-01-05T13:20:26.000Z</time>
      </trkpt>
      <trkpt lat="48.48069" lon="-2.84268">
        <ele>110</ele>
        <time>2017-01-05T13:20:27.000Z</time>
      </trkpt>
      <trkpt lat="48.4807" lon="-2.84271">
        <ele>110</ele>
        <time>2017-01-05T13:20:28.000Z</time>
      </trkpt>
      <trkpt lat="48.48071" lon="-2.84276">
        <ele>111</ele>
        <time>2017-01-05T13:20:29.000Z</time>
      </trkpt>
      <trkpt lat="48.48072" lon="-2.8428">
        <ele>111</ele>
        <time>2017-01-05T13:20:30.000Z</time>
      </trkpt>
      <trkpt lat="48.48073" lon="-2.84283">
        <ele>111</ele>
        <time>2017-01-05T13:20:31.000Z</time>
      </trkpt>
      <trkpt lat="48.48074" lon="-2.84287">
        <ele>111</ele>
        <time>2017-01-05T13:20:32.000Z</time>
      </trkpt>
      <trkpt lat="48.48074" lon="-2.84291">
        <ele>111</ele>
        <time>2017-01-05T13:20:33.000Z</time>
      </trkpt>
      <trkpt lat="48.48074" lon="-2.84295">
        <ele>111</ele>
        <time>2017-01-05T13:20:34.000Z</time>
      </trkpt>
      <trkpt lat="48.48075" lon="-2.84299">
        <ele>112</ele>
        <time>2017-01-05T13:20:35.000Z</time>
      </trkpt>
      <trkpt lat="48.48075" lon="-2.84303">
        <ele>112</ele>
        <time>2017-01-05T13:20:36.000Z</time>
      </trkpt>
      <trkpt lat="48.48075" lon="-2.84307">
        <ele>112</ele>
        <time>2017-01-05T13:20:37.000Z</time>
      </trkpt>
      <trkpt lat="48.48075" lon="-2.84311">
        <ele>112</ele>
        <time>2017-01-05T13:20:38.000Z</time>
      </trkpt>
      <trkpt lat="48.48075" lon="-2.84316">
        <ele>112</ele>
        <time>2017-01-05T13:20:39.000Z</time>
      </trkpt>
      <trkpt lat="48.48075" lon="-2.8432">
        <ele>113</ele>
        <time>2017-01-05T13:20:40.000Z</time>
      </trkpt>
      <trkpt lat="48.48076" lon="-2.84324">
        <ele>113</ele>
        <time>2017-01-05T13:20:41.000Z</time>
      </trkpt>
      <trkpt lat="48.48075" lon="-2.84328">
        <ele>113</ele>
        <time>2017-01-05T13:20:42.000Z</time>
      </trkpt>
      <trkpt lat="48.48075" lon="-2.84332">
        <ele>113</ele>
        <time>2017-01-05T13:20:43.000Z</time>
      </trkpt>
      <trkpt lat="48.48075" lon="-2.84336">
        <ele>115</ele>
        <time>2017-01-05T13:20:44.000Z</time>
      </trkpt>
      <trkpt lat="48.48075" lon="-2.8434">
        <ele>115</ele>
        <time>2017-01-05T13:20:45.000Z</time>
      </trkpt>
      <trkpt lat="48.48075" lon="-2.84344">
        <ele>115</ele>
        <time>2017-01-05T13:20:46.000Z</time>
      </trkpt>
      <trkpt lat="48.48075" lon="-2.84348">
        <ele>115</ele>
        <time>2017-01-05T13:20:47.000Z</time>
      </trkpt>
      <trkpt lat="48.48075" lon="-2.84352">
        <ele>115</ele>
        <time>2017-01-05T13:20:48.000Z</time>
      </trkpt>
      <trkpt lat="48.48075" lon="-2.84356">
        <ele>116</ele>
        <time>2017-01-05T13:20:49.000Z</time>
      </trkpt>
      <trkpt lat="48.48075" lon="-2.8436">
        <ele>116</ele>
        <time>2017-01-05T13:20:50.000Z</time>
      </trkpt>
      <trkpt lat="48.48075" lon="-2.84364">
        <ele>116</ele>
        <time>2017-01-05T13:20:51.000Z</time>
      </trkpt>
      <trkpt lat="48.48074" lon="-2.84368">
        <ele>116</ele>
        <time>2017-01-05T13:20:52.000Z</time>
      </trkpt>
      <trkpt lat="48.48074" lon="-2.84372">
        <ele>116</ele>
        <time>2017-01-05T13:20:53.000Z</time>
      </trkpt>
      <trkpt lat="48.48074" lon="-2.84376">
        <ele>116</ele>
        <time>2017-01-05T13:20:54.000Z</time>
      </trkpt>
      <trkpt lat="48.48074" lon="-2.84379">
        <ele>116</ele>
        <time>2017-01-05T13:20:55.000Z</time>
      </trkpt>
      <trkpt lat="48.48074" lon="-2.84384">
        <ele>117</ele>
        <time>2017-01-05T13:20:56.000Z</time>
      </trkpt>
      <trkpt lat="48.48073" lon="-2.84388">
        <ele>117</ele>
        <time>2017-01-05T13:20:57.000Z</time>
      </trkpt>
      <trkpt lat="48.48073" lon="-2.84391">
        <ele>117</ele>
        <time>2017-01-05T13:20:58.000Z</time>
      </trkpt>
      <trkpt lat="48.48073" lon="-2.84395">
        <ele>117</ele>
        <time>2017-01-05T13:20:59.000Z</time>
      </trkpt>
      <trkpt lat="48.48072" lon="-2.844">
        <ele>117</ele>
        <time>2017-01-05T13:21:00.000Z</time>
      </trkpt>
      <trkpt lat="48.48072" lon="-2.84404">
        <ele>117</ele>
        <time>2017-01-05T13:21:01.000Z</time>
      </trkpt>
      <trkpt lat="48.48072" lon="-2.84408">
        <ele>117</ele>
        <time>2017-01-05T13:21:02.000Z</time>
      </trkpt>
      <trkpt lat="48.48072" lon="-2.84411">
        <ele>117</ele>
        <time>2017-01-05T13:21:03.000Z</time>
      </trkpt>
      <trkpt lat="48.48071" lon="-2.84415">
        <ele>118</ele>
        <time>2017-01-05T13:21:04.000Z</time>
      </trkpt>
      <trkpt lat="48.48071" lon="-2.84419">
        <ele>119</ele>
        <time>2017-01-05T13:21:05.000Z</time>
      </trkpt>
      <trkpt lat="48.48071" lon="-2.84423">
        <ele>119</ele>
        <time>2017-01-05T13:21:06.000Z</time>
      </trkpt>
      <trkpt lat="48.48072" lon="-2.84427">
        <ele>119</ele>
        <time>2017-01-05T13:21:07.000Z</time>
      </trkpt>
      <trkpt lat="48.48071" lon="-2.84432">
        <ele>119</ele>
        <time>2017-01-05T13:21:08.000Z</time>
      </trkpt>
      <trkpt lat="48.48071" lon="-2.84436">
        <ele>120</ele>
        <time>2017-01-05T13:21:09.000Z</time>
      </trkpt>
      <trkpt lat="48.48071" lon="-2.8444">
        <ele>120</ele>
        <time>2017-01-05T13:21:10.000Z</time>
      </trkpt>
      <trkpt lat="48.4807" lon="-2.84444">
        <ele>120</ele>
        <time>2017-01-05T13:21:11.000Z</time>
      </trkpt>
      <trkpt lat="48.48069" lon="-2.84449">
        <ele>120</ele>
        <time>2017-01-05T13:21:12.000Z</time>
      </trkpt>
      <trkpt lat="48.48069" lon="-2.84453">
        <ele>120</ele>
        <time>2017-01-05T13:21:13.000Z</time>
      </trkpt>
      <trkpt lat="48.48068" lon="-2.84457">
        <ele>120</ele>
        <time>2017-01-05T13:21:14.000Z</time>
      </trkpt>
      <trkpt lat="48.48067" lon="-2.84461">
        <ele>121</ele>
        <time>2017-01-05T13:21:15.000Z</time>
      </trkpt>
      <trkpt lat="48.48066" lon="-2.84464">
        <ele>121</ele>
        <time>2017-01-05T13:21:16.000Z</time>
      </trkpt>
      <trkpt lat="48.48065" lon="-2.84468">
        <ele>121</ele>
        <time>2017-01-05T13:21:17.000Z</time>
      </trkpt>
      <trkpt lat="48.48065" lon="-2.84472">
        <ele>121</ele>
        <time>2017-01-05T13:21:18.000Z</time>
      </trkpt>
      <trkpt lat="48.48064" lon="-2.84475">
        <ele>121</ele>
        <time>2017-01-05T13:21:19.000Z</time>
      </trkpt>
      <trkpt lat="48.48064" lon="-2.84479">
        <ele>121</ele>
        <time>2017-01-05T13:21:20.000Z</time>
      </trkpt>
      <trkpt lat="48.48063" lon="-2.84482">
        <ele>121</ele>
        <time>2017-01-05T13:21:21.000Z</time>
      </trkpt>
      <trkpt lat="48.48062" lon="-2.84486">
        <ele>121</ele>
        <time>2017-01-05T13:21:22.000Z</time>
      </trkpt>
      <trkpt lat="48.48062" lon="-2.84489">
        <ele>121</ele>
        <time>2017-01-05T13:21:23.000Z</time>
      </trkpt>
      <trkpt lat="48.48061" lon="-2.84493">
        <ele>121</ele>
        <time>2017-01-05T13:21:24.000Z</time>
      </trkpt>
      <trkpt lat="48.48061" lon="-2.84497">
        <ele>121</ele>
        <time>2017-01-05T13:21:25.000Z</time>
      </trkpt>
      <trkpt lat="48.4806" lon="-2.845">
        <ele>123</ele>
        <time>2017-01-05T13:21:26.000Z</time>
      </trkpt>
      <trkpt lat="48.48059" lon="-2.84504">
        <ele>123</ele>
        <time>2017-01-05T13:21:27.000Z</time>
      </trkpt>
      <trkpt lat="48.48059" lon="-2.84508">
        <ele>123</ele>
        <time>2017-01-05T13:21:28.000Z</time>
      </trkpt>
      <trkpt lat="48.48058" lon="-2.84511">
        <ele>123</ele>
        <time>2017-01-05T13:21:29.000Z</time>
      </trkpt>
      <trkpt lat="48.48058" lon="-2.84515">
        <ele>123</ele>
        <time>2017-01-05T13:21:30.000Z</time>
      </trkpt>
      <trkpt lat="48.48057" lon="-2.84518">
        <ele>123</ele>
        <time>2017-01-05T13:21:31.000Z</time>
      </trkpt>
      <trkpt lat="48.48057" lon="-2.84522">
        <ele>123</ele>
        <time>2017-01-05T13:21:32.000Z</time>
      </trkpt>
      <trkpt lat="48.48057" lon="-2.84526">
        <ele>123</ele>
        <time>2017-01-05T13:21:33.000Z</time>
      </trkpt>
      <trkpt lat="48.48057" lon="-2.84529">
        <ele>123</ele>
        <time>2017-01-05T13:21:34.000Z</time>
      </trkpt>
      <trkpt lat="48.48057" lon="-2.84533">
        <ele>124</ele>
        <time>2017-01-05T13:21:35.000Z</time>
      </trkpt>
      <trkpt lat="48.48058" lon="-2.84537">
        <ele>124</ele>
        <time>2017-01-05T13:21:36.000Z</time>
      </trkpt>
      <trkpt lat="48.48058" lon="-2.84541">
        <ele>124</ele>
        <time>2017-01-05T13:21:37.000Z</time>
      </trkpt>
      <trkpt lat="48.48059" lon="-2.84544">
        <ele>124</ele>
        <time>2017-01-05T13:21:38.000Z</time>
      </trkpt>
      <trkpt lat="48.48059" lon="-2.84547">
        <ele>124</ele>
        <time>2017-01-05T13:21:39.000Z</time>
      </trkpt>
      <trkpt lat="48.4806" lon="-2.84551">
        <ele>124</ele>
        <time>2017-01-05T13:21:40.000Z</time>
      </trkpt>
      <trkpt lat="48.48061" lon="-2.84554">
        <ele>124</ele>
        <time>2017-01-05T13:21:41.000Z</time>
      </trkpt>
      <trkpt lat="48.48061" lon="-2.84557">
        <ele>124</ele>
        <time>2017-01-05T13:21:42.000Z</time>
      </trkpt>
      <trkpt lat="48.48061" lon="-2.8456">
        <ele>124</ele>
        <time>2017-01-05T13:21:43.000Z</time>
      </trkpt>
      <trkpt lat="48.48062" lon="-2.84563">
        <ele>124</ele>
        <time>2017-01-05T13:21:44.000Z</time>
      </trkpt>
      <trkpt lat="48.48062" lon="-2.84567">
        <ele>124</ele>
        <time>2017-01-05T13:21:45.000Z</time>
      </trkpt>
      <trkpt lat="48.48062" lon="-2.8457">
        <ele>124</ele>
        <time>2017-01-05T13:21:46.000Z</time>
      </trkpt>
      <trkpt lat="48.48062" lon="-2.84574">
        <ele>124</ele>
        <time>2017-01-05T13:21:47.000Z</time>
      </trkpt>
      <trkpt lat="48.48061" lon="-2.84578">
        <ele>124</ele>
        <time>2017-01-05T13:21:48.000Z</time>
      </trkpt>
      <trkpt lat="48.48061" lon="-2.84582">
        <ele>124</ele>
        <time>2017-01-05T13:21:49.000Z</time>
      </trkpt>
      <trkpt lat="48.48061" lon="-2.84586">
        <ele>126</ele>
        <time>2017-01-05T13:21:50.000Z</time>
      </trkpt>
      <trkpt lat="48.48061" lon="-2.84589">
        <ele>126</ele>
        <time>2017-01-05T13:21:51.000Z</time>
      </trkpt>
      <trkpt lat="48.48061" lon="-2.84593">
        <ele>126</ele>
        <time>2017-01-05T13:21:52.000Z</time>
      </trkpt>
      <trkpt lat="48.48061" lon="-2.84597">
        <ele>126</ele>
        <time>2017-01-05T13:21:53.000Z</time>
      </trkpt>
      <trkpt lat="48.4806" lon="-2.84601">
        <ele>126</ele>
        <time>2017-01-05T13:21:54.000Z</time>
      </trkpt>
      <trkpt lat="48.4806" lon="-2.84604">
        <ele>126</ele>
        <time>2017-01-05T13:21:55.000Z</time>
      </trkpt>
      <trkpt lat="48.48059" lon="-2.84608">
        <ele>126</ele>
        <time>2017-01-05T13:21:56.000Z</time>
      </trkpt>
      <trkpt lat="48.48058" lon="-2.84611">
        <ele>126</ele>
        <time>2017-01-05T13:21:57.000Z</time>
      </trkpt>
      <trkpt lat="48.48058" lon="-2.84615">
        <ele>127</ele>
        <time>2017-01-05T13:21:58.000Z</time>
      </trkpt>
      <trkpt lat="48.48057" lon="-2.84619">
        <ele>127</ele>
        <time>2017-01-05T13:21:59.000Z</time>
      </trkpt>
      <trkpt lat="48.48056" lon="-2.84622">
        <ele>127</ele>
        <time>2017-01-05T13:22:00.000Z</time>
      </trkpt>
      <trkpt lat="48.48054" lon="-2.84625">
        <ele>127</ele>
        <time>2017-01-05T13:22:01.000Z</time>
      </trkpt>
      <trkpt lat="48.48053" lon="-2.84628">
        <ele>127</ele>
        <time>2017-01-05T13:22:02.000Z</time>
      </trkpt>
      <trkpt lat="48.48051" lon="-2.84631">
        <ele>127</ele>
        <time>2017-01-05T13:22:03.000Z</time>
      </trkpt>
      <trkpt lat="48.48049" lon="-2.84635">
        <ele>127</ele>
        <time>2017-01-05T13:22:04.000Z</time>
      </trkpt>
      <trkpt lat="48.48047" lon="-2.84638">
        <ele>127</ele>
        <time>2017-01-05T13:22:05.000Z</time>
      </trkpt>
      <trkpt lat="48.48046" lon="-2.8464">
        <ele>127</ele>
        <time>2017-01-05T13:22:06.000Z</time>
      </trkpt>
      <trkpt lat="48.48044" lon="-2.84643">
        <ele>127</ele>
        <time>2017-01-05T13:22:07.000Z</time>
      </trkpt>
      <trkpt lat="48.48042" lon="-2.84646">
        <ele>127</ele>
        <time>2017-01-05T13:22:08.000Z</time>
      </trkpt>
      <trkpt lat="48.4804" lon="-2.84649">
        <ele>127</ele>
        <time>2017-01-05T13:22:09.000Z</time>
      </trkpt>
      <trkpt lat="48.48039" lon="-2.84651">
        <ele>127</ele>
        <time>2017-01-05T13:22:10.000Z</time>
      </trkpt>
      <trkpt lat="48.48037" lon="-2.84654">
        <ele>127</ele>
        <time>2017-01-05T13:22:11.000Z</time>
      </trkpt>
      <trkpt lat="48.48035" lon="-2.84657">
        <ele>127</ele>
        <time>2017-01-05T13:22:12.000Z</time>
      </trkpt>
      <trkpt lat="48.48034" lon="-2.8466">
        <ele>127</ele>
        <time>2017-01-05T13:22:13.000Z</time>
      </trkpt>
      <trkpt lat="48.48032" lon="-2.84664">
        <ele>127</ele>
        <time>2017-01-05T13:22:14.000Z</time>
      </trkpt>
      <trkpt lat="48.48031" lon="-2.84667">
        <ele>130</ele>
        <time>2017-01-05T13:22:15.000Z</time>
      </trkpt>
      <trkpt lat="48.48029" lon="-2.8467">
        <ele>130</ele>
        <time>2017-01-05T13:22:16.000Z</time>
      </trkpt>
      <trkpt lat="48.48028" lon="-2.84673">
        <ele>130</ele>
        <time>2017-01-05T13:22:17.000Z</time>
      </trkpt>
      <trkpt lat="48.48026" lon="-2.84676">
        <ele>130</ele>
        <time>2017-01-05T13:22:18.000Z</time>
      </trkpt>
      <trkpt lat="48.48025" lon="-2.8468">
        <ele>130</ele>
        <time>2017-01-05T13:22:19.000Z</time>
      </trkpt>
      <trkpt lat="48.48024" lon="-2.84683">
        <ele>130</ele>
        <time>2017-01-05T13:22:20.000Z</time>
      </trkpt>
      <trkpt lat="48.48023" lon="-2.84687">
        <ele>130</ele>
        <time>2017-01-05T13:22:21.000Z</time>
      </trkpt>
      <trkpt lat="48.48021" lon="-2.84691">
        <ele>130</ele>
        <time>2017-01-05T13:22:22.000Z</time>
      </trkpt>
      <trkpt lat="48.4802" lon="-2.84694">
        <ele>130</ele>
        <time>2017-01-05T13:22:23.000Z</time>
      </trkpt>
      <trkpt lat="48.48019" lon="-2.84698">
        <ele>130</ele>
        <time>2017-01-05T13:22:24.000Z</time>
      </trkpt>
      <trkpt lat="48.48018" lon="-2.84701">
        <ele>130</ele>
        <time>2017-01-05T13:22:25.000Z</time>
      </trkpt>
      <trkpt lat="48.48017" lon="-2.84705">
        <ele>130</ele>
        <time>2017-01-05T13:22:26.000Z</time>
      </trkpt>
      <trkpt lat="48.48015" lon="-2.84708">
        <ele>130</ele>
        <time>2017-01-05T13:22:27.000Z</time>
      </trkpt>
      <trkpt lat="48.48014" lon="-2.84712">
        <ele>131</ele>
        <time>2017-01-05T13:22:28.000Z</time>
      </trkpt>
      <trkpt lat="48.48013" lon="-2.84715">
        <ele>131</ele>
        <time>2017-01-05T13:22:29.000Z</time>
      </trkpt>
      <trkpt lat="48.48012" lon="-2.84719">
        <ele>131</ele>
        <time>2017-01-05T13:22:30.000Z</time>
      </trkpt>
      <trkpt lat="48.48011" lon="-2.84722">
        <ele>131</ele>
        <time>2017-01-05T13:22:31.000Z</time>
      </trkpt>
      <trkpt lat="48.4801" lon="-2.84726">
        <ele>131</ele>
        <time>2017-01-05T13:22:32.000Z</time>
      </trkpt>
      <trkpt lat="48.4801" lon="-2.84729">
        <ele>131</ele>
        <time>2017-01-05T13:22:33.000Z</time>
      </trkpt>
      <trkpt lat="48.48009" lon="-2.84733">
        <ele>132</ele>
        <time>2017-01-05T13:22:34.000Z</time>
      </trkpt>
      <trkpt lat="48.48008" lon="-2.84736">
        <ele>132</ele>
        <time>2017-01-05T13:22:35.000Z</time>
      </trkpt>
      <trkpt lat="48.48007" lon="-2.8474">
        <ele>132</ele>
        <time>2017-01-05T13:22:36.000Z</time>
      </trkpt>
      <trkpt lat="48.48006" lon="-2.84744">
        <ele>132</ele>
        <time>2017-01-05T13:22:37.000Z</time>
      </trkpt>
      <trkpt lat="48.48006" lon="-2.84747">
        <ele>132</ele>
        <time>2017-01-05T13:22:38.000Z</time>
      </trkpt>
      <trkpt lat="48.48005" lon="-2.84751">
        <ele>133</ele>
        <time>2017-01-05T13:22:39.000Z</time>
      </trkpt>
      <trkpt lat="48.48004" lon="-2.84759">
        <ele>134</ele>
        <time>2017-01-05T13:22:41.000Z</time>
      </trkpt>
      <trkpt lat="48.48003" lon="-2.84763">
        <ele>134</ele>
        <time>2017-01-05T13:22:42.000Z</time>
      </trkpt>
      <trkpt lat="48.48002" lon="-2.84766">
        <ele>134</ele>
        <time>2017-01-05T13:22:43.000Z</time>
      </trkpt>
      <trkpt lat="48.48001" lon="-2.8477">
        <ele>134</ele>
        <time>2017-01-05T13:22:44.000Z</time>
      </trkpt>
      <trkpt lat="48.48" lon="-2.84774">
        <ele>135</ele>
        <time>2017-01-05T13:22:45.000Z</time>
      </trkpt>
      <trkpt lat="48.48" lon="-2.84777">
        <ele>135</ele>
        <time>2017-01-05T13:22:46.000Z</time>
      </trkpt>
      <trkpt lat="48.47999" lon="-2.84781">
        <ele>135</ele>
        <time>2017-01-05T13:22:47.000Z</time>
      </trkpt>
      <trkpt lat="48.47998" lon="-2.84784">
        <ele>136</ele>
        <time>2017-01-05T13:22:48.000Z</time>
      </trkpt>
      <trkpt lat="48.47997" lon="-2.84788">
        <ele>136</ele>
        <time>2017-01-05T13:22:49.000Z</time>
      </trkpt>
      <trkpt lat="48.47996" lon="-2.84791">
        <ele>136</ele>
        <time>2017-01-05T13:22:50.000Z</time>
      </trkpt>
      <trkpt lat="48.47995" lon="-2.84795">
        <ele>136</ele>
        <time>2017-01-05T13:22:51.000Z</time>
      </trkpt>
      <trkpt lat="48.47994" lon="-2.84799">
        <ele>136</ele>
        <time>2017-01-05T13:22:52.000Z</time>
      </trkpt>
      <trkpt lat="48.47993" lon="-2.84802">
        <ele>137</ele>
        <time>2017-01-05T13:22:53.000Z</time>
      </trkpt>
      <trkpt lat="48.47992" lon="-2.84806">
        <ele>137</ele>
        <time>2017-01-05T13:22:54.000Z</time>
      </trkpt>
      <trkpt lat="48.47992" lon="-2.8481">
        <ele>137</ele>
        <time>2017-01-05T13:22:55.000Z</time>
      </trkpt>
      <trkpt lat="48.47991" lon="-2.84813">
        <ele>137</ele>
        <time>2017-01-05T13:22:56.000Z</time>
      </trkpt>
      <trkpt lat="48.4799" lon="-2.84817">
        <ele>137</ele>
        <time>2017-01-05T13:22:57.000Z</time>
      </trkpt>
      <trkpt lat="48.4799" lon="-2.8482">
        <ele>138</ele>
        <time>2017-01-05T13:22:58.000Z</time>
      </trkpt>
      <trkpt lat="48.47989" lon="-2.84824">
        <ele>138</ele>
        <time>2017-01-05T13:22:59.000Z</time>
      </trkpt>
      <trkpt lat="48.47988" lon="-2.84827">
        <ele>138</ele>
        <time>2017-01-05T13:23:00.000Z</time>
      </trkpt>
      <trkpt lat="48.47987" lon="-2.8483">
        <ele>138</ele>
        <time>2017-01-05T13:23:01.000Z</time>
      </trkpt>
      <trkpt lat="48.47986" lon="-2.84834">
        <ele>140</ele>
        <time>2017-01-05T13:23:02.000Z</time>
      </trkpt>
      <trkpt lat="48.47986" lon="-2.84837">
        <ele>140</ele>
        <time>2017-01-05T13:23:03.000Z</time>
      </trkpt>
      <trkpt lat="48.47985" lon="-2.84841">
        <ele>140</ele>
        <time>2017-01-05T13:23:04.000Z</time>
      </trkpt>
      <trkpt lat="48.47984" lon="-2.84844">
        <ele>141</ele>
        <time>2017-01-05T13:23:05.000Z</time>
      </trkpt>
      <trkpt lat="48.47983" lon="-2.84848">
        <ele>141</ele>
        <time>2017-01-05T13:23:06.000Z</time>
      </trkpt>
      <trkpt lat="48.47983" lon="-2.84851">
        <ele>141</ele>
        <time>2017-01-05T13:23:07.000Z</time>
      </trkpt>
      <trkpt lat="48.47982" lon="-2.84855">
        <ele>141</ele>
        <time>2017-01-05T13:23:08.000Z</time>
      </trkpt>
      <trkpt lat="48.47981" lon="-2.84858">
        <ele>141</ele>
        <time>2017-01-05T13:23:09.000Z</time>
      </trkpt>
      <trkpt lat="48.4798" lon="-2.84861">
        <ele>141</ele>
        <time>2017-01-05T13:23:10.000Z</time>
      </trkpt>
      <trkpt lat="48.47979" lon="-2.84865">
        <ele>141</ele>
        <time>2017-01-05T13:23:11.000Z</time>
      </trkpt>
      <trkpt lat="48.47978" lon="-2.84868">
        <ele>142</ele>
        <time>2017-01-05T13:23:12.000Z</time>
      </trkpt>
      <trkpt lat="48.47977" lon="-2.84871">
        <ele>142</ele>
        <time>2017-01-05T13:23:13.000Z</time>
      </trkpt>
      <trkpt lat="48.47976" lon="-2.84875">
        <ele>142</ele>
        <time>2017-01-05T13:23:14.000Z</time>
      </trkpt>
      <trkpt lat="48.47975" lon="-2.84878">
        <ele>142</ele>
        <time>2017-01-05T13:23:15.000Z</time>
      </trkpt>
      <trkpt lat="48.47974" lon="-2.84881">
        <ele>142</ele>
        <time>2017-01-05T13:23:16.000Z</time>
      </trkpt>
      <trkpt lat="48.47973" lon="-2.84884">
        <ele>142</ele>
        <time>2017-01-05T13:23:17.000Z</time>
      </trkpt>
      <trkpt lat="48.47972" lon="-2.84888">
        <ele>142</ele>
        <time>2017-01-05T13:23:18.000Z</time>
      </trkpt>
      <trkpt lat="48.47971" lon="-2.84892">
        <ele>142</ele>
        <time>2017-01-05T13:23:19.000Z</time>
      </trkpt>
      <trkpt lat="48.47969" lon="-2.84895">
        <ele>143</ele>
        <time>2017-01-05T13:23:20.000Z</time>
      </trkpt>
      <trkpt lat="48.47968" lon="-2.84899">
        <ele>143</ele>
        <time>2017-01-05T13:23:21.000Z</time>
      </trkpt>
      <trkpt lat="48.47966" lon="-2.84902">
        <ele>143</ele>
        <time>2017-01-05T13:23:22.000Z</time>
      </trkpt>
      <trkpt lat="48.47965" lon="-2.84905">
        <ele>143</ele>
        <time>2017-01-05T13:23:23.000Z</time>
      </trkpt>
      <trkpt lat="48.47963" lon="-2.84908">
        <ele>143</ele>
        <time>2017-01-05T13:23:24.000Z</time>
      </trkpt>
      <trkpt lat="48.47962" lon="-2.84911">
        <ele>143</ele>
        <time>2017-01-05T13:23:25.000Z</time>
      </trkpt>
      <trkpt lat="48.47961" lon="-2.84915">
        <ele>143</ele>
        <time>2017-01-05T13:23:26.000Z</time>
      </trkpt>
      <trkpt lat="48.47959" lon="-2.84918">
        <ele>146</ele>
        <time>2017-01-05T13:23:27.000Z</time>
      </trkpt>
      <trkpt lat="48.47958" lon="-2.84921">
        <ele>146</ele>
        <time>2017-01-05T13:23:28.000Z</time>
      </trkpt>
      <trkpt lat="48.47957" lon="-2.84924">
        <ele>146</ele>
        <time>2017-01-05T13:23:29.000Z</time>
      </trkpt>
      <trkpt lat="48.47955" lon="-2.84928">
        <ele>146</ele>
        <time>2017-01-05T13:23:30.000Z</time>
      </trkpt>
      <trkpt lat="48.47954" lon="-2.84931">
        <ele>146</ele>
        <time>2017-01-05T13:23:31.000Z</time>
      </trkpt>
      <trkpt lat="48.47953" lon="-2.84935">
        <ele>146</ele>
        <time>2017-01-05T13:23:32.000Z</time>
      </trkpt>
      <trkpt lat="48.47951" lon="-2.84938">
        <ele>146</ele>
        <time>2017-01-05T13:23:33.000Z</time>
      </trkpt>
      <trkpt lat="48.4795" lon="-2.84942">
        <ele>146</ele>
        <time>2017-01-05T13:23:34.000Z</time>
      </trkpt>
      <trkpt lat="48.47949" lon="-2.84945">
        <ele>146</ele>
        <time>2017-01-05T13:23:35.000Z</time>
      </trkpt>
      <trkpt lat="48.47947" lon="-2.84948">
        <ele>146</ele>
        <time>2017-01-05T13:23:36.000Z</time>
      </trkpt>
      <trkpt lat="48.47946" lon="-2.84951">
        <ele>146</ele>
        <time>2017-01-05T13:23:37.000Z</time>
      </trkpt>
      <trkpt lat="48.47945" lon="-2.84955">
        <ele>146</ele>
        <time>2017-01-05T13:23:38.000Z</time>
      </trkpt>
      <trkpt lat="48.47944" lon="-2.84958">
        <ele>146</ele>
        <time>2017-01-05T13:23:39.000Z</time>
      </trkpt>
      <trkpt lat="48.47942" lon="-2.84961">
        <ele>146</ele>
        <time>2017-01-05T13:23:40.000Z</time>
      </trkpt>
      <trkpt lat="48.47941" lon="-2.84965">
        <ele>147</ele>
        <time>2017-01-05T13:23:41.000Z</time>
      </trkpt>
      <trkpt lat="48.4794" lon="-2.84968">
        <ele>147</ele>
        <time>2017-01-05T13:23:42.000Z</time>
      </trkpt>
      <trkpt lat="48.47939" lon="-2.84972">
        <ele>147</ele>
        <time>2017-01-05T13:23:43.000Z</time>
      </trkpt>
      <trkpt lat="48.47938" lon="-2.84975">
        <ele>147</ele>
        <time>2017-01-05T13:23:44.000Z</time>
      </trkpt>
      <trkpt lat="48.47937" lon="-2.84978">
        <ele>147</ele>
        <time>2017-01-05T13:23:45.000Z</time>
      </trkpt>
      <trkpt lat="48.47936" lon="-2.84982">
        <ele>147</ele>
        <time>2017-01-05T13:23:46.000Z</time>
      </trkpt>
      <trkpt lat="48.47934" lon="-2.84985">
        <ele>147</ele>
        <time>2017-01-05T13:23:47.000Z</time>
      </trkpt>
      <trkpt lat="48.47933" lon="-2.84989">
        <ele>147</ele>
        <time>2017-01-05T13:23:48.000Z</time>
      </trkpt>
      <trkpt lat="48.47932" lon="-2.84992">
        <ele>148</ele>
        <time>2017-01-05T13:23:49.000Z</time>
      </trkpt>
      <trkpt lat="48.4793" lon="-2.84996">
        <ele>148</ele>
        <time>2017-01-05T13:23:50.000Z</time>
      </trkpt>
      <trkpt lat="48.47929" lon="-2.84999">
        <ele>148</ele>
        <time>2017-01-05T13:23:51.000Z</time>
      </trkpt>
      <trkpt lat="48.47928" lon="-2.85003">
        <ele>149</ele>
        <time>2017-01-05T13:23:52.000Z</time>
      </trkpt>
      <trkpt lat="48.47926" lon="-2.85006">
        <ele>149</ele>
        <time>2017-01-05T13:23:53.000Z</time>
      </trkpt>
      <trkpt lat="48.47925" lon="-2.8501">
        <ele>149</ele>
        <time>2017-01-05T13:23:54.000Z</time>
      </trkpt>
      <trkpt lat="48.47924" lon="-2.85013">
        <ele>149</ele>
        <time>2017-01-05T13:23:55.000Z</time>
      </trkpt>
      <trkpt lat="48.47922" lon="-2.85017">
        <ele>149</ele>
        <time>2017-01-05T13:23:56.000Z</time>
      </trkpt>
      <trkpt lat="48.47921" lon="-2.8502">
        <ele>149</ele>
        <time>2017-01-05T13:23:57.000Z</time>
      </trkpt>
      <trkpt lat="48.47919" lon="-2.85023">
        <ele>149</ele>
        <time>2017-01-05T13:23:58.000Z</time>
      </trkpt>
      <trkpt lat="48.47918" lon="-2.85026">
        <ele>149</ele>
        <time>2017-01-05T13:23:59.000Z</time>
      </trkpt>
      <trkpt lat="48.47917" lon="-2.8503">
        <ele>149</ele>
        <time>2017-01-05T13:24:00.000Z</time>
      </trkpt>
      <trkpt lat="48.47915" lon="-2.85033">
        <ele>150</ele>
        <time>2017-01-05T13:24:01.000Z</time>
      </trkpt>
      <trkpt lat="48.47914" lon="-2.85036">
        <ele>150</ele>
        <time>2017-01-05T13:24:02.000Z</time>
      </trkpt>
      <trkpt lat="48.47913" lon="-2.8504">
        <ele>150</ele>
        <time>2017-01-05T13:24:03.000Z</time>
      </trkpt>
      <trkpt lat="48.47911" lon="-2.85043">
        <ele>150</ele>
        <time>2017-01-05T13:24:04.000Z</time>
      </trkpt>
      <trkpt lat="48.4791" lon="-2.85047">
        <ele>150</ele>
        <time>2017-01-05T13:24:05.000Z</time>
      </trkpt>
      <trkpt lat="48.47909" lon="-2.8505">
        <ele>150</ele>
        <time>2017-01-05T13:24:06.000Z</time>
      </trkpt>
      <trkpt lat="48.47908" lon="-2.85054">
        <ele>150</ele>
        <time>2017-01-05T13:24:07.000Z</time>
      </trkpt>
      <trkpt lat="48.47907" lon="-2.85058">
        <ele>150</ele>
        <time>2017-01-05T13:24:08.000Z</time>
      </trkpt>
      <trkpt lat="48.47906" lon="-2.85062">
        <ele>150</ele>
        <time>2017-01-05T13:24:09.000Z</time>
      </trkpt>
      <trkpt lat="48.47905" lon="-2.85066">
        <ele>150</ele>
        <time>2017-01-05T13:24:10.000Z</time>
      </trkpt>
      <trkpt lat="48.47905" lon="-2.8507">
        <ele>150</ele>
        <time>2017-01-05T13:24:11.000Z</time>
      </trkpt>
      <trkpt lat="48.47904" lon="-2.85075">
        <ele>150</ele>
        <time>2017-01-05T13:24:12.000Z</time>
      </trkpt>
      <trkpt lat="48.47904" lon="-2.85079">
        <ele>151</ele>
        <time>2017-01-05T13:24:13.000Z</time>
      </trkpt>
      <trkpt lat="48.47903" lon="-2.85083">
        <ele>151</ele>
        <time>2017-01-05T13:24:14.000Z</time>
      </trkpt>
      <trkpt lat="48.47903" lon="-2.85088">
        <ele>151</ele>
        <time>2017-01-05T13:24:15.000Z</time>
      </trkpt>
      <trkpt lat="48.47902" lon="-2.85092">
        <ele>151</ele>
        <time>2017-01-05T13:24:16.000Z</time>
      </trkpt>
      <trkpt lat="48.47902" lon="-2.85096">
        <ele>151</ele>
        <time>2017-01-05T13:24:17.000Z</time>
      </trkpt>
      <trkpt lat="48.47902" lon="-2.85101">
        <ele>151</ele>
        <time>2017-01-05T13:24:18.000Z</time>
      </trkpt>
      <trkpt lat="48.47902" lon="-2.85105">
        <ele>151</ele>
        <time>2017-01-05T13:24:19.000Z</time>
      </trkpt>
      <trkpt lat="48.47903" lon="-2.85109">
        <ele>151</ele>
        <time>2017-01-05T13:24:20.000Z</time>
      </trkpt>
      <trkpt lat="48.47903" lon="-2.85114">
        <ele>151</ele>
        <time>2017-01-05T13:24:21.000Z</time>
      </trkpt>
      <trkpt lat="48.47904" lon="-2.85118">
        <ele>151</ele>
        <time>2017-01-05T13:24:22.000Z</time>
      </trkpt>
      <trkpt lat="48.47905" lon="-2.85122">
        <ele>151</ele>
        <time>2017-01-05T13:24:23.000Z</time>
      </trkpt>
      <trkpt lat="48.47906" lon="-2.85126">
        <ele>151</ele>
        <time>2017-01-05T13:24:24.000Z</time>
      </trkpt>
      <trkpt lat="48.47907" lon="-2.8513">
        <ele>151</ele>
        <time>2017-01-05T13:24:25.000Z</time>
      </trkpt>
      <trkpt lat="48.47908" lon="-2.85134">
        <ele>151</ele>
        <time>2017-01-05T13:24:26.000Z</time>
      </trkpt>
      <trkpt lat="48.47909" lon="-2.85138">
        <ele>151</ele>
        <time>2017-01-05T13:24:27.000Z</time>
      </trkpt>
      <trkpt lat="48.47909" lon="-2.85142">
        <ele>151</ele>
        <time>2017-01-05T13:24:28.000Z</time>
      </trkpt>
      <trkpt lat="48.4791" lon="-2.85145">
        <ele>152</ele>
        <time>2017-01-05T13:24:29.000Z</time>
      </trkpt>
      <trkpt lat="48.4791" lon="-2.85148">
        <ele>152</ele>
        <time>2017-01-05T13:24:30.000Z</time>
      </trkpt>
      <trkpt lat="48.4791" lon="-2.85151">
        <ele>152</ele>
        <time>2017-01-05T13:24:32.000Z</time>
      </trkpt>
      <trkpt lat="48.47912" lon="-2.85152">
        <ele>152</ele>
        <time>2017-01-05T13:24:45.000Z</time>
      </trkpt>
      <trkpt lat="48.47913" lon="-2.85156">
        <ele>152</ele>
        <time>2017-01-05T13:24:48.000Z</time>
      </trkpt>
      <trkpt lat="48.47913" lon="-2.85159">
        <ele>152</ele>
        <time>2017-01-05T13:24:50.000Z</time>
      </trkpt>
      <trkpt lat="48.47912" lon="-2.85162">
        <ele>152</ele>
        <time>2017-01-05T13:24:52.000Z</time>
      </trkpt>
      <trkpt lat="48.47911" lon="-2.85165">
        <ele>152</ele>
        <time>2017-01-05T13:24:54.000Z</time>
      </trkpt>
      <trkpt lat="48.4791" lon="-2.85168">
        <ele>152</ele>
        <time>2017-01-05T13:24:56.000Z</time>
      </trkpt>
      <trkpt lat="48.47909" lon="-2.85171">
        <ele>152</ele>
        <time>2017-01-05T13:24:58.000Z</time>
      </trkpt>
      <trkpt lat="48.47907" lon="-2.85172">
        <ele>152</ele>
        <time>2017-01-05T13:25:00.000Z</time>
      </trkpt>
      <trkpt lat="48.47906" lon="-2.85176">
        <ele>152</ele>
        <time>2017-01-05T13:25:07.000Z</time>
      </trkpt>
      <trkpt lat="48.47904" lon="-2.8518">
        <ele>152</ele>
        <time>2017-01-05T13:25:09.000Z</time>
      </trkpt>
      <trkpt lat="48.47902" lon="-2.85183">
        <ele>152</ele>
        <time>2017-01-05T13:25:10.000Z</time>
      </trkpt>
      <trkpt lat="48.47901" lon="-2.85187">
        <ele>152</ele>
        <time>2017-01-05T13:25:11.000Z</time>
      </trkpt>
      <trkpt lat="48.47899" lon="-2.85189">
        <ele>152</ele>
        <time>2017-01-05T13:25:12.000Z</time>
      </trkpt>
      <trkpt lat="48.47897" lon="-2.85192">
        <ele>152</ele>
        <time>2017-01-05T13:25:13.000Z</time>
      </trkpt>
      <trkpt lat="48.47895" lon="-2.85194">
        <ele>152</ele>
        <time>2017-01-05T13:25:14.000Z</time>
      </trkpt>
      <trkpt lat="48.47893" lon="-2.85197">
        <ele>152</ele>
        <time>2017-01-05T13:25:15.000Z</time>
      </trkpt>
      <trkpt lat="48.47891" lon="-2.852">
        <ele>152</ele>
        <time>2017-01-05T13:25:16.000Z</time>
      </trkpt>
      <trkpt lat="48.47889" lon="-2.85203">
        <ele>152</ele>
        <time>2017-01-05T13:25:17.000Z</time>
      </trkpt>
      <trkpt lat="48.47887" lon="-2.85207">
        <ele>152</ele>
        <time>2017-01-05T13:25:18.000Z</time>
      </trkpt>
      <trkpt lat="48.47885" lon="-2.8521">
        <ele>152</ele>
        <time>2017-01-05T13:25:19.000Z</time>
      </trkpt>
      <trkpt lat="48.47883" lon="-2.85213">
        <ele>152</ele>
        <time>2017-01-05T13:25:20.000Z</time>
      </trkpt>
      <trkpt lat="48.47881" lon="-2.85217">
        <ele>152</ele>
        <time>2017-01-05T13:25:21.000Z</time>
      </trkpt>
      <trkpt lat="48.47879" lon="-2.8522">
        <ele>152</ele>
        <time>2017-01-05T13:25:22.000Z</time>
      </trkpt>
      <trkpt lat="48.47877" lon="-2.85223">
        <ele>152</ele>
        <time>2017-01-05T13:25:23.000Z</time>
      </trkpt>
      <trkpt lat="48.47875" lon="-2.85226">
        <ele>152</ele>
        <time>2017-01-05T13:25:24.000Z</time>
      </trkpt>
      <trkpt lat="48.47873" lon="-2.85228">
        <ele>152</ele>
        <time>2017-01-05T13:25:25.000Z</time>
      </trkpt>
      <trkpt lat="48.47871" lon="-2.85231">
        <ele>152</ele>
        <time>2017-01-05T13:25:26.000Z</time>
      </trkpt>
      <trkpt lat="48.47869" lon="-2.85233">
        <ele>152</ele>
        <time>2017-01-05T13:25:27.000Z</time>
      </trkpt>
      <trkpt lat="48.47868" lon="-2.85236">
        <ele>152</ele>
        <time>2017-01-05T13:25:28.000Z</time>
      </trkpt>
      <trkpt lat="48.47867" lon="-2.85239">
        <ele>152</ele>
        <time>2017-01-05T13:25:29.000Z</time>
      </trkpt>
      <trkpt lat="48.47865" lon="-2.85243">
        <ele>152</ele>
        <time>2017-01-05T13:25:30.000Z</time>
      </trkpt>
      <trkpt lat="48.47864" lon="-2.85247">
        <ele>152</ele>
        <time>2017-01-05T13:25:31.000Z</time>
      </trkpt>
      <trkpt lat="48.47863" lon="-2.85251">
        <ele>153</ele>
        <time>2017-01-05T13:25:32.000Z</time>
      </trkpt>
      <trkpt lat="48.47862" lon="-2.85256">
        <ele>154</ele>
        <time>2017-01-05T13:25:33.000Z</time>
      </trkpt>
      <trkpt lat="48.47862" lon="-2.85261">
        <ele>154</ele>
        <time>2017-01-05T13:25:34.000Z</time>
      </trkpt>
      <trkpt lat="48.47861" lon="-2.85266">
        <ele>154</ele>
        <time>2017-01-05T13:25:35.000Z</time>
      </trkpt>
      <trkpt lat="48.47861" lon="-2.85271">
        <ele>154</ele>
        <time>2017-01-05T13:25:36.000Z</time>
      </trkpt>
      <trkpt lat="48.4786" lon="-2.85276">
        <ele>154</ele>
        <time>2017-01-05T13:25:37.000Z</time>
      </trkpt>
      <trkpt lat="48.4786" lon="-2.85281">
        <ele>154</ele>
        <time>2017-01-05T13:25:38.000Z</time>
      </trkpt>
      <trkpt lat="48.4786" lon="-2.85286">
        <ele>154</ele>
        <time>2017-01-05T13:25:39.000Z</time>
      </trkpt>
      <trkpt lat="48.4786" lon="-2.85291">
        <ele>154</ele>
        <time>2017-01-05T13:25:40.000Z</time>
      </trkpt>
      <trkpt lat="48.4786" lon="-2.85296">
        <ele>154</ele>
        <time>2017-01-05T13:25:41.000Z</time>
      </trkpt>
      <trkpt lat="48.4786" lon="-2.85302">
        <ele>154</ele>
        <time>2017-01-05T13:25:42.000Z</time>
      </trkpt>
      <trkpt lat="48.4786" lon="-2.85307">
        <ele>154</ele>
        <time>2017-01-05T13:25:43.000Z</time>
      </trkpt>
      <trkpt lat="48.4786" lon="-2.85312">
        <ele>154</ele>
        <time>2017-01-05T13:25:44.000Z</time>
      </trkpt>
      <trkpt lat="48.4786" lon="-2.85317">
        <ele>155</ele>
        <time>2017-01-05T13:25:45.000Z</time>
      </trkpt>
      <trkpt lat="48.4786" lon="-2.85322">
        <ele>155</ele>
        <time>2017-01-05T13:25:46.000Z</time>
      </trkpt>
      <trkpt lat="48.4786" lon="-2.85327">
        <ele>155</ele>
        <time>2017-01-05T13:25:47.000Z</time>
      </trkpt>
      <trkpt lat="48.4786" lon="-2.85332">
        <ele>155</ele>
        <time>2017-01-05T13:25:48.000Z</time>
      </trkpt>
      <trkpt lat="48.4786" lon="-2.85337">
        <ele>156</ele>
        <time>2017-01-05T13:25:49.000Z</time>
      </trkpt>
      <trkpt lat="48.47859" lon="-2.85343">
        <ele>156</ele>
        <time>2017-01-05T13:25:50.000Z</time>
      </trkpt>
      <trkpt lat="48.47859" lon="-2.85348">
        <ele>156</ele>
        <time>2017-01-05T13:25:51.000Z</time>
      </trkpt>
      <trkpt lat="48.47858" lon="-2.85353">
        <ele>156</ele>
        <time>2017-01-05T13:25:52.000Z</time>
      </trkpt>
      <trkpt lat="48.47857" lon="-2.85357">
        <ele>156</ele>
        <time>2017-01-05T13:25:53.000Z</time>
      </trkpt>
      <trkpt lat="48.47856" lon="-2.85362">
        <ele>156</ele>
        <time>2017-01-05T13:25:54.000Z</time>
      </trkpt>
      <trkpt lat="48.47855" lon="-2.85367">
        <ele>157</ele>
        <time>2017-01-05T13:25:55.000Z</time>
      </trkpt>
      <trkpt lat="48.47854" lon="-2.85372">
        <ele>157</ele>
        <time>2017-01-05T13:25:56.000Z</time>
      </trkpt>
      <trkpt lat="48.47852" lon="-2.85376">
        <ele>157</ele>
        <time>2017-01-05T13:25:57.000Z</time>
      </trkpt>
      <trkpt lat="48.47851" lon="-2.85381">
        <ele>157</ele>
        <time>2017-01-05T13:25:58.000Z</time>
      </trkpt>
      <trkpt lat="48.4785" lon="-2.85385">
        <ele>157</ele>
        <time>2017-01-05T13:25:59.000Z</time>
      </trkpt>
      <trkpt lat="48.47848" lon="-2.8539">
        <ele>157</ele>
        <time>2017-01-05T13:26:00.000Z</time>
      </trkpt>
      <trkpt lat="48.47846" lon="-2.85394">
        <ele>157</ele>
        <time>2017-01-05T13:26:01.000Z</time>
      </trkpt>
      <trkpt lat="48.47845" lon="-2.85398">
        <ele>157</ele>
        <time>2017-01-05T13:26:02.000Z</time>
      </trkpt>
      <trkpt lat="48.47843" lon="-2.85403">
        <ele>157</ele>
        <time>2017-01-05T13:26:03.000Z</time>
      </trkpt>
      <trkpt lat="48.47841" lon="-2.85407">
        <ele>157</ele>
        <time>2017-01-05T13:26:04.000Z</time>
      </trkpt>
      <trkpt lat="48.47839" lon="-2.85412">
        <ele>158</ele>
        <time>2017-01-05T13:26:05.000Z</time>
      </trkpt>
      <trkpt lat="48.47838" lon="-2.85416">
        <ele>158</ele>
        <time>2017-01-05T13:26:06.000Z</time>
      </trkpt>
      <trkpt lat="48.47836" lon="-2.8542">
        <ele>158</ele>
        <time>2017-01-05T13:26:07.000Z</time>
      </trkpt>
      <trkpt lat="48.47834" lon="-2.85425">
        <ele>158</ele>
        <time>2017-01-05T13:26:08.000Z</time>
      </trkpt>
      <trkpt lat="48.47832" lon="-2.85429">
        <ele>159</ele>
        <time>2017-01-05T13:26:09.000Z</time>
      </trkpt>
      <trkpt lat="48.47831" lon="-2.85433">
        <ele>159</ele>
        <time>2017-01-05T13:26:10.000Z</time>
      </trkpt>
      <trkpt lat="48.47829" lon="-2.85438">
        <ele>159</ele>
        <time>2017-01-05T13:26:11.000Z</time>
      </trkpt>
      <trkpt lat="48.47827" lon="-2.85442">
        <ele>159</ele>
        <time>2017-01-05T13:26:12.000Z</time>
      </trkpt>
      <trkpt lat="48.47825" lon="-2.85446">
        <ele>159</ele>
        <time>2017-01-05T13:26:13.000Z</time>
      </trkpt>
      <trkpt lat="48.47823" lon="-2.85451">
        <ele>160</ele>
        <time>2017-01-05T13:26:14.000Z</time>
      </trkpt>
      <trkpt lat="48.47822" lon="-2.85456">
        <ele>160</ele>
        <time>2017-01-05T13:26:15.000Z</time>
      </trkpt>
      <trkpt lat="48.4782" lon="-2.85461">
        <ele>160</ele>
        <time>2017-01-05T13:26:16.000Z</time>
      </trkpt>
      <trkpt lat="48.47818" lon="-2.85466">
        <ele>160</ele>
        <time>2017-01-05T13:26:17.000Z</time>
      </trkpt>
      <trkpt lat="48.47816" lon="-2.85471">
        <ele>160</ele>
        <time>2017-01-05T13:26:18.000Z</time>
      </trkpt>
      <trkpt lat="48.47815" lon="-2.85476">
        <ele>160</ele>
        <time>2017-01-05T13:26:19.000Z</time>
      </trkpt>
      <trkpt lat="48.47813" lon="-2.85481">
        <ele>160</ele>
        <time>2017-01-05T13:26:20.000Z</time>
      </trkpt>
      <trkpt lat="48.47811" lon="-2.85486">
        <ele>161</ele>
        <time>2017-01-05T13:26:21.000Z</time>
      </trkpt>
      <trkpt lat="48.4781" lon="-2.85492">
        <ele>161</ele>
        <time>2017-01-05T13:26:22.000Z</time>
      </trkpt>
      <trkpt lat="48.47808" lon="-2.85497">
        <ele>161</ele>
        <time>2017-01-05T13:26:23.000Z</time>
      </trkpt>
      <trkpt lat="48.47807" lon="-2.85503">
        <ele>162</ele>
        <time>2017-01-05T13:26:24.000Z</time>
      </trkpt>
      <trkpt lat="48.47805" lon="-2.85508">
        <ele>162</ele>
        <time>2017-01-05T13:26:25.000Z</time>
      </trkpt>
      <trkpt lat="48.47804" lon="-2.85514">
        <ele>162</ele>
        <time>2017-01-05T13:26:26.000Z</time>
      </trkpt>
      <trkpt lat="48.47802" lon="-2.85519">
        <ele>162</ele>
        <time>2017-01-05T13:26:27.000Z</time>
      </trkpt>
      <trkpt lat="48.478" lon="-2.85524">
        <ele>163</ele>
        <time>2017-01-05T13:26:28.000Z</time>
      </trkpt>
      <trkpt lat="48.47799" lon="-2.8553">
        <ele>163</ele>
        <time>2017-01-05T13:26:29.000Z</time>
      </trkpt>
      <trkpt lat="48.47797" lon="-2.85535">
        <ele>163</ele>
        <time>2017-01-05T13:26:30.000Z</time>
      </trkpt>
      <trkpt lat="48.47795" lon="-2.8554">
        <ele>163</ele>
        <time>2017-01-05T13:26:31.000Z</time>
      </trkpt>
      <trkpt lat="48.47793" lon="-2.85545">
        <ele>163</ele>
        <time>2017-01-05T13:26:32.000Z</time>
      </trkpt>
      <trkpt lat="48.47791" lon="-2.8555">
        <ele>163</ele>
        <time>2017-01-05T13:26:33.000Z</time>
      </trkpt>
      <trkpt lat="48.47789" lon="-2.85555">
        <ele>163</ele>
        <time>2017-01-05T13:26:34.000Z</time>
      </trkpt>
      <trkpt lat="48.47787" lon="-2.8556">
        <ele>163</ele>
        <time>2017-01-05T13:26:35.000Z</time>
      </trkpt>
      <trkpt lat="48.47784" lon="-2.85564">
        <ele>163</ele>
        <time>2017-01-05T13:26:36.000Z</time>
      </trkpt>
      <trkpt lat="48.47782" lon="-2.85569">
        <ele>163</ele>
        <time>2017-01-05T13:26:37.000Z</time>
      </trkpt>
      <trkpt lat="48.47779" lon="-2.85573">
        <ele>163</ele>
        <time>2017-01-05T13:26:38.000Z</time>
      </trkpt>
      <trkpt lat="48.47777" lon="-2.85578">
        <ele>163</ele>
        <time>2017-01-05T13:26:39.000Z</time>
      </trkpt>
      <trkpt lat="48.47774" lon="-2.85582">
        <ele>163</ele>
        <time>2017-01-05T13:26:40.000Z</time>
      </trkpt>
      <trkpt lat="48.47772" lon="-2.85586">
        <ele>165</ele>
        <time>2017-01-05T13:26:41.000Z</time>
      </trkpt>
      <trkpt lat="48.47769" lon="-2.8559">
        <ele>165</ele>
        <time>2017-01-05T13:26:42.000Z</time>
      </trkpt>
      <trkpt lat="48.47766" lon="-2.85594">
        <ele>165</ele>
        <time>2017-01-05T13:26:43.000Z</time>
      </trkpt>
      <trkpt lat="48.47764" lon="-2.85599">
        <ele>165</ele>
        <time>2017-01-05T13:26:44.000Z</time>
      </trkpt>
      <trkpt lat="48.47761" lon="-2.85603">
        <ele>165</ele>
        <time>2017-01-05T13:26:45.000Z</time>
      </trkpt>
      <trkpt lat="48.47759" lon="-2.85608">
        <ele>165</ele>
        <time>2017-01-05T13:26:46.000Z</time>
      </trkpt>
      <trkpt lat="48.47756" lon="-2.85612">
        <ele>165</ele>
        <time>2017-01-05T13:26:47.000Z</time>
      </trkpt>
      <trkpt lat="48.47754" lon="-2.85617">
        <ele>165</ele>
        <time>2017-01-05T13:26:48.000Z</time>
      </trkpt>
      <trkpt lat="48.47752" lon="-2.85622">
        <ele>165</ele>
        <time>2017-01-05T13:26:49.000Z</time>
      </trkpt>
      <trkpt lat="48.4775" lon="-2.85627">
        <ele>165</ele>
        <time>2017-01-05T13:26:50.000Z</time>
      </trkpt>
      <trkpt lat="48.47748" lon="-2.85632">
        <ele>165</ele>
        <time>2017-01-05T13:26:51.000Z</time>
      </trkpt>
      <trkpt lat="48.47746" lon="-2.85637">
        <ele>165</ele>
        <time>2017-01-05T13:26:52.000Z</time>
      </trkpt>
      <trkpt lat="48.47744" lon="-2.85642">
        <ele>165</ele>
        <time>2017-01-05T13:26:53.000Z</time>
      </trkpt>
      <trkpt lat="48.47743" lon="-2.85647">
        <ele>166</ele>
        <time>2017-01-05T13:26:54.000Z</time>
      </trkpt>
      <trkpt lat="48.47741" lon="-2.85652">
        <ele>166</ele>
        <time>2017-01-05T13:26:55.000Z</time>
      </trkpt>
      <trkpt lat="48.47739" lon="-2.85657">
        <ele>166</ele>
        <time>2017-01-05T13:26:56.000Z</time>
      </trkpt>
      <trkpt lat="48.47738" lon="-2.85662">
        <ele>166</ele>
        <time>2017-01-05T13:26:57.000Z</time>
      </trkpt>
      <trkpt lat="48.47736" lon="-2.85667">
        <ele>167</ele>
        <time>2017-01-05T13:26:58.000Z</time>
      </trkpt>
      <trkpt lat="48.47735" lon="-2.85673">
        <ele>167</ele>
        <time>2017-01-05T13:26:59.000Z</time>
      </trkpt>
      <trkpt lat="48.47734" lon="-2.85678">
        <ele>167</ele>
        <time>2017-01-05T13:27:00.000Z</time>
      </trkpt>
      <trkpt lat="48.47733" lon="-2.85683">
        <ele>167</ele>
        <time>2017-01-05T13:27:01.000Z</time>
      </trkpt>
      <trkpt lat="48.47732" lon="-2.85689">
        <ele>167</ele>
        <time>2017-01-05T13:27:02.000Z</time>
      </trkpt>
      <trkpt lat="48.47731" lon="-2.85694">
        <ele>167</ele>
        <time>2017-01-05T13:27:03.000Z</time>
      </trkpt>
      <trkpt lat="48.47731" lon="-2.857">
        <ele>168</ele>
        <time>2017-01-05T13:27:04.000Z</time>
      </trkpt>
      <trkpt lat="48.4773" lon="-2.85706">
        <ele>168</ele>
        <time>2017-01-05T13:27:05.000Z</time>
      </trkpt>
      <trkpt lat="48.4773" lon="-2.85712">
        <ele>168</ele>
        <time>2017-01-05T13:27:06.000Z</time>
      </trkpt>
      <trkpt lat="48.4773" lon="-2.85717">
        <ele>168</ele>
        <time>2017-01-05T13:27:07.000Z</time>
      </trkpt>
      <trkpt lat="48.4773" lon="-2.85723">
        <ele>168</ele>
        <time>2017-01-05T13:27:08.000Z</time>
      </trkpt>
      <trkpt lat="48.47731" lon="-2.85729">
        <ele>168</ele>
        <time>2017-01-05T13:27:09.000Z</time>
      </trkpt>
      <trkpt lat="48.47731" lon="-2.85735">
        <ele>168</ele>
        <time>2017-01-05T13:27:10.000Z</time>
      </trkpt>
      <trkpt lat="48.47731" lon="-2.85741">
        <ele>168</ele>
        <time>2017-01-05T13:27:11.000Z</time>
      </trkpt>
      <trkpt lat="48.47732" lon="-2.85747">
        <ele>168</ele>
        <time>2017-01-05T13:27:12.000Z</time>
      </trkpt>
      <trkpt lat="48.47733" lon="-2.85752">
        <ele>169</ele>
        <time>2017-01-05T13:27:13.000Z</time>
      </trkpt>
      <trkpt lat="48.47733" lon="-2.85758">
        <ele>170</ele>
        <time>2017-01-05T13:27:14.000Z</time>
      </trkpt>
      <trkpt lat="48.47734" lon="-2.85764">
        <ele>170</ele>
        <time>2017-01-05T13:27:15.000Z</time>
      </trkpt>
      <trkpt lat="48.47734" lon="-2.8577">
        <ele>170</ele>
        <time>2017-01-05T13:27:16.000Z</time>
      </trkpt>
      <trkpt lat="48.47734" lon="-2.85775">
        <ele>170</ele>
        <time>2017-01-05T13:27:17.000Z</time>
      </trkpt>
      <trkpt lat="48.47734" lon="-2.85781">
        <ele>170</ele>
        <time>2017-01-05T13:27:18.000Z</time>
      </trkpt>
      <trkpt lat="48.47734" lon="-2.85787">
        <ele>170</ele>
        <time>2017-01-05T13:27:19.000Z</time>
      </trkpt>
      <trkpt lat="48.47733" lon="-2.85792">
        <ele>170</ele>
        <time>2017-01-05T13:27:20.000Z</time>
      </trkpt>
      <trkpt lat="48.47733" lon="-2.85798">
        <ele>170</ele>
        <time>2017-01-05T13:27:21.000Z</time>
      </trkpt>
      <trkpt lat="48.47733" lon="-2.85803">
        <ele>170</ele>
        <time>2017-01-05T13:27:22.000Z</time>
      </trkpt>
      <trkpt lat="48.47732" lon="-2.85809">
        <ele>171</ele>
        <time>2017-01-05T13:27:23.000Z</time>
      </trkpt>
      <trkpt lat="48.47732" lon="-2.85813">
        <ele>171</ele>
        <time>2017-01-05T13:27:24.000Z</time>
      </trkpt>
      <trkpt lat="48.47732" lon="-2.85816">
        <ele>171</ele>
        <time>2017-01-05T13:27:25.000Z</time>
      </trkpt>
      <trkpt lat="48.47732" lon="-2.85822">
        <ele>171</ele>
        <time>2017-01-05T13:27:27.000Z</time>
      </trkpt>
      <trkpt lat="48.47731" lon="-2.85826">
        <ele>171</ele>
        <time>2017-01-05T13:27:28.000Z</time>
      </trkpt>
      <trkpt lat="48.4773" lon="-2.8583">
        <ele>171</ele>
        <time>2017-01-05T13:27:29.000Z</time>
      </trkpt>
      <trkpt lat="48.47729" lon="-2.85835">
        <ele>171</ele>
        <time>2017-01-05T13:27:30.000Z</time>
      </trkpt>
      <trkpt lat="48.47727" lon="-2.85839">
        <ele>171</ele>
        <time>2017-01-05T13:27:31.000Z</time>
      </trkpt>
      <trkpt lat="48.47724" lon="-2.85843">
        <ele>171</ele>
        <time>2017-01-05T13:27:32.000Z</time>
      </trkpt>
      <trkpt lat="48.47721" lon="-2.85848">
        <ele>171</ele>
        <time>2017-01-05T13:27:33.000Z</time>
      </trkpt>
      <trkpt lat="48.47718" lon="-2.85852">
        <ele>171</ele>
        <time>2017-01-05T13:27:34.000Z</time>
      </trkpt>
      <trkpt lat="48.47715" lon="-2.85856">
        <ele>171</ele>
        <time>2017-01-05T13:27:35.000Z</time>
      </trkpt>
      <trkpt lat="48.47711" lon="-2.85859">
        <ele>171</ele>
        <time>2017-01-05T13:27:36.000Z</time>
      </trkpt>
      <trkpt lat="48.47708" lon="-2.85863">
        <ele>171</ele>
        <time>2017-01-05T13:27:37.000Z</time>
      </trkpt>
      <trkpt lat="48.47704" lon="-2.85867">
        <ele>170</ele>
        <time>2017-01-05T13:27:38.000Z</time>
      </trkpt>
      <trkpt lat="48.477" lon="-2.85871">
        <ele>170</ele>
        <time>2017-01-05T13:27:39.000Z</time>
      </trkpt>
      <trkpt lat="48.47697" lon="-2.85875">
        <ele>170</ele>
        <time>2017-01-05T13:27:40.000Z</time>
      </trkpt>
      <trkpt lat="48.47693" lon="-2.8588">
        <ele>170</ele>
        <time>2017-01-05T13:27:41.000Z</time>
      </trkpt>
      <trkpt lat="48.4769" lon="-2.85884">
        <ele>170</ele>
        <time>2017-01-05T13:27:42.000Z</time>
      </trkpt>
      <trkpt lat="48.47686" lon="-2.85889">
        <ele>170</ele>
        <time>2017-01-05T13:27:43.000Z</time>
      </trkpt>
      <trkpt lat="48.47682" lon="-2.85893">
        <ele>170</ele>
        <time>2017-01-05T13:27:44.000Z</time>
      </trkpt>
      <trkpt lat="48.47679" lon="-2.85897">
        <ele>170</ele>
        <time>2017-01-05T13:27:45.000Z</time>
      </trkpt>
      <trkpt lat="48.47676" lon="-2.85901">
        <ele>170</ele>
        <time>2017-01-05T13:27:46.000Z</time>
      </trkpt>
      <trkpt lat="48.47673" lon="-2.85905">
        <ele>170</ele>
        <time>2017-01-05T13:27:47.000Z</time>
      </trkpt>
      <trkpt lat="48.4767" lon="-2.85909">
        <ele>169</ele>
        <time>2017-01-05T13:27:48.000Z</time>
      </trkpt>
      <trkpt lat="48.47666" lon="-2.85914">
        <ele>169</ele>
        <time>2017-01-05T13:27:49.000Z</time>
      </trkpt>
      <trkpt lat="48.47663" lon="-2.85918">
        <ele>169</ele>
        <time>2017-01-05T13:27:50.000Z</time>
      </trkpt>
      <trkpt lat="48.4766" lon="-2.85923">
        <ele>169</ele>
        <time>2017-01-05T13:27:51.000Z</time>
      </trkpt>
      <trkpt lat="48.47656" lon="-2.85927">
        <ele>168</ele>
        <time>2017-01-05T13:27:52.000Z</time>
      </trkpt>
      <trkpt lat="48.47653" lon="-2.85932">
        <ele>168</ele>
        <time>2017-01-05T13:27:53.000Z</time>
      </trkpt>
      <trkpt lat="48.4765" lon="-2.85936">
        <ele>168</ele>
        <time>2017-01-05T13:27:54.000Z</time>
      </trkpt>
      <trkpt lat="48.47646" lon="-2.85939">
        <ele>168</ele>
        <time>2017-01-05T13:27:55.000Z</time>
      </trkpt>
      <trkpt lat="48.47643" lon="-2.85943">
        <ele>168</ele>
        <time>2017-01-05T13:27:56.000Z</time>
      </trkpt>
      <trkpt lat="48.4764" lon="-2.85946">
        <ele>168</ele>
        <time>2017-01-05T13:27:57.000Z</time>
      </trkpt>
      <trkpt lat="48.47637" lon="-2.8595">
        <ele>168</ele>
        <time>2017-01-05T13:27:58.000Z</time>
      </trkpt>
      <trkpt lat="48.47633" lon="-2.85954">
        <ele>168</ele>
        <time>2017-01-05T13:27:59.000Z</time>
      </trkpt>
      <trkpt lat="48.4763" lon="-2.85959">
        <ele>168</ele>
        <time>2017-01-05T13:28:00.000Z</time>
      </trkpt>
      <trkpt lat="48.47627" lon="-2.85963">
        <ele>168</ele>
        <time>2017-01-05T13:28:01.000Z</time>
      </trkpt>
      <trkpt lat="48.47624" lon="-2.85967">
        <ele>168</ele>
        <time>2017-01-05T13:28:02.000Z</time>
      </trkpt>
      <trkpt lat="48.47622" lon="-2.85971">
        <ele>168</ele>
        <time>2017-01-05T13:28:03.000Z</time>
      </trkpt>
      <trkpt lat="48.47619" lon="-2.85975">
        <ele>168</ele>
        <time>2017-01-05T13:28:04.000Z</time>
      </trkpt>
      <trkpt lat="48.47615" lon="-2.85979">
        <ele>168</ele>
        <time>2017-01-05T13:28:05.000Z</time>
      </trkpt>
      <trkpt lat="48.47612" lon="-2.85984">
        <ele>168</ele>
        <time>2017-01-05T13:28:06.000Z</time>
      </trkpt>
      <trkpt lat="48.47609" lon="-2.85988">
        <ele>168</ele>
        <time>2017-01-05T13:28:07.000Z</time>
      </trkpt>
      <trkpt lat="48.47606" lon="-2.85992">
        <ele>167</ele>
        <time>2017-01-05T13:28:08.000Z</time>
      </trkpt>
      <trkpt lat="48.47603" lon="-2.85996">
        <ele>167</ele>
        <time>2017-01-05T13:28:09.000Z</time>
      </trkpt>
      <trkpt lat="48.476" lon="-2.85999">
        <ele>167</ele>
        <time>2017-01-05T13:28:10.000Z</time>
      </trkpt>
      <trkpt lat="48.47597" lon="-2.86002">
        <ele>167</ele>
        <time>2017-01-05T13:28:11.000Z</time>
      </trkpt>
      <trkpt lat="48.47595" lon="-2.86005">
        <ele>167</ele>
        <time>2017-01-05T13:28:12.000Z</time>
      </trkpt>
      <trkpt lat="48.47593" lon="-2.86009">
        <ele>167</ele>
        <time>2017-01-05T13:28:13.000Z</time>
      </trkpt>
      <trkpt lat="48.4759" lon="-2.86012">
        <ele>167</ele>
        <time>2017-01-05T13:28:14.000Z</time>
      </trkpt>
      <trkpt lat="48.47587" lon="-2.86014">
        <ele>167</ele>
        <time>2017-01-05T13:28:15.000Z</time>
      </trkpt>
      <trkpt lat="48.47585" lon="-2.86017">
        <ele>167</ele>
        <time>2017-01-05T13:28:16.000Z</time>
      </trkpt>
      <trkpt lat="48.47581" lon="-2.8602">
        <ele>166</ele>
        <time>2017-01-05T13:28:17.000Z</time>
      </trkpt>
      <trkpt lat="48.47578" lon="-2.86023">
        <ele>166</ele>
        <time>2017-01-05T13:28:18.000Z</time>
      </trkpt>
      <trkpt lat="48.47574" lon="-2.86026">
        <ele>166</ele>
        <time>2017-01-05T13:28:19.000Z</time>
      </trkpt>
      <trkpt lat="48.47571" lon="-2.86029">
        <ele>166</ele>
        <time>2017-01-05T13:28:20.000Z</time>
      </trkpt>
      <trkpt lat="48.47567" lon="-2.86031">
        <ele>166</ele>
        <time>2017-01-05T13:28:21.000Z</time>
      </trkpt>
      <trkpt lat="48.47564" lon="-2.86034">
        <ele>166</ele>
        <time>2017-01-05T13:28:22.000Z</time>
      </trkpt>
      <trkpt lat="48.4756" lon="-2.86036">
        <ele>166</ele>
        <time>2017-01-05T13:28:23.000Z</time>
      </trkpt>
      <trkpt lat="48.47557" lon="-2.86037">
        <ele>166</ele>
        <time>2017-01-05T13:28:24.000Z</time>
      </trkpt>
      <trkpt lat="48.47553" lon="-2.86039">
        <ele>166</ele>
        <time>2017-01-05T13:28:25.000Z</time>
      </trkpt>
      <trkpt lat="48.47549" lon="-2.8604">
        <ele>166</ele>
        <time>2017-01-05T13:28:26.000Z</time>
      </trkpt>
      <trkpt lat="48.47545" lon="-2.86041">
        <ele>166</ele>
        <time>2017-01-05T13:28:27.000Z</time>
      </trkpt>
      <trkpt lat="48.4754" lon="-2.86042">
        <ele>166</ele>
        <time>2017-01-05T13:28:28.000Z</time>
      </trkpt>
      <trkpt lat="48.47536" lon="-2.86042">
        <ele>166</ele>
        <time>2017-01-05T13:28:29.000Z</time>
      </trkpt>
      <trkpt lat="48.47531" lon="-2.86043">
        <ele>166</ele>
        <time>2017-01-05T13:28:30.000Z</time>
      </trkpt>
      <trkpt lat="48.47526" lon="-2.86045">
        <ele>166</ele>
        <time>2017-01-05T13:28:31.000Z</time>
      </trkpt>
      <trkpt lat="48.47522" lon="-2.86046">
        <ele>166</ele>
        <time>2017-01-05T13:28:32.000Z</time>
      </trkpt>
      <trkpt lat="48.47518" lon="-2.86048">
        <ele>166</ele>
        <time>2017-01-05T13:28:33.000Z</time>
      </trkpt>
      <trkpt lat="48.47514" lon="-2.8605">
        <ele>166</ele>
        <time>2017-01-05T13:28:34.000Z</time>
      </trkpt>
      <trkpt lat="48.4751" lon="-2.86051">
        <ele>166</ele>
        <time>2017-01-05T13:28:35.000Z</time>
      </trkpt>
      <trkpt lat="48.47505" lon="-2.86052">
        <ele>166</ele>
        <time>2017-01-05T13:28:36.000Z</time>
      </trkpt>
      <trkpt lat="48.47501" lon="-2.86054">
        <ele>166</ele>
        <time>2017-01-05T13:28:37.000Z</time>
      </trkpt>
      <trkpt lat="48.47497" lon="-2.86056">
        <ele>165</ele>
        <time>2017-01-05T13:28:38.000Z</time>
      </trkpt>
      <trkpt lat="48.47493" lon="-2.86058">
        <ele>165</ele>
        <time>2017-01-05T13:28:39.000Z</time>
      </trkpt>
      <trkpt lat="48.4749" lon="-2.8606">
        <ele>165</ele>
        <time>2017-01-05T13:28:40.000Z</time>
      </trkpt>
      <trkpt lat="48.47487" lon="-2.86061">
        <ele>165</ele>
        <time>2017-01-05T13:28:41.000Z</time>
      </trkpt>
      <trkpt lat="48.47483" lon="-2.86062">
        <ele>165</ele>
        <time>2017-01-05T13:28:42.000Z</time>
      </trkpt>
      <trkpt lat="48.4748" lon="-2.86063">
        <ele>164</ele>
        <time>2017-01-05T13:28:43.000Z</time>
      </trkpt>
      <trkpt lat="48.47476" lon="-2.86064">
        <ele>164</ele>
        <time>2017-01-05T13:28:44.000Z</time>
      </trkpt>
      <trkpt lat="48.47473" lon="-2.86065">
        <ele>164</ele>
        <time>2017-01-05T13:28:45.000Z</time>
      </trkpt>
      <trkpt lat="48.4747" lon="-2.86066">
        <ele>164</ele>
        <time>2017-01-05T13:28:46.000Z</time>
      </trkpt>
      <trkpt lat="48.47466" lon="-2.86067">
        <ele>164</ele>
        <time>2017-01-05T13:28:47.000Z</time>
      </trkpt>
      <trkpt lat="48.47462" lon="-2.86067">
        <ele>164</ele>
        <time>2017-01-05T13:28:48.000Z</time>
      </trkpt>
      <trkpt lat="48.47458" lon="-2.86068">
        <ele>164</ele>
        <time>2017-01-05T13:28:49.000Z</time>
      </trkpt>
      <trkpt lat="48.47454" lon="-2.86069">
        <ele>164</ele>
        <time>2017-01-05T13:28:50.000Z</time>
      </trkpt>
      <trkpt lat="48.4745" lon="-2.86069">
        <ele>164</ele>
        <time>2017-01-05T13:28:51.000Z</time>
      </trkpt>
      <trkpt lat="48.47446" lon="-2.8607">
        <ele>164</ele>
        <time>2017-01-05T13:28:52.000Z</time>
      </trkpt>
      <trkpt lat="48.47442" lon="-2.86071">
        <ele>164</ele>
        <time>2017-01-05T13:28:53.000Z</time>
      </trkpt>
      <trkpt lat="48.47438" lon="-2.86072">
        <ele>164</ele>
        <time>2017-01-05T13:28:54.000Z</time>
      </trkpt>
      <trkpt lat="48.47435" lon="-2.86074">
        <ele>164</ele>
        <time>2017-01-05T13:28:55.000Z</time>
      </trkpt>
      <trkpt lat="48.47431" lon="-2.86075">
        <ele>164</ele>
        <time>2017-01-05T13:28:56.000Z</time>
      </trkpt>
      <trkpt lat="48.47427" lon="-2.86077">
        <ele>164</ele>
        <time>2017-01-05T13:28:57.000Z</time>
      </trkpt>
      <trkpt lat="48.47423" lon="-2.86079">
        <ele>164</ele>
        <time>2017-01-05T13:28:58.000Z</time>
      </trkpt>
      <trkpt lat="48.47419" lon="-2.86081">
        <ele>164</ele>
        <time>2017-01-05T13:28:59.000Z</time>
      </trkpt>
      <trkpt lat="48.47415" lon="-2.86083">
        <ele>164</ele>
        <time>2017-01-05T13:29:00.000Z</time>
      </trkpt>
      <trkpt lat="48.47411" lon="-2.86085">
        <ele>164</ele>
        <time>2017-01-05T13:29:01.000Z</time>
      </trkpt>
      <trkpt lat="48.47408" lon="-2.86088">
        <ele>164</ele>
        <time>2017-01-05T13:29:02.000Z</time>
      </trkpt>
      <trkpt lat="48.47404" lon="-2.8609">
        <ele>164</ele>
        <time>2017-01-05T13:29:03.000Z</time>
      </trkpt>
      <trkpt lat="48.474" lon="-2.86093">
        <ele>164</ele>
        <time>2017-01-05T13:29:04.000Z</time>
      </trkpt>
      <trkpt lat="48.47396" lon="-2.86095">
        <ele>164</ele>
        <time>2017-01-05T13:29:05.000Z</time>
      </trkpt>
      <trkpt lat="48.47393" lon="-2.86098">
        <ele>164</ele>
        <time>2017-01-05T13:29:06.000Z</time>
      </trkpt>
      <trkpt lat="48.47389" lon="-2.86101">
        <ele>164</ele>
        <time>2017-01-05T13:29:07.000Z</time>
      </trkpt>
      <trkpt lat="48.47385" lon="-2.86103">
        <ele>164</ele>
        <time>2017-01-05T13:29:08.000Z</time>
      </trkpt>
      <trkpt lat="48.47382" lon="-2.86105">
        <ele>164</ele>
        <time>2017-01-05T13:29:09.000Z</time>
      </trkpt>
      <trkpt lat="48.47378" lon="-2.86107">
        <ele>164</ele>
        <time>2017-01-05T13:29:10.000Z</time>
      </trkpt>
      <trkpt lat="48.47375" lon="-2.86109">
        <ele>164</ele>
        <time>2017-01-05T13:29:11.000Z</time>
      </trkpt>
      <trkpt lat="48.47371" lon="-2.86111">
        <ele>164</ele>
        <time>2017-01-05T13:29:12.000Z</time>
      </trkpt>
      <trkpt lat="48.47368" lon="-2.86113">
        <ele>164</ele>
        <time>2017-01-05T13:29:13.000Z</time>
      </trkpt>
      <trkpt lat="48.47364" lon="-2.86115">
        <ele>164</ele>
        <time>2017-01-05T13:29:14.000Z</time>
      </trkpt>
      <trkpt lat="48.47361" lon="-2.86117">
        <ele>164</ele>
        <time>2017-01-05T13:29:15.000Z</time>
      </trkpt>
      <trkpt lat="48.47357" lon="-2.86119">
        <ele>164</ele>
        <time>2017-01-05T13:29:16.000Z</time>
      </trkpt>
      <trkpt lat="48.47353" lon="-2.86121">
        <ele>164</ele>
        <time>2017-01-05T13:29:17.000Z</time>
      </trkpt>
      <trkpt lat="48.47349" lon="-2.86124">
        <ele>164</ele>
        <time>2017-01-05T13:29:18.000Z</time>
      </trkpt>
      <trkpt lat="48.47345" lon="-2.86126">
        <ele>164</ele>
        <time>2017-01-05T13:29:19.000Z</time>
      </trkpt>
      <trkpt lat="48.47342" lon="-2.86129">
        <ele>164</ele>
        <time>2017-01-05T13:29:20.000Z</time>
      </trkpt>
      <trkpt lat="48.47338" lon="-2.86132">
        <ele>164</ele>
        <time>2017-01-05T13:29:21.000Z</time>
      </trkpt>
      <trkpt lat="48.47334" lon="-2.86136">
        <ele>164</ele>
        <time>2017-01-05T13:29:22.000Z</time>
      </trkpt>
      <trkpt lat="48.47331" lon="-2.8614">
        <ele>163</ele>
        <time>2017-01-05T13:29:23.000Z</time>
      </trkpt>
      <trkpt lat="48.47328" lon="-2.86145">
        <ele>164</ele>
        <time>2017-01-05T13:29:24.000Z</time>
      </trkpt>
      <trkpt lat="48.47325" lon="-2.8615">
        <ele>164</ele>
        <time>2017-01-05T13:29:25.000Z</time>
      </trkpt>
      <trkpt lat="48.47322" lon="-2.86155">
        <ele>164</ele>
        <time>2017-01-05T13:29:26.000Z</time>
      </trkpt>
      <trkpt lat="48.4732" lon="-2.86159">
        <ele>164</ele>
        <time>2017-01-05T13:29:27.000Z</time>
      </trkpt>
      <trkpt lat="48.47317" lon="-2.86164">
        <ele>164</ele>
        <time>2017-01-05T13:29:28.000Z</time>
      </trkpt>
      <trkpt lat="48.47314" lon="-2.86168">
        <ele>164</ele>
        <time>2017-01-05T13:29:29.000Z</time>
      </trkpt>
      <trkpt lat="48.4731" lon="-2.86172">
        <ele>164</ele>
        <time>2017-01-05T13:29:30.000Z</time>
      </trkpt>
      <trkpt lat="48.47307" lon="-2.86175">
        <ele>164</ele>
        <time>2017-01-05T13:29:31.000Z</time>
      </trkpt>
      <trkpt lat="48.47303" lon="-2.86178">
        <ele>164</ele>
        <time>2017-01-05T13:29:32.000Z</time>
      </trkpt>
      <trkpt lat="48.47299" lon="-2.86181">
        <ele>164</ele>
        <time>2017-01-05T13:29:33.000Z</time>
      </trkpt>
      <trkpt lat="48.47295" lon="-2.86184">
        <ele>164</ele>
        <time>2017-01-05T13:29:34.000Z</time>
      </trkpt>
      <trkpt lat="48.4729" lon="-2.86187">
        <ele>164</ele>
        <time>2017-01-05T13:29:35.000Z</time>
      </trkpt>
      <trkpt lat="48.47286" lon="-2.86191">
        <ele>163</ele>
        <time>2017-01-05T13:29:36.000Z</time>
      </trkpt>
      <trkpt lat="48.47281" lon="-2.86193">
        <ele>163</ele>
        <time>2017-01-05T13:29:37.000Z</time>
      </trkpt>
      <trkpt lat="48.47277" lon="-2.86196">
        <ele>163</ele>
        <time>2017-01-05T13:29:38.000Z</time>
      </trkpt>
      <trkpt lat="48.47273" lon="-2.86199">
        <ele>163</ele>
        <time>2017-01-05T13:29:39.000Z</time>
      </trkpt>
      <trkpt lat="48.47269" lon="-2.862">
        <ele>163</ele>
        <time>2017-01-05T13:29:40.000Z</time>
      </trkpt>
      <trkpt lat="48.47265" lon="-2.86202">
        <ele>163</ele>
        <time>2017-01-05T13:29:41.000Z</time>
      </trkpt>
      <trkpt lat="48.47261" lon="-2.86203">
        <ele>163</ele>
        <time>2017-01-05T13:29:42.000Z</time>
      </trkpt>
      <trkpt lat="48.47257" lon="-2.86204">
        <ele>163</ele>
        <time>2017-01-05T13:29:43.000Z</time>
      </trkpt>
      <trkpt lat="48.47254" lon="-2.86205">
        <ele>163</ele>
        <time>2017-01-05T13:29:44.000Z</time>
      </trkpt>
      <trkpt lat="48.47252" lon="-2.86205">
        <ele>163</ele>
        <time>2017-01-05T13:29:45.000Z</time>
      </trkpt>
      <trkpt lat="48.4725" lon="-2.86206">
        <ele>160</ele>
        <time>2017-01-05T13:29:46.000Z</time>
      </trkpt>
      <trkpt lat="48.47247" lon="-2.86207">
        <ele>160</ele>
        <time>2017-01-05T13:29:48.000Z</time>
      </trkpt>
      <trkpt lat="48.47243" lon="-2.8621">
        <ele>160</ele>
        <time>2017-01-05T13:29:50.000Z</time>
      </trkpt>
      <trkpt lat="48.47241" lon="-2.86212">
        <ele>160</ele>
        <time>2017-01-05T13:29:51.000Z</time>
      </trkpt>
      <trkpt lat="48.47239" lon="-2.86213">
        <ele>160</ele>
        <time>2017-01-05T13:29:52.000Z</time>
      </trkpt>
      <trkpt lat="48.47237" lon="-2.86215">
        <ele>159</ele>
        <time>2017-01-05T13:29:53.000Z</time>
      </trkpt>
      <trkpt lat="48.47234" lon="-2.86217">
        <ele>159</ele>
        <time>2017-01-05T13:29:54.000Z</time>
      </trkpt>
      <trkpt lat="48.47232" lon="-2.8622">
        <ele>159</ele>
        <time>2017-01-05T13:29:55.000Z</time>
      </trkpt>
      <trkpt lat="48.47229" lon="-2.86222">
        <ele>159</ele>
        <time>2017-01-05T13:29:56.000Z</time>
      </trkpt>
      <trkpt lat="48.47226" lon="-2.86225">
        <ele>159</ele>
        <time>2017-01-05T13:29:57.000Z</time>
      </trkpt>
      <trkpt lat="48.47223" lon="-2.86227">
        <ele>159</ele>
        <time>2017-01-05T13:29:58.000Z</time>
      </trkpt>
      <trkpt lat="48.47219" lon="-2.86229">
        <ele>159</ele>
        <time>2017-01-05T13:29:59.000Z</time>
      </trkpt>
      <trkpt lat="48.47216" lon="-2.86232">
        <ele>159</ele>
        <time>2017-01-05T13:30:00.000Z</time>
      </trkpt>
      <trkpt lat="48.47213" lon="-2.86234">
        <ele>159</ele>
        <time>2017-01-05T13:30:01.000Z</time>
      </trkpt>
      <trkpt lat="48.4721" lon="-2.86236">
        <ele>159</ele>
        <time>2017-01-05T13:30:02.000Z</time>
      </trkpt>
      <trkpt lat="48.47207" lon="-2.86238">
        <ele>159</ele>
        <time>2017-01-05T13:30:03.000Z</time>
      </trkpt>
      <trkpt lat="48.47204" lon="-2.8624">
        <ele>158</ele>
        <time>2017-01-05T13:30:04.000Z</time>
      </trkpt>
      <trkpt lat="48.47201" lon="-2.86242">
        <ele>158</ele>
        <time>2017-01-05T13:30:05.000Z</time>
      </trkpt>
      <trkpt lat="48.47198" lon="-2.86244">
        <ele>158</ele>
        <time>2017-01-05T13:30:06.000Z</time>
      </trkpt>
      <trkpt lat="48.47195" lon="-2.86245">
        <ele>158</ele>
        <time>2017-01-05T13:30:07.000Z</time>
      </trkpt>
      <trkpt lat="48.47193" lon="-2.86248">
        <ele>158</ele>
        <time>2017-01-05T13:30:08.000Z</time>
      </trkpt>
      <trkpt lat="48.4719" lon="-2.8625">
        <ele>158</ele>
        <time>2017-01-05T13:30:09.000Z</time>
      </trkpt>
      <trkpt lat="48.47187" lon="-2.86252">
        <ele>158</ele>
        <time>2017-01-05T13:30:10.000Z</time>
      </trkpt>
      <trkpt lat="48.47183" lon="-2.86254">
        <ele>158</ele>
        <time>2017-01-05T13:30:11.000Z</time>
      </trkpt>
      <trkpt lat="48.47179" lon="-2.86256">
        <ele>158</ele>
        <time>2017-01-05T13:30:12.000Z</time>
      </trkpt>
      <trkpt lat="48.47174" lon="-2.86259">
        <ele>158</ele>
        <time>2017-01-05T13:30:13.000Z</time>
      </trkpt>
      <trkpt lat="48.47169" lon="-2.86261">
        <ele>158</ele>
        <time>2017-01-05T13:30:14.000Z</time>
      </trkpt>
      <trkpt lat="48.47164" lon="-2.86264">
        <ele>157</ele>
        <time>2017-01-05T13:30:15.000Z</time>
      </trkpt>
      <trkpt lat="48.47159" lon="-2.86267">
        <ele>157</ele>
        <time>2017-01-05T13:30:16.000Z</time>
      </trkpt>
      <trkpt lat="48.47153" lon="-2.86269">
        <ele>157</ele>
        <time>2017-01-05T13:30:17.000Z</time>
      </trkpt>
      <trkpt lat="48.47148" lon="-2.86272">
        <ele>157</ele>
        <time>2017-01-05T13:30:18.000Z</time>
      </trkpt>
      <trkpt lat="48.47144" lon="-2.86274">
        <ele>157</ele>
        <time>2017-01-05T13:30:19.000Z</time>
      </trkpt>
      <trkpt lat="48.4714" lon="-2.86276">
        <ele>157</ele>
        <time>2017-01-05T13:30:20.000Z</time>
      </trkpt>
      <trkpt lat="48.47137" lon="-2.86277">
        <ele>157</ele>
        <time>2017-01-05T13:30:21.000Z</time>
      </trkpt>
      <trkpt lat="48.47133" lon="-2.86279">
        <ele>157</ele>
        <time>2017-01-05T13:30:22.000Z</time>
      </trkpt>
      <trkpt lat="48.4713" lon="-2.86281">
        <ele>157</ele>
        <time>2017-01-05T13:30:23.000Z</time>
      </trkpt>
      <trkpt lat="48.47126" lon="-2.86283">
        <ele>157</ele>
        <time>2017-01-05T13:30:24.000Z</time>
      </trkpt>
      <trkpt lat="48.47123" lon="-2.86285">
        <ele>157</ele>
        <time>2017-01-05T13:30:25.000Z</time>
      </trkpt>
      <trkpt lat="48.47119" lon="-2.86287">
        <ele>157</ele>
        <time>2017-01-05T13:30:26.000Z</time>
      </trkpt>
      <trkpt lat="48.47115" lon="-2.86289">
        <ele>157</ele>
        <time>2017-01-05T13:30:27.000Z</time>
      </trkpt>
      <trkpt lat="48.47112" lon="-2.86291">
        <ele>157</ele>
        <time>2017-01-05T13:30:28.000Z</time>
      </trkpt>
      <trkpt lat="48.47108" lon="-2.86293">
        <ele>157</ele>
        <time>2017-01-05T13:30:29.000Z</time>
      </trkpt>
      <trkpt lat="48.47104" lon="-2.86295">
        <ele>157</ele>
        <time>2017-01-05T13:30:30.000Z</time>
      </trkpt>
      <trkpt lat="48.47101" lon="-2.86297">
        <ele>157</ele>
        <time>2017-01-05T13:30:31.000Z</time>
      </trkpt>
      <trkpt lat="48.47098" lon="-2.863">
        <ele>157</ele>
        <time>2017-01-05T13:30:32.000Z</time>
      </trkpt>
      <trkpt lat="48.47094" lon="-2.86302">
        <ele>158</ele>
        <time>2017-01-05T13:30:33.000Z</time>
      </trkpt>
      <trkpt lat="48.47091" lon="-2.86304">
        <ele>158</ele>
        <time>2017-01-05T13:30:34.000Z</time>
      </trkpt>
      <trkpt lat="48.47087" lon="-2.86307">
        <ele>158</ele>
        <time>2017-01-05T13:30:35.000Z</time>
      </trkpt>
      <trkpt lat="48.47084" lon="-2.8631">
        <ele>158</ele>
        <time>2017-01-05T13:30:36.000Z</time>
      </trkpt>
      <trkpt lat="48.47081" lon="-2.86312">
        <ele>158</ele>
        <time>2017-01-05T13:30:37.000Z</time>
      </trkpt>
      <trkpt lat="48.47077" lon="-2.86315">
        <ele>158</ele>
        <time>2017-01-05T13:30:38.000Z</time>
      </trkpt>
      <trkpt lat="48.47074" lon="-2.86317">
        <ele>158</ele>
        <time>2017-01-05T13:30:39.000Z</time>
      </trkpt>
      <trkpt lat="48.47071" lon="-2.8632">
        <ele>158</ele>
        <time>2017-01-05T13:30:40.000Z</time>
      </trkpt>
      <trkpt lat="48.47068" lon="-2.86323">
        <ele>158</ele>
        <time>2017-01-05T13:30:41.000Z</time>
      </trkpt>
      <trkpt lat="48.47065" lon="-2.86326">
        <ele>158</ele>
        <time>2017-01-05T13:30:42.000Z</time>
      </trkpt>
      <trkpt lat="48.47062" lon="-2.86329">
        <ele>158</ele>
        <time>2017-01-05T13:30:43.000Z</time>
      </trkpt>
      <trkpt lat="48.47059" lon="-2.86333">
        <ele>158</ele>
        <time>2017-01-05T13:30:44.000Z</time>
      </trkpt>
      <trkpt lat="48.47056" lon="-2.86336">
        <ele>160</ele>
        <time>2017-01-05T13:30:45.000Z</time>
      </trkpt>
      <trkpt lat="48.47053" lon="-2.86339">
        <ele>160</ele>
        <time>2017-01-05T13:30:46.000Z</time>
      </trkpt>
      <trkpt lat="48.4705" lon="-2.86343">
        <ele>160</ele>
        <time>2017-01-05T13:30:47.000Z</time>
      </trkpt>
      <trkpt lat="48.47047" lon="-2.86346">
        <ele>160</ele>
        <time>2017-01-05T13:30:48.000Z</time>
      </trkpt>
      <trkpt lat="48.47044" lon="-2.86349">
        <ele>161</ele>
        <time>2017-01-05T13:30:49.000Z</time>
      </trkpt>
      <trkpt lat="48.47041" lon="-2.86353">
        <ele>161</ele>
        <time>2017-01-05T13:30:50.000Z</time>
      </trkpt>
      <trkpt lat="48.47038" lon="-2.86355">
        <ele>161</ele>
        <time>2017-01-05T13:30:51.000Z</time>
      </trkpt>
      <trkpt lat="48.47035" lon="-2.86358">
        <ele>161</ele>
        <time>2017-01-05T13:30:52.000Z</time>
      </trkpt>
      <trkpt lat="48.47031" lon="-2.86362">
        <ele>161</ele>
        <time>2017-01-05T13:30:53.000Z</time>
      </trkpt>
      <trkpt lat="48.47028" lon="-2.86365">
        <ele>161</ele>
        <time>2017-01-05T13:30:54.000Z</time>
      </trkpt>
      <trkpt lat="48.47025" lon="-2.86368">
        <ele>161</ele>
        <time>2017-01-05T13:30:55.000Z</time>
      </trkpt>
      <trkpt lat="48.47022" lon="-2.86371">
        <ele>161</ele>
        <time>2017-01-05T13:30:56.000Z</time>
      </trkpt>
      <trkpt lat="48.47019" lon="-2.86374">
        <ele>161</ele>
        <time>2017-01-05T13:30:57.000Z</time>
      </trkpt>
      <trkpt lat="48.47015" lon="-2.86377">
        <ele>161</ele>
        <time>2017-01-05T13:30:58.000Z</time>
      </trkpt>
      <trkpt lat="48.47012" lon="-2.86379">
        <ele>161</ele>
        <time>2017-01-05T13:30:59.000Z</time>
      </trkpt>
      <trkpt lat="48.47008" lon="-2.86381">
        <ele>161</ele>
        <time>2017-01-05T13:31:00.000Z</time>
      </trkpt>
      <trkpt lat="48.47004" lon="-2.86382">
        <ele>161</ele>
        <time>2017-01-05T13:31:01.000Z</time>
      </trkpt>
      <trkpt lat="48.47" lon="-2.86383">
        <ele>161</ele>
        <time>2017-01-05T13:31:02.000Z</time>
      </trkpt>
      <trkpt lat="48.46996" lon="-2.86383">
        <ele>162</ele>
        <time>2017-01-05T13:31:03.000Z</time>
      </trkpt>
      <trkpt lat="48.46992" lon="-2.86384">
        <ele>162</ele>
        <time>2017-01-05T13:31:04.000Z</time>
      </trkpt>
      <trkpt lat="48.46988" lon="-2.86384">
        <ele>162</ele>
        <time>2017-01-05T13:31:05.000Z</time>
      </trkpt>
      <trkpt lat="48.46985" lon="-2.86385">
        <ele>162</ele>
        <time>2017-01-05T13:31:06.000Z</time>
      </trkpt>
      <trkpt lat="48.46981" lon="-2.86385">
        <ele>162</ele>
        <time>2017-01-05T13:31:07.000Z</time>
      </trkpt>
      <trkpt lat="48.46977" lon="-2.86385">
        <ele>162</ele>
        <time>2017-01-05T13:31:08.000Z</time>
      </trkpt>
      <trkpt lat="48.46973" lon="-2.86386">
        <ele>162</ele>
        <time>2017-01-05T13:31:09.000Z</time>
      </trkpt>
      <trkpt lat="48.4697" lon="-2.86386">
        <ele>162</ele>
        <time>2017-01-05T13:31:10.000Z</time>
      </trkpt>
      <trkpt lat="48.46967" lon="-2.86387">
        <ele>162</ele>
        <time>2017-01-05T13:31:11.000Z</time>
      </trkpt>
      <trkpt lat="48.46964" lon="-2.86387">
        <ele>162</ele>
        <time>2017-01-05T13:31:12.000Z</time>
      </trkpt>
      <trkpt lat="48.46962" lon="-2.86388">
        <ele>162</ele>
        <time>2017-01-05T13:31:13.000Z</time>
      </trkpt>
      <trkpt lat="48.46959" lon="-2.86388">
        <ele>162</ele>
        <time>2017-01-05T13:31:14.000Z</time>
      </trkpt>
      <trkpt lat="48.46956" lon="-2.86388">
        <ele>162</ele>
        <time>2017-01-05T13:31:16.000Z</time>
      </trkpt>
      <trkpt lat="48.46954" lon="-2.86385">
        <ele>161</ele>
        <time>2017-01-05T13:31:18.000Z</time>
      </trkpt>
      <trkpt lat="48.46954" lon="-2.86382">
        <ele>161</ele>
        <time>2017-01-05T13:31:19.000Z</time>
      </trkpt>
      <trkpt lat="48.46954" lon="-2.86379">
        <ele>161</ele>
        <time>2017-01-05T13:31:20.000Z</time>
      </trkpt>
      <trkpt lat="48.46954" lon="-2.86376">
        <ele>161</ele>
        <time>2017-01-05T13:31:21.000Z</time>
      </trkpt>
      <trkpt lat="48.46954" lon="-2.86372">
        <ele>161</ele>
        <time>2017-01-05T13:31:22.000Z</time>
      </trkpt>
      <trkpt lat="48.46954" lon="-2.86368">
        <ele>161</ele>
        <time>2017-01-05T13:31:23.000Z</time>
      </trkpt>
      <trkpt lat="48.46954" lon="-2.86365">
        <ele>161</ele>
        <time>2017-01-05T13:31:24.000Z</time>
      </trkpt>
      <trkpt lat="48.46954" lon="-2.86361">
        <ele>161</ele>
        <time>2017-01-05T13:31:25.000Z</time>
      </trkpt>
      <trkpt lat="48.46954" lon="-2.86358">
        <ele>161</ele>
        <time>2017-01-05T13:31:26.000Z</time>
      </trkpt>
      <trkpt lat="48.46955" lon="-2.86354">
        <ele>161</ele>
        <time>2017-01-05T13:31:27.000Z</time>
      </trkpt>
      <trkpt lat="48.46955" lon="-2.86349">
        <ele>161</ele>
        <time>2017-01-05T13:31:28.000Z</time>
      </trkpt>
      <trkpt lat="48.46956" lon="-2.86345">
        <ele>161</ele>
        <time>2017-01-05T13:31:29.000Z</time>
      </trkpt>
      <trkpt lat="48.46956" lon="-2.86341">
        <ele>161</ele>
        <time>2017-01-05T13:31:30.000Z</time>
      </trkpt>
      <trkpt lat="48.46956" lon="-2.86337">
        <ele>161</ele>
        <time>2017-01-05T13:31:31.000Z</time>
      </trkpt>
      <trkpt lat="48.46956" lon="-2.86333">
        <ele>158</ele>
        <time>2017-01-05T13:31:32.000Z</time>
      </trkpt>
      <trkpt lat="48.46956" lon="-2.86329">
        <ele>158</ele>
        <time>2017-01-05T13:31:33.000Z</time>
      </trkpt>
      <trkpt lat="48.46956" lon="-2.86324">
        <ele>158</ele>
        <time>2017-01-05T13:31:34.000Z</time>
      </trkpt>
      <trkpt lat="48.46954" lon="-2.86318">
        <ele>158</ele>
        <time>2017-01-05T13:31:35.000Z</time>
      </trkpt>
      <trkpt lat="48.46953" lon="-2.86313">
        <ele>158</ele>
        <time>2017-01-05T13:31:36.000Z</time>
      </trkpt>
      <trkpt lat="48.46953" lon="-2.86308">
        <ele>158</ele>
        <time>2017-01-05T13:31:37.000Z</time>
      </trkpt>
      <trkpt lat="48.46954" lon="-2.86302">
        <ele>158</ele>
        <time>2017-01-05T13:31:38.000Z</time>
      </trkpt>
      <trkpt lat="48.46954" lon="-2.86298">
        <ele>158</ele>
        <time>2017-01-05T13:31:39.000Z</time>
      </trkpt>
      <trkpt lat="48.46954" lon="-2.86294">
        <ele>158</ele>
        <time>2017-01-05T13:31:40.000Z</time>
      </trkpt>
      <trkpt lat="48.46953" lon="-2.86285">
        <ele>158</ele>
        <time>2017-01-05T13:31:42.000Z</time>
      </trkpt>
      <trkpt lat="48.46953" lon="-2.8628">
        <ele>157</ele>
        <time>2017-01-05T13:31:43.000Z</time>
      </trkpt>
      <trkpt lat="48.46953" lon="-2.86275">
        <ele>157</ele>
        <time>2017-01-05T13:31:44.000Z</time>
      </trkpt>
      <trkpt lat="48.46953" lon="-2.8627">
        <ele>157</ele>
        <time>2017-01-05T13:31:45.000Z</time>
      </trkpt>
      <trkpt lat="48.46952" lon="-2.86265">
        <ele>157</ele>
        <time>2017-01-05T13:31:46.000Z</time>
      </trkpt>
      <trkpt lat="48.46952" lon="-2.86261">
        <ele>157</ele>
        <time>2017-01-05T13:31:47.000Z</time>
      </trkpt>
      <trkpt lat="48.46952" lon="-2.86256">
        <ele>157</ele>
        <time>2017-01-05T13:31:48.000Z</time>
      </trkpt>
      <trkpt lat="48.46953" lon="-2.86252">
        <ele>157</ele>
        <time>2017-01-05T13:31:49.000Z</time>
      </trkpt>
      <trkpt lat="48.46952" lon="-2.86247">
        <ele>155</ele>
        <time>2017-01-05T13:31:50.000Z</time>
      </trkpt>
      <trkpt lat="48.46952" lon="-2.86242">
        <ele>155</ele>
        <time>2017-01-05T13:31:51.000Z</time>
      </trkpt>
      <trkpt lat="48.46952" lon="-2.86236">
        <ele>155</ele>
        <time>2017-01-05T13:31:52.000Z</time>
      </trkpt>
      <trkpt lat="48.46952" lon="-2.86231">
        <ele>155</ele>
        <time>2017-01-05T13:31:53.000Z</time>
      </trkpt>
      <trkpt lat="48.46951" lon="-2.86225">
        <ele>155</ele>
        <time>2017-01-05T13:31:54.000Z</time>
      </trkpt>
      <trkpt lat="48.4695" lon="-2.86219">
        <ele>155</ele>
        <time>2017-01-05T13:31:55.000Z</time>
      </trkpt>
      <trkpt lat="48.4695" lon="-2.86214">
        <ele>155</ele>
        <time>2017-01-05T13:31:56.000Z</time>
      </trkpt>
      <trkpt lat="48.46949" lon="-2.8621">
        <ele>155</ele>
        <time>2017-01-05T13:31:57.000Z</time>
      </trkpt>
      <trkpt lat="48.46949" lon="-2.86205">
        <ele>155</ele>
        <time>2017-01-05T13:31:58.000Z</time>
      </trkpt>
      <trkpt lat="48.46948" lon="-2.862">
        <ele>155</ele>
        <time>2017-01-05T13:31:59.000Z</time>
      </trkpt>
      <trkpt lat="48.46948" lon="-2.86196">
        <ele>155</ele>
        <time>2017-01-05T13:32:00.000Z</time>
      </trkpt>
      <trkpt lat="48.46947" lon="-2.86192">
        <ele>155</ele>
        <time>2017-01-05T13:32:01.000Z</time>
      </trkpt>
      <trkpt lat="48.46947" lon="-2.86187">
        <ele>155</ele>
        <time>2017-01-05T13:32:02.000Z</time>
      </trkpt>
      <trkpt lat="48.46946" lon="-2.86182">
        <ele>155</ele>
        <time>2017-01-05T13:32:03.000Z</time>
      </trkpt>
      <trkpt lat="48.46946" lon="-2.86177">
        <ele>155</ele>
        <time>2017-01-05T13:32:04.000Z</time>
      </trkpt>
      <trkpt lat="48.46946" lon="-2.86173">
        <ele>155</ele>
        <time>2017-01-05T13:32:05.000Z</time>
      </trkpt>
      <trkpt lat="48.46946" lon="-2.86169">
        <ele>155</ele>
        <time>2017-01-05T13:32:06.000Z</time>
      </trkpt>
      <trkpt lat="48.46946" lon="-2.86165">
        <ele>153</ele>
        <time>2017-01-05T13:32:07.000Z</time>
      </trkpt>
      <trkpt lat="48.46946" lon="-2.86161">
        <ele>153</ele>
        <time>2017-01-05T13:32:08.000Z</time>
      </trkpt>
      <trkpt lat="48.46946" lon="-2.86156">
        <ele>153</ele>
        <time>2017-01-05T13:32:09.000Z</time>
      </trkpt>
      <trkpt lat="48.46946" lon="-2.86152">
        <ele>153</ele>
        <time>2017-01-05T13:32:10.000Z</time>
      </trkpt>
      <trkpt lat="48.46946" lon="-2.86147">
        <ele>153</ele>
        <time>2017-01-05T13:32:11.000Z</time>
      </trkpt>
      <trkpt lat="48.46946" lon="-2.86143">
        <ele>153</ele>
        <time>2017-01-05T13:32:12.000Z</time>
      </trkpt>
      <trkpt lat="48.46946" lon="-2.86139">
        <ele>153</ele>
        <time>2017-01-05T13:32:13.000Z</time>
      </trkpt>
      <trkpt lat="48.46946" lon="-2.86135">
        <ele>153</ele>
        <time>2017-01-05T13:32:14.000Z</time>
      </trkpt>
      <trkpt lat="48.46945" lon="-2.86132">
        <ele>152</ele>
        <time>2017-01-05T13:32:15.000Z</time>
      </trkpt>
      <trkpt lat="48.46944" lon="-2.86128">
        <ele>152</ele>
        <time>2017-01-05T13:32:16.000Z</time>
      </trkpt>
      <trkpt lat="48.46942" lon="-2.86125">
        <ele>152</ele>
        <time>2017-01-05T13:32:17.000Z</time>
      </trkpt>
      <trkpt lat="48.46941" lon="-2.86121">
        <ele>152</ele>
        <time>2017-01-05T13:32:18.000Z</time>
      </trkpt>
      <trkpt lat="48.46939" lon="-2.86117">
        <ele>152</ele>
        <time>2017-01-05T13:32:19.000Z</time>
      </trkpt>
      <trkpt lat="48.46937" lon="-2.86113">
        <ele>152</ele>
        <time>2017-01-05T13:32:20.000Z</time>
      </trkpt>
      <trkpt lat="48.46934" lon="-2.8611">
        <ele>152</ele>
        <time>2017-01-05T13:32:21.000Z</time>
      </trkpt>
      <trkpt lat="48.46931" lon="-2.86109">
        <ele>152</ele>
        <time>2017-01-05T13:32:22.000Z</time>
      </trkpt>
      <trkpt lat="48.46928" lon="-2.8611">
        <ele>152</ele>
        <time>2017-01-05T13:32:23.000Z</time>
      </trkpt>
      <trkpt lat="48.46924" lon="-2.8611">
        <ele>152</ele>
        <time>2017-01-05T13:32:24.000Z</time>
      </trkpt>
      <trkpt lat="48.46921" lon="-2.86111">
        <ele>152</ele>
        <time>2017-01-05T13:32:25.000Z</time>
      </trkpt>
      <trkpt lat="48.46917" lon="-2.86111">
        <ele>152</ele>
        <time>2017-01-05T13:32:26.000Z</time>
      </trkpt>
      <trkpt lat="48.46913" lon="-2.86111">
        <ele>152</ele>
        <time>2017-01-05T13:32:27.000Z</time>
      </trkpt>
      <trkpt lat="48.46909" lon="-2.86112">
        <ele>152</ele>
        <time>2017-01-05T13:32:28.000Z</time>
      </trkpt>
      <trkpt lat="48.46905" lon="-2.86112">
        <ele>152</ele>
        <time>2017-01-05T13:32:29.000Z</time>
      </trkpt>
      <trkpt lat="48.46902" lon="-2.86112">
        <ele>152</ele>
        <time>2017-01-05T13:32:30.000Z</time>
      </trkpt>
      <trkpt lat="48.46898" lon="-2.86113">
        <ele>152</ele>
        <time>2017-01-05T13:32:31.000Z</time>
      </trkpt>
      <trkpt lat="48.46894" lon="-2.86113">
        <ele>152</ele>
        <time>2017-01-05T13:32:32.000Z</time>
      </trkpt>
      <trkpt lat="48.4689" lon="-2.86113">
        <ele>152</ele>
        <time>2017-01-05T13:32:33.000Z</time>
      </trkpt>
      <trkpt lat="48.46886" lon="-2.86114">
        <ele>152</ele>
        <time>2017-01-05T13:32:34.000Z</time>
      </trkpt>
      <trkpt lat="48.46882" lon="-2.86114">
        <ele>152</ele>
        <time>2017-01-05T13:32:35.000Z</time>
      </trkpt>
      <trkpt lat="48.46878" lon="-2.86115">
        <ele>152</ele>
        <time>2017-01-05T13:32:36.000Z</time>
      </trkpt>
      <trkpt lat="48.46874" lon="-2.86115">
        <ele>152</ele>
        <time>2017-01-05T13:32:37.000Z</time>
      </trkpt>
      <trkpt lat="48.4687" lon="-2.86115">
        <ele>152</ele>
        <time>2017-01-05T13:32:38.000Z</time>
      </trkpt>
      <trkpt lat="48.46866" lon="-2.86115">
        <ele>152</ele>
        <time>2017-01-05T13:32:39.000Z</time>
      </trkpt>
      <trkpt lat="48.46862" lon="-2.86115">
        <ele>151</ele>
        <time>2017-01-05T13:32:40.000Z</time>
      </trkpt>
      <trkpt lat="48.46857" lon="-2.86115">
        <ele>151</ele>
        <time>2017-01-05T13:32:41.000Z</time>
      </trkpt>
      <trkpt lat="48.46853" lon="-2.86115">
        <ele>151</ele>
        <time>2017-01-05T13:32:42.000Z</time>
      </trkpt>
      <trkpt lat="48.46849" lon="-2.86115">
        <ele>151</ele>
        <time>2017-01-05T13:32:43.000Z</time>
      </trkpt>
      <trkpt lat="48.46844" lon="-2.86115">
        <ele>151</ele>
        <time>2017-01-05T13:32:44.000Z</time>
      </trkpt>
      <trkpt lat="48.4684" lon="-2.86114">
        <ele>151</ele>
        <time>2017-01-05T13:32:45.000Z</time>
      </trkpt>
      <trkpt lat="48.46836" lon="-2.86114">
        <ele>151</ele>
        <time>2017-01-05T13:32:46.000Z</time>
      </trkpt>
      <trkpt lat="48.46831" lon="-2.86113">
        <ele>150</ele>
        <time>2017-01-05T13:32:47.000Z</time>
      </trkpt>
      <trkpt lat="48.46827" lon="-2.86112">
        <ele>150</ele>
        <time>2017-01-05T13:32:48.000Z</time>
      </trkpt>
      <trkpt lat="48.46823" lon="-2.86112">
        <ele>150</ele>
        <time>2017-01-05T13:32:49.000Z</time>
      </trkpt>
      <trkpt lat="48.46819" lon="-2.86111">
        <ele>150</ele>
        <time>2017-01-05T13:32:50.000Z</time>
      </trkpt>
      <trkpt lat="48.46815" lon="-2.8611">
        <ele>150</ele>
        <time>2017-01-05T13:32:51.000Z</time>
      </trkpt>
      <trkpt lat="48.46811" lon="-2.86108">
        <ele>150</ele>
        <time>2017-01-05T13:32:52.000Z</time>
      </trkpt>
      <trkpt lat="48.46807" lon="-2.86107">
        <ele>150</ele>
        <time>2017-01-05T13:32:53.000Z</time>
      </trkpt>
      <trkpt lat="48.46803" lon="-2.86105">
        <ele>150</ele>
        <time>2017-01-05T13:32:54.000Z</time>
      </trkpt>
      <trkpt lat="48.46799" lon="-2.86103">
        <ele>150</ele>
        <time>2017-01-05T13:32:55.000Z</time>
      </trkpt>
      <trkpt lat="48.46795" lon="-2.86101">
        <ele>150</ele>
        <time>2017-01-05T13:32:56.000Z</time>
      </trkpt>
      <trkpt lat="48.46791" lon="-2.86099">
        <ele>150</ele>
        <time>2017-01-05T13:32:57.000Z</time>
      </trkpt>
      <trkpt lat="48.46787" lon="-2.86097">
        <ele>150</ele>
        <time>2017-01-05T13:32:58.000Z</time>
      </trkpt>
      <trkpt lat="48.46783" lon="-2.86095">
        <ele>150</ele>
        <time>2017-01-05T13:32:59.000Z</time>
      </trkpt>
      <trkpt lat="48.4678" lon="-2.86093">
        <ele>150</ele>
        <time>2017-01-05T13:33:00.000Z</time>
      </trkpt>
      <trkpt lat="48.46775" lon="-2.86091">
        <ele>150</ele>
        <time>2017-01-05T13:33:01.000Z</time>
      </trkpt>
      <trkpt lat="48.46771" lon="-2.86088">
        <ele>150</ele>
        <time>2017-01-05T13:33:02.000Z</time>
      </trkpt>
      <trkpt lat="48.46767" lon="-2.86086">
        <ele>150</ele>
        <time>2017-01-05T13:33:03.000Z</time>
      </trkpt>
      <trkpt lat="48.46763" lon="-2.86084">
        <ele>150</ele>
        <time>2017-01-05T13:33:04.000Z</time>
      </trkpt>
      <trkpt lat="48.46759" lon="-2.86082">
        <ele>149</ele>
        <time>2017-01-05T13:33:05.000Z</time>
      </trkpt>
      <trkpt lat="48.46755" lon="-2.8608">
        <ele>149</ele>
        <time>2017-01-05T13:33:06.000Z</time>
      </trkpt>
      <trkpt lat="48.46751" lon="-2.86078">
        <ele>149</ele>
        <time>2017-01-05T13:33:07.000Z</time>
      </trkpt>
      <trkpt lat="48.46747" lon="-2.86077">
        <ele>149</ele>
        <time>2017-01-05T13:33:08.000Z</time>
      </trkpt>
      <trkpt lat="48.46743" lon="-2.86075">
        <ele>149</ele>
        <time>2017-01-05T13:33:09.000Z</time>
      </trkpt>
      <trkpt lat="48.46739" lon="-2.86073">
        <ele>149</ele>
        <time>2017-01-05T13:33:10.000Z</time>
      </trkpt>
      <trkpt lat="48.46734" lon="-2.86071">
        <ele>149</ele>
        <time>2017-01-05T13:33:11.000Z</time>
      </trkpt>
      <trkpt lat="48.4673" lon="-2.86069">
        <ele>148</ele>
        <time>2017-01-05T13:33:12.000Z</time>
      </trkpt>
      <trkpt lat="48.46726" lon="-2.86067">
        <ele>148</ele>
        <time>2017-01-05T13:33:13.000Z</time>
      </trkpt>
      <trkpt lat="48.46722" lon="-2.86065">
        <ele>148</ele>
        <time>2017-01-05T13:33:14.000Z</time>
      </trkpt>
      <trkpt lat="48.46717" lon="-2.86063">
        <ele>148</ele>
        <time>2017-01-05T13:33:15.000Z</time>
      </trkpt>
      <trkpt lat="48.46713" lon="-2.86062">
        <ele>148</ele>
        <time>2017-01-05T13:33:16.000Z</time>
      </trkpt>
      <trkpt lat="48.46709" lon="-2.86062">
        <ele>148</ele>
        <time>2017-01-05T13:33:17.000Z</time>
      </trkpt>
      <trkpt lat="48.46704" lon="-2.86062">
        <ele>148</ele>
        <time>2017-01-05T13:33:18.000Z</time>
      </trkpt>
      <trkpt lat="48.46699" lon="-2.86063">
        <ele>148</ele>
        <time>2017-01-05T13:33:19.000Z</time>
      </trkpt>
      <trkpt lat="48.46695" lon="-2.86064">
        <ele>148</ele>
        <time>2017-01-05T13:33:20.000Z</time>
      </trkpt>
      <trkpt lat="48.4669" lon="-2.86065">
        <ele>148</ele>
        <time>2017-01-05T13:33:21.000Z</time>
      </trkpt>
      <trkpt lat="48.46686" lon="-2.86067">
        <ele>148</ele>
        <time>2017-01-05T13:33:22.000Z</time>
      </trkpt>
      <trkpt lat="48.46682" lon="-2.8607">
        <ele>148</ele>
        <time>2017-01-05T13:33:23.000Z</time>
      </trkpt>
      <trkpt lat="48.46678" lon="-2.86073">
        <ele>148</ele>
        <time>2017-01-05T13:33:24.000Z</time>
      </trkpt>
      <trkpt lat="48.46674" lon="-2.86076">
        <ele>147</ele>
        <time>2017-01-05T13:33:25.000Z</time>
      </trkpt>
      <trkpt lat="48.46671" lon="-2.8608">
        <ele>147</ele>
        <time>2017-01-05T13:33:26.000Z</time>
      </trkpt>
      <trkpt lat="48.46667" lon="-2.86084">
        <ele>147</ele>
        <time>2017-01-05T13:33:27.000Z</time>
      </trkpt>
      <trkpt lat="48.46664" lon="-2.86088">
        <ele>147</ele>
        <time>2017-01-05T13:33:28.000Z</time>
      </trkpt>
      <trkpt lat="48.46661" lon="-2.86092">
        <ele>147</ele>
        <time>2017-01-05T13:33:29.000Z</time>
      </trkpt>
      <trkpt lat="48.46658" lon="-2.86097">
        <ele>147</ele>
        <time>2017-01-05T13:33:30.000Z</time>
      </trkpt>
      <trkpt lat="48.46655" lon="-2.86101">
        <ele>147</ele>
        <time>2017-01-05T13:33:31.000Z</time>
      </trkpt>
      <trkpt lat="48.46652" lon="-2.86105">
        <ele>147</ele>
        <time>2017-01-05T13:33:32.000Z</time>
      </trkpt>
      <trkpt lat="48.46649" lon="-2.86109">
        <ele>147</ele>
        <time>2017-01-05T13:33:33.000Z</time>
      </trkpt>
      <trkpt lat="48.46646" lon="-2.86112">
        <ele>147</ele>
        <time>2017-01-05T13:33:34.000Z</time>
      </trkpt>
      <trkpt lat="48.46643" lon="-2.86116">
        <ele>148</ele>
        <time>2017-01-05T13:33:35.000Z</time>
      </trkpt>
      <trkpt lat="48.4664" lon="-2.86119">
        <ele>148</ele>
        <time>2017-01-05T13:33:36.000Z</time>
      </trkpt>
      <trkpt lat="48.46638" lon="-2.86121">
        <ele>148</ele>
        <time>2017-01-05T13:33:37.000Z</time>
      </trkpt>
      <trkpt lat="48.46635" lon="-2.86123">
        <ele>148</ele>
        <time>2017-01-05T13:33:38.000Z</time>
      </trkpt>
      <trkpt lat="48.46633" lon="-2.86124">
        <ele>148</ele>
        <time>2017-01-05T13:33:39.000Z</time>
      </trkpt>
      <trkpt lat="48.46632" lon="-2.86126">
        <ele>148</ele>
        <time>2017-01-05T13:33:40.000Z</time>
      </trkpt>
      <trkpt lat="48.4663" lon="-2.86131">
        <ele>148</ele>
        <time>2017-01-05T13:33:42.000Z</time>
      </trkpt>
      <trkpt lat="48.4663" lon="-2.86135">
        <ele>148</ele>
        <time>2017-01-05T13:33:43.000Z</time>
      </trkpt>
      <trkpt lat="48.4663" lon="-2.8614">
        <ele>148</ele>
        <time>2017-01-05T13:33:44.000Z</time>
      </trkpt>
      <trkpt lat="48.4663" lon="-2.86145">
        <ele>148</ele>
        <time>2017-01-05T13:33:45.000Z</time>
      </trkpt>
      <trkpt lat="48.4663" lon="-2.86151">
        <ele>148</ele>
        <time>2017-01-05T13:33:46.000Z</time>
      </trkpt>
      <trkpt lat="48.4663" lon="-2.86156">
        <ele>148</ele>
        <time>2017-01-05T13:33:47.000Z</time>
      </trkpt>
      <trkpt lat="48.4663" lon="-2.86162">
        <ele>148</ele>
        <time>2017-01-05T13:33:48.000Z</time>
      </trkpt>
      <trkpt lat="48.46629" lon="-2.86167">
        <ele>149</ele>
        <time>2017-01-05T13:33:49.000Z</time>
      </trkpt>
      <trkpt lat="48.46629" lon="-2.86173">
        <ele>149</ele>
        <time>2017-01-05T13:33:50.000Z</time>
      </trkpt>
      <trkpt lat="48.46628" lon="-2.86179">
        <ele>149</ele>
        <time>2017-01-05T13:33:51.000Z</time>
      </trkpt>
      <trkpt lat="48.46628" lon="-2.86184">
        <ele>149</ele>
        <time>2017-01-05T13:33:52.000Z</time>
      </trkpt>
      <trkpt lat="48.46627" lon="-2.8619">
        <ele>149</ele>
        <time>2017-01-05T13:33:53.000Z</time>
      </trkpt>
      <trkpt lat="48.46627" lon="-2.86196">
        <ele>149</ele>
        <time>2017-01-05T13:33:54.000Z</time>
      </trkpt>
      <trkpt lat="48.46626" lon="-2.86201">
        <ele>149</ele>
        <time>2017-01-05T13:33:55.000Z</time>
      </trkpt>
      <trkpt lat="48.46626" lon="-2.86207">
        <ele>149</ele>
        <time>2017-01-05T13:33:56.000Z</time>
      </trkpt>
      <trkpt lat="48.46625" lon="-2.86213">
        <ele>149</ele>
        <time>2017-01-05T13:33:57.000Z</time>
      </trkpt>
      <trkpt lat="48.46625" lon="-2.86218">
        <ele>149</ele>
        <time>2017-01-05T13:33:58.000Z</time>
      </trkpt>
      <trkpt lat="48.46624" lon="-2.86224">
        <ele>149</ele>
        <time>2017-01-05T13:33:59.000Z</time>
      </trkpt>
      <trkpt lat="48.46623" lon="-2.86229">
        <ele>150</ele>
        <time>2017-01-05T13:34:00.000Z</time>
      </trkpt>
      <trkpt lat="48.46622" lon="-2.86235">
        <ele>150</ele>
        <time>2017-01-05T13:34:01.000Z</time>
      </trkpt>
      <trkpt lat="48.46621" lon="-2.8624">
        <ele>150</ele>
        <time>2017-01-05T13:34:02.000Z</time>
      </trkpt>
      <trkpt lat="48.4662" lon="-2.86246">
        <ele>150</ele>
        <time>2017-01-05T13:34:03.000Z</time>
      </trkpt>
      <trkpt lat="48.46619" lon="-2.86251">
        <ele>151</ele>
        <time>2017-01-05T13:34:04.000Z</time>
      </trkpt>
      <trkpt lat="48.46618" lon="-2.86257">
        <ele>151</ele>
        <time>2017-01-05T13:34:05.000Z</time>
      </trkpt>
      <trkpt lat="48.46616" lon="-2.86262">
        <ele>151</ele>
        <time>2017-01-05T13:34:06.000Z</time>
      </trkpt>
      <trkpt lat="48.46615" lon="-2.86268">
        <ele>152</ele>
        <time>2017-01-05T13:34:07.000Z</time>
      </trkpt>
      <trkpt lat="48.46613" lon="-2.86273">
        <ele>152</ele>
        <time>2017-01-05T13:34:08.000Z</time>
      </trkpt>
      <trkpt lat="48.46612" lon="-2.86278">
        <ele>152</ele>
        <time>2017-01-05T13:34:09.000Z</time>
      </trkpt>
      <trkpt lat="48.4661" lon="-2.86283">
        <ele>152</ele>
        <time>2017-01-05T13:34:10.000Z</time>
      </trkpt>
      <trkpt lat="48.46608" lon="-2.86289">
        <ele>152</ele>
        <time>2017-01-05T13:34:11.000Z</time>
      </trkpt>
      <trkpt lat="48.46606" lon="-2.86294">
        <ele>152</ele>
        <time>2017-01-05T13:34:12.000Z</time>
      </trkpt>
      <trkpt lat="48.46604" lon="-2.86299">
        <ele>152</ele>
        <time>2017-01-05T13:34:13.000Z</time>
      </trkpt>
      <trkpt lat="48.46602" lon="-2.86305">
        <ele>152</ele>
        <time>2017-01-05T13:34:14.000Z</time>
      </trkpt>
      <trkpt lat="48.466" lon="-2.8631">
        <ele>152</ele>
        <time>2017-01-05T13:34:15.000Z</time>
      </trkpt>
      <trkpt lat="48.46598" lon="-2.86315">
        <ele>152</ele>
        <time>2017-01-05T13:34:16.000Z</time>
      </trkpt>
      <trkpt lat="48.46596" lon="-2.8632">
        <ele>152</ele>
        <time>2017-01-05T13:34:17.000Z</time>
      </trkpt>
      <trkpt lat="48.46594" lon="-2.86325">
        <ele>152</ele>
        <time>2017-01-05T13:34:18.000Z</time>
      </trkpt>
      <trkpt lat="48.46591" lon="-2.8633">
        <ele>152</ele>
        <time>2017-01-05T13:34:19.000Z</time>
      </trkpt>
      <trkpt lat="48.46589" lon="-2.86334">
        <ele>153</ele>
        <time>2017-01-05T13:34:20.000Z</time>
      </trkpt>
      <trkpt lat="48.46586" lon="-2.86339">
        <ele>153</ele>
        <time>2017-01-05T13:34:21.000Z</time>
      </trkpt>
      <trkpt lat="48.46583" lon="-2.86344">
        <ele>152</ele>
        <time>2017-01-05T13:34:22.000Z</time>
      </trkpt>
      <trkpt lat="48.4658" lon="-2.86348">
        <ele>152</ele>
        <time>2017-01-05T13:34:23.000Z</time>
      </trkpt>
      <trkpt lat="48.46578" lon="-2.86353">
        <ele>152</ele>
        <time>2017-01-05T13:34:24.000Z</time>
      </trkpt>
      <trkpt lat="48.46575" lon="-2.86357">
        <ele>152</ele>
        <time>2017-01-05T13:34:25.000Z</time>
      </trkpt>
      <trkpt lat="48.46572" lon="-2.86362">
        <ele>152</ele>
        <time>2017-01-05T13:34:26.000Z</time>
      </trkpt>
      <trkpt lat="48.46569" lon="-2.86366">
        <ele>152</ele>
        <time>2017-01-05T13:34:27.000Z</time>
      </trkpt>
      <trkpt lat="48.46567" lon="-2.86371">
        <ele>152</ele>
        <time>2017-01-05T13:34:28.000Z</time>
      </trkpt>
      <trkpt lat="48.46564" lon="-2.86375">
        <ele>152</ele>
        <time>2017-01-05T13:34:29.000Z</time>
      </trkpt>
      <trkpt lat="48.46561" lon="-2.8638">
        <ele>152</ele>
        <time>2017-01-05T13:34:30.000Z</time>
      </trkpt>
      <trkpt lat="48.46559" lon="-2.86385">
        <ele>152</ele>
        <time>2017-01-05T13:34:31.000Z</time>
      </trkpt>
      <trkpt lat="48.46556" lon="-2.86389">
        <ele>152</ele>
        <time>2017-01-05T13:34:32.000Z</time>
      </trkpt>
      <trkpt lat="48.46554" lon="-2.86394">
        <ele>152</ele>
        <time>2017-01-05T13:34:33.000Z</time>
      </trkpt>
      <trkpt lat="48.46552" lon="-2.86399">
        <ele>152</ele>
        <time>2017-01-05T13:34:34.000Z</time>
      </trkpt>
      <trkpt lat="48.4655" lon="-2.86404">
        <ele>152</ele>
        <time>2017-01-05T13:34:35.000Z</time>
      </trkpt>
      <trkpt lat="48.46549" lon="-2.86409">
        <ele>152</ele>
        <time>2017-01-05T13:34:36.000Z</time>
      </trkpt>
      <trkpt lat="48.46547" lon="-2.86414">
        <ele>152</ele>
        <time>2017-01-05T13:34:37.000Z</time>
      </trkpt>
      <trkpt lat="48.46546" lon="-2.8642">
        <ele>154</ele>
        <time>2017-01-05T13:34:38.000Z</time>
      </trkpt>
      <trkpt lat="48.46544" lon="-2.86425">
        <ele>154</ele>
        <time>2017-01-05T13:34:39.000Z</time>
      </trkpt>
      <trkpt lat="48.46543" lon="-2.86429">
        <ele>154</ele>
        <time>2017-01-05T13:34:40.000Z</time>
      </trkpt>
      <trkpt lat="48.46542" lon="-2.86433">
        <ele>154</ele>
        <time>2017-01-05T13:34:41.000Z</time>
      </trkpt>
      <trkpt lat="48.46541" lon="-2.86437">
        <ele>154</ele>
        <time>2017-01-05T13:34:42.000Z</time>
      </trkpt>
      <trkpt lat="48.46539" lon="-2.8644">
        <ele>154</ele>
        <time>2017-01-05T13:34:43.000Z</time>
      </trkpt>
      <trkpt lat="48.46538" lon="-2.86442">
        <ele>154</ele>
        <time>2017-01-05T13:34:44.000Z</time>
      </trkpt>
      <trkpt lat="48.46536" lon="-2.86444">
        <ele>154</ele>
        <time>2017-01-05T13:34:45.000Z</time>
      </trkpt>
      <trkpt lat="48.46534" lon="-2.86445">
        <ele>154</ele>
        <time>2017-01-05T13:34:46.000Z</time>
      </trkpt>
      <trkpt lat="48.46531" lon="-2.86444">
        <ele>154</ele>
        <time>2017-01-05T13:34:47.000Z</time>
      </trkpt>
      <trkpt lat="48.46529" lon="-2.86444">
        <ele>154</ele>
        <time>2017-01-05T13:34:48.000Z</time>
      </trkpt>
      <trkpt lat="48.46526" lon="-2.86443">
        <ele>154</ele>
        <time>2017-01-05T13:34:49.000Z</time>
      </trkpt>
      <trkpt lat="48.46523" lon="-2.86442">
        <ele>154</ele>
        <time>2017-01-05T13:34:50.000Z</time>
      </trkpt>
      <trkpt lat="48.46521" lon="-2.86442">
        <ele>154</ele>
        <time>2017-01-05T13:34:51.000Z</time>
      </trkpt>
      <trkpt lat="48.46518" lon="-2.86443">
        <ele>154</ele>
        <time>2017-01-05T13:34:52.000Z</time>
      </trkpt>
      <trkpt lat="48.46516" lon="-2.86444">
        <ele>154</ele>
        <time>2017-01-05T13:34:53.000Z</time>
      </trkpt>
      <trkpt lat="48.46513" lon="-2.86446">
        <ele>154</ele>
        <time>2017-01-05T13:34:54.000Z</time>
      </trkpt>
      <trkpt lat="48.46511" lon="-2.86448">
        <ele>154</ele>
        <time>2017-01-05T13:34:55.000Z</time>
      </trkpt>
      <trkpt lat="48.46508" lon="-2.8645">
        <ele>154</ele>
        <time>2017-01-05T13:34:56.000Z</time>
      </trkpt>
      <trkpt lat="48.46505" lon="-2.86453">
        <ele>154</ele>
        <time>2017-01-05T13:34:57.000Z</time>
      </trkpt>
      <trkpt lat="48.46503" lon="-2.86456">
        <ele>154</ele>
        <time>2017-01-05T13:34:58.000Z</time>
      </trkpt>
      <trkpt lat="48.46501" lon="-2.86459">
        <ele>154</ele>
        <time>2017-01-05T13:34:59.000Z</time>
      </trkpt>
      <trkpt lat="48.46499" lon="-2.86463">
        <ele>151</ele>
        <time>2017-01-05T13:35:00.000Z</time>
      </trkpt>
      <trkpt lat="48.46497" lon="-2.86467">
        <ele>151</ele>
        <time>2017-01-05T13:35:01.000Z</time>
      </trkpt>
      <trkpt lat="48.46495" lon="-2.86471">
        <ele>151</ele>
        <time>2017-01-05T13:35:02.000Z</time>
      </trkpt>
      <trkpt lat="48.46492" lon="-2.86476">
        <ele>152</ele>
        <time>2017-01-05T13:35:03.000Z</time>
      </trkpt>
      <trkpt lat="48.4649" lon="-2.8648">
        <ele>152</ele>
        <time>2017-01-05T13:35:04.000Z</time>
      </trkpt>
      <trkpt lat="48.46488" lon="-2.86484">
        <ele>152</ele>
        <time>2017-01-05T13:35:05.000Z</time>
      </trkpt>
      <trkpt lat="48.46485" lon="-2.86489">
        <ele>152</ele>
        <time>2017-01-05T13:35:06.000Z</time>
      </trkpt>
      <trkpt lat="48.46482" lon="-2.86493">
        <ele>152</ele>
        <time>2017-01-05T13:35:07.000Z</time>
      </trkpt>
      <trkpt lat="48.4648" lon="-2.86497">
        <ele>152</ele>
        <time>2017-01-05T13:35:08.000Z</time>
      </trkpt>
      <trkpt lat="48.46477" lon="-2.86502">
        <ele>154</ele>
        <time>2017-01-05T13:35:09.000Z</time>
      </trkpt>
      <trkpt lat="48.46474" lon="-2.86506">
        <ele>153</ele>
        <time>2017-01-05T13:35:10.000Z</time>
      </trkpt>
      <trkpt lat="48.46472" lon="-2.86511">
        <ele>153</ele>
        <time>2017-01-05T13:35:11.000Z</time>
      </trkpt>
      <trkpt lat="48.46469" lon="-2.86515">
        <ele>153</ele>
        <time>2017-01-05T13:35:12.000Z</time>
      </trkpt>
      <trkpt lat="48.46466" lon="-2.86518">
        <ele>153</ele>
        <time>2017-01-05T13:35:13.000Z</time>
      </trkpt>
      <trkpt lat="48.46464" lon="-2.86522">
        <ele>153</ele>
        <time>2017-01-05T13:35:14.000Z</time>
      </trkpt>
      <trkpt lat="48.46461" lon="-2.86525">
        <ele>153</ele>
        <time>2017-01-05T13:35:15.000Z</time>
      </trkpt>
      <trkpt lat="48.46458" lon="-2.86528">
        <ele>153</ele>
        <time>2017-01-05T13:35:16.000Z</time>
      </trkpt>
      <trkpt lat="48.46456" lon="-2.86532">
        <ele>153</ele>
        <time>2017-01-05T13:35:17.000Z</time>
      </trkpt>
      <trkpt lat="48.46455" lon="-2.86536">
        <ele>153</ele>
        <time>2017-01-05T13:35:18.000Z</time>
      </trkpt>
      <trkpt lat="48.46453" lon="-2.86539">
        <ele>153</ele>
        <time>2017-01-05T13:35:19.000Z</time>
      </trkpt>
      <trkpt lat="48.46452" lon="-2.86543">
        <ele>153</ele>
        <time>2017-01-05T13:35:20.000Z</time>
      </trkpt>
      <trkpt lat="48.4645" lon="-2.86546">
        <ele>153</ele>
        <time>2017-01-05T13:35:21.000Z</time>
      </trkpt>
      <trkpt lat="48.46448" lon="-2.86548">
        <ele>153</ele>
        <time>2017-01-05T13:35:22.000Z</time>
      </trkpt>
      <trkpt lat="48.46447" lon="-2.86551">
        <ele>152</ele>
        <time>2017-01-05T13:35:23.000Z</time>
      </trkpt>
      <trkpt lat="48.46445" lon="-2.86554">
        <ele>152</ele>
        <time>2017-01-05T13:35:24.000Z</time>
      </trkpt>
      <trkpt lat="48.46444" lon="-2.86557">
        <ele>152</ele>
        <time>2017-01-05T13:35:25.000Z</time>
      </trkpt>
      <trkpt lat="48.46443" lon="-2.8656">
        <ele>152</ele>
        <time>2017-01-05T13:35:26.000Z</time>
      </trkpt>
      <trkpt lat="48.46441" lon="-2.86562">
        <ele>152</ele>
        <time>2017-01-05T13:35:27.000Z</time>
      </trkpt>
      <trkpt lat="48.4644" lon="-2.86564">
        <ele>152</ele>
        <time>2017-01-05T13:35:28.000Z</time>
      </trkpt>
      <trkpt lat="48.46438" lon="-2.86568">
        <ele>152</ele>
        <time>2017-01-05T13:35:30.000Z</time>
      </trkpt>
      <trkpt lat="48.46436" lon="-2.86572">
        <ele>152</ele>
        <time>2017-01-05T13:35:32.000Z</time>
      </trkpt>
      <trkpt lat="48.46435" lon="-2.86577">
        <ele>152</ele>
        <time>2017-01-05T13:35:34.000Z</time>
      </trkpt>
      <trkpt lat="48.46435" lon="-2.8658">
        <ele>152</ele>
        <time>2017-01-05T13:35:35.000Z</time>
      </trkpt>
      <trkpt lat="48.46434" lon="-2.86583">
        <ele>152</ele>
        <time>2017-01-05T13:35:36.000Z</time>
      </trkpt>
      <trkpt lat="48.46435" lon="-2.86586">
        <ele>152</ele>
        <time>2017-01-05T13:35:37.000Z</time>
      </trkpt>
      <trkpt lat="48.46435" lon="-2.8659">
        <ele>152</ele>
        <time>2017-01-05T13:35:38.000Z</time>
      </trkpt>
      <trkpt lat="48.46436" lon="-2.86593">
        <ele>153</ele>
        <time>2017-01-05T13:35:39.000Z</time>
      </trkpt>
      <trkpt lat="48.46438" lon="-2.86597">
        <ele>153</ele>
        <time>2017-01-05T13:35:40.000Z</time>
      </trkpt>
      <trkpt lat="48.46439" lon="-2.86601">
        <ele>153</ele>
        <time>2017-01-05T13:35:41.000Z</time>
      </trkpt>
      <trkpt lat="48.4644" lon="-2.86606">
        <ele>153</ele>
        <time>2017-01-05T13:35:42.000Z</time>
      </trkpt>
      <trkpt lat="48.46441" lon="-2.8661">
        <ele>153</ele>
        <time>2017-01-05T13:35:43.000Z</time>
      </trkpt>
      <trkpt lat="48.46442" lon="-2.86614">
        <ele>153</ele>
        <time>2017-01-05T13:35:44.000Z</time>
      </trkpt>
      <trkpt lat="48.46443" lon="-2.86618">
        <ele>153</ele>
        <time>2017-01-05T13:35:45.000Z</time>
      </trkpt>
      <trkpt lat="48.46444" lon="-2.86621">
        <ele>153</ele>
        <time>2017-01-05T13:35:46.000Z</time>
      </trkpt>
      <trkpt lat="48.46445" lon="-2.86629">
        <ele>153</ele>
        <time>2017-01-05T13:35:48.000Z</time>
      </trkpt>
      <trkpt lat="48.46447" lon="-2.86637">
        <ele>153</ele>
        <time>2017-01-05T13:35:50.000Z</time>
      </trkpt>
      <trkpt lat="48.46447" lon="-2.86641">
        <ele>153</ele>
        <time>2017-01-05T13:35:51.000Z</time>
      </trkpt>
      <trkpt lat="48.46448" lon="-2.86644">
        <ele>153</ele>
        <time>2017-01-05T13:35:52.000Z</time>
      </trkpt>
      <trkpt lat="48.46448" lon="-2.86648">
        <ele>153</ele>
        <time>2017-01-05T13:35:53.000Z</time>
      </trkpt>
      <trkpt lat="48.46448" lon="-2.86651">
        <ele>153</ele>
        <time>2017-01-05T13:35:54.000Z</time>
      </trkpt>
      <trkpt lat="48.46448" lon="-2.86654">
        <ele>153</ele>
        <time>2017-01-05T13:35:55.000Z</time>
      </trkpt>
      <trkpt lat="48.46448" lon="-2.86657">
        <ele>153</ele>
        <time>2017-01-05T13:35:56.000Z</time>
      </trkpt>
      <trkpt lat="48.46447" lon="-2.8666">
        <ele>153</ele>
        <time>2017-01-05T13:35:58.000Z</time>
      </trkpt>
      <trkpt lat="48.46446" lon="-2.86662">
        <ele>153</ele>
        <time>2017-01-05T13:36:05.000Z</time>
      </trkpt>
      <trkpt lat="48.46444" lon="-2.8666">
        <ele>153</ele>
        <time>2017-01-05T13:36:17.000Z</time>
      </trkpt>
      <trkpt lat="48.46441" lon="-2.86657">
        <ele>153</ele>
        <time>2017-01-05T13:36:19.000Z</time>
      </trkpt>
      <trkpt lat="48.4644" lon="-2.86656">
        <ele>153</ele>
        <time>2017-01-05T13:36:20.000Z</time>
      </trkpt>
      <trkpt lat="48.46438" lon="-2.86654">
        <ele>153</ele>
        <time>2017-01-05T13:36:21.000Z</time>
      </trkpt>
      <trkpt lat="48.46436" lon="-2.86652">
        <ele>153</ele>
        <time>2017-01-05T13:36:22.000Z</time>
      </trkpt>
      <trkpt lat="48.46434" lon="-2.8665">
        <ele>153</ele>
        <time>2017-01-05T13:36:23.000Z</time>
      </trkpt>
      <trkpt lat="48.46433" lon="-2.86648">
        <ele>153</ele>
        <time>2017-01-05T13:36:24.000Z</time>
      </trkpt>
      <trkpt lat="48.46432" lon="-2.86645">
        <ele>153</ele>
        <time>2017-01-05T13:36:25.000Z</time>
      </trkpt>
      <trkpt lat="48.4643" lon="-2.8664">
        <ele>153</ele>
        <time>2017-01-05T13:36:27.000Z</time>
      </trkpt>
      <trkpt lat="48.46428" lon="-2.86637">
        <ele>153</ele>
        <time>2017-01-05T13:36:28.000Z</time>
      </trkpt>
      <trkpt lat="48.46427" lon="-2.86634">
        <ele>153</ele>
        <time>2017-01-05T13:36:29.000Z</time>
      </trkpt>
      <trkpt lat="48.46426" lon="-2.86631">
        <ele>153</ele>
        <time>2017-01-05T13:36:30.000Z</time>
      </trkpt>
      <trkpt lat="48.46424" lon="-2.86629">
        <ele>153</ele>
        <time>2017-01-05T13:36:31.000Z</time>
      </trkpt>
      <trkpt lat="48.46421" lon="-2.86626">
        <ele>153</ele>
        <time>2017-01-05T13:36:32.000Z</time>
      </trkpt>
      <trkpt lat="48.46418" lon="-2.86624">
        <ele>153</ele>
        <time>2017-01-05T13:36:33.000Z</time>
      </trkpt>
      <trkpt lat="48.46416" lon="-2.86622">
        <ele>151</ele>
        <time>2017-01-05T13:36:34.000Z</time>
      </trkpt>
      <trkpt lat="48.46413" lon="-2.8662">
        <ele>151</ele>
        <time>2017-01-05T13:36:35.000Z</time>
      </trkpt>
      <trkpt lat="48.4641" lon="-2.86618">
        <ele>151</ele>
        <time>2017-01-05T13:36:36.000Z</time>
      </trkpt>
      <trkpt lat="48.46408" lon="-2.86616">
        <ele>151</ele>
        <time>2017-01-05T13:36:37.000Z</time>
      </trkpt>
      <trkpt lat="48.46406" lon="-2.86614">
        <ele>150</ele>
        <time>2017-01-05T13:36:38.000Z</time>
      </trkpt>
      <trkpt lat="48.46403" lon="-2.86612">
        <ele>150</ele>
        <time>2017-01-05T13:36:39.000Z</time>
      </trkpt>
      <trkpt lat="48.46401" lon="-2.86611">
        <ele>150</ele>
        <time>2017-01-05T13:36:40.000Z</time>
      </trkpt>
      <trkpt lat="48.46399" lon="-2.86609">
        <ele>150</ele>
        <time>2017-01-05T13:36:41.000Z</time>
      </trkpt>
      <trkpt lat="48.46396" lon="-2.86607">
        <ele>150</ele>
        <time>2017-01-05T13:36:42.000Z</time>
      </trkpt>
      <trkpt lat="48.46393" lon="-2.86605">
        <ele>150</ele>
        <time>2017-01-05T13:36:43.000Z</time>
      </trkpt>
      <trkpt lat="48.46391" lon="-2.86604">
        <ele>150</ele>
        <time>2017-01-05T13:36:44.000Z</time>
      </trkpt>
      <trkpt lat="48.46388" lon="-2.86602">
        <ele>150</ele>
        <time>2017-01-05T13:36:45.000Z</time>
      </trkpt>
      <trkpt lat="48.46386" lon="-2.86601">
        <ele>150</ele>
        <time>2017-01-05T13:36:46.000Z</time>
      </trkpt>
      <trkpt lat="48.46384" lon="-2.86599">
        <ele>150</ele>
        <time>2017-01-05T13:36:47.000Z</time>
      </trkpt>
      <trkpt lat="48.46381" lon="-2.86597">
        <ele>150</ele>
        <time>2017-01-05T13:36:48.000Z</time>
      </trkpt>
      <trkpt lat="48.46379" lon="-2.86596">
        <ele>150</ele>
        <time>2017-01-05T13:36:49.000Z</time>
      </trkpt>
      <trkpt lat="48.46376" lon="-2.86594">
        <ele>149</ele>
        <time>2017-01-05T13:36:50.000Z</time>
      </trkpt>
      <trkpt lat="48.46373" lon="-2.86593">
        <ele>149</ele>
        <time>2017-01-05T13:36:51.000Z</time>
      </trkpt>
      <trkpt lat="48.46371" lon="-2.86592">
        <ele>149</ele>
        <time>2017-01-05T13:36:52.000Z</time>
      </trkpt>
      <trkpt lat="48.46368" lon="-2.8659">
        <ele>149</ele>
        <time>2017-01-05T13:36:53.000Z</time>
      </trkpt>
      <trkpt lat="48.46365" lon="-2.86589">
        <ele>149</ele>
        <time>2017-01-05T13:36:54.000Z</time>
      </trkpt>
      <trkpt lat="48.46362" lon="-2.86588">
        <ele>149</ele>
        <time>2017-01-05T13:36:55.000Z</time>
      </trkpt>
      <trkpt lat="48.4636" lon="-2.86586">
        <ele>148</ele>
        <time>2017-01-05T13:36:56.000Z</time>
      </trkpt>
      <trkpt lat="48.46356" lon="-2.86585">
        <ele>148</ele>
        <time>2017-01-05T13:36:57.000Z</time>
      </trkpt>
      <trkpt lat="48.46354" lon="-2.86584">
        <ele>148</ele>
        <time>2017-01-05T13:36:58.000Z</time>
      </trkpt>
      <trkpt lat="48.4635" lon="-2.86583">
        <ele>146</ele>
        <time>2017-01-05T13:36:59.000Z</time>
      </trkpt>
      <trkpt lat="48.46348" lon="-2.86581">
        <ele>146</ele>
        <time>2017-01-05T13:37:00.000Z</time>
      </trkpt>
      <trkpt lat="48.46345" lon="-2.8658">
        <ele>146</ele>
        <time>2017-01-05T13:37:01.000Z</time>
      </trkpt>
      <trkpt lat="48.46342" lon="-2.86579">
        <ele>145</ele>
        <time>2017-01-05T13:37:02.000Z</time>
      </trkpt>
      <trkpt lat="48.4634" lon="-2.86578">
        <ele>145</ele>
        <time>2017-01-05T13:37:03.000Z</time>
      </trkpt>
      <trkpt lat="48.46338" lon="-2.86577">
        <ele>145</ele>
        <time>2017-01-05T13:37:04.000Z</time>
      </trkpt>
      <trkpt lat="48.46336" lon="-2.86575">
        <ele>145</ele>
        <time>2017-01-05T13:37:05.000Z</time>
      </trkpt>
      <trkpt lat="48.46335" lon="-2.86572">
        <ele>145</ele>
        <time>2017-01-05T13:37:06.000Z</time>
      </trkpt>
      <trkpt lat="48.46333" lon="-2.8657">
        <ele>143</ele>
        <time>2017-01-05T13:37:07.000Z</time>
      </trkpt>
      <trkpt lat="48.4633" lon="-2.86567">
        <ele>142</ele>
        <time>2017-01-05T13:37:08.000Z</time>
      </trkpt>
      <trkpt lat="48.46328" lon="-2.86564">
        <ele>142</ele>
        <time>2017-01-05T13:37:09.000Z</time>
      </trkpt>
      <trkpt lat="48.46326" lon="-2.86561">
        <ele>141</ele>
        <time>2017-01-05T13:37:10.000Z</time>
      </trkpt>
      <trkpt lat="48.46323" lon="-2.86558">
        <ele>141</ele>
        <time>2017-01-05T13:37:11.000Z</time>
      </trkpt>
      <trkpt lat="48.46321" lon="-2.86555">
        <ele>141</ele>
        <time>2017-01-05T13:37:12.000Z</time>
      </trkpt>
      <trkpt lat="48.46319" lon="-2.86551">
        <ele>140</ele>
        <time>2017-01-05T13:37:13.000Z</time>
      </trkpt>
      <trkpt lat="48.46317" lon="-2.86547">
        <ele>140</ele>
        <time>2017-01-05T13:37:14.000Z</time>
      </trkpt>
      <trkpt lat="48.46315" lon="-2.86543">
        <ele>140</ele>
        <time>2017-01-05T13:37:15.000Z</time>
      </trkpt>
      <trkpt lat="48.46312" lon="-2.86539">
        <ele>140</ele>
        <time>2017-01-05T13:37:16.000Z</time>
      </trkpt>
      <trkpt lat="48.4631" lon="-2.86534">
        <ele>139</ele>
        <time>2017-01-05T13:37:17.000Z</time>
      </trkpt>
      <trkpt lat="48.46307" lon="-2.86529">
        <ele>139</ele>
        <time>2017-01-05T13:37:18.000Z</time>
      </trkpt>
      <trkpt lat="48.46305" lon="-2.86525">
        <ele>139</ele>
        <time>2017-01-05T13:37:19.000Z</time>
      </trkpt>
      <trkpt lat="48.46302" lon="-2.8652">
        <ele>139</ele>
        <time>2017-01-05T13:37:20.000Z</time>
      </trkpt>
      <trkpt lat="48.46299" lon="-2.86516">
        <ele>139</ele>
        <time>2017-01-05T13:37:21.000Z</time>
      </trkpt>
      <trkpt lat="48.46296" lon="-2.86512">
        <ele>138</ele>
        <time>2017-01-05T13:37:22.000Z</time>
      </trkpt>
      <trkpt lat="48.46293" lon="-2.86509">
        <ele>138</ele>
        <time>2017-01-05T13:37:23.000Z</time>
      </trkpt>
      <trkpt lat="48.4629" lon="-2.86506">
        <ele>138</ele>
        <time>2017-01-05T13:37:24.000Z</time>
      </trkpt>
      <trkpt lat="48.46288" lon="-2.86503">
        <ele>138</ele>
        <time>2017-01-05T13:37:25.000Z</time>
      </trkpt>
      <trkpt lat="48.46285" lon="-2.865">
        <ele>137</ele>
        <time>2017-01-05T13:37:26.000Z</time>
      </trkpt>
      <trkpt lat="48.46282" lon="-2.86498">
        <ele>135</ele>
        <time>2017-01-05T13:37:27.000Z</time>
      </trkpt>
      <trkpt lat="48.4628" lon="-2.86496">
        <ele>134</ele>
        <time>2017-01-05T13:37:28.000Z</time>
      </trkpt>
      <trkpt lat="48.46278" lon="-2.86494">
        <ele>134</ele>
        <time>2017-01-05T13:37:29.000Z</time>
      </trkpt>
      <trkpt lat="48.46275" lon="-2.86493">
        <ele>134</ele>
        <time>2017-01-05T13:37:30.000Z</time>
      </trkpt>
      <trkpt lat="48.46272" lon="-2.86494">
        <ele>134</ele>
        <time>2017-01-05T13:37:31.000Z</time>
      </trkpt>
      <trkpt lat="48.46269" lon="-2.86494">
        <ele>134</ele>
        <time>2017-01-05T13:37:32.000Z</time>
      </trkpt>
      <trkpt lat="48.46266" lon="-2.86494">
        <ele>133</ele>
        <time>2017-01-05T13:37:33.000Z</time>
      </trkpt>
      <trkpt lat="48.46263" lon="-2.86493">
        <ele>133</ele>
        <time>2017-01-05T13:37:34.000Z</time>
      </trkpt>
      <trkpt lat="48.46261" lon="-2.86493">
        <ele>133</ele>
        <time>2017-01-05T13:37:35.000Z</time>
      </trkpt>
      <trkpt lat="48.46258" lon="-2.86493">
        <ele>133</ele>
        <time>2017-01-05T13:37:36.000Z</time>
      </trkpt>
      <trkpt lat="48.46255" lon="-2.86492">
        <ele>133</ele>
        <time>2017-01-05T13:37:37.000Z</time>
      </trkpt>
      <trkpt lat="48.46252" lon="-2.86491">
        <ele>133</ele>
        <time>2017-01-05T13:37:38.000Z</time>
      </trkpt>
      <trkpt lat="48.46249" lon="-2.86489">
        <ele>130</ele>
        <time>2017-01-05T13:37:39.000Z</time>
      </trkpt>
      <trkpt lat="48.46246" lon="-2.86488">
        <ele>129</ele>
        <time>2017-01-05T13:37:40.000Z</time>
      </trkpt>
      <trkpt lat="48.46244" lon="-2.86487">
        <ele>129</ele>
        <time>2017-01-05T13:37:41.000Z</time>
      </trkpt>
      <trkpt lat="48.46241" lon="-2.86486">
        <ele>129</ele>
        <time>2017-01-05T13:37:42.000Z</time>
      </trkpt>
      <trkpt lat="48.46238" lon="-2.86485">
        <ele>128</ele>
        <time>2017-01-05T13:37:43.000Z</time>
      </trkpt>
      <trkpt lat="48.46236" lon="-2.86483">
        <ele>128</ele>
        <time>2017-01-05T13:37:44.000Z</time>
      </trkpt>
      <trkpt lat="48.46233" lon="-2.86482">
        <ele>128</ele>
        <time>2017-01-05T13:37:45.000Z</time>
      </trkpt>
      <trkpt lat="48.46231" lon="-2.86481">
        <ele>128</ele>
        <time>2017-01-05T13:37:46.000Z</time>
      </trkpt>
      <trkpt lat="48.46229" lon="-2.8648">
        <ele>127</ele>
        <time>2017-01-05T13:37:47.000Z</time>
      </trkpt>
      <trkpt lat="48.46227" lon="-2.86479">
        <ele>127</ele>
        <time>2017-01-05T13:37:48.000Z</time>
      </trkpt>
      <trkpt lat="48.46225" lon="-2.86478">
        <ele>127</ele>
        <time>2017-01-05T13:37:49.000Z</time>
      </trkpt>
      <trkpt lat="48.46223" lon="-2.86477">
        <ele>127</ele>
        <time>2017-01-05T13:37:50.000Z</time>
      </trkpt>
      <trkpt lat="48.46221" lon="-2.86476">
        <ele>127</ele>
        <time>2017-01-05T13:37:51.000Z</time>
      </trkpt>
      <trkpt lat="48.46219" lon="-2.86475">
        <ele>127</ele>
        <time>2017-01-05T13:37:52.000Z</time>
      </trkpt>
      <trkpt lat="48.46217" lon="-2.86474">
        <ele>126</ele>
        <time>2017-01-05T13:37:53.000Z</time>
      </trkpt>
      <trkpt lat="48.46215" lon="-2.86474">
        <ele>126</ele>
        <time>2017-01-05T13:37:54.000Z</time>
      </trkpt>
      <trkpt lat="48.46213" lon="-2.86474">
        <ele>126</ele>
        <time>2017-01-05T13:37:55.000Z</time>
      </trkpt>
      <trkpt lat="48.46211" lon="-2.86474">
        <ele>126</ele>
        <time>2017-01-05T13:37:56.000Z</time>
      </trkpt>
      <trkpt lat="48.46208" lon="-2.86474">
        <ele>126</ele>
        <time>2017-01-05T13:37:57.000Z</time>
      </trkpt>
      <trkpt lat="48.46206" lon="-2.86475">
        <ele>126</ele>
        <time>2017-01-05T13:37:58.000Z</time>
      </trkpt>
      <trkpt lat="48.46204" lon="-2.86477">
        <ele>125</ele>
        <time>2017-01-05T13:37:59.000Z</time>
      </trkpt>
      <trkpt lat="48.46202" lon="-2.86478">
        <ele>125</ele>
        <time>2017-01-05T13:38:00.000Z</time>
      </trkpt>
      <trkpt lat="48.462" lon="-2.8648">
        <ele>125</ele>
        <time>2017-01-05T13:38:01.000Z</time>
      </trkpt>
      <trkpt lat="48.46198" lon="-2.86482">
        <ele>125</ele>
        <time>2017-01-05T13:38:02.000Z</time>
      </trkpt>
      <trkpt lat="48.46197" lon="-2.86484">
        <ele>125</ele>
        <time>2017-01-05T13:38:03.000Z</time>
      </trkpt>
      <trkpt lat="48.46195" lon="-2.86486">
        <ele>125</ele>
        <time>2017-01-05T13:38:04.000Z</time>
      </trkpt>
      <trkpt lat="48.46194" lon="-2.86488">
        <ele>125</ele>
        <time>2017-01-05T13:38:05.000Z</time>
      </trkpt>
      <trkpt lat="48.46192" lon="-2.8649">
        <ele>124</ele>
        <time>2017-01-05T13:38:06.000Z</time>
      </trkpt>
      <trkpt lat="48.4619" lon="-2.86492">
        <ele>124</ele>
        <time>2017-01-05T13:38:07.000Z</time>
      </trkpt>
      <trkpt lat="48.46188" lon="-2.86494">
        <ele>124</ele>
        <time>2017-01-05T13:38:08.000Z</time>
      </trkpt>
      <trkpt lat="48.46186" lon="-2.86497">
        <ele>124</ele>
        <time>2017-01-05T13:38:09.000Z</time>
      </trkpt>
      <trkpt lat="48.46184" lon="-2.86498">
        <ele>123</ele>
        <time>2017-01-05T13:38:10.000Z</time>
      </trkpt>
      <trkpt lat="48.46182" lon="-2.865">
        <ele>125</ele>
        <time>2017-01-05T13:38:11.000Z</time>
      </trkpt>
      <trkpt lat="48.46179" lon="-2.86503">
        <ele>124</ele>
        <time>2017-01-05T13:38:12.000Z</time>
      </trkpt>
      <trkpt lat="48.46177" lon="-2.86505">
        <ele>124</ele>
        <time>2017-01-05T13:38:13.000Z</time>
      </trkpt>
      <trkpt lat="48.46174" lon="-2.86507">
        <ele>124</ele>
        <time>2017-01-05T13:38:14.000Z</time>
      </trkpt>
      <trkpt lat="48.46171" lon="-2.86508">
        <ele>124</ele>
        <time>2017-01-05T13:38:15.000Z</time>
      </trkpt>
      <trkpt lat="48.46169" lon="-2.8651">
        <ele>124</ele>
        <time>2017-01-05T13:38:16.000Z</time>
      </trkpt>
      <trkpt lat="48.46168" lon="-2.86512">
        <ele>124</ele>
        <time>2017-01-05T13:38:17.000Z</time>
      </trkpt>
      <trkpt lat="48.46166" lon="-2.86514">
        <ele>123</ele>
        <time>2017-01-05T13:38:18.000Z</time>
      </trkpt>
      <trkpt lat="48.46164" lon="-2.86517">
        <ele>123</ele>
        <time>2017-01-05T13:38:19.000Z</time>
      </trkpt>
      <trkpt lat="48.46163" lon="-2.8652">
        <ele>123</ele>
        <time>2017-01-05T13:38:20.000Z</time>
      </trkpt>
      <trkpt lat="48.46161" lon="-2.86523">
        <ele>124</ele>
        <time>2017-01-05T13:38:21.000Z</time>
      </trkpt>
      <trkpt lat="48.46159" lon="-2.86526">
        <ele>124</ele>
        <time>2017-01-05T13:38:22.000Z</time>
      </trkpt>
      <trkpt lat="48.46159" lon="-2.86529">
        <ele>124</ele>
        <time>2017-01-05T13:38:23.000Z</time>
      </trkpt>
      <trkpt lat="48.46158" lon="-2.86532">
        <ele>124</ele>
        <time>2017-01-05T13:38:25.000Z</time>
      </trkpt>
      <trkpt lat="48.46159" lon="-2.86536">
        <ele>125</ele>
        <time>2017-01-05T13:38:30.000Z</time>
      </trkpt>
      <trkpt lat="48.46159" lon="-2.86538">
        <ele>125</ele>
        <time>2017-01-05T13:38:32.000Z</time>
      </trkpt>
      <trkpt lat="48.46159" lon="-2.86542">
        <ele>125</ele>
        <time>2017-01-05T13:38:34.000Z</time>
      </trkpt>
      <trkpt lat="48.46159" lon="-2.86545">
        <ele>125</ele>
        <time>2017-01-05T13:38:38.000Z</time>
      </trkpt>
      <trkpt lat="48.46158" lon="-2.86547">
        <ele>125</ele>
        <time>2017-01-05T13:38:41.000Z</time>
      </trkpt>
      <trkpt lat="48.46156" lon="-2.8655">
        <ele>125</ele>
        <time>2017-01-05T13:38:44.000Z</time>
      </trkpt>
      <trkpt lat="48.46155" lon="-2.86551">
        <ele>125</ele>
        <time>2017-01-05T13:38:47.000Z</time>
      </trkpt>
      <trkpt lat="48.46153" lon="-2.86553">
        <ele>125</ele>
        <time>2017-01-05T13:38:50.000Z</time>
      </trkpt>
      <trkpt lat="48.46151" lon="-2.86555">
        <ele>125</ele>
        <time>2017-01-05T13:38:53.000Z</time>
      </trkpt>
      <trkpt lat="48.4615" lon="-2.86558">
        <ele>125</ele>
        <time>2017-01-05T13:38:55.000Z</time>
      </trkpt>
      <trkpt lat="48.46149" lon="-2.8656">
        <ele>126</ele>
        <time>2017-01-05T13:38:57.000Z</time>
      </trkpt>
      <trkpt lat="48.46147" lon="-2.86563">
        <ele>126</ele>
        <time>2017-01-05T13:39:01.000Z</time>
      </trkpt>
      <trkpt lat="48.46145" lon="-2.86565">
        <ele>126</ele>
        <time>2017-01-05T13:39:03.000Z</time>
      </trkpt>
      <trkpt lat="48.46144" lon="-2.86567">
        <ele>126</ele>
        <time>2017-01-05T13:39:06.000Z</time>
      </trkpt>
      <trkpt lat="48.46143" lon="-2.8657">
        <ele>126</ele>
        <time>2017-01-05T13:39:10.000Z</time>
      </trkpt>
      <trkpt lat="48.46141" lon="-2.86571">
        <ele>126</ele>
        <time>2017-01-05T13:39:13.000Z</time>
      </trkpt>
      <trkpt lat="48.46141" lon="-2.86574">
        <ele>126</ele>
        <time>2017-01-05T13:39:16.000Z</time>
      </trkpt>
      <trkpt lat="48.46139" lon="-2.86576">
        <ele>126</ele>
        <time>2017-01-05T13:39:18.000Z</time>
      </trkpt>
      <trkpt lat="48.46138" lon="-2.86579">
        <ele>126</ele>
        <time>2017-01-05T13:39:20.000Z</time>
      </trkpt>
      <trkpt lat="48.46137" lon="-2.86581">
        <ele>126</ele>
        <time>2017-01-05T13:39:22.000Z</time>
      </trkpt>
      <trkpt lat="48.46137" lon="-2.86584">
        <ele>128</ele>
        <time>2017-01-05T13:39:24.000Z</time>
      </trkpt>
      <trkpt lat="48.46136" lon="-2.86587">
        <ele>128</ele>
        <time>2017-01-05T13:39:26.000Z</time>
      </trkpt>
      <trkpt lat="48.46134" lon="-2.86589">
        <ele>128</ele>
        <time>2017-01-05T13:39:28.000Z</time>
      </trkpt>
      <trkpt lat="48.46133" lon="-2.86592">
        <ele>128</ele>
        <time>2017-01-05T13:39:30.000Z</time>
      </trkpt>
      <trkpt lat="48.46132" lon="-2.86594">
        <ele>128</ele>
        <time>2017-01-05T13:39:33.000Z</time>
      </trkpt>
      <trkpt lat="48.4613" lon="-2.86594">
        <ele>128</ele>
        <time>2017-01-05T13:39:42.000Z</time>
      </trkpt>
      <trkpt lat="48.46129" lon="-2.86597">
        <ele>128</ele>
        <time>2017-01-05T13:39:44.000Z</time>
      </trkpt>
      <trkpt lat="48.46126" lon="-2.86601">
        <ele>128</ele>
        <time>2017-01-05T13:39:46.000Z</time>
      </trkpt>
      <trkpt lat="48.46125" lon="-2.86603">
        <ele>128</ele>
        <time>2017-01-05T13:39:47.000Z</time>
      </trkpt>
      <trkpt lat="48.46124" lon="-2.86606">
        <ele>128</ele>
        <time>2017-01-05T13:39:48.000Z</time>
      </trkpt>
      <trkpt lat="48.46124" lon="-2.86609">
        <ele>128</ele>
        <time>2017-01-05T13:39:49.000Z</time>
      </trkpt>
      <trkpt lat="48.46122" lon="-2.86613">
        <ele>128</ele>
        <time>2017-01-05T13:39:50.000Z</time>
      </trkpt>
      <trkpt lat="48.4612" lon="-2.86617">
        <ele>128</ele>
        <time>2017-01-05T13:39:51.000Z</time>
      </trkpt>
      <trkpt lat="48.46118" lon="-2.8662">
        <ele>128</ele>
        <time>2017-01-05T13:39:52.000Z</time>
      </trkpt>
      <trkpt lat="48.46116" lon="-2.86623">
        <ele>128</ele>
        <time>2017-01-05T13:39:53.000Z</time>
      </trkpt>
      <trkpt lat="48.46114" lon="-2.86626">
        <ele>128</ele>
        <time>2017-01-05T13:39:54.000Z</time>
      </trkpt>
      <trkpt lat="48.46113" lon="-2.86629">
        <ele>128</ele>
        <time>2017-01-05T13:39:55.000Z</time>
      </trkpt>
      <trkpt lat="48.46112" lon="-2.86632">
        <ele>128</ele>
        <time>2017-01-05T13:39:56.000Z</time>
      </trkpt>
      <trkpt lat="48.4611" lon="-2.86635">
        <ele>128</ele>
        <time>2017-01-05T13:39:57.000Z</time>
      </trkpt>
      <trkpt lat="48.46109" lon="-2.86638">
        <ele>128</ele>
        <time>2017-01-05T13:39:58.000Z</time>
      </trkpt>
      <trkpt lat="48.46107" lon="-2.86641">
        <ele>128</ele>
        <time>2017-01-05T13:39:59.000Z</time>
      </trkpt>
      <trkpt lat="48.46105" lon="-2.86644">
        <ele>128</ele>
        <time>2017-01-05T13:40:00.000Z</time>
      </trkpt>
      <trkpt lat="48.46103" lon="-2.86647">
        <ele>127</ele>
        <time>2017-01-05T13:40:01.000Z</time>
      </trkpt>
      <trkpt lat="48.46102" lon="-2.8665">
        <ele>127</ele>
        <time>2017-01-05T13:40:02.000Z</time>
      </trkpt>
      <trkpt lat="48.461" lon="-2.86654">
        <ele>127</ele>
        <time>2017-01-05T13:40:04.000Z</time>
      </trkpt>
      <trkpt lat="48.46098" lon="-2.86659">
        <ele>127</ele>
        <time>2017-01-05T13:40:06.000Z</time>
      </trkpt>
      <trkpt lat="48.46097" lon="-2.86661">
        <ele>127</ele>
        <time>2017-01-05T13:40:07.000Z</time>
      </trkpt>
      <trkpt lat="48.46094" lon="-2.86664">
        <ele>126</ele>
        <time>2017-01-05T13:40:08.000Z</time>
      </trkpt>
      <trkpt lat="48.46092" lon="-2.86667">
        <ele>127</ele>
        <time>2017-01-05T13:40:09.000Z</time>
      </trkpt>
      <trkpt lat="48.4609" lon="-2.8667">
        <ele>127</ele>
        <time>2017-01-05T13:40:10.000Z</time>
      </trkpt>
      <trkpt lat="48.46088" lon="-2.86672">
        <ele>127</ele>
        <time>2017-01-05T13:40:11.000Z</time>
      </trkpt>
      <trkpt lat="48.46087" lon="-2.86675">
        <ele>127</ele>
        <time>2017-01-05T13:40:12.000Z</time>
      </trkpt>
      <trkpt lat="48.46085" lon="-2.86678">
        <ele>127</ele>
        <time>2017-01-05T13:40:13.000Z</time>
      </trkpt>
      <trkpt lat="48.46082" lon="-2.86681">
        <ele>125</ele>
        <time>2017-01-05T13:40:14.000Z</time>
      </trkpt>
      <trkpt lat="48.4608" lon="-2.86683">
        <ele>125</ele>
        <time>2017-01-05T13:40:15.000Z</time>
      </trkpt>
      <trkpt lat="48.46079" lon="-2.86686">
        <ele>125</ele>
        <time>2017-01-05T13:40:16.000Z</time>
      </trkpt>
      <trkpt lat="48.46078" lon="-2.86689">
        <ele>125</ele>
        <time>2017-01-05T13:40:17.000Z</time>
      </trkpt>
      <trkpt lat="48.46074" lon="-2.86698">
        <ele>126</ele>
        <time>2017-01-05T13:40:20.000Z</time>
      </trkpt>
      <trkpt lat="48.46073" lon="-2.867">
        <ele>126</ele>
        <time>2017-01-05T13:40:24.000Z</time>
      </trkpt>
      <trkpt lat="48.46071" lon="-2.86703">
        <ele>126</ele>
        <time>2017-01-05T13:40:26.000Z</time>
      </trkpt>
      <trkpt lat="48.4607" lon="-2.86707">
        <ele>126</ele>
        <time>2017-01-05T13:40:28.000Z</time>
      </trkpt>
      <trkpt lat="48.46069" lon="-2.8671">
        <ele>126</ele>
        <time>2017-01-05T13:40:31.000Z</time>
      </trkpt>
      <trkpt lat="48.46068" lon="-2.86713">
        <ele>126</ele>
        <time>2017-01-05T13:40:34.000Z</time>
      </trkpt>
      <trkpt lat="48.46068" lon="-2.86716">
        <ele>126</ele>
        <time>2017-01-05T13:40:36.000Z</time>
      </trkpt>
      <trkpt lat="48.46067" lon="-2.8672">
        <ele>126</ele>
        <time>2017-01-05T13:40:39.000Z</time>
      </trkpt>
      <trkpt lat="48.46067" lon="-2.86723">
        <ele>126</ele>
        <time>2017-01-05T13:40:48.000Z</time>
      </trkpt>
      <trkpt lat="48.46068" lon="-2.86728">
        <ele>126</ele>
        <time>2017-01-05T13:40:50.000Z</time>
      </trkpt>
      <trkpt lat="48.46068" lon="-2.86731">
        <ele>126</ele>
        <time>2017-01-05T13:40:51.000Z</time>
      </trkpt>
      <trkpt lat="48.4607" lon="-2.86735">
        <ele>126</ele>
        <time>2017-01-05T13:40:52.000Z</time>
      </trkpt>
      <trkpt lat="48.46071" lon="-2.86738">
        <ele>127</ele>
        <time>2017-01-05T13:40:53.000Z</time>
      </trkpt>
      <trkpt lat="48.4607" lon="-2.86742">
        <ele>127</ele>
        <time>2017-01-05T13:40:55.000Z</time>
      </trkpt>
      <trkpt lat="48.46069" lon="-2.86744">
        <ele>127</ele>
        <time>2017-01-05T13:40:56.000Z</time>
      </trkpt>
      <trkpt lat="48.46067" lon="-2.86748">
        <ele>127</ele>
        <time>2017-01-05T13:40:57.000Z</time>
      </trkpt>
      <trkpt lat="48.46064" lon="-2.8675">
        <ele>128</ele>
        <time>2017-01-05T13:40:58.000Z</time>
      </trkpt>
      <trkpt lat="48.46062" lon="-2.86752">
        <ele>128</ele>
        <time>2017-01-05T13:40:59.000Z</time>
      </trkpt>
      <trkpt lat="48.4606" lon="-2.86754">
        <ele>128</ele>
        <time>2017-01-05T13:41:00.000Z</time>
      </trkpt>
      <trkpt lat="48.46059" lon="-2.86756">
        <ele>128</ele>
        <time>2017-01-05T13:41:01.000Z</time>
      </trkpt>
      <trkpt lat="48.46056" lon="-2.86757">
        <ele>128</ele>
        <time>2017-01-05T13:41:02.000Z</time>
      </trkpt>
      <trkpt lat="48.46055" lon="-2.86758">
        <ele>128</ele>
        <time>2017-01-05T13:41:03.000Z</time>
      </trkpt>
      <trkpt lat="48.46053" lon="-2.86759">
        <ele>128</ele>
        <time>2017-01-05T13:41:08.000Z</time>
      </trkpt>
      <trkpt lat="48.46052" lon="-2.86762">
        <ele>127</ele>
        <time>2017-01-05T13:41:11.000Z</time>
      </trkpt>
      <trkpt lat="48.46053" lon="-2.86765">
        <ele>128</ele>
        <time>2017-01-05T13:41:14.000Z</time>
      </trkpt>
      <trkpt lat="48.46052" lon="-2.86768">
        <ele>128</ele>
        <time>2017-01-05T13:41:17.000Z</time>
      </trkpt>
      <trkpt lat="48.4605" lon="-2.86769">
        <ele>128</ele>
        <time>2017-01-05T13:41:19.000Z</time>
      </trkpt>
      <trkpt lat="48.46048" lon="-2.86771">
        <ele>128</ele>
        <time>2017-01-05T13:41:22.000Z</time>
      </trkpt>
      <trkpt lat="48.46047" lon="-2.86774">
        <ele>128</ele>
        <time>2017-01-05T13:41:26.000Z</time>
      </trkpt>
      <trkpt lat="48.46046" lon="-2.86778">
        <ele>128</ele>
        <time>2017-01-05T13:41:29.000Z</time>
      </trkpt>
      <trkpt lat="48.46044" lon="-2.86781">
        <ele>128</ele>
        <time>2017-01-05T13:41:32.000Z</time>
      </trkpt>
      <trkpt lat="48.46042" lon="-2.86782">
        <ele>128</ele>
        <time>2017-01-05T13:41:35.000Z</time>
      </trkpt>
      <trkpt lat="48.46041" lon="-2.86783">
        <ele>127</ele>
        <time>2017-01-05T13:41:38.000Z</time>
      </trkpt>
      <trkpt lat="48.46039" lon="-2.86783">
        <ele>127</ele>
        <time>2017-01-05T13:41:40.000Z</time>
      </trkpt>
      <trkpt lat="48.46037" lon="-2.86785">
        <ele>127</ele>
        <time>2017-01-05T13:41:43.000Z</time>
      </trkpt>
      <trkpt lat="48.46034" lon="-2.86786">
        <ele>127</ele>
        <time>2017-01-05T13:41:46.000Z</time>
      </trkpt>
      <trkpt lat="48.46032" lon="-2.86788">
        <ele>127</ele>
        <time>2017-01-05T13:41:49.000Z</time>
      </trkpt>
      <trkpt lat="48.4603" lon="-2.86791">
        <ele>127</ele>
        <time>2017-01-05T13:41:51.000Z</time>
      </trkpt>
      <trkpt lat="48.46029" lon="-2.86794">
        <ele>127</ele>
        <time>2017-01-05T13:41:57.000Z</time>
      </trkpt>
      <trkpt lat="48.46028" lon="-2.86796">
        <ele>127</ele>
        <time>2017-01-05T13:42:01.000Z</time>
      </trkpt>
      <trkpt lat="48.46028" lon="-2.86801">
        <ele>127</ele>
        <time>2017-01-05T13:42:06.000Z</time>
      </trkpt>
      <trkpt lat="48.46027" lon="-2.86804">
        <ele>127</ele>
        <time>2017-01-05T13:42:07.000Z</time>
      </trkpt>
      <trkpt lat="48.46027" lon="-2.86808">
        <ele>127</ele>
        <time>2017-01-05T13:42:08.000Z</time>
      </trkpt>
      <trkpt lat="48.46027" lon="-2.86811">
        <ele>127</ele>
        <time>2017-01-05T13:42:09.000Z</time>
      </trkpt>
      <trkpt lat="48.46026" lon="-2.86814">
        <ele>127</ele>
        <time>2017-01-05T13:42:10.000Z</time>
      </trkpt>
      <trkpt lat="48.46026" lon="-2.86818">
        <ele>127</ele>
        <time>2017-01-05T13:42:11.000Z</time>
      </trkpt>
      <trkpt lat="48.46025" lon="-2.86821">
        <ele>127</ele>
        <time>2017-01-05T13:42:12.000Z</time>
      </trkpt>
      <trkpt lat="48.46025" lon="-2.86824">
        <ele>127</ele>
        <time>2017-01-05T13:42:13.000Z</time>
      </trkpt>
      <trkpt lat="48.46024" lon="-2.86827">
        <ele>127</ele>
        <time>2017-01-05T13:42:14.000Z</time>
      </trkpt>
      <trkpt lat="48.46023" lon="-2.86831">
        <ele>127</ele>
        <time>2017-01-05T13:42:15.000Z</time>
      </trkpt>
      <trkpt lat="48.46023" lon="-2.86834">
        <ele>129</ele>
        <time>2017-01-05T13:42:16.000Z</time>
      </trkpt>
      <trkpt lat="48.46022" lon="-2.86837">
        <ele>129</ele>
        <time>2017-01-05T13:42:17.000Z</time>
      </trkpt>
      <trkpt lat="48.46021" lon="-2.86841">
        <ele>129</ele>
        <time>2017-01-05T13:42:18.000Z</time>
      </trkpt>
      <trkpt lat="48.46021" lon="-2.86844">
        <ele>129</ele>
        <time>2017-01-05T13:42:19.000Z</time>
      </trkpt>
      <trkpt lat="48.46021" lon="-2.86848">
        <ele>129</ele>
        <time>2017-01-05T13:42:20.000Z</time>
      </trkpt>
      <trkpt lat="48.46021" lon="-2.86851">
        <ele>130</ele>
        <time>2017-01-05T13:42:21.000Z</time>
      </trkpt>
      <trkpt lat="48.46021" lon="-2.86854">
        <ele>130</ele>
        <time>2017-01-05T13:42:22.000Z</time>
      </trkpt>
      <trkpt lat="48.46021" lon="-2.86858">
        <ele>130</ele>
        <time>2017-01-05T13:42:23.000Z</time>
      </trkpt>
      <trkpt lat="48.46022" lon="-2.86861">
        <ele>130</ele>
        <time>2017-01-05T13:42:24.000Z</time>
      </trkpt>
      <trkpt lat="48.46022" lon="-2.86864">
        <ele>130</ele>
        <time>2017-01-05T13:42:25.000Z</time>
      </trkpt>
      <trkpt lat="48.46022" lon="-2.86867">
        <ele>131</ele>
        <time>2017-01-05T13:42:26.000Z</time>
      </trkpt>
      <trkpt lat="48.46022" lon="-2.8687">
        <ele>131</ele>
        <time>2017-01-05T13:42:27.000Z</time>
      </trkpt>
      <trkpt lat="48.46022" lon="-2.86873">
        <ele>131</ele>
        <time>2017-01-05T13:42:28.000Z</time>
      </trkpt>
      <trkpt lat="48.46022" lon="-2.86875">
        <ele>131</ele>
        <time>2017-01-05T13:42:29.000Z</time>
      </trkpt>
      <trkpt lat="48.46021" lon="-2.86878">
        <ele>131</ele>
        <time>2017-01-05T13:42:30.000Z</time>
      </trkpt>
      <trkpt lat="48.4602" lon="-2.86881">
        <ele>131</ele>
        <time>2017-01-05T13:42:31.000Z</time>
      </trkpt>
      <trkpt lat="48.4602" lon="-2.86884">
        <ele>131</ele>
        <time>2017-01-05T13:42:32.000Z</time>
      </trkpt>
      <trkpt lat="48.4602" lon="-2.86887">
        <ele>131</ele>
        <time>2017-01-05T13:42:33.000Z</time>
      </trkpt>
      <trkpt lat="48.46021" lon="-2.86889">
        <ele>131</ele>
        <time>2017-01-05T13:42:34.000Z</time>
      </trkpt>
      <trkpt lat="48.46022" lon="-2.86892">
        <ele>131</ele>
        <time>2017-01-05T13:42:35.000Z</time>
      </trkpt>
      <trkpt lat="48.46024" lon="-2.86894">
        <ele>131</ele>
        <time>2017-01-05T13:42:36.000Z</time>
      </trkpt>
      <trkpt lat="48.46026" lon="-2.86895">
        <ele>131</ele>
        <time>2017-01-05T13:42:37.000Z</time>
      </trkpt>
      <trkpt lat="48.46028" lon="-2.86897">
        <ele>132</ele>
        <time>2017-01-05T13:42:38.000Z</time>
      </trkpt>
      <trkpt lat="48.46029" lon="-2.86899">
        <ele>132</ele>
        <time>2017-01-05T13:42:39.000Z</time>
      </trkpt>
      <trkpt lat="48.46031" lon="-2.86903">
        <ele>132</ele>
        <time>2017-01-05T13:42:41.000Z</time>
      </trkpt>
      <trkpt lat="48.46033" lon="-2.86908">
        <ele>132</ele>
        <time>2017-01-05T13:42:43.000Z</time>
      </trkpt>
      <trkpt lat="48.46035" lon="-2.86912">
        <ele>132</ele>
        <time>2017-01-05T13:42:45.000Z</time>
      </trkpt>
      <trkpt lat="48.46037" lon="-2.86915">
        <ele>133</ele>
        <time>2017-01-05T13:42:47.000Z</time>
      </trkpt>
      <trkpt lat="48.46039" lon="-2.86919">
        <ele>134</ele>
        <time>2017-01-05T13:42:49.000Z</time>
      </trkpt>
      <trkpt lat="48.46041" lon="-2.86921">
        <ele>134</ele>
        <time>2017-01-05T13:42:50.000Z</time>
      </trkpt>
      <trkpt lat="48.46044" lon="-2.86924">
        <ele>135</ele>
        <time>2017-01-05T13:42:52.000Z</time>
      </trkpt>
      <trkpt lat="48.46047" lon="-2.86926">
        <ele>135</ele>
        <time>2017-01-05T13:42:54.000Z</time>
      </trkpt>
      <trkpt lat="48.4605" lon="-2.86928">
        <ele>135</ele>
        <time>2017-01-05T13:42:56.000Z</time>
      </trkpt>
      <trkpt lat="48.46051" lon="-2.8693">
        <ele>136</ele>
        <time>2017-01-05T13:42:57.000Z</time>
      </trkpt>
      <trkpt lat="48.46053" lon="-2.86931">
        <ele>136</ele>
        <time>2017-01-05T13:42:58.000Z</time>
      </trkpt>
      <trkpt lat="48.46056" lon="-2.86934">
        <ele>136</ele>
        <time>2017-01-05T13:43:00.000Z</time>
      </trkpt>
      <trkpt lat="48.46058" lon="-2.86935">
        <ele>136</ele>
        <time>2017-01-05T13:43:01.000Z</time>
      </trkpt>
      <trkpt lat="48.46061" lon="-2.86938">
        <ele>136</ele>
        <time>2017-01-05T13:43:03.000Z</time>
      </trkpt>
      <trkpt lat="48.46062" lon="-2.8694">
        <ele>136</ele>
        <time>2017-01-05T13:43:04.000Z</time>
      </trkpt>
      <trkpt lat="48.46064" lon="-2.86941">
        <ele>136</ele>
        <time>2017-01-05T13:43:05.000Z</time>
      </trkpt>
      <trkpt lat="48.46065" lon="-2.86942">
        <ele>137</ele>
        <time>2017-01-05T13:43:06.000Z</time>
      </trkpt>
      <trkpt lat="48.46068" lon="-2.86945">
        <ele>137</ele>
        <time>2017-01-05T13:43:08.000Z</time>
      </trkpt>
      <trkpt lat="48.4607" lon="-2.86947">
        <ele>137</ele>
        <time>2017-01-05T13:43:09.000Z</time>
      </trkpt>
      <trkpt lat="48.46071" lon="-2.86948">
        <ele>137</ele>
        <time>2017-01-05T13:43:10.000Z</time>
      </trkpt>
      <trkpt lat="48.46073" lon="-2.8695">
        <ele>137</ele>
        <time>2017-01-05T13:43:11.000Z</time>
      </trkpt>
      <trkpt lat="48.46074" lon="-2.86952">
        <ele>137</ele>
        <time>2017-01-05T13:43:12.000Z</time>
      </trkpt>
      <trkpt lat="48.46075" lon="-2.86954">
        <ele>137</ele>
        <time>2017-01-05T13:43:13.000Z</time>
      </trkpt>
      <trkpt lat="48.46077" lon="-2.86955">
        <ele>137</ele>
        <time>2017-01-05T13:43:14.000Z</time>
      </trkpt>
      <trkpt lat="48.4608" lon="-2.86958">
        <ele>137</ele>
        <time>2017-01-05T13:43:16.000Z</time>
      </trkpt>
      <trkpt lat="48.46082" lon="-2.86962">
        <ele>137</ele>
        <time>2017-01-05T13:43:18.000Z</time>
      </trkpt>
      <trkpt lat="48.46085" lon="-2.86965">
        <ele>146</ele>
        <time>2017-01-05T13:43:20.000Z</time>
      </trkpt>
      <trkpt lat="48.46087" lon="-2.86969">
        <ele>146</ele>
        <time>2017-01-05T13:43:22.000Z</time>
      </trkpt>
      <trkpt lat="48.46089" lon="-2.8697">
        <ele>146</ele>
        <time>2017-01-05T13:43:23.000Z</time>
      </trkpt>
      <trkpt lat="48.4609" lon="-2.86972">
        <ele>146</ele>
        <time>2017-01-05T13:43:24.000Z</time>
      </trkpt>
      <trkpt lat="48.46091" lon="-2.86974">
        <ele>146</ele>
        <time>2017-01-05T13:43:25.000Z</time>
      </trkpt>
      <trkpt lat="48.46093" lon="-2.86976">
        <ele>146</ele>
        <time>2017-01-05T13:43:26.000Z</time>
      </trkpt>
      <trkpt lat="48.46098" lon="-2.86985">
        <ele>146</ele>
        <time>2017-01-05T13:43:30.000Z</time>
      </trkpt>
      <trkpt lat="48.46099" lon="-2.86988">
        <ele>146</ele>
        <time>2017-01-05T13:43:31.000Z</time>
      </trkpt>
      <trkpt lat="48.46101" lon="-2.8699">
        <ele>146</ele>
        <time>2017-01-05T13:43:32.000Z</time>
      </trkpt>
      <trkpt lat="48.46102" lon="-2.86993">
        <ele>146</ele>
        <time>2017-01-05T13:43:34.000Z</time>
      </trkpt>
      <trkpt lat="48.46104" lon="-2.86996">
        <ele>146</ele>
        <time>2017-01-05T13:43:36.000Z</time>
      </trkpt>
      <trkpt lat="48.46111" lon="-2.87005">
        <ele>147</ele>
        <time>2017-01-05T13:43:41.000Z</time>
      </trkpt>
      <trkpt lat="48.46116" lon="-2.87014">
        <ele>147</ele>
        <time>2017-01-05T13:43:44.000Z</time>
      </trkpt>
      <trkpt lat="48.46117" lon="-2.87017">
        <ele>147</ele>
        <time>2017-01-05T13:43:45.000Z</time>
      </trkpt>
      <trkpt lat="48.46119" lon="-2.87019">
        <ele>148</ele>
        <time>2017-01-05T13:43:46.000Z</time>
      </trkpt>
      <trkpt lat="48.4612" lon="-2.87022">
        <ele>148</ele>
        <time>2017-01-05T13:43:47.000Z</time>
      </trkpt>
      <trkpt lat="48.46122" lon="-2.87024">
        <ele>148</ele>
        <time>2017-01-05T13:43:48.000Z</time>
      </trkpt>
      <trkpt lat="48.46124" lon="-2.87028">
        <ele>148</ele>
        <time>2017-01-05T13:43:50.000Z</time>
      </trkpt>
      <trkpt lat="48.46126" lon="-2.8703">
        <ele>148</ele>
        <time>2017-01-05T13:43:51.000Z</time>
      </trkpt>
      <trkpt lat="48.46127" lon="-2.87032">
        <ele>148</ele>
        <time>2017-01-05T13:43:52.000Z</time>
      </trkpt>
      <trkpt lat="48.46128" lon="-2.87035">
        <ele>148</ele>
        <time>2017-01-05T13:43:53.000Z</time>
      </trkpt>
      <trkpt lat="48.46129" lon="-2.87038">
        <ele>148</ele>
        <time>2017-01-05T13:43:54.000Z</time>
      </trkpt>
      <trkpt lat="48.46129" lon="-2.87041">
        <ele>148</ele>
        <time>2017-01-05T13:43:55.000Z</time>
      </trkpt>
      <trkpt lat="48.46129" lon="-2.87044">
        <ele>148</ele>
        <time>2017-01-05T13:43:56.000Z</time>
      </trkpt>
      <trkpt lat="48.46129" lon="-2.87047">
        <ele>148</ele>
        <time>2017-01-05T13:43:57.000Z</time>
      </trkpt>
      <trkpt lat="48.46128" lon="-2.8705">
        <ele>148</ele>
        <time>2017-01-05T13:43:58.000Z</time>
      </trkpt>
      <trkpt lat="48.46126" lon="-2.87053">
        <ele>148</ele>
        <time>2017-01-05T13:43:59.000Z</time>
      </trkpt>
      <trkpt lat="48.46125" lon="-2.87055">
        <ele>147</ele>
        <time>2017-01-05T13:44:00.000Z</time>
      </trkpt>
      <trkpt lat="48.46123" lon="-2.87056">
        <ele>147</ele>
        <time>2017-01-05T13:44:01.000Z</time>
      </trkpt>
      <trkpt lat="48.4612" lon="-2.87057">
        <ele>147</ele>
        <time>2017-01-05T13:44:02.000Z</time>
      </trkpt>
      <trkpt lat="48.46119" lon="-2.87058">
        <ele>147</ele>
        <time>2017-01-05T13:44:03.000Z</time>
      </trkpt>
      <trkpt lat="48.46117" lon="-2.87058">
        <ele>147</ele>
        <time>2017-01-05T13:44:04.000Z</time>
      </trkpt>
      <trkpt lat="48.46115" lon="-2.87059">
        <ele>146</ele>
        <time>2017-01-05T13:44:05.000Z</time>
      </trkpt>
      <trkpt lat="48.46112" lon="-2.87061">
        <ele>146</ele>
        <time>2017-01-05T13:44:07.000Z</time>
      </trkpt>
      <trkpt lat="48.4611" lon="-2.87063">
        <ele>146</ele>
        <time>2017-01-05T13:44:11.000Z</time>
      </trkpt>
      <trkpt lat="48.46108" lon="-2.87065">
        <ele>145</ele>
        <time>2017-01-05T13:44:13.000Z</time>
      </trkpt>
      <trkpt lat="48.46107" lon="-2.87068">
        <ele>145</ele>
        <time>2017-01-05T13:44:15.000Z</time>
      </trkpt>
      <trkpt lat="48.46105" lon="-2.8707">
        <ele>145</ele>
        <time>2017-01-05T13:44:17.000Z</time>
      </trkpt>
      <trkpt lat="48.46103" lon="-2.87073">
        <ele>144</ele>
        <time>2017-01-05T13:44:19.000Z</time>
      </trkpt>
      <trkpt lat="48.46102" lon="-2.87076">
        <ele>144</ele>
        <time>2017-01-05T13:44:21.000Z</time>
      </trkpt>
      <trkpt lat="48.461" lon="-2.87077">
        <ele>143</ele>
        <time>2017-01-05T13:44:23.000Z</time>
      </trkpt>
      <trkpt lat="48.46098" lon="-2.8708">
        <ele>143</ele>
        <time>2017-01-05T13:44:25.000Z</time>
      </trkpt>
      <trkpt lat="48.46096" lon="-2.87082">
        <ele>143</ele>
        <time>2017-01-05T13:44:27.000Z</time>
      </trkpt>
      <trkpt lat="48.46094" lon="-2.87083">
        <ele>142</ele>
        <time>2017-01-05T13:44:29.000Z</time>
      </trkpt>
      <trkpt lat="48.46093" lon="-2.87084">
        <ele>141</ele>
        <time>2017-01-05T13:44:34.000Z</time>
      </trkpt>
      <trkpt lat="48.4609" lon="-2.87084">
        <ele>141</ele>
        <time>2017-01-05T13:44:36.000Z</time>
      </trkpt>
      <trkpt lat="48.46088" lon="-2.87083">
        <ele>140</ele>
        <time>2017-01-05T13:44:37.000Z</time>
      </trkpt>
      <trkpt lat="48.46086" lon="-2.87083">
        <ele>140</ele>
        <time>2017-01-05T13:44:38.000Z</time>
      </trkpt>
      <trkpt lat="48.46083" lon="-2.87083">
        <ele>139</ele>
        <time>2017-01-05T13:44:39.000Z</time>
      </trkpt>
      <trkpt lat="48.46081" lon="-2.87083">
        <ele>138</ele>
        <time>2017-01-05T13:44:40.000Z</time>
      </trkpt>
      <trkpt lat="48.46079" lon="-2.87084">
        <ele>138</ele>
        <time>2017-01-05T13:44:41.000Z</time>
      </trkpt>
      <trkpt lat="48.46076" lon="-2.87084">
        <ele>137</ele>
        <time>2017-01-05T13:44:42.000Z</time>
      </trkpt>
      <trkpt lat="48.46074" lon="-2.87084">
        <ele>137</ele>
        <time>2017-01-05T13:44:43.000Z</time>
      </trkpt>
      <trkpt lat="48.46071" lon="-2.87085">
        <ele>136</ele>
        <time>2017-01-05T13:44:44.000Z</time>
      </trkpt>
      <trkpt lat="48.46068" lon="-2.87085">
        <ele>136</ele>
        <time>2017-01-05T13:44:45.000Z</time>
      </trkpt>
      <trkpt lat="48.46066" lon="-2.87086">
        <ele>136</ele>
        <time>2017-01-05T13:44:46.000Z</time>
      </trkpt>
      <trkpt lat="48.46063" lon="-2.87086">
        <ele>135</ele>
        <time>2017-01-05T13:44:47.000Z</time>
      </trkpt>
      <trkpt lat="48.46061" lon="-2.87087">
        <ele>135</ele>
        <time>2017-01-05T13:44:48.000Z</time>
      </trkpt>
      <trkpt lat="48.46059" lon="-2.87088">
        <ele>135</ele>
        <time>2017-01-05T13:44:49.000Z</time>
      </trkpt>
      <trkpt lat="48.46057" lon="-2.87089">
        <ele>134</ele>
        <time>2017-01-05T13:44:50.000Z</time>
      </trkpt>
      <trkpt lat="48.46053" lon="-2.8709">
        <ele>134</ele>
        <time>2017-01-05T13:44:52.000Z</time>
      </trkpt>
      <trkpt lat="48.4605" lon="-2.87091">
        <ele>134</ele>
        <time>2017-01-05T13:44:54.000Z</time>
      </trkpt>
      <trkpt lat="48.46047" lon="-2.87094">
        <ele>133</ele>
        <time>2017-01-05T13:44:56.000Z</time>
      </trkpt>
      <trkpt lat="48.46045" lon="-2.87095">
        <ele>133</ele>
        <time>2017-01-05T13:44:57.000Z</time>
      </trkpt>
      <trkpt lat="48.46044" lon="-2.87097">
        <ele>133</ele>
        <time>2017-01-05T13:44:58.000Z</time>
      </trkpt>
      <trkpt lat="48.46043" lon="-2.871">
        <ele>133</ele>
        <time>2017-01-05T13:44:59.000Z</time>
      </trkpt>
      <trkpt lat="48.46043" lon="-2.87103">
        <ele>133</ele>
        <time>2017-01-05T13:45:00.000Z</time>
      </trkpt>
      <trkpt lat="48.46043" lon="-2.87107">
        <ele>133</ele>
        <time>2017-01-05T13:45:01.000Z</time>
      </trkpt>
      <trkpt lat="48.46044" lon="-2.8711">
        <ele>133</ele>
        <time>2017-01-05T13:45:02.000Z</time>
      </trkpt>
      <trkpt lat="48.46045" lon="-2.87113">
        <ele>133</ele>
        <time>2017-01-05T13:45:03.000Z</time>
      </trkpt>
      <trkpt lat="48.46047" lon="-2.87117">
        <ele>133</ele>
        <time>2017-01-05T13:45:04.000Z</time>
      </trkpt>
      <trkpt lat="48.46047" lon="-2.87121">
        <ele>133</ele>
        <time>2017-01-05T13:45:05.000Z</time>
      </trkpt>
      <trkpt lat="48.46048" lon="-2.87125">
        <ele>133</ele>
        <time>2017-01-05T13:45:06.000Z</time>
      </trkpt>
      <trkpt lat="48.46049" lon="-2.8713">
        <ele>133</ele>
        <time>2017-01-05T13:45:07.000Z</time>
      </trkpt>
      <trkpt lat="48.46051" lon="-2.87135">
        <ele>134</ele>
        <time>2017-01-05T13:45:08.000Z</time>
      </trkpt>
      <trkpt lat="48.46051" lon="-2.87139">
        <ele>134</ele>
        <time>2017-01-05T13:45:09.000Z</time>
      </trkpt>
      <trkpt lat="48.46052" lon="-2.87143">
        <ele>134</ele>
        <time>2017-01-05T13:45:10.000Z</time>
      </trkpt>
      <trkpt lat="48.46053" lon="-2.87147">
        <ele>134</ele>
        <time>2017-01-05T13:45:11.000Z</time>
      </trkpt>
      <trkpt lat="48.46053" lon="-2.87152">
        <ele>134</ele>
        <time>2017-01-05T13:45:12.000Z</time>
      </trkpt>
      <trkpt lat="48.46054" lon="-2.87157">
        <ele>134</ele>
        <time>2017-01-05T13:45:13.000Z</time>
      </trkpt>
      <trkpt lat="48.46055" lon="-2.87161">
        <ele>134</ele>
        <time>2017-01-05T13:45:14.000Z</time>
      </trkpt>
      <trkpt lat="48.46056" lon="-2.87166">
        <ele>135</ele>
        <time>2017-01-05T13:45:15.000Z</time>
      </trkpt>
      <trkpt lat="48.46056" lon="-2.87171">
        <ele>135</ele>
        <time>2017-01-05T13:45:16.000Z</time>
      </trkpt>
      <trkpt lat="48.46057" lon="-2.87176">
        <ele>135</ele>
        <time>2017-01-05T13:45:17.000Z</time>
      </trkpt>
      <trkpt lat="48.46057" lon="-2.87181">
        <ele>135</ele>
        <time>2017-01-05T13:45:18.000Z</time>
      </trkpt>
      <trkpt lat="48.46057" lon="-2.87185">
        <ele>134</ele>
        <time>2017-01-05T13:45:19.000Z</time>
      </trkpt>
      <trkpt lat="48.46056" lon="-2.8719">
        <ele>134</ele>
        <time>2017-01-05T13:45:20.000Z</time>
      </trkpt>
      <trkpt lat="48.46057" lon="-2.87195">
        <ele>134</ele>
        <time>2017-01-05T13:45:21.000Z</time>
      </trkpt>
      <trkpt lat="48.46058" lon="-2.87199">
        <ele>134</ele>
        <time>2017-01-05T13:45:22.000Z</time>
      </trkpt>
      <trkpt lat="48.46058" lon="-2.87204">
        <ele>134</ele>
        <time>2017-01-05T13:45:23.000Z</time>
      </trkpt>
      <trkpt lat="48.46058" lon="-2.87209">
        <ele>134</ele>
        <time>2017-01-05T13:45:24.000Z</time>
      </trkpt>
      <trkpt lat="48.46059" lon="-2.87214">
        <ele>134</ele>
        <time>2017-01-05T13:45:25.000Z</time>
      </trkpt>
      <trkpt lat="48.4606" lon="-2.87218">
        <ele>134</ele>
        <time>2017-01-05T13:45:26.000Z</time>
      </trkpt>
      <trkpt lat="48.46061" lon="-2.87223">
        <ele>134</ele>
        <time>2017-01-05T13:45:27.000Z</time>
      </trkpt>
      <trkpt lat="48.46062" lon="-2.87229">
        <ele>134</ele>
        <time>2017-01-05T13:45:28.000Z</time>
      </trkpt>
      <trkpt lat="48.46064" lon="-2.87235">
        <ele>134</ele>
        <time>2017-01-05T13:45:29.000Z</time>
      </trkpt>
      <trkpt lat="48.46065" lon="-2.8724">
        <ele>134</ele>
        <time>2017-01-05T13:45:30.000Z</time>
      </trkpt>
      <trkpt lat="48.46067" lon="-2.87245">
        <ele>134</ele>
        <time>2017-01-05T13:45:31.000Z</time>
      </trkpt>
      <trkpt lat="48.46068" lon="-2.8725">
        <ele>134</ele>
        <time>2017-01-05T13:45:32.000Z</time>
      </trkpt>
      <trkpt lat="48.4607" lon="-2.87256">
        <ele>134</ele>
        <time>2017-01-05T13:45:33.000Z</time>
      </trkpt>
      <trkpt lat="48.46071" lon="-2.87262">
        <ele>134</ele>
        <time>2017-01-05T13:45:34.000Z</time>
      </trkpt>
      <trkpt lat="48.46072" lon="-2.87268">
        <ele>134</ele>
        <time>2017-01-05T13:45:35.000Z</time>
      </trkpt>
      <trkpt lat="48.46073" lon="-2.87273">
        <ele>134</ele>
        <time>2017-01-05T13:45:36.000Z</time>
      </trkpt>
      <trkpt lat="48.46075" lon="-2.87278">
        <ele>134</ele>
        <time>2017-01-05T13:45:37.000Z</time>
      </trkpt>
      <trkpt lat="48.46076" lon="-2.87283">
        <ele>134</ele>
        <time>2017-01-05T13:45:38.000Z</time>
      </trkpt>
      <trkpt lat="48.46077" lon="-2.87287">
        <ele>134</ele>
        <time>2017-01-05T13:45:39.000Z</time>
      </trkpt>
      <trkpt lat="48.46079" lon="-2.87291">
        <ele>133</ele>
        <time>2017-01-05T13:45:40.000Z</time>
      </trkpt>
      <trkpt lat="48.4608" lon="-2.87295">
        <ele>133</ele>
        <time>2017-01-05T13:45:41.000Z</time>
      </trkpt>
      <trkpt lat="48.46083" lon="-2.87298">
        <ele>133</ele>
        <time>2017-01-05T13:45:42.000Z</time>
      </trkpt>
      <trkpt lat="48.46085" lon="-2.87301">
        <ele>136</ele>
        <time>2017-01-05T13:45:43.000Z</time>
      </trkpt>
      <trkpt lat="48.46087" lon="-2.87304">
        <ele>135</ele>
        <time>2017-01-05T13:45:44.000Z</time>
      </trkpt>
      <trkpt lat="48.46089" lon="-2.87307">
        <ele>135</ele>
        <time>2017-01-05T13:45:45.000Z</time>
      </trkpt>
      <trkpt lat="48.46091" lon="-2.8731">
        <ele>135</ele>
        <time>2017-01-05T13:45:46.000Z</time>
      </trkpt>
      <trkpt lat="48.46093" lon="-2.87313">
        <ele>135</ele>
        <time>2017-01-05T13:45:47.000Z</time>
      </trkpt>
      <trkpt lat="48.46094" lon="-2.87315">
        <ele>135</ele>
        <time>2017-01-05T13:45:48.000Z</time>
      </trkpt>
      <trkpt lat="48.46096" lon="-2.87318">
        <ele>135</ele>
        <time>2017-01-05T13:45:49.000Z</time>
      </trkpt>
      <trkpt lat="48.46098" lon="-2.8732">
        <ele>135</ele>
        <time>2017-01-05T13:45:50.000Z</time>
      </trkpt>
      <trkpt lat="48.461" lon="-2.87323">
        <ele>135</ele>
        <time>2017-01-05T13:45:51.000Z</time>
      </trkpt>
      <trkpt lat="48.46102" lon="-2.87325">
        <ele>135</ele>
        <time>2017-01-05T13:45:52.000Z</time>
      </trkpt>
      <trkpt lat="48.46104" lon="-2.87327">
        <ele>135</ele>
        <time>2017-01-05T13:45:53.000Z</time>
      </trkpt>
      <trkpt lat="48.46107" lon="-2.8733">
        <ele>135</ele>
        <time>2017-01-05T13:45:54.000Z</time>
      </trkpt>
      <trkpt lat="48.46109" lon="-2.87332">
        <ele>135</ele>
        <time>2017-01-05T13:45:55.000Z</time>
      </trkpt>
      <trkpt lat="48.46111" lon="-2.87333">
        <ele>135</ele>
        <time>2017-01-05T13:45:56.000Z</time>
      </trkpt>
      <trkpt lat="48.46113" lon="-2.87335">
        <ele>133</ele>
        <time>2017-01-05T13:45:57.000Z</time>
      </trkpt>
      <trkpt lat="48.46115" lon="-2.87335">
        <ele>134</ele>
        <time>2017-01-05T13:45:58.000Z</time>
      </trkpt>
      <trkpt lat="48.46118" lon="-2.87336">
        <ele>134</ele>
        <time>2017-01-05T13:45:59.000Z</time>
      </trkpt>
      <trkpt lat="48.46121" lon="-2.87336">
        <ele>134</ele>
        <time>2017-01-05T13:46:00.000Z</time>
      </trkpt>
      <trkpt lat="48.46124" lon="-2.87336">
        <ele>134</ele>
        <time>2017-01-05T13:46:01.000Z</time>
      </trkpt>
      <trkpt lat="48.46126" lon="-2.87337">
        <ele>134</ele>
        <time>2017-01-05T13:46:02.000Z</time>
      </trkpt>
      <trkpt lat="48.46128" lon="-2.87338">
        <ele>134</ele>
        <time>2017-01-05T13:46:03.000Z</time>
      </trkpt>
      <trkpt lat="48.46131" lon="-2.87339">
        <ele>134</ele>
        <time>2017-01-05T13:46:04.000Z</time>
      </trkpt>
      <trkpt lat="48.46134" lon="-2.87341">
        <ele>134</ele>
        <time>2017-01-05T13:46:05.000Z</time>
      </trkpt>
      <trkpt lat="48.46137" lon="-2.87343">
        <ele>135</ele>
        <time>2017-01-05T13:46:06.000Z</time>
      </trkpt>
      <trkpt lat="48.46139" lon="-2.87345">
        <ele>135</ele>
        <time>2017-01-05T13:46:07.000Z</time>
      </trkpt>
      <trkpt lat="48.46142" lon="-2.87347">
        <ele>135</ele>
        <time>2017-01-05T13:46:08.000Z</time>
      </trkpt>
      <trkpt lat="48.46144" lon="-2.87349">
        <ele>135</ele>
        <time>2017-01-05T13:46:09.000Z</time>
      </trkpt>
      <trkpt lat="48.46147" lon="-2.87351">
        <ele>135</ele>
        <time>2017-01-05T13:46:10.000Z</time>
      </trkpt>
      <trkpt lat="48.4615" lon="-2.87353">
        <ele>135</ele>
        <time>2017-01-05T13:46:11.000Z</time>
      </trkpt>
      <trkpt lat="48.46153" lon="-2.87355">
        <ele>135</ele>
        <time>2017-01-05T13:46:12.000Z</time>
      </trkpt>
      <trkpt lat="48.46155" lon="-2.87357">
        <ele>135</ele>
        <time>2017-01-05T13:46:13.000Z</time>
      </trkpt>
      <trkpt lat="48.46157" lon="-2.87359">
        <ele>135</ele>
        <time>2017-01-05T13:46:14.000Z</time>
      </trkpt>
      <trkpt lat="48.46159" lon="-2.87361">
        <ele>135</ele>
        <time>2017-01-05T13:46:15.000Z</time>
      </trkpt>
      <trkpt lat="48.46162" lon="-2.87363">
        <ele>135</ele>
        <time>2017-01-05T13:46:16.000Z</time>
      </trkpt>
      <trkpt lat="48.46164" lon="-2.87365">
        <ele>135</ele>
        <time>2017-01-05T13:46:17.000Z</time>
      </trkpt>
      <trkpt lat="48.46167" lon="-2.87367">
        <ele>137</ele>
        <time>2017-01-05T13:46:18.000Z</time>
      </trkpt>
      <trkpt lat="48.46169" lon="-2.87369">
        <ele>137</ele>
        <time>2017-01-05T13:46:19.000Z</time>
      </trkpt>
      <trkpt lat="48.46171" lon="-2.87372">
        <ele>137</ele>
        <time>2017-01-05T13:46:20.000Z</time>
      </trkpt>
      <trkpt lat="48.46174" lon="-2.87374">
        <ele>137</ele>
        <time>2017-01-05T13:46:21.000Z</time>
      </trkpt>
      <trkpt lat="48.46175" lon="-2.87377">
        <ele>137</ele>
        <time>2017-01-05T13:46:22.000Z</time>
      </trkpt>
      <trkpt lat="48.46177" lon="-2.87379">
        <ele>137</ele>
        <time>2017-01-05T13:46:23.000Z</time>
      </trkpt>
      <trkpt lat="48.46179" lon="-2.8738">
        <ele>137</ele>
        <time>2017-01-05T13:46:27.000Z</time>
      </trkpt>
      <trkpt lat="48.46181" lon="-2.87381">
        <ele>137</ele>
        <time>2017-01-05T13:46:29.000Z</time>
      </trkpt>
      <trkpt lat="48.46183" lon="-2.8738">
        <ele>137</ele>
        <time>2017-01-05T13:46:33.000Z</time>
      </trkpt>
      <trkpt lat="48.46185" lon="-2.8738">
        <ele>137</ele>
        <time>2017-01-05T13:46:37.000Z</time>
      </trkpt>
      <trkpt lat="48.46187" lon="-2.8738">
        <ele>137</ele>
        <time>2017-01-05T13:46:41.000Z</time>
      </trkpt>
      <trkpt lat="48.4619" lon="-2.87383">
        <ele>137</ele>
        <time>2017-01-05T13:46:43.000Z</time>
      </trkpt>
      <trkpt lat="48.46192" lon="-2.87384">
        <ele>137</ele>
        <time>2017-01-05T13:46:44.000Z</time>
      </trkpt>
      <trkpt lat="48.46195" lon="-2.87385">
        <ele>137</ele>
        <time>2017-01-05T13:46:46.000Z</time>
      </trkpt>
      <trkpt lat="48.46198" lon="-2.87387">
        <ele>137</ele>
        <time>2017-01-05T13:46:48.000Z</time>
      </trkpt>
      <trkpt lat="48.46199" lon="-2.87389">
        <ele>137</ele>
        <time>2017-01-05T13:46:51.000Z</time>
      </trkpt>
      <trkpt lat="48.46202" lon="-2.8739">
        <ele>137</ele>
        <time>2017-01-05T13:46:55.000Z</time>
      </trkpt>
      <trkpt lat="48.46204" lon="-2.8739">
        <ele>137</ele>
        <time>2017-01-05T13:46:58.000Z</time>
      </trkpt>
      <trkpt lat="48.46207" lon="-2.87392">
        <ele>137</ele>
        <time>2017-01-05T13:47:02.000Z</time>
      </trkpt>
      <trkpt lat="48.46209" lon="-2.87393">
        <ele>137</ele>
        <time>2017-01-05T13:47:04.000Z</time>
      </trkpt>
      <trkpt lat="48.4621" lon="-2.87395">
        <ele>137</ele>
        <time>2017-01-05T13:47:06.000Z</time>
      </trkpt>
      <trkpt lat="48.46212" lon="-2.87396">
        <ele>137</ele>
        <time>2017-01-05T13:47:08.000Z</time>
      </trkpt>
      <trkpt lat="48.46214" lon="-2.87397">
        <ele>137</ele>
        <time>2017-01-05T13:47:10.000Z</time>
      </trkpt>
      <trkpt lat="48.46217" lon="-2.87397">
        <ele>137</ele>
        <time>2017-01-05T13:47:13.000Z</time>
      </trkpt>
      <trkpt lat="48.46218" lon="-2.874">
        <ele>137</ele>
        <time>2017-01-05T13:47:16.000Z</time>
      </trkpt>
      <trkpt lat="48.4622" lon="-2.87401">
        <ele>137</ele>
        <time>2017-01-05T13:47:24.000Z</time>
      </trkpt>
      <trkpt lat="48.46222" lon="-2.87401">
        <ele>137</ele>
        <time>2017-01-05T13:47:33.000Z</time>
      </trkpt>
      <trkpt lat="48.46224" lon="-2.87402">
        <ele>137</ele>
        <time>2017-01-05T13:47:37.000Z</time>
      </trkpt>
      <trkpt lat="48.46228" lon="-2.87404">
        <ele>137</ele>
        <time>2017-01-05T13:47:39.000Z</time>
      </trkpt>
      <trkpt lat="48.4623" lon="-2.87405">
        <ele>137</ele>
        <time>2017-01-05T13:47:40.000Z</time>
      </trkpt>
      <trkpt lat="48.46233" lon="-2.87405">
        <ele>137</ele>
        <time>2017-01-05T13:47:41.000Z</time>
      </trkpt>
      <trkpt lat="48.46235" lon="-2.87405">
        <ele>137</ele>
        <time>2017-01-05T13:47:42.000Z</time>
      </trkpt>
      <trkpt lat="48.46238" lon="-2.87405">
        <ele>137</ele>
        <time>2017-01-05T13:47:44.000Z</time>
      </trkpt>
      <trkpt lat="48.46241" lon="-2.87406">
        <ele>137</ele>
        <time>2017-01-05T13:47:47.000Z</time>
      </trkpt>
      <trkpt lat="48.46243" lon="-2.87406">
        <ele>137</ele>
        <time>2017-01-05T13:47:49.000Z</time>
      </trkpt>
      <trkpt lat="48.46245" lon="-2.87407">
        <ele>137</ele>
        <time>2017-01-05T13:47:51.000Z</time>
      </trkpt>
      <trkpt lat="48.46247" lon="-2.87409">
        <ele>137</ele>
        <time>2017-01-05T13:47:53.000Z</time>
      </trkpt>
      <trkpt lat="48.46248" lon="-2.8741">
        <ele>137</ele>
        <time>2017-01-05T13:47:55.000Z</time>
      </trkpt>
      <trkpt lat="48.4625" lon="-2.87411">
        <ele>136</ele>
        <time>2017-01-05T13:47:57.000Z</time>
      </trkpt>
      <trkpt lat="48.46253" lon="-2.87412">
        <ele>137</ele>
        <time>2017-01-05T13:47:59.000Z</time>
      </trkpt>
      <trkpt lat="48.46256" lon="-2.87414">
        <ele>138</ele>
        <time>2017-01-05T13:48:01.000Z</time>
      </trkpt>
      <trkpt lat="48.46258" lon="-2.87416">
        <ele>138</ele>
        <time>2017-01-05T13:48:03.000Z</time>
      </trkpt>
      <trkpt lat="48.4626" lon="-2.87417">
        <ele>137</ele>
        <time>2017-01-05T13:48:05.000Z</time>
      </trkpt>
      <trkpt lat="48.46262" lon="-2.87418">
        <ele>137</ele>
        <time>2017-01-05T13:48:07.000Z</time>
      </trkpt>
      <trkpt lat="48.46264" lon="-2.8742">
        <ele>137</ele>
        <time>2017-01-05T13:48:09.000Z</time>
      </trkpt>
      <trkpt lat="48.46266" lon="-2.8742">
        <ele>137</ele>
        <time>2017-01-05T13:48:11.000Z</time>
      </trkpt>
      <trkpt lat="48.46268" lon="-2.8742">
        <ele>137</ele>
        <time>2017-01-05T13:48:13.000Z</time>
      </trkpt>
      <trkpt lat="48.4627" lon="-2.8742">
        <ele>137</ele>
        <time>2017-01-05T13:48:16.000Z</time>
      </trkpt>
      <trkpt lat="48.46272" lon="-2.87421">
        <ele>138</ele>
        <time>2017-01-05T13:48:19.000Z</time>
      </trkpt>
      <trkpt lat="48.46273" lon="-2.87424">
        <ele>138</ele>
        <time>2017-01-05T13:48:21.000Z</time>
      </trkpt>
      <trkpt lat="48.46275" lon="-2.87423">
        <ele>138</ele>
        <time>2017-01-05T13:48:31.000Z</time>
      </trkpt>
      <trkpt lat="48.46277" lon="-2.87422">
        <ele>138</ele>
        <time>2017-01-05T13:48:40.000Z</time>
      </trkpt>
      <trkpt lat="48.46279" lon="-2.87422">
        <ele>138</ele>
        <time>2017-01-05T13:48:44.000Z</time>
      </trkpt>
      <trkpt lat="48.46281" lon="-2.87422">
        <ele>138</ele>
        <time>2017-01-05T13:48:46.000Z</time>
      </trkpt>
      <trkpt lat="48.46283" lon="-2.87422">
        <ele>138</ele>
        <time>2017-01-05T13:48:48.000Z</time>
      </trkpt>
      <trkpt lat="48.46285" lon="-2.87421">
        <ele>138</ele>
        <time>2017-01-05T13:48:50.000Z</time>
      </trkpt>
      <trkpt lat="48.46287" lon="-2.87421">
        <ele>138</ele>
        <time>2017-01-05T13:48:52.000Z</time>
      </trkpt>
      <trkpt lat="48.46289" lon="-2.87421">
        <ele>138</ele>
        <time>2017-01-05T13:48:54.000Z</time>
      </trkpt>
      <trkpt lat="48.46291" lon="-2.87422">
        <ele>138</ele>
        <time>2017-01-05T13:48:56.000Z</time>
      </trkpt>
      <trkpt lat="48.46293" lon="-2.87422">
        <ele>139</ele>
        <time>2017-01-05T13:48:58.000Z</time>
      </trkpt>
      <trkpt lat="48.46296" lon="-2.87424">
        <ele>139</ele>
        <time>2017-01-05T13:49:01.000Z</time>
      </trkpt>
      <trkpt lat="48.46297" lon="-2.87425">
        <ele>139</ele>
        <time>2017-01-05T13:49:03.000Z</time>
      </trkpt>
      <trkpt lat="48.46299" lon="-2.87425">
        <ele>139</ele>
        <time>2017-01-05T13:49:06.000Z</time>
      </trkpt>
      <trkpt lat="48.46302" lon="-2.87425">
        <ele>139</ele>
        <time>2017-01-05T13:49:10.000Z</time>
      </trkpt>
      <trkpt lat="48.46304" lon="-2.87427">
        <ele>139</ele>
        <time>2017-01-05T13:49:14.000Z</time>
      </trkpt>
      <trkpt lat="48.46305" lon="-2.87429">
        <ele>139</ele>
        <time>2017-01-05T13:49:17.000Z</time>
      </trkpt>
      <trkpt lat="48.46307" lon="-2.87429">
        <ele>139</ele>
        <time>2017-01-05T13:49:19.000Z</time>
      </trkpt>
      <trkpt lat="48.4631" lon="-2.8743">
        <ele>139</ele>
        <time>2017-01-05T13:49:22.000Z</time>
      </trkpt>
      <trkpt lat="48.46311" lon="-2.87432">
        <ele>139</ele>
        <time>2017-01-05T13:49:24.000Z</time>
      </trkpt>
      <trkpt lat="48.46313" lon="-2.87434">
        <ele>139</ele>
        <time>2017-01-05T13:49:26.000Z</time>
      </trkpt>
      <trkpt lat="48.46314" lon="-2.87436">
        <ele>139</ele>
        <time>2017-01-05T13:49:28.000Z</time>
      </trkpt>
      <trkpt lat="48.46316" lon="-2.87438">
        <ele>139</ele>
        <time>2017-01-05T13:49:30.000Z</time>
      </trkpt>
      <trkpt lat="48.46318" lon="-2.87441">
        <ele>139</ele>
        <time>2017-01-05T13:49:32.000Z</time>
      </trkpt>
      <trkpt lat="48.46319" lon="-2.87443">
        <ele>139</ele>
        <time>2017-01-05T13:49:34.000Z</time>
      </trkpt>
      <trkpt lat="48.46322" lon="-2.87448">
        <ele>139</ele>
        <time>2017-01-05T13:49:38.000Z</time>
      </trkpt>
      <trkpt lat="48.46323" lon="-2.87451">
        <ele>139</ele>
        <time>2017-01-05T13:49:40.000Z</time>
      </trkpt>
      <trkpt lat="48.46325" lon="-2.87455">
        <ele>139</ele>
        <time>2017-01-05T13:49:43.000Z</time>
      </trkpt>
      <trkpt lat="48.46326" lon="-2.87461">
        <ele>139</ele>
        <time>2017-01-05T13:49:46.000Z</time>
      </trkpt>
      <trkpt lat="48.46325" lon="-2.87464">
        <ele>139</ele>
        <time>2017-01-05T13:49:48.000Z</time>
      </trkpt>
      <trkpt lat="48.46324" lon="-2.87468">
        <ele>139</ele>
        <time>2017-01-05T13:49:50.000Z</time>
      </trkpt>
      <trkpt lat="48.46323" lon="-2.87471">
        <ele>139</ele>
        <time>2017-01-05T13:49:52.000Z</time>
      </trkpt>
      <trkpt lat="48.46322" lon="-2.87474">
        <ele>139</ele>
        <time>2017-01-05T13:49:56.000Z</time>
      </trkpt>
      <trkpt lat="48.46322" lon="-2.87477">
        <ele>139</ele>
        <time>2017-01-05T13:49:58.000Z</time>
      </trkpt>
      <trkpt lat="48.46322" lon="-2.8748">
        <ele>139</ele>
        <time>2017-01-05T13:50:00.000Z</time>
      </trkpt>
      <trkpt lat="48.46322" lon="-2.87483">
        <ele>139</ele>
        <time>2017-01-05T13:50:02.000Z</time>
      </trkpt>
      <trkpt lat="48.46321" lon="-2.87486">
        <ele>139</ele>
        <time>2017-01-05T13:50:04.000Z</time>
      </trkpt>
      <trkpt lat="48.46322" lon="-2.87488">
        <ele>139</ele>
        <time>2017-01-05T13:50:06.000Z</time>
      </trkpt>
      <trkpt lat="48.46322" lon="-2.87492">
        <ele>139</ele>
        <time>2017-01-05T13:50:09.000Z</time>
      </trkpt>
      <trkpt lat="48.46323" lon="-2.87495">
        <ele>139</ele>
        <time>2017-01-05T13:50:11.000Z</time>
      </trkpt>
      <trkpt lat="48.46324" lon="-2.87499">
        <ele>139</ele>
        <time>2017-01-05T13:50:16.000Z</time>
      </trkpt>
      <trkpt lat="48.46325" lon="-2.87501">
        <ele>139</ele>
        <time>2017-01-05T13:50:18.000Z</time>
      </trkpt>
      <trkpt lat="48.46327" lon="-2.87505">
        <ele>139</ele>
        <time>2017-01-05T13:50:20.000Z</time>
      </trkpt>
      <trkpt lat="48.46328" lon="-2.87507">
        <ele>139</ele>
        <time>2017-01-05T13:50:21.000Z</time>
      </trkpt>
      <trkpt lat="48.4633" lon="-2.8751">
        <ele>139</ele>
        <time>2017-01-05T13:50:22.000Z</time>
      </trkpt>
      <trkpt lat="48.46331" lon="-2.87513">
        <ele>139</ele>
        <time>2017-01-05T13:50:23.000Z</time>
      </trkpt>
      <trkpt lat="48.46332" lon="-2.87515">
        <ele>139</ele>
        <time>2017-01-05T13:50:24.000Z</time>
      </trkpt>
      <trkpt lat="48.46333" lon="-2.87518">
        <ele>139</ele>
        <time>2017-01-05T13:50:25.000Z</time>
      </trkpt>
      <trkpt lat="48.46335" lon="-2.87521">
        <ele>141</ele>
        <time>2017-01-05T13:50:26.000Z</time>
      </trkpt>
      <trkpt lat="48.46337" lon="-2.87524">
        <ele>141</ele>
        <time>2017-01-05T13:50:27.000Z</time>
      </trkpt>
      <trkpt lat="48.46338" lon="-2.87527">
        <ele>141</ele>
        <time>2017-01-05T13:50:28.000Z</time>
      </trkpt>
      <trkpt lat="48.4634" lon="-2.8753">
        <ele>141</ele>
        <time>2017-01-05T13:50:29.000Z</time>
      </trkpt>
      <trkpt lat="48.46341" lon="-2.87533">
        <ele>141</ele>
        <time>2017-01-05T13:50:30.000Z</time>
      </trkpt>
      <trkpt lat="48.46343" lon="-2.87535">
        <ele>141</ele>
        <time>2017-01-05T13:50:31.000Z</time>
      </trkpt>
      <trkpt lat="48.46345" lon="-2.87538">
        <ele>141</ele>
        <time>2017-01-05T13:50:32.000Z</time>
      </trkpt>
      <trkpt lat="48.46347" lon="-2.87541">
        <ele>141</ele>
        <time>2017-01-05T13:50:33.000Z</time>
      </trkpt>
      <trkpt lat="48.46349" lon="-2.87544">
        <ele>141</ele>
        <time>2017-01-05T13:50:34.000Z</time>
      </trkpt>
      <trkpt lat="48.4635" lon="-2.87547">
        <ele>141</ele>
        <time>2017-01-05T13:50:35.000Z</time>
      </trkpt>
      <trkpt lat="48.46352" lon="-2.8755">
        <ele>141</ele>
        <time>2017-01-05T13:50:36.000Z</time>
      </trkpt>
      <trkpt lat="48.46353" lon="-2.87553">
        <ele>141</ele>
        <time>2017-01-05T13:50:37.000Z</time>
      </trkpt>
      <trkpt lat="48.46355" lon="-2.87555">
        <ele>141</ele>
        <time>2017-01-05T13:50:38.000Z</time>
      </trkpt>
      <trkpt lat="48.46357" lon="-2.87558">
        <ele>141</ele>
        <time>2017-01-05T13:50:39.000Z</time>
      </trkpt>
      <trkpt lat="48.46359" lon="-2.87561">
        <ele>141</ele>
        <time>2017-01-05T13:50:40.000Z</time>
      </trkpt>
      <trkpt lat="48.46362" lon="-2.87563">
        <ele>141</ele>
        <time>2017-01-05T13:50:41.000Z</time>
      </trkpt>
      <trkpt lat="48.46364" lon="-2.87565">
        <ele>142</ele>
        <time>2017-01-05T13:50:42.000Z</time>
      </trkpt>
      <trkpt lat="48.46366" lon="-2.87568">
        <ele>142</ele>
        <time>2017-01-05T13:50:43.000Z</time>
      </trkpt>
      <trkpt lat="48.46368" lon="-2.8757">
        <ele>142</ele>
        <time>2017-01-05T13:50:44.000Z</time>
      </trkpt>
      <trkpt lat="48.4637" lon="-2.87572">
        <ele>142</ele>
        <time>2017-01-05T13:50:45.000Z</time>
      </trkpt>
      <trkpt lat="48.46372" lon="-2.87574">
        <ele>142</ele>
        <time>2017-01-05T13:50:46.000Z</time>
      </trkpt>
      <trkpt lat="48.46375" lon="-2.87576">
        <ele>142</ele>
        <time>2017-01-05T13:50:47.000Z</time>
      </trkpt>
      <trkpt lat="48.46377" lon="-2.87578">
        <ele>142</ele>
        <time>2017-01-05T13:50:48.000Z</time>
      </trkpt>
      <trkpt lat="48.4638" lon="-2.8758">
        <ele>142</ele>
        <time>2017-01-05T13:50:49.000Z</time>
      </trkpt>
      <trkpt lat="48.46382" lon="-2.87582">
        <ele>142</ele>
        <time>2017-01-05T13:50:50.000Z</time>
      </trkpt>
      <trkpt lat="48.46384" lon="-2.87584">
        <ele>141</ele>
        <time>2017-01-05T13:50:51.000Z</time>
      </trkpt>
      <trkpt lat="48.46387" lon="-2.87585">
        <ele>142</ele>
        <time>2017-01-05T13:50:52.000Z</time>
      </trkpt>
      <trkpt lat="48.46389" lon="-2.87587">
        <ele>142</ele>
        <time>2017-01-05T13:50:53.000Z</time>
      </trkpt>
      <trkpt lat="48.46391" lon="-2.87589">
        <ele>142</ele>
        <time>2017-01-05T13:50:54.000Z</time>
      </trkpt>
      <trkpt lat="48.46393" lon="-2.87591">
        <ele>142</ele>
        <time>2017-01-05T13:50:55.000Z</time>
      </trkpt>
      <trkpt lat="48.46395" lon="-2.87592">
        <ele>142</ele>
        <time>2017-01-05T13:50:56.000Z</time>
      </trkpt>
      <trkpt lat="48.46397" lon="-2.87594">
        <ele>142</ele>
        <time>2017-01-05T13:50:57.000Z</time>
      </trkpt>
      <trkpt lat="48.464" lon="-2.87595">
        <ele>142</ele>
        <time>2017-01-05T13:50:58.000Z</time>
      </trkpt>
      <trkpt lat="48.46402" lon="-2.87596">
        <ele>142</ele>
        <time>2017-01-05T13:50:59.000Z</time>
      </trkpt>
      <trkpt lat="48.46404" lon="-2.87598">
        <ele>142</ele>
        <time>2017-01-05T13:51:00.000Z</time>
      </trkpt>
      <trkpt lat="48.46406" lon="-2.876">
        <ele>142</ele>
        <time>2017-01-05T13:51:01.000Z</time>
      </trkpt>
      <trkpt lat="48.46409" lon="-2.87602">
        <ele>142</ele>
        <time>2017-01-05T13:51:02.000Z</time>
      </trkpt>
      <trkpt lat="48.46411" lon="-2.87604">
        <ele>142</ele>
        <time>2017-01-05T13:51:03.000Z</time>
      </trkpt>
      <trkpt lat="48.46413" lon="-2.87605">
        <ele>142</ele>
        <time>2017-01-05T13:51:04.000Z</time>
      </trkpt>
      <trkpt lat="48.46415" lon="-2.87607">
        <ele>142</ele>
        <time>2017-01-05T13:51:05.000Z</time>
      </trkpt>
      <trkpt lat="48.46418" lon="-2.87608">
        <ele>144</ele>
        <time>2017-01-05T13:51:06.000Z</time>
      </trkpt>
      <trkpt lat="48.4642" lon="-2.8761">
        <ele>144</ele>
        <time>2017-01-05T13:51:07.000Z</time>
      </trkpt>
      <trkpt lat="48.46422" lon="-2.87611">
        <ele>144</ele>
        <time>2017-01-05T13:51:08.000Z</time>
      </trkpt>
      <trkpt lat="48.46425" lon="-2.87613">
        <ele>144</ele>
        <time>2017-01-05T13:51:09.000Z</time>
      </trkpt>
      <trkpt lat="48.46427" lon="-2.87615">
        <ele>144</ele>
        <time>2017-01-05T13:51:10.000Z</time>
      </trkpt>
      <trkpt lat="48.46429" lon="-2.87617">
        <ele>144</ele>
        <time>2017-01-05T13:51:11.000Z</time>
      </trkpt>
      <trkpt lat="48.46431" lon="-2.87618">
        <ele>144</ele>
        <time>2017-01-05T13:51:12.000Z</time>
      </trkpt>
      <trkpt lat="48.46433" lon="-2.8762">
        <ele>144</ele>
        <time>2017-01-05T13:51:13.000Z</time>
      </trkpt>
      <trkpt lat="48.46435" lon="-2.87621">
        <ele>144</ele>
        <time>2017-01-05T13:51:14.000Z</time>
      </trkpt>
      <trkpt lat="48.46437" lon="-2.87623">
        <ele>144</ele>
        <time>2017-01-05T13:51:15.000Z</time>
      </trkpt>
      <trkpt lat="48.4644" lon="-2.87625">
        <ele>144</ele>
        <time>2017-01-05T13:51:16.000Z</time>
      </trkpt>
      <trkpt lat="48.46442" lon="-2.87628">
        <ele>144</ele>
        <time>2017-01-05T13:51:17.000Z</time>
      </trkpt>
      <trkpt lat="48.46444" lon="-2.8763">
        <ele>144</ele>
        <time>2017-01-05T13:51:18.000Z</time>
      </trkpt>
      <trkpt lat="48.46446" lon="-2.87632">
        <ele>144</ele>
        <time>2017-01-05T13:51:19.000Z</time>
      </trkpt>
      <trkpt lat="48.46449" lon="-2.87634">
        <ele>144</ele>
        <time>2017-01-05T13:51:20.000Z</time>
      </trkpt>
      <trkpt lat="48.46451" lon="-2.87637">
        <ele>144</ele>
        <time>2017-01-05T13:51:21.000Z</time>
      </trkpt>
      <trkpt lat="48.46453" lon="-2.87639">
        <ele>144</ele>
        <time>2017-01-05T13:51:22.000Z</time>
      </trkpt>
      <trkpt lat="48.46454" lon="-2.87641">
        <ele>144</ele>
        <time>2017-01-05T13:51:23.000Z</time>
      </trkpt>
      <trkpt lat="48.46456" lon="-2.87644">
        <ele>144</ele>
        <time>2017-01-05T13:51:24.000Z</time>
      </trkpt>
      <trkpt lat="48.46459" lon="-2.87646">
        <ele>144</ele>
        <time>2017-01-05T13:51:25.000Z</time>
      </trkpt>
      <trkpt lat="48.46461" lon="-2.87647">
        <ele>144</ele>
        <time>2017-01-05T13:51:26.000Z</time>
      </trkpt>
      <trkpt lat="48.46464" lon="-2.87649">
        <ele>145</ele>
        <time>2017-01-05T13:51:27.000Z</time>
      </trkpt>
      <trkpt lat="48.46466" lon="-2.87651">
        <ele>145</ele>
        <time>2017-01-05T13:51:28.000Z</time>
      </trkpt>
      <trkpt lat="48.46468" lon="-2.87653">
        <ele>145</ele>
        <time>2017-01-05T13:51:29.000Z</time>
      </trkpt>
      <trkpt lat="48.4647" lon="-2.87655">
        <ele>145</ele>
        <time>2017-01-05T13:51:30.000Z</time>
      </trkpt>
      <trkpt lat="48.46472" lon="-2.87657">
        <ele>145</ele>
        <time>2017-01-05T13:51:32.000Z</time>
      </trkpt>
      <trkpt lat="48.46474" lon="-2.8766">
        <ele>145</ele>
        <time>2017-01-05T13:51:34.000Z</time>
      </trkpt>
      <trkpt lat="48.46476" lon="-2.87662">
        <ele>145</ele>
        <time>2017-01-05T13:51:35.000Z</time>
      </trkpt>
      <trkpt lat="48.46477" lon="-2.87667">
        <ele>143</ele>
        <time>2017-01-05T13:51:37.000Z</time>
      </trkpt>
      <trkpt lat="48.46478" lon="-2.8767">
        <ele>143</ele>
        <time>2017-01-05T13:51:38.000Z</time>
      </trkpt>
      <trkpt lat="48.46478" lon="-2.87674">
        <ele>143</ele>
        <time>2017-01-05T13:51:39.000Z</time>
      </trkpt>
      <trkpt lat="48.46478" lon="-2.87677">
        <ele>143</ele>
        <time>2017-01-05T13:51:40.000Z</time>
      </trkpt>
      <trkpt lat="48.46478" lon="-2.8768">
        <ele>143</ele>
        <time>2017-01-05T13:51:41.000Z</time>
      </trkpt>
      <trkpt lat="48.46478" lon="-2.87684">
        <ele>143</ele>
        <time>2017-01-05T13:51:44.000Z</time>
      </trkpt>
      <trkpt lat="48.46479" lon="-2.87686">
        <ele>143</ele>
        <time>2017-01-05T13:51:48.000Z</time>
      </trkpt>
      <trkpt lat="48.46481" lon="-2.87688">
        <ele>143</ele>
        <time>2017-01-05T13:51:50.000Z</time>
      </trkpt>
      <trkpt lat="48.46482" lon="-2.87691">
        <ele>143</ele>
        <time>2017-01-05T13:51:55.000Z</time>
      </trkpt>
      <trkpt lat="48.46481" lon="-2.87694">
        <ele>143</ele>
        <time>2017-01-05T13:52:01.000Z</time>
      </trkpt>
      <trkpt lat="48.46479" lon="-2.87695">
        <ele>143</ele>
        <time>2017-01-05T13:52:04.000Z</time>
      </trkpt>
      <trkpt lat="48.46477" lon="-2.87696">
        <ele>143</ele>
        <time>2017-01-05T13:52:08.000Z</time>
      </trkpt>
      <trkpt lat="48.46475" lon="-2.87695">
        <ele>143</ele>
        <time>2017-01-05T13:52:10.000Z</time>
      </trkpt>
      <trkpt lat="48.46471" lon="-2.87694">
        <ele>143</ele>
        <time>2017-01-05T13:52:12.000Z</time>
      </trkpt>
      <trkpt lat="48.46468" lon="-2.87694">
        <ele>142</ele>
        <time>2017-01-05T13:52:13.000Z</time>
      </trkpt>
      <trkpt lat="48.46466" lon="-2.87694">
        <ele>142</ele>
        <time>2017-01-05T13:52:14.000Z</time>
      </trkpt>
      <trkpt lat="48.46463" lon="-2.87694">
        <ele>142</ele>
        <time>2017-01-05T13:52:15.000Z</time>
      </trkpt>
      <trkpt lat="48.46461" lon="-2.87695">
        <ele>142</ele>
        <time>2017-01-05T13:52:16.000Z</time>
      </trkpt>
      <trkpt lat="48.46459" lon="-2.87697">
        <ele>142</ele>
        <time>2017-01-05T13:52:17.000Z</time>
      </trkpt>
      <trkpt lat="48.46457" lon="-2.87699">
        <ele>142</ele>
        <time>2017-01-05T13:52:18.000Z</time>
      </trkpt>
      <trkpt lat="48.46456" lon="-2.87701">
        <ele>142</ele>
        <time>2017-01-05T13:52:19.000Z</time>
      </trkpt>
      <trkpt lat="48.46454" lon="-2.87705">
        <ele>142</ele>
        <time>2017-01-05T13:52:20.000Z</time>
      </trkpt>
      <trkpt lat="48.46453" lon="-2.87708">
        <ele>142</ele>
        <time>2017-01-05T13:52:21.000Z</time>
      </trkpt>
      <trkpt lat="48.46452" lon="-2.87711">
        <ele>142</ele>
        <time>2017-01-05T13:52:22.000Z</time>
      </trkpt>
      <trkpt lat="48.46451" lon="-2.87714">
        <ele>142</ele>
        <time>2017-01-05T13:52:23.000Z</time>
      </trkpt>
      <trkpt lat="48.46451" lon="-2.87717">
        <ele>142</ele>
        <time>2017-01-05T13:52:24.000Z</time>
      </trkpt>
      <trkpt lat="48.46451" lon="-2.8772">
        <ele>142</ele>
        <time>2017-01-05T13:52:25.000Z</time>
      </trkpt>
      <trkpt lat="48.4645" lon="-2.87723">
        <ele>142</ele>
        <time>2017-01-05T13:52:26.000Z</time>
      </trkpt>
      <trkpt lat="48.4645" lon="-2.87726">
        <ele>142</ele>
        <time>2017-01-05T13:52:27.000Z</time>
      </trkpt>
      <trkpt lat="48.4645" lon="-2.87731">
        <ele>142</ele>
        <time>2017-01-05T13:52:29.000Z</time>
      </trkpt>
      <trkpt lat="48.46449" lon="-2.87734">
        <ele>142</ele>
        <time>2017-01-05T13:52:30.000Z</time>
      </trkpt>
      <trkpt lat="48.46449" lon="-2.87737">
        <ele>142</ele>
        <time>2017-01-05T13:52:31.000Z</time>
      </trkpt>
      <trkpt lat="48.46449" lon="-2.8774">
        <ele>142</ele>
        <time>2017-01-05T13:52:32.000Z</time>
      </trkpt>
      <trkpt lat="48.46449" lon="-2.87743">
        <ele>142</ele>
        <time>2017-01-05T13:52:33.000Z</time>
      </trkpt>
      <trkpt lat="48.46449" lon="-2.87747">
        <ele>142</ele>
        <time>2017-01-05T13:52:34.000Z</time>
      </trkpt>
      <trkpt lat="48.46449" lon="-2.8775">
        <ele>142</ele>
        <time>2017-01-05T13:52:35.000Z</time>
      </trkpt>
      <trkpt lat="48.4645" lon="-2.87753">
        <ele>142</ele>
        <time>2017-01-05T13:52:36.000Z</time>
      </trkpt>
      <trkpt lat="48.4645" lon="-2.87757">
        <ele>142</ele>
        <time>2017-01-05T13:52:37.000Z</time>
      </trkpt>
      <trkpt lat="48.46451" lon="-2.8776">
        <ele>142</ele>
        <time>2017-01-05T13:52:38.000Z</time>
      </trkpt>
      <trkpt lat="48.46451" lon="-2.87764">
        <ele>142</ele>
        <time>2017-01-05T13:52:39.000Z</time>
      </trkpt>
      <trkpt lat="48.46451" lon="-2.87768">
        <ele>142</ele>
        <time>2017-01-05T13:52:40.000Z</time>
      </trkpt>
      <trkpt lat="48.46451" lon="-2.87772">
        <ele>142</ele>
        <time>2017-01-05T13:52:41.000Z</time>
      </trkpt>
      <trkpt lat="48.46451" lon="-2.87776">
        <ele>142</ele>
        <time>2017-01-05T13:52:42.000Z</time>
      </trkpt>
      <trkpt lat="48.46451" lon="-2.87779">
        <ele>142</ele>
        <time>2017-01-05T13:52:43.000Z</time>
      </trkpt>
      <trkpt lat="48.46452" lon="-2.87782">
        <ele>142</ele>
        <time>2017-01-05T13:52:44.000Z</time>
      </trkpt>
      <trkpt lat="48.46453" lon="-2.87785">
        <ele>142</ele>
        <time>2017-01-05T13:52:45.000Z</time>
      </trkpt>
      <trkpt lat="48.46453" lon="-2.87788">
        <ele>143</ele>
        <time>2017-01-05T13:52:46.000Z</time>
      </trkpt>
      <trkpt lat="48.46453" lon="-2.87792">
        <ele>143</ele>
        <time>2017-01-05T13:52:47.000Z</time>
      </trkpt>
      <trkpt lat="48.46453" lon="-2.87796">
        <ele>143</ele>
        <time>2017-01-05T13:52:48.000Z</time>
      </trkpt>
      <trkpt lat="48.46454" lon="-2.87799">
        <ele>143</ele>
        <time>2017-01-05T13:52:49.000Z</time>
      </trkpt>
      <trkpt lat="48.46455" lon="-2.87803">
        <ele>143</ele>
        <time>2017-01-05T13:52:50.000Z</time>
      </trkpt>
      <trkpt lat="48.46454" lon="-2.87806">
        <ele>143</ele>
        <time>2017-01-05T13:52:51.000Z</time>
      </trkpt>
      <trkpt lat="48.46454" lon="-2.8781">
        <ele>143</ele>
        <time>2017-01-05T13:52:52.000Z</time>
      </trkpt>
      <trkpt lat="48.46454" lon="-2.87814">
        <ele>143</ele>
        <time>2017-01-05T13:52:53.000Z</time>
      </trkpt>
      <trkpt lat="48.46454" lon="-2.87817">
        <ele>143</ele>
        <time>2017-01-05T13:52:54.000Z</time>
      </trkpt>
      <trkpt lat="48.46453" lon="-2.87821">
        <ele>143</ele>
        <time>2017-01-05T13:52:55.000Z</time>
      </trkpt>
      <trkpt lat="48.46453" lon="-2.87825">
        <ele>143</ele>
        <time>2017-01-05T13:52:56.000Z</time>
      </trkpt>
      <trkpt lat="48.46453" lon="-2.87828">
        <ele>143</ele>
        <time>2017-01-05T13:52:57.000Z</time>
      </trkpt>
      <trkpt lat="48.46452" lon="-2.87832">
        <ele>143</ele>
        <time>2017-01-05T13:52:58.000Z</time>
      </trkpt>
      <trkpt lat="48.46451" lon="-2.87836">
        <ele>143</ele>
        <time>2017-01-05T13:52:59.000Z</time>
      </trkpt>
      <trkpt lat="48.46451" lon="-2.8784">
        <ele>143</ele>
        <time>2017-01-05T13:53:00.000Z</time>
      </trkpt>
      <trkpt lat="48.4645" lon="-2.87844">
        <ele>143</ele>
        <time>2017-01-05T13:53:01.000Z</time>
      </trkpt>
      <trkpt lat="48.4645" lon="-2.87848">
        <ele>143</ele>
        <time>2017-01-05T13:53:02.000Z</time>
      </trkpt>
      <trkpt lat="48.4645" lon="-2.87852">
        <ele>143</ele>
        <time>2017-01-05T13:53:03.000Z</time>
      </trkpt>
      <trkpt lat="48.4645" lon="-2.87855">
        <ele>143</ele>
        <time>2017-01-05T13:53:04.000Z</time>
      </trkpt>
      <trkpt lat="48.4645" lon="-2.87859">
        <ele>143</ele>
        <time>2017-01-05T13:53:05.000Z</time>
      </trkpt>
      <trkpt lat="48.46449" lon="-2.87862">
        <ele>143</ele>
        <time>2017-01-05T13:53:06.000Z</time>
      </trkpt>
      <trkpt lat="48.46449" lon="-2.87865">
        <ele>143</ele>
        <time>2017-01-05T13:53:07.000Z</time>
      </trkpt>
      <trkpt lat="48.4645" lon="-2.87869">
        <ele>143</ele>
        <time>2017-01-05T13:53:08.000Z</time>
      </trkpt>
      <trkpt lat="48.46449" lon="-2.87873">
        <ele>143</ele>
        <time>2017-01-05T13:53:09.000Z</time>
      </trkpt>
      <trkpt lat="48.46449" lon="-2.87879">
        <ele>143</ele>
        <time>2017-01-05T13:53:10.000Z</time>
      </trkpt>
      <trkpt lat="48.46448" lon="-2.87883">
        <ele>143</ele>
        <time>2017-01-05T13:53:11.000Z</time>
      </trkpt>
      <trkpt lat="48.46448" lon="-2.87888">
        <ele>143</ele>
        <time>2017-01-05T13:53:12.000Z</time>
      </trkpt>
      <trkpt lat="48.46448" lon="-2.87892">
        <ele>143</ele>
        <time>2017-01-05T13:53:13.000Z</time>
      </trkpt>
      <trkpt lat="48.46447" lon="-2.87896">
        <ele>143</ele>
        <time>2017-01-05T13:53:14.000Z</time>
      </trkpt>
      <trkpt lat="48.46446" lon="-2.87901">
        <ele>143</ele>
        <time>2017-01-05T13:53:15.000Z</time>
      </trkpt>
      <trkpt lat="48.46445" lon="-2.87906">
        <ele>142</ele>
        <time>2017-01-05T13:53:16.000Z</time>
      </trkpt>
      <trkpt lat="48.46445" lon="-2.8791">
        <ele>142</ele>
        <time>2017-01-05T13:53:17.000Z</time>
      </trkpt>
      <trkpt lat="48.46446" lon="-2.87914">
        <ele>142</ele>
        <time>2017-01-05T13:53:18.000Z</time>
      </trkpt>
      <trkpt lat="48.46447" lon="-2.87918">
        <ele>143</ele>
        <time>2017-01-05T13:53:19.000Z</time>
      </trkpt>
      <trkpt lat="48.46448" lon="-2.87922">
        <ele>143</ele>
        <time>2017-01-05T13:53:20.000Z</time>
      </trkpt>
      <trkpt lat="48.4645" lon="-2.87925">
        <ele>143</ele>
        <time>2017-01-05T13:53:21.000Z</time>
      </trkpt>
      <trkpt lat="48.46451" lon="-2.87929">
        <ele>143</ele>
        <time>2017-01-05T13:53:22.000Z</time>
      </trkpt>
      <trkpt lat="48.46452" lon="-2.87932">
        <ele>144</ele>
        <time>2017-01-05T13:53:23.000Z</time>
      </trkpt>
      <trkpt lat="48.46452" lon="-2.87937">
        <ele>144</ele>
        <time>2017-01-05T13:53:24.000Z</time>
      </trkpt>
      <trkpt lat="48.46451" lon="-2.87942">
        <ele>144</ele>
        <time>2017-01-05T13:53:25.000Z</time>
      </trkpt>
      <trkpt lat="48.46451" lon="-2.87946">
        <ele>144</ele>
        <time>2017-01-05T13:53:26.000Z</time>
      </trkpt>
      <trkpt lat="48.46451" lon="-2.8795">
        <ele>144</ele>
        <time>2017-01-05T13:53:27.000Z</time>
      </trkpt>
      <trkpt lat="48.46451" lon="-2.87955">
        <ele>144</ele>
        <time>2017-01-05T13:53:28.000Z</time>
      </trkpt>
      <trkpt lat="48.46452" lon="-2.87958">
        <ele>144</ele>
        <time>2017-01-05T13:53:29.000Z</time>
      </trkpt>
      <trkpt lat="48.46452" lon="-2.87962">
        <ele>144</ele>
        <time>2017-01-05T13:53:30.000Z</time>
      </trkpt>
      <trkpt lat="48.46452" lon="-2.87966">
        <ele>144</ele>
        <time>2017-01-05T13:53:31.000Z</time>
      </trkpt>
      <trkpt lat="48.46452" lon="-2.8797">
        <ele>144</ele>
        <time>2017-01-05T13:53:32.000Z</time>
      </trkpt>
      <trkpt lat="48.46453" lon="-2.87974">
        <ele>144</ele>
        <time>2017-01-05T13:53:33.000Z</time>
      </trkpt>
      <trkpt lat="48.46453" lon="-2.87979">
        <ele>144</ele>
        <time>2017-01-05T13:53:34.000Z</time>
      </trkpt>
      <trkpt lat="48.46454" lon="-2.87983">
        <ele>144</ele>
        <time>2017-01-05T13:53:35.000Z</time>
      </trkpt>
      <trkpt lat="48.46454" lon="-2.87987">
        <ele>144</ele>
        <time>2017-01-05T13:53:36.000Z</time>
      </trkpt>
      <trkpt lat="48.46456" lon="-2.87991">
        <ele>144</ele>
        <time>2017-01-05T13:53:37.000Z</time>
      </trkpt>
      <trkpt lat="48.46457" lon="-2.87994">
        <ele>144</ele>
        <time>2017-01-05T13:53:38.000Z</time>
      </trkpt>
      <trkpt lat="48.46459" lon="-2.87998">
        <ele>145</ele>
        <time>2017-01-05T13:53:39.000Z</time>
      </trkpt>
      <trkpt lat="48.4646" lon="-2.88001">
        <ele>145</ele>
        <time>2017-01-05T13:53:40.000Z</time>
      </trkpt>
      <trkpt lat="48.46462" lon="-2.88003">
        <ele>145</ele>
        <time>2017-01-05T13:53:41.000Z</time>
      </trkpt>
      <trkpt lat="48.46463" lon="-2.88007">
        <ele>145</ele>
        <time>2017-01-05T13:53:42.000Z</time>
      </trkpt>
      <trkpt lat="48.46463" lon="-2.8801">
        <ele>145</ele>
        <time>2017-01-05T13:53:43.000Z</time>
      </trkpt>
      <trkpt lat="48.46463" lon="-2.88014">
        <ele>145</ele>
        <time>2017-01-05T13:53:44.000Z</time>
      </trkpt>
      <trkpt lat="48.46464" lon="-2.88018">
        <ele>145</ele>
        <time>2017-01-05T13:53:45.000Z</time>
      </trkpt>
      <trkpt lat="48.46465" lon="-2.88022">
        <ele>145</ele>
        <time>2017-01-05T13:53:46.000Z</time>
      </trkpt>
      <trkpt lat="48.46466" lon="-2.88027">
        <ele>145</ele>
        <time>2017-01-05T13:53:47.000Z</time>
      </trkpt>
      <trkpt lat="48.46466" lon="-2.88032">
        <ele>145</ele>
        <time>2017-01-05T13:53:48.000Z</time>
      </trkpt>
      <trkpt lat="48.46467" lon="-2.88036">
        <ele>145</ele>
        <time>2017-01-05T13:53:49.000Z</time>
      </trkpt>
      <trkpt lat="48.46468" lon="-2.88039">
        <ele>145</ele>
        <time>2017-01-05T13:53:50.000Z</time>
      </trkpt>
      <trkpt lat="48.4647" lon="-2.88043">
        <ele>145</ele>
        <time>2017-01-05T13:53:51.000Z</time>
      </trkpt>
      <trkpt lat="48.46471" lon="-2.88047">
        <ele>144</ele>
        <time>2017-01-05T13:53:52.000Z</time>
      </trkpt>
      <trkpt lat="48.46473" lon="-2.8805">
        <ele>144</ele>
        <time>2017-01-05T13:53:53.000Z</time>
      </trkpt>
      <trkpt lat="48.46475" lon="-2.88054">
        <ele>144</ele>
        <time>2017-01-05T13:53:54.000Z</time>
      </trkpt>
      <trkpt lat="48.46477" lon="-2.88057">
        <ele>144</ele>
        <time>2017-01-05T13:53:55.000Z</time>
      </trkpt>
      <trkpt lat="48.46479" lon="-2.8806">
        <ele>144</ele>
        <time>2017-01-05T13:53:56.000Z</time>
      </trkpt>
      <trkpt lat="48.46481" lon="-2.88063">
        <ele>144</ele>
        <time>2017-01-05T13:53:57.000Z</time>
      </trkpt>
      <trkpt lat="48.46483" lon="-2.88067">
        <ele>144</ele>
        <time>2017-01-05T13:53:58.000Z</time>
      </trkpt>
      <trkpt lat="48.46485" lon="-2.88071">
        <ele>144</ele>
        <time>2017-01-05T13:53:59.000Z</time>
      </trkpt>
      <trkpt lat="48.46487" lon="-2.88074">
        <ele>144</ele>
        <time>2017-01-05T13:54:00.000Z</time>
      </trkpt>
      <trkpt lat="48.46489" lon="-2.88078">
        <ele>144</ele>
        <time>2017-01-05T13:54:01.000Z</time>
      </trkpt>
      <trkpt lat="48.4649" lon="-2.88081">
        <ele>144</ele>
        <time>2017-01-05T13:54:02.000Z</time>
      </trkpt>
      <trkpt lat="48.46492" lon="-2.88084">
        <ele>144</ele>
        <time>2017-01-05T13:54:03.000Z</time>
      </trkpt>
      <trkpt lat="48.46494" lon="-2.88087">
        <ele>144</ele>
        <time>2017-01-05T13:54:04.000Z</time>
      </trkpt>
      <trkpt lat="48.46496" lon="-2.88091">
        <ele>144</ele>
        <time>2017-01-05T13:54:05.000Z</time>
      </trkpt>
      <trkpt lat="48.46498" lon="-2.88094">
        <ele>144</ele>
        <time>2017-01-05T13:54:06.000Z</time>
      </trkpt>
      <trkpt lat="48.465" lon="-2.88098">
        <ele>146</ele>
        <time>2017-01-05T13:54:07.000Z</time>
      </trkpt>
      <trkpt lat="48.46502" lon="-2.88101">
        <ele>147</ele>
        <time>2017-01-05T13:54:08.000Z</time>
      </trkpt>
      <trkpt lat="48.46504" lon="-2.88103">
        <ele>147</ele>
        <time>2017-01-05T13:54:09.000Z</time>
      </trkpt>
      <trkpt lat="48.46507" lon="-2.88106">
        <ele>147</ele>
        <time>2017-01-05T13:54:10.000Z</time>
      </trkpt>
      <trkpt lat="48.46509" lon="-2.88109">
        <ele>147</ele>
        <time>2017-01-05T13:54:11.000Z</time>
      </trkpt>
      <trkpt lat="48.46511" lon="-2.88111">
        <ele>148</ele>
        <time>2017-01-05T13:54:12.000Z</time>
      </trkpt>
      <trkpt lat="48.46513" lon="-2.88114">
        <ele>148</ele>
        <time>2017-01-05T13:54:13.000Z</time>
      </trkpt>
      <trkpt lat="48.46515" lon="-2.88116">
        <ele>148</ele>
        <time>2017-01-05T13:54:14.000Z</time>
      </trkpt>
      <trkpt lat="48.46517" lon="-2.88118">
        <ele>148</ele>
        <time>2017-01-05T13:54:15.000Z</time>
      </trkpt>
      <trkpt lat="48.4652" lon="-2.8812">
        <ele>148</ele>
        <time>2017-01-05T13:54:16.000Z</time>
      </trkpt>
      <trkpt lat="48.46522" lon="-2.88122">
        <ele>148</ele>
        <time>2017-01-05T13:54:17.000Z</time>
      </trkpt>
      <trkpt lat="48.46525" lon="-2.88124">
        <ele>148</ele>
        <time>2017-01-05T13:54:18.000Z</time>
      </trkpt>
      <trkpt lat="48.46527" lon="-2.88126">
        <ele>148</ele>
        <time>2017-01-05T13:54:19.000Z</time>
      </trkpt>
      <trkpt lat="48.46529" lon="-2.88128">
        <ele>149</ele>
        <time>2017-01-05T13:54:20.000Z</time>
      </trkpt>
      <trkpt lat="48.46532" lon="-2.88131">
        <ele>149</ele>
        <time>2017-01-05T13:54:21.000Z</time>
      </trkpt>
      <trkpt lat="48.46534" lon="-2.88133">
        <ele>149</ele>
        <time>2017-01-05T13:54:22.000Z</time>
      </trkpt>
      <trkpt lat="48.46536" lon="-2.88135">
        <ele>149</ele>
        <time>2017-01-05T13:54:23.000Z</time>
      </trkpt>
      <trkpt lat="48.46538" lon="-2.88137">
        <ele>149</ele>
        <time>2017-01-05T13:54:24.000Z</time>
      </trkpt>
      <trkpt lat="48.46541" lon="-2.8814">
        <ele>149</ele>
        <time>2017-01-05T13:54:25.000Z</time>
      </trkpt>
      <trkpt lat="48.46543" lon="-2.88142">
        <ele>149</ele>
        <time>2017-01-05T13:54:26.000Z</time>
      </trkpt>
      <trkpt lat="48.46546" lon="-2.88144">
        <ele>149</ele>
        <time>2017-01-05T13:54:27.000Z</time>
      </trkpt>
      <trkpt lat="48.46548" lon="-2.88145">
        <ele>149</ele>
        <time>2017-01-05T13:54:28.000Z</time>
      </trkpt>
      <trkpt lat="48.4655" lon="-2.88147">
        <ele>149</ele>
        <time>2017-01-05T13:54:29.000Z</time>
      </trkpt>
      <trkpt lat="48.46552" lon="-2.88149">
        <ele>149</ele>
        <time>2017-01-05T13:54:30.000Z</time>
      </trkpt>
      <trkpt lat="48.46554" lon="-2.8815">
        <ele>150</ele>
        <time>2017-01-05T13:54:31.000Z</time>
      </trkpt>
      <trkpt lat="48.46556" lon="-2.88152">
        <ele>150</ele>
        <time>2017-01-05T13:54:32.000Z</time>
      </trkpt>
      <trkpt lat="48.46558" lon="-2.88154">
        <ele>150</ele>
        <time>2017-01-05T13:54:33.000Z</time>
      </trkpt>
      <trkpt lat="48.4656" lon="-2.88157">
        <ele>150</ele>
        <time>2017-01-05T13:54:35.000Z</time>
      </trkpt>
      <trkpt lat="48.46562" lon="-2.8816">
        <ele>150</ele>
        <time>2017-01-05T13:54:38.000Z</time>
      </trkpt>
      <trkpt lat="48.46562" lon="-2.88164">
        <ele>150</ele>
        <time>2017-01-05T13:54:40.000Z</time>
      </trkpt>
      <trkpt lat="48.46562" lon="-2.88168">
        <ele>150</ele>
        <time>2017-01-05T13:54:41.000Z</time>
      </trkpt>
      <trkpt lat="48.46562" lon="-2.88172">
        <ele>150</ele>
        <time>2017-01-05T13:54:42.000Z</time>
      </trkpt>
      <trkpt lat="48.46561" lon="-2.88176">
        <ele>150</ele>
        <time>2017-01-05T13:54:43.000Z</time>
      </trkpt>
      <trkpt lat="48.46561" lon="-2.8818">
        <ele>150</ele>
        <time>2017-01-05T13:54:44.000Z</time>
      </trkpt>
      <trkpt lat="48.4656" lon="-2.88184">
        <ele>150</ele>
        <time>2017-01-05T13:54:45.000Z</time>
      </trkpt>
      <trkpt lat="48.4656" lon="-2.88188">
        <ele>150</ele>
        <time>2017-01-05T13:54:46.000Z</time>
      </trkpt>
      <trkpt lat="48.4656" lon="-2.88193">
        <ele>150</ele>
        <time>2017-01-05T13:54:47.000Z</time>
      </trkpt>
      <trkpt lat="48.4656" lon="-2.88197">
        <ele>150</ele>
        <time>2017-01-05T13:54:48.000Z</time>
      </trkpt>
      <trkpt lat="48.46561" lon="-2.88201">
        <ele>150</ele>
        <time>2017-01-05T13:54:49.000Z</time>
      </trkpt>
      <trkpt lat="48.46562" lon="-2.88204">
        <ele>150</ele>
        <time>2017-01-05T13:54:50.000Z</time>
      </trkpt>
      <trkpt lat="48.46564" lon="-2.88207">
        <ele>150</ele>
        <time>2017-01-05T13:54:51.000Z</time>
      </trkpt>
      <trkpt lat="48.46565" lon="-2.8821">
        <ele>150</ele>
        <time>2017-01-05T13:54:52.000Z</time>
      </trkpt>
      <trkpt lat="48.46566" lon="-2.88213">
        <ele>150</ele>
        <time>2017-01-05T13:54:53.000Z</time>
      </trkpt>
      <trkpt lat="48.46567" lon="-2.88216">
        <ele>150</ele>
        <time>2017-01-05T13:54:54.000Z</time>
      </trkpt>
      <trkpt lat="48.46569" lon="-2.88219">
        <ele>150</ele>
        <time>2017-01-05T13:54:55.000Z</time>
      </trkpt>
      <trkpt lat="48.4657" lon="-2.88222">
        <ele>150</ele>
        <time>2017-01-05T13:54:56.000Z</time>
      </trkpt>
      <trkpt lat="48.46572" lon="-2.88225">
        <ele>150</ele>
        <time>2017-01-05T13:54:57.000Z</time>
      </trkpt>
      <trkpt lat="48.46573" lon="-2.88228">
        <ele>150</ele>
        <time>2017-01-05T13:54:58.000Z</time>
      </trkpt>
      <trkpt lat="48.46574" lon="-2.88231">
        <ele>150</ele>
        <time>2017-01-05T13:54:59.000Z</time>
      </trkpt>
      <trkpt lat="48.46575" lon="-2.88234">
        <ele>150</ele>
        <time>2017-01-05T13:55:00.000Z</time>
      </trkpt>
      <trkpt lat="48.46576" lon="-2.88237">
        <ele>150</ele>
        <time>2017-01-05T13:55:01.000Z</time>
      </trkpt>
      <trkpt lat="48.46578" lon="-2.8824">
        <ele>149</ele>
        <time>2017-01-05T13:55:02.000Z</time>
      </trkpt>
      <trkpt lat="48.46579" lon="-2.88242">
        <ele>149</ele>
        <time>2017-01-05T13:55:03.000Z</time>
      </trkpt>
      <trkpt lat="48.46581" lon="-2.88245">
        <ele>149</ele>
        <time>2017-01-05T13:55:04.000Z</time>
      </trkpt>
      <trkpt lat="48.46582" lon="-2.88248">
        <ele>149</ele>
        <time>2017-01-05T13:55:05.000Z</time>
      </trkpt>
      <trkpt lat="48.46584" lon="-2.88251">
        <ele>149</ele>
        <time>2017-01-05T13:55:06.000Z</time>
      </trkpt>
      <trkpt lat="48.46585" lon="-2.88254">
        <ele>150</ele>
        <time>2017-01-05T13:55:07.000Z</time>
      </trkpt>
      <trkpt lat="48.46586" lon="-2.88257">
        <ele>150</ele>
        <time>2017-01-05T13:55:08.000Z</time>
      </trkpt>
      <trkpt lat="48.46586" lon="-2.8826">
        <ele>150</ele>
        <time>2017-01-05T13:55:09.000Z</time>
      </trkpt>
      <trkpt lat="48.46587" lon="-2.88263">
        <ele>151</ele>
        <time>2017-01-05T13:55:10.000Z</time>
      </trkpt>
      <trkpt lat="48.46587" lon="-2.88267">
        <ele>151</ele>
        <time>2017-01-05T13:55:11.000Z</time>
      </trkpt>
      <trkpt lat="48.46586" lon="-2.8827">
        <ele>151</ele>
        <time>2017-01-05T13:55:12.000Z</time>
      </trkpt>
      <trkpt lat="48.46585" lon="-2.88272">
        <ele>151</ele>
        <time>2017-01-05T13:55:13.000Z</time>
      </trkpt>
      <trkpt lat="48.46584" lon="-2.88275">
        <ele>151</ele>
        <time>2017-01-05T13:55:14.000Z</time>
      </trkpt>
      <trkpt lat="48.46582" lon="-2.88278">
        <ele>152</ele>
        <time>2017-01-05T13:55:15.000Z</time>
      </trkpt>
      <trkpt lat="48.46581" lon="-2.88281">
        <ele>152</ele>
        <time>2017-01-05T13:55:16.000Z</time>
      </trkpt>
      <trkpt lat="48.46579" lon="-2.88282">
        <ele>152</ele>
        <time>2017-01-05T13:55:17.000Z</time>
      </trkpt>
      <trkpt lat="48.46576" lon="-2.88282">
        <ele>152</ele>
        <time>2017-01-05T13:55:18.000Z</time>
      </trkpt>
      <trkpt lat="48.46574" lon="-2.88283">
        <ele>152</ele>
        <time>2017-01-05T13:55:19.000Z</time>
      </trkpt>
      <trkpt lat="48.46572" lon="-2.88283">
        <ele>152</ele>
        <time>2017-01-05T13:55:20.000Z</time>
      </trkpt>
      <trkpt lat="48.46569" lon="-2.88283">
        <ele>153</ele>
        <time>2017-01-05T13:55:21.000Z</time>
      </trkpt>
      <trkpt lat="48.46567" lon="-2.88282">
        <ele>153</ele>
        <time>2017-01-05T13:55:22.000Z</time>
      </trkpt>
      <trkpt lat="48.46565" lon="-2.88281">
        <ele>153</ele>
        <time>2017-01-05T13:55:23.000Z</time>
      </trkpt>
      <trkpt lat="48.46563" lon="-2.88281">
        <ele>153</ele>
        <time>2017-01-05T13:55:24.000Z</time>
      </trkpt>
      <trkpt lat="48.46561" lon="-2.8828">
        <ele>153</ele>
        <time>2017-01-05T13:55:25.000Z</time>
      </trkpt>
      <trkpt lat="48.46559" lon="-2.88279">
        <ele>153</ele>
        <time>2017-01-05T13:55:26.000Z</time>
      </trkpt>
      <trkpt lat="48.46557" lon="-2.8828">
        <ele>153</ele>
        <time>2017-01-05T13:55:27.000Z</time>
      </trkpt>
      <trkpt lat="48.46556" lon="-2.88281">
        <ele>153</ele>
        <time>2017-01-05T13:55:28.000Z</time>
      </trkpt>
      <trkpt lat="48.46554" lon="-2.88284">
        <ele>153</ele>
        <time>2017-01-05T13:55:29.000Z</time>
      </trkpt>
      <trkpt lat="48.46554" lon="-2.88287">
        <ele>153</ele>
        <time>2017-01-05T13:55:30.000Z</time>
      </trkpt>
      <trkpt lat="48.46555" lon="-2.88291">
        <ele>153</ele>
        <time>2017-01-05T13:55:31.000Z</time>
      </trkpt>
      <trkpt lat="48.46556" lon="-2.88295">
        <ele>153</ele>
        <time>2017-01-05T13:55:32.000Z</time>
      </trkpt>
      <trkpt lat="48.46558" lon="-2.88301">
        <ele>153</ele>
        <time>2017-01-05T13:55:33.000Z</time>
      </trkpt>
      <trkpt lat="48.46559" lon="-2.88307">
        <ele>153</ele>
        <time>2017-01-05T13:55:34.000Z</time>
      </trkpt>
      <trkpt lat="48.46561" lon="-2.88312">
        <ele>153</ele>
        <time>2017-01-05T13:55:35.000Z</time>
      </trkpt>
      <trkpt lat="48.46562" lon="-2.88318">
        <ele>153</ele>
        <time>2017-01-05T13:55:36.000Z</time>
      </trkpt>
      <trkpt lat="48.46563" lon="-2.88323">
        <ele>153</ele>
        <time>2017-01-05T13:55:37.000Z</time>
      </trkpt>
      <trkpt lat="48.46565" lon="-2.88328">
        <ele>153</ele>
        <time>2017-01-05T13:55:38.000Z</time>
      </trkpt>
      <trkpt lat="48.46567" lon="-2.88333">
        <ele>153</ele>
        <time>2017-01-05T13:55:39.000Z</time>
      </trkpt>
      <trkpt lat="48.46569" lon="-2.88337">
        <ele>154</ele>
        <time>2017-01-05T13:55:40.000Z</time>
      </trkpt>
      <trkpt lat="48.4657" lon="-2.8834">
        <ele>154</ele>
        <time>2017-01-05T13:55:41.000Z</time>
      </trkpt>
      <trkpt lat="48.46572" lon="-2.88343">
        <ele>154</ele>
        <time>2017-01-05T13:55:42.000Z</time>
      </trkpt>
      <trkpt lat="48.46573" lon="-2.88345">
        <ele>154</ele>
        <time>2017-01-05T13:55:43.000Z</time>
      </trkpt>
      <trkpt lat="48.46574" lon="-2.88348">
        <ele>154</ele>
        <time>2017-01-05T13:55:45.000Z</time>
      </trkpt>
      <trkpt lat="48.46576" lon="-2.8835">
        <ele>155</ele>
        <time>2017-01-05T13:55:57.000Z</time>
      </trkpt>
      <trkpt lat="48.46578" lon="-2.88352">
        <ele>155</ele>
        <time>2017-01-05T13:55:59.000Z</time>
      </trkpt>
      <trkpt lat="48.46581" lon="-2.88353">
        <ele>155</ele>
        <time>2017-01-05T13:56:01.000Z</time>
      </trkpt>
      <trkpt lat="48.46583" lon="-2.88354">
        <ele>155</ele>
        <time>2017-01-05T13:56:02.000Z</time>
      </trkpt>
      <trkpt lat="48.46587" lon="-2.88355">
        <ele>153</ele>
        <time>2017-01-05T13:56:04.000Z</time>
      </trkpt>
      <trkpt lat="48.46589" lon="-2.88355">
        <ele>153</ele>
        <time>2017-01-05T13:56:05.000Z</time>
      </trkpt>
      <trkpt lat="48.46592" lon="-2.88355">
        <ele>153</ele>
        <time>2017-01-05T13:56:06.000Z</time>
      </trkpt>
      <trkpt lat="48.46595" lon="-2.88355">
        <ele>153</ele>
        <time>2017-01-05T13:56:07.000Z</time>
      </trkpt>
      <trkpt lat="48.46598" lon="-2.88355">
        <ele>153</ele>
        <time>2017-01-05T13:56:08.000Z</time>
      </trkpt>
      <trkpt lat="48.46601" lon="-2.88354">
        <ele>153</ele>
        <time>2017-01-05T13:56:09.000Z</time>
      </trkpt>
      <trkpt lat="48.46605" lon="-2.88352">
        <ele>153</ele>
        <time>2017-01-05T13:56:10.000Z</time>
      </trkpt>
      <trkpt lat="48.46608" lon="-2.88351">
        <ele>153</ele>
        <time>2017-01-05T13:56:11.000Z</time>
      </trkpt>
      <trkpt lat="48.4661" lon="-2.88348">
        <ele>153</ele>
        <time>2017-01-05T13:56:12.000Z</time>
      </trkpt>
      <trkpt lat="48.46612" lon="-2.88345">
        <ele>153</ele>
        <time>2017-01-05T13:56:13.000Z</time>
      </trkpt>
      <trkpt lat="48.46614" lon="-2.88343">
        <ele>153</ele>
        <time>2017-01-05T13:56:14.000Z</time>
      </trkpt>
      <trkpt lat="48.46617" lon="-2.88341">
        <ele>153</ele>
        <time>2017-01-05T13:56:16.000Z</time>
      </trkpt>
      <trkpt lat="48.46619" lon="-2.88341">
        <ele>153</ele>
        <time>2017-01-05T13:56:31.000Z</time>
      </trkpt>
      <trkpt lat="48.46621" lon="-2.88342">
        <ele>154</ele>
        <time>2017-01-05T13:56:32.000Z</time>
      </trkpt>
      <trkpt lat="48.46623" lon="-2.88344">
        <ele>154</ele>
        <time>2017-01-05T13:56:33.000Z</time>
      </trkpt>
      <trkpt lat="48.46625" lon="-2.88346">
        <ele>154</ele>
        <time>2017-01-05T13:56:34.000Z</time>
      </trkpt>
      <trkpt lat="48.46626" lon="-2.88347">
        <ele>154</ele>
        <time>2017-01-05T13:56:35.000Z</time>
      </trkpt>
      <trkpt lat="48.46629" lon="-2.8835">
        <ele>154</ele>
        <time>2017-01-05T13:56:37.000Z</time>
      </trkpt>
      <trkpt lat="48.46631" lon="-2.88352">
        <ele>154</ele>
        <time>2017-01-05T13:56:38.000Z</time>
      </trkpt>
      <trkpt lat="48.46633" lon="-2.88353">
        <ele>154</ele>
        <time>2017-01-05T13:56:39.000Z</time>
      </trkpt>
      <trkpt lat="48.46635" lon="-2.88355">
        <ele>154</ele>
        <time>2017-01-05T13:56:40.000Z</time>
      </trkpt>
      <trkpt lat="48.46638" lon="-2.88357">
        <ele>154</ele>
        <time>2017-01-05T13:56:41.000Z</time>
      </trkpt>
      <trkpt lat="48.46639" lon="-2.88359">
        <ele>154</ele>
        <time>2017-01-05T13:56:42.000Z</time>
      </trkpt>
      <trkpt lat="48.46641" lon="-2.88362">
        <ele>154</ele>
        <time>2017-01-05T13:56:43.000Z</time>
      </trkpt>
      <trkpt lat="48.46643" lon="-2.88364">
        <ele>154</ele>
        <time>2017-01-05T13:56:44.000Z</time>
      </trkpt>
      <trkpt lat="48.46645" lon="-2.88367">
        <ele>154</ele>
        <time>2017-01-05T13:56:45.000Z</time>
      </trkpt>
      <trkpt lat="48.46647" lon="-2.88369">
        <ele>154</ele>
        <time>2017-01-05T13:56:46.000Z</time>
      </trkpt>
      <trkpt lat="48.46649" lon="-2.88371">
        <ele>154</ele>
        <time>2017-01-05T13:56:47.000Z</time>
      </trkpt>
      <trkpt lat="48.4665" lon="-2.88374">
        <ele>155</ele>
        <time>2017-01-05T13:56:48.000Z</time>
      </trkpt>
      <trkpt lat="48.46653" lon="-2.88377">
        <ele>155</ele>
        <time>2017-01-05T13:56:49.000Z</time>
      </trkpt>
      <trkpt lat="48.46656" lon="-2.88381">
        <ele>155</ele>
        <time>2017-01-05T13:56:50.000Z</time>
      </trkpt>
      <trkpt lat="48.46658" lon="-2.88385">
        <ele>155</ele>
        <time>2017-01-05T13:56:51.000Z</time>
      </trkpt>
      <trkpt lat="48.46659" lon="-2.88388">
        <ele>155</ele>
        <time>2017-01-05T13:56:52.000Z</time>
      </trkpt>
      <trkpt lat="48.46661" lon="-2.88391">
        <ele>155</ele>
        <time>2017-01-05T13:56:53.000Z</time>
      </trkpt>
      <trkpt lat="48.46662" lon="-2.88393">
        <ele>155</ele>
        <time>2017-01-05T13:56:54.000Z</time>
      </trkpt>
      <trkpt lat="48.46664" lon="-2.88396">
        <ele>155</ele>
        <time>2017-01-05T13:56:55.000Z</time>
      </trkpt>
      <trkpt lat="48.46666" lon="-2.88398">
        <ele>156</ele>
        <time>2017-01-05T13:56:56.000Z</time>
      </trkpt>
      <trkpt lat="48.46668" lon="-2.88401">
        <ele>157</ele>
        <time>2017-01-05T13:56:57.000Z</time>
      </trkpt>
      <trkpt lat="48.4667" lon="-2.88402">
        <ele>157</ele>
        <time>2017-01-05T13:56:58.000Z</time>
      </trkpt>
      <trkpt lat="48.46672" lon="-2.88403">
        <ele>157</ele>
        <time>2017-01-05T13:56:59.000Z</time>
      </trkpt>
      <trkpt lat="48.46674" lon="-2.88404">
        <ele>157</ele>
        <time>2017-01-05T13:57:00.000Z</time>
      </trkpt>
      <trkpt lat="48.46677" lon="-2.88406">
        <ele>157</ele>
        <time>2017-01-05T13:57:01.000Z</time>
      </trkpt>
      <trkpt lat="48.46679" lon="-2.88407">
        <ele>157</ele>
        <time>2017-01-05T13:57:02.000Z</time>
      </trkpt>
      <trkpt lat="48.46682" lon="-2.88408">
        <ele>158</ele>
        <time>2017-01-05T13:57:03.000Z</time>
      </trkpt>
      <trkpt lat="48.46685" lon="-2.8841">
        <ele>158</ele>
        <time>2017-01-05T13:57:04.000Z</time>
      </trkpt>
      <trkpt lat="48.46687" lon="-2.88411">
        <ele>158</ele>
        <time>2017-01-05T13:57:05.000Z</time>
      </trkpt>
      <trkpt lat="48.4669" lon="-2.88412">
        <ele>158</ele>
        <time>2017-01-05T13:57:06.000Z</time>
      </trkpt>
      <trkpt lat="48.46692" lon="-2.88414">
        <ele>158</ele>
        <time>2017-01-05T13:57:07.000Z</time>
      </trkpt>
      <trkpt lat="48.467" lon="-2.88422">
        <ele>161</ele>
        <time>2017-01-05T13:57:10.000Z</time>
      </trkpt>
      <trkpt lat="48.46704" lon="-2.88438">
        <ele>161</ele>
        <time>2017-01-05T13:57:14.000Z</time>
      </trkpt>
      <trkpt lat="48.46705" lon="-2.88446">
        <ele>162</ele>
        <time>2017-01-05T13:57:16.000Z</time>
      </trkpt>
      <trkpt lat="48.46706" lon="-2.88449">
        <ele>162</ele>
        <time>2017-01-05T13:57:17.000Z</time>
      </trkpt>
      <trkpt lat="48.46706" lon="-2.88452">
        <ele>162</ele>
        <time>2017-01-05T13:57:18.000Z</time>
      </trkpt>
      <trkpt lat="48.46707" lon="-2.88455">
        <ele>162</ele>
        <time>2017-01-05T13:57:19.000Z</time>
      </trkpt>
      <trkpt lat="48.4671" lon="-2.88457">
        <ele>162</ele>
        <time>2017-01-05T13:57:20.000Z</time>
      </trkpt>
      <trkpt lat="48.46711" lon="-2.88459">
        <ele>162</ele>
        <time>2017-01-05T13:57:21.000Z</time>
      </trkpt>
      <trkpt lat="48.46713" lon="-2.88462">
        <ele>162</ele>
        <time>2017-01-05T13:57:22.000Z</time>
      </trkpt>
      <trkpt lat="48.46714" lon="-2.88465">
        <ele>163</ele>
        <time>2017-01-05T13:57:23.000Z</time>
      </trkpt>
      <trkpt lat="48.46716" lon="-2.88468">
        <ele>163</ele>
        <time>2017-01-05T13:57:24.000Z</time>
      </trkpt>
      <trkpt lat="48.46719" lon="-2.8847">
        <ele>163</ele>
        <time>2017-01-05T13:57:25.000Z</time>
      </trkpt>
      <trkpt lat="48.4672" lon="-2.88473">
        <ele>163</ele>
        <time>2017-01-05T13:57:26.000Z</time>
      </trkpt>
      <trkpt lat="48.46722" lon="-2.88476">
        <ele>163</ele>
        <time>2017-01-05T13:57:27.000Z</time>
      </trkpt>
      <trkpt lat="48.46723" lon="-2.88479">
        <ele>163</ele>
        <time>2017-01-05T13:57:28.000Z</time>
      </trkpt>
      <trkpt lat="48.46724" lon="-2.88481">
        <ele>163</ele>
        <time>2017-01-05T13:57:29.000Z</time>
      </trkpt>
      <trkpt lat="48.46724" lon="-2.88484">
        <ele>163</ele>
        <time>2017-01-05T13:57:30.000Z</time>
      </trkpt>
      <trkpt lat="48.46725" lon="-2.88488">
        <ele>164</ele>
        <time>2017-01-05T13:57:31.000Z</time>
      </trkpt>
      <trkpt lat="48.46725" lon="-2.8849">
        <ele>164</ele>
        <time>2017-01-05T13:57:32.000Z</time>
      </trkpt>
      <trkpt lat="48.46725" lon="-2.88493">
        <ele>164</ele>
        <time>2017-01-05T13:57:34.000Z</time>
      </trkpt>
      <trkpt lat="48.46726" lon="-2.88496">
        <ele>164</ele>
        <time>2017-01-05T13:57:37.000Z</time>
      </trkpt>
      <trkpt lat="48.46728" lon="-2.88499">
        <ele>164</ele>
        <time>2017-01-05T13:57:40.000Z</time>
      </trkpt>
      <trkpt lat="48.46729" lon="-2.88502">
        <ele>166</ele>
        <time>2017-01-05T13:57:51.000Z</time>
      </trkpt>
      <trkpt lat="48.46729" lon="-2.88505">
        <ele>166</ele>
        <time>2017-01-05T13:58:02.000Z</time>
      </trkpt>
      <trkpt lat="48.46729" lon="-2.88507">
        <ele>166</ele>
        <time>2017-01-05T13:58:08.000Z</time>
      </trkpt>
      <trkpt lat="48.46729" lon="-2.88511">
        <ele>166</ele>
        <time>2017-01-05T13:58:12.000Z</time>
      </trkpt>
      <trkpt lat="48.46731" lon="-2.88513">
        <ele>166</ele>
        <time>2017-01-05T13:58:18.000Z</time>
      </trkpt>
      <trkpt lat="48.46733" lon="-2.88515">
        <ele>166</ele>
        <time>2017-01-05T13:58:27.000Z</time>
      </trkpt>
      <trkpt lat="48.46735" lon="-2.88518">
        <ele>166</ele>
        <time>2017-01-05T13:58:29.000Z</time>
      </trkpt>
      <trkpt lat="48.46736" lon="-2.88522">
        <ele>166</ele>
        <time>2017-01-05T13:58:31.000Z</time>
      </trkpt>
      <trkpt lat="48.46739" lon="-2.88525">
        <ele>166</ele>
        <time>2017-01-05T13:58:33.000Z</time>
      </trkpt>
      <trkpt lat="48.46741" lon="-2.88527">
        <ele>166</ele>
        <time>2017-01-05T13:58:35.000Z</time>
      </trkpt>
      <trkpt lat="48.46742" lon="-2.8853">
        <ele>166</ele>
        <time>2017-01-05T13:58:38.000Z</time>
      </trkpt>
      <trkpt lat="48.46744" lon="-2.88533">
        <ele>166</ele>
        <time>2017-01-05T13:58:40.000Z</time>
      </trkpt>
      <trkpt lat="48.46746" lon="-2.88536">
        <ele>166</ele>
        <time>2017-01-05T13:58:42.000Z</time>
      </trkpt>
      <trkpt lat="48.46747" lon="-2.88539">
        <ele>166</ele>
        <time>2017-01-05T13:58:43.000Z</time>
      </trkpt>
      <trkpt lat="48.46749" lon="-2.88541">
        <ele>166</ele>
        <time>2017-01-05T13:58:44.000Z</time>
      </trkpt>
      <trkpt lat="48.46751" lon="-2.88544">
        <ele>167</ele>
        <time>2017-01-05T13:58:45.000Z</time>
      </trkpt>
      <trkpt lat="48.46752" lon="-2.88547">
        <ele>167</ele>
        <time>2017-01-05T13:58:46.000Z</time>
      </trkpt>
      <trkpt lat="48.46755" lon="-2.88551">
        <ele>167</ele>
        <time>2017-01-05T13:58:47.000Z</time>
      </trkpt>
      <trkpt lat="48.46757" lon="-2.88553">
        <ele>167</ele>
        <time>2017-01-05T13:58:48.000Z</time>
      </trkpt>
      <trkpt lat="48.46759" lon="-2.88555">
        <ele>167</ele>
        <time>2017-01-05T13:58:49.000Z</time>
      </trkpt>
      <trkpt lat="48.46761" lon="-2.88557">
        <ele>167</ele>
        <time>2017-01-05T13:58:50.000Z</time>
      </trkpt>
      <trkpt lat="48.46763" lon="-2.8856">
        <ele>167</ele>
        <time>2017-01-05T13:58:51.000Z</time>
      </trkpt>
      <trkpt lat="48.46769" lon="-2.88568">
        <ele>167</ele>
        <time>2017-01-05T13:58:54.000Z</time>
      </trkpt>
      <trkpt lat="48.46774" lon="-2.88573">
        <ele>167</ele>
        <time>2017-01-05T13:58:56.000Z</time>
      </trkpt>
      <trkpt lat="48.46782" lon="-2.8858">
        <ele>167</ele>
        <time>2017-01-05T13:58:59.000Z</time>
      </trkpt>
      <trkpt lat="48.46787" lon="-2.88588">
        <ele>167</ele>
        <time>2017-01-05T13:59:02.000Z</time>
      </trkpt>
      <trkpt lat="48.4679" lon="-2.8859">
        <ele>167</ele>
        <time>2017-01-05T13:59:03.000Z</time>
      </trkpt>
      <trkpt lat="48.46792" lon="-2.88592">
        <ele>167</ele>
        <time>2017-01-05T13:59:04.000Z</time>
      </trkpt>
      <trkpt lat="48.46794" lon="-2.88594">
        <ele>167</ele>
        <time>2017-01-05T13:59:05.000Z</time>
      </trkpt>
      <trkpt lat="48.46796" lon="-2.88596">
        <ele>167</ele>
        <time>2017-01-05T13:59:06.000Z</time>
      </trkpt>
      <trkpt lat="48.46798" lon="-2.88598">
        <ele>167</ele>
        <time>2017-01-05T13:59:07.000Z</time>
      </trkpt>
      <trkpt lat="48.468" lon="-2.886">
        <ele>167</ele>
        <time>2017-01-05T13:59:08.000Z</time>
      </trkpt>
      <trkpt lat="48.46802" lon="-2.88602">
        <ele>167</ele>
        <time>2017-01-05T13:59:09.000Z</time>
      </trkpt>
      <trkpt lat="48.46804" lon="-2.88604">
        <ele>167</ele>
        <time>2017-01-05T13:59:10.000Z</time>
      </trkpt>
      <trkpt lat="48.46806" lon="-2.88606">
        <ele>167</ele>
        <time>2017-01-05T13:59:11.000Z</time>
      </trkpt>
      <trkpt lat="48.46808" lon="-2.88608">
        <ele>167</ele>
        <time>2017-01-05T13:59:12.000Z</time>
      </trkpt>
      <trkpt lat="48.46809" lon="-2.88611">
        <ele>167</ele>
        <time>2017-01-05T13:59:13.000Z</time>
      </trkpt>
      <trkpt lat="48.46811" lon="-2.88614">
        <ele>167</ele>
        <time>2017-01-05T13:59:14.000Z</time>
      </trkpt>
      <trkpt lat="48.46813" lon="-2.88617">
        <ele>167</ele>
        <time>2017-01-05T13:59:15.000Z</time>
      </trkpt>
      <trkpt lat="48.46815" lon="-2.8862">
        <ele>167</ele>
        <time>2017-01-05T13:59:16.000Z</time>
      </trkpt>
      <trkpt lat="48.46818" lon="-2.88623">
        <ele>167</ele>
        <time>2017-01-05T13:59:17.000Z</time>
      </trkpt>
      <trkpt lat="48.46819" lon="-2.88626">
        <ele>167</ele>
        <time>2017-01-05T13:59:18.000Z</time>
      </trkpt>
      <trkpt lat="48.46821" lon="-2.88629">
        <ele>167</ele>
        <time>2017-01-05T13:59:19.000Z</time>
      </trkpt>
      <trkpt lat="48.46822" lon="-2.88632">
        <ele>167</ele>
        <time>2017-01-05T13:59:20.000Z</time>
      </trkpt>
      <trkpt lat="48.46824" lon="-2.88636">
        <ele>167</ele>
        <time>2017-01-05T13:59:21.000Z</time>
      </trkpt>
      <trkpt lat="48.46826" lon="-2.88639">
        <ele>167</ele>
        <time>2017-01-05T13:59:22.000Z</time>
      </trkpt>
      <trkpt lat="48.46828" lon="-2.88642">
        <ele>167</ele>
        <time>2017-01-05T13:59:23.000Z</time>
      </trkpt>
      <trkpt lat="48.46829" lon="-2.88645">
        <ele>167</ele>
        <time>2017-01-05T13:59:24.000Z</time>
      </trkpt>
      <trkpt lat="48.46831" lon="-2.88648">
        <ele>167</ele>
        <time>2017-01-05T13:59:25.000Z</time>
      </trkpt>
      <trkpt lat="48.46832" lon="-2.88651">
        <ele>167</ele>
        <time>2017-01-05T13:59:26.000Z</time>
      </trkpt>
      <trkpt lat="48.46837" lon="-2.88662">
        <ele>168</ele>
        <time>2017-01-05T13:59:30.000Z</time>
      </trkpt>
      <trkpt lat="48.46839" lon="-2.88664">
        <ele>168</ele>
        <time>2017-01-05T13:59:31.000Z</time>
      </trkpt>
      <trkpt lat="48.46849" lon="-2.88676">
        <ele>168</ele>
        <time>2017-01-05T13:59:35.000Z</time>
      </trkpt>
      <trkpt lat="48.46855" lon="-2.88687">
        <ele>169</ele>
        <time>2017-01-05T13:59:38.000Z</time>
      </trkpt>
      <trkpt lat="48.46857" lon="-2.8869">
        <ele>169</ele>
        <time>2017-01-05T13:59:39.000Z</time>
      </trkpt>
      <trkpt lat="48.46863" lon="-2.88703">
        <ele>170</ele>
        <time>2017-01-05T13:59:43.000Z</time>
      </trkpt>
      <trkpt lat="48.46867" lon="-2.88718">
        <ele>170</ele>
        <time>2017-01-05T13:59:47.000Z</time>
      </trkpt>
      <trkpt lat="48.4687" lon="-2.88729">
        <ele>170</ele>
        <time>2017-01-05T13:59:50.000Z</time>
      </trkpt>
      <trkpt lat="48.4687" lon="-2.88733">
        <ele>170</ele>
        <time>2017-01-05T13:59:51.000Z</time>
      </trkpt>
      <trkpt lat="48.46871" lon="-2.88737">
        <ele>170</ele>
        <time>2017-01-05T13:59:52.000Z</time>
      </trkpt>
      <trkpt lat="48.46871" lon="-2.88741">
        <ele>170</ele>
        <time>2017-01-05T13:59:53.000Z</time>
      </trkpt>
      <trkpt lat="48.46872" lon="-2.88744">
        <ele>170</ele>
        <time>2017-01-05T13:59:54.000Z</time>
      </trkpt>
      <trkpt lat="48.46872" lon="-2.88748">
        <ele>170</ele>
        <time>2017-01-05T13:59:55.000Z</time>
      </trkpt>
      <trkpt lat="48.46875" lon="-2.88761">
        <ele>171</ele>
        <time>2017-01-05T13:59:58.000Z</time>
      </trkpt>
      <trkpt lat="48.46877" lon="-2.88775">
        <ele>171</ele>
        <time>2017-01-05T14:00:01.000Z</time>
      </trkpt>
      <trkpt lat="48.46879" lon="-2.88783">
        <ele>171</ele>
        <time>2017-01-05T14:00:03.000Z</time>
      </trkpt>
      <trkpt lat="48.46879" lon="-2.88787">
        <ele>171</ele>
        <time>2017-01-05T14:00:04.000Z</time>
      </trkpt>
      <trkpt lat="48.4688" lon="-2.88791">
        <ele>171</ele>
        <time>2017-01-05T14:00:05.000Z</time>
      </trkpt>
      <trkpt lat="48.46881" lon="-2.88794">
        <ele>171</ele>
        <time>2017-01-05T14:00:06.000Z</time>
      </trkpt>
      <trkpt lat="48.46883" lon="-2.88798">
        <ele>171</ele>
        <time>2017-01-05T14:00:07.000Z</time>
      </trkpt>
      <trkpt lat="48.46884" lon="-2.88802">
        <ele>171</ele>
        <time>2017-01-05T14:00:08.000Z</time>
      </trkpt>
      <trkpt lat="48.46885" lon="-2.88806">
        <ele>171</ele>
        <time>2017-01-05T14:00:09.000Z</time>
      </trkpt>
      <trkpt lat="48.46886" lon="-2.88811">
        <ele>171</ele>
        <time>2017-01-05T14:00:10.000Z</time>
      </trkpt>
      <trkpt lat="48.46887" lon="-2.88814">
        <ele>171</ele>
        <time>2017-01-05T14:00:11.000Z</time>
      </trkpt>
      <trkpt lat="48.46888" lon="-2.88817">
        <ele>171</ele>
        <time>2017-01-05T14:00:12.000Z</time>
      </trkpt>
      <trkpt lat="48.46889" lon="-2.88819">
        <ele>171</ele>
        <time>2017-01-05T14:00:13.000Z</time>
      </trkpt>
      <trkpt lat="48.4689" lon="-2.88823">
        <ele>171</ele>
        <time>2017-01-05T14:00:14.000Z</time>
      </trkpt>
      <trkpt lat="48.46891" lon="-2.88826">
        <ele>171</ele>
        <time>2017-01-05T14:00:15.000Z</time>
      </trkpt>
      <trkpt lat="48.46891" lon="-2.88829">
        <ele>171</ele>
        <time>2017-01-05T14:00:16.000Z</time>
      </trkpt>
      <trkpt lat="48.46888" lon="-2.88832">
        <ele>171</ele>
        <time>2017-01-05T14:00:17.000Z</time>
      </trkpt>
      <trkpt lat="48.46887" lon="-2.88836">
        <ele>172</ele>
        <time>2017-01-05T14:00:18.000Z</time>
      </trkpt>
      <trkpt lat="48.46885" lon="-2.88839">
        <ele>172</ele>
        <time>2017-01-05T14:00:19.000Z</time>
      </trkpt>
      <trkpt lat="48.46884" lon="-2.88842">
        <ele>172</ele>
        <time>2017-01-05T14:00:20.000Z</time>
      </trkpt>
      <trkpt lat="48.46882" lon="-2.88845">
        <ele>172</ele>
        <time>2017-01-05T14:00:21.000Z</time>
      </trkpt>
      <trkpt lat="48.4688" lon="-2.88848">
        <ele>172</ele>
        <time>2017-01-05T14:00:22.000Z</time>
      </trkpt>
      <trkpt lat="48.46878" lon="-2.88851">
        <ele>172</ele>
        <time>2017-01-05T14:00:23.000Z</time>
      </trkpt>
      <trkpt lat="48.46876" lon="-2.88855">
        <ele>172</ele>
        <time>2017-01-05T14:00:24.000Z</time>
      </trkpt>
      <trkpt lat="48.46875" lon="-2.88858">
        <ele>173</ele>
        <time>2017-01-05T14:00:25.000Z</time>
      </trkpt>
      <trkpt lat="48.46873" lon="-2.88861">
        <ele>173</ele>
        <time>2017-01-05T14:00:26.000Z</time>
      </trkpt>
      <trkpt lat="48.46872" lon="-2.88864">
        <ele>173</ele>
        <time>2017-01-05T14:00:27.000Z</time>
      </trkpt>
      <trkpt lat="48.4687" lon="-2.88867">
        <ele>173</ele>
        <time>2017-01-05T14:00:28.000Z</time>
      </trkpt>
      <trkpt lat="48.46868" lon="-2.8887">
        <ele>173</ele>
        <time>2017-01-05T14:00:29.000Z</time>
      </trkpt>
      <trkpt lat="48.46867" lon="-2.88874">
        <ele>173</ele>
        <time>2017-01-05T14:00:30.000Z</time>
      </trkpt>
      <trkpt lat="48.46865" lon="-2.88877">
        <ele>173</ele>
        <time>2017-01-05T14:00:31.000Z</time>
      </trkpt>
      <trkpt lat="48.46864" lon="-2.8888">
        <ele>173</ele>
        <time>2017-01-05T14:00:32.000Z</time>
      </trkpt>
      <trkpt lat="48.46862" lon="-2.88883">
        <ele>173</ele>
        <time>2017-01-05T14:00:33.000Z</time>
      </trkpt>
      <trkpt lat="48.46861" lon="-2.88886">
        <ele>173</ele>
        <time>2017-01-05T14:00:34.000Z</time>
      </trkpt>
      <trkpt lat="48.46859" lon="-2.88889">
        <ele>174</ele>
        <time>2017-01-05T14:00:35.000Z</time>
      </trkpt>
      <trkpt lat="48.46858" lon="-2.88891">
        <ele>174</ele>
        <time>2017-01-05T14:00:36.000Z</time>
      </trkpt>
      <trkpt lat="48.46856" lon="-2.88894">
        <ele>174</ele>
        <time>2017-01-05T14:00:37.000Z</time>
      </trkpt>
      <trkpt lat="48.46855" lon="-2.88896">
        <ele>174</ele>
        <time>2017-01-05T14:00:38.000Z</time>
      </trkpt>
      <trkpt lat="48.46853" lon="-2.88898">
        <ele>174</ele>
        <time>2017-01-05T14:00:39.000Z</time>
      </trkpt>
      <trkpt lat="48.46852" lon="-2.889">
        <ele>174</ele>
        <time>2017-01-05T14:00:40.000Z</time>
      </trkpt>
      <trkpt lat="48.4685" lon="-2.88902">
        <ele>174</ele>
        <time>2017-01-05T14:00:41.000Z</time>
      </trkpt>
      <trkpt lat="48.46849" lon="-2.88904">
        <ele>175</ele>
        <time>2017-01-05T14:00:42.000Z</time>
      </trkpt>
      <trkpt lat="48.46847" lon="-2.88906">
        <ele>175</ele>
        <time>2017-01-05T14:00:43.000Z</time>
      </trkpt>
      <trkpt lat="48.46846" lon="-2.88908">
        <ele>175</ele>
        <time>2017-01-05T14:00:44.000Z</time>
      </trkpt>
      <trkpt lat="48.46843" lon="-2.88911">
        <ele>175</ele>
        <time>2017-01-05T14:00:46.000Z</time>
      </trkpt>
      <trkpt lat="48.46841" lon="-2.88913">
        <ele>176</ele>
        <time>2017-01-05T14:00:47.000Z</time>
      </trkpt>
      <trkpt lat="48.46838" lon="-2.88916">
        <ele>176</ele>
        <time>2017-01-05T14:00:49.000Z</time>
      </trkpt>
      <trkpt lat="48.46836" lon="-2.88918">
        <ele>177</ele>
        <time>2017-01-05T14:00:50.000Z</time>
      </trkpt>
      <trkpt lat="48.46834" lon="-2.8892">
        <ele>177</ele>
        <time>2017-01-05T14:00:51.000Z</time>
      </trkpt>
      <trkpt lat="48.46833" lon="-2.88922">
        <ele>177</ele>
        <time>2017-01-05T14:00:52.000Z</time>
      </trkpt>
      <trkpt lat="48.46831" lon="-2.88924">
        <ele>177</ele>
        <time>2017-01-05T14:00:53.000Z</time>
      </trkpt>
      <trkpt lat="48.4683" lon="-2.88926">
        <ele>177</ele>
        <time>2017-01-05T14:00:54.000Z</time>
      </trkpt>
      <trkpt lat="48.46828" lon="-2.88928">
        <ele>177</ele>
        <time>2017-01-05T14:00:55.000Z</time>
      </trkpt>
      <trkpt lat="48.46827" lon="-2.8893">
        <ele>177</ele>
        <time>2017-01-05T14:00:56.000Z</time>
      </trkpt>
      <trkpt lat="48.46825" lon="-2.88932">
        <ele>177</ele>
        <time>2017-01-05T14:00:57.000Z</time>
      </trkpt>
      <trkpt lat="48.46823" lon="-2.88934">
        <ele>177</ele>
        <time>2017-01-05T14:00:58.000Z</time>
      </trkpt>
      <trkpt lat="48.46821" lon="-2.88936">
        <ele>177</ele>
        <time>2017-01-05T14:00:59.000Z</time>
      </trkpt>
      <trkpt lat="48.46819" lon="-2.88938">
        <ele>177</ele>
        <time>2017-01-05T14:01:00.000Z</time>
      </trkpt>
      <trkpt lat="48.46817" lon="-2.88939">
        <ele>177</ele>
        <time>2017-01-05T14:01:01.000Z</time>
      </trkpt>
      <trkpt lat="48.46815" lon="-2.88942">
        <ele>177</ele>
        <time>2017-01-05T14:01:02.000Z</time>
      </trkpt>
      <trkpt lat="48.46813" lon="-2.88944">
        <ele>178</ele>
        <time>2017-01-05T14:01:03.000Z</time>
      </trkpt>
      <trkpt lat="48.4681" lon="-2.88947">
        <ele>178</ele>
        <time>2017-01-05T14:01:04.000Z</time>
      </trkpt>
      <trkpt lat="48.46807" lon="-2.8895">
        <ele>178</ele>
        <time>2017-01-05T14:01:05.000Z</time>
      </trkpt>
      <trkpt lat="48.46805" lon="-2.88952">
        <ele>178</ele>
        <time>2017-01-05T14:01:06.000Z</time>
      </trkpt>
      <trkpt lat="48.46803" lon="-2.88954">
        <ele>178</ele>
        <time>2017-01-05T14:01:07.000Z</time>
      </trkpt>
      <trkpt lat="48.46801" lon="-2.88956">
        <ele>178</ele>
        <time>2017-01-05T14:01:08.000Z</time>
      </trkpt>
      <trkpt lat="48.46799" lon="-2.88958">
        <ele>178</ele>
        <time>2017-01-05T14:01:09.000Z</time>
      </trkpt>
      <trkpt lat="48.46795" lon="-2.88961">
        <ele>178</ele>
        <time>2017-01-05T14:01:10.000Z</time>
      </trkpt>
      <trkpt lat="48.46793" lon="-2.88963">
        <ele>178</ele>
        <time>2017-01-05T14:01:11.000Z</time>
      </trkpt>
      <trkpt lat="48.4679" lon="-2.88965">
        <ele>178</ele>
        <time>2017-01-05T14:01:12.000Z</time>
      </trkpt>
      <trkpt lat="48.46788" lon="-2.88967">
        <ele>178</ele>
        <time>2017-01-05T14:01:13.000Z</time>
      </trkpt>
      <trkpt lat="48.46786" lon="-2.8897">
        <ele>178</ele>
        <time>2017-01-05T14:01:14.000Z</time>
      </trkpt>
      <trkpt lat="48.46784" lon="-2.88972">
        <ele>178</ele>
        <time>2017-01-05T14:01:15.000Z</time>
      </trkpt>
      <trkpt lat="48.46781" lon="-2.88974">
        <ele>178</ele>
        <time>2017-01-05T14:01:16.000Z</time>
      </trkpt>
      <trkpt lat="48.46779" lon="-2.88977">
        <ele>178</ele>
        <time>2017-01-05T14:01:17.000Z</time>
      </trkpt>
      <trkpt lat="48.46777" lon="-2.88979">
        <ele>178</ele>
        <time>2017-01-05T14:01:18.000Z</time>
      </trkpt>
      <trkpt lat="48.46775" lon="-2.88982">
        <ele>178</ele>
        <time>2017-01-05T14:01:19.000Z</time>
      </trkpt>
      <trkpt lat="48.46773" lon="-2.88984">
        <ele>178</ele>
        <time>2017-01-05T14:01:20.000Z</time>
      </trkpt>
      <trkpt lat="48.46771" lon="-2.88987">
        <ele>178</ele>
        <time>2017-01-05T14:01:21.000Z</time>
      </trkpt>
      <trkpt lat="48.46769" lon="-2.88989">
        <ele>178</ele>
        <time>2017-01-05T14:01:22.000Z</time>
      </trkpt>
      <trkpt lat="48.46767" lon="-2.88992">
        <ele>178</ele>
        <time>2017-01-05T14:01:23.000Z</time>
      </trkpt>
      <trkpt lat="48.46765" lon="-2.88995">
        <ele>178</ele>
        <time>2017-01-05T14:01:24.000Z</time>
      </trkpt>
      <trkpt lat="48.46763" lon="-2.88997">
        <ele>178</ele>
        <time>2017-01-05T14:01:25.000Z</time>
      </trkpt>
      <trkpt lat="48.46761" lon="-2.89">
        <ele>179</ele>
        <time>2017-01-05T14:01:26.000Z</time>
      </trkpt>
      <trkpt lat="48.4676" lon="-2.89003">
        <ele>179</ele>
        <time>2017-01-05T14:01:27.000Z</time>
      </trkpt>
      <trkpt lat="48.46758" lon="-2.89006">
        <ele>179</ele>
        <time>2017-01-05T14:01:28.000Z</time>
      </trkpt>
      <trkpt lat="48.46757" lon="-2.89009">
        <ele>179</ele>
        <time>2017-01-05T14:01:29.000Z</time>
      </trkpt>
      <trkpt lat="48.46755" lon="-2.89013">
        <ele>179</ele>
        <time>2017-01-05T14:01:30.000Z</time>
      </trkpt>
      <trkpt lat="48.46754" lon="-2.89016">
        <ele>179</ele>
        <time>2017-01-05T14:01:31.000Z</time>
      </trkpt>
      <trkpt lat="48.46752" lon="-2.89019">
        <ele>179</ele>
        <time>2017-01-05T14:01:32.000Z</time>
      </trkpt>
      <trkpt lat="48.46751" lon="-2.89022">
        <ele>179</ele>
        <time>2017-01-05T14:01:33.000Z</time>
      </trkpt>
      <trkpt lat="48.4675" lon="-2.89026">
        <ele>179</ele>
        <time>2017-01-05T14:01:34.000Z</time>
      </trkpt>
      <trkpt lat="48.46749" lon="-2.89029">
        <ele>179</ele>
        <time>2017-01-05T14:01:35.000Z</time>
      </trkpt>
      <trkpt lat="48.46748" lon="-2.89032">
        <ele>179</ele>
        <time>2017-01-05T14:01:36.000Z</time>
      </trkpt>
      <trkpt lat="48.46746" lon="-2.89036">
        <ele>179</ele>
        <time>2017-01-05T14:01:37.000Z</time>
      </trkpt>
      <trkpt lat="48.46745" lon="-2.89039">
        <ele>179</ele>
        <time>2017-01-05T14:01:38.000Z</time>
      </trkpt>
      <trkpt lat="48.46744" lon="-2.89042">
        <ele>179</ele>
        <time>2017-01-05T14:01:39.000Z</time>
      </trkpt>
      <trkpt lat="48.46742" lon="-2.89045">
        <ele>179</ele>
        <time>2017-01-05T14:01:40.000Z</time>
      </trkpt>
      <trkpt lat="48.46741" lon="-2.89049">
        <ele>179</ele>
        <time>2017-01-05T14:01:41.000Z</time>
      </trkpt>
      <trkpt lat="48.4674" lon="-2.89052">
        <ele>179</ele>
        <time>2017-01-05T14:01:42.000Z</time>
      </trkpt>
      <trkpt lat="48.46739" lon="-2.89056">
        <ele>179</ele>
        <time>2017-01-05T14:01:43.000Z</time>
      </trkpt>
      <trkpt lat="48.46737" lon="-2.89059">
        <ele>179</ele>
        <time>2017-01-05T14:01:44.000Z</time>
      </trkpt>
      <trkpt lat="48.46736" lon="-2.89062">
        <ele>179</ele>
        <time>2017-01-05T14:01:45.000Z</time>
      </trkpt>
      <trkpt lat="48.46734" lon="-2.89065">
        <ele>179</ele>
        <time>2017-01-05T14:01:46.000Z</time>
      </trkpt>
      <trkpt lat="48.46733" lon="-2.89069">
        <ele>179</ele>
        <time>2017-01-05T14:01:47.000Z</time>
      </trkpt>
      <trkpt lat="48.46732" lon="-2.89072">
        <ele>179</ele>
        <time>2017-01-05T14:01:48.000Z</time>
      </trkpt>
      <trkpt lat="48.46731" lon="-2.89076">
        <ele>179</ele>
        <time>2017-01-05T14:01:49.000Z</time>
      </trkpt>
      <trkpt lat="48.4673" lon="-2.89079">
        <ele>179</ele>
        <time>2017-01-05T14:01:50.000Z</time>
      </trkpt>
      <trkpt lat="48.46728" lon="-2.89083">
        <ele>179</ele>
        <time>2017-01-05T14:01:51.000Z</time>
      </trkpt>
      <trkpt lat="48.46727" lon="-2.89086">
        <ele>181</ele>
        <time>2017-01-05T14:01:52.000Z</time>
      </trkpt>
      <trkpt lat="48.46726" lon="-2.8909">
        <ele>181</ele>
        <time>2017-01-05T14:01:53.000Z</time>
      </trkpt>
      <trkpt lat="48.46725" lon="-2.89093">
        <ele>181</ele>
        <time>2017-01-05T14:01:54.000Z</time>
      </trkpt>
      <trkpt lat="48.46724" lon="-2.89097">
        <ele>181</ele>
        <time>2017-01-05T14:01:55.000Z</time>
      </trkpt>
      <trkpt lat="48.46723" lon="-2.891">
        <ele>181</ele>
        <time>2017-01-05T14:01:56.000Z</time>
      </trkpt>
      <trkpt lat="48.46721" lon="-2.89103">
        <ele>181</ele>
        <time>2017-01-05T14:01:57.000Z</time>
      </trkpt>
      <trkpt lat="48.4672" lon="-2.89107">
        <ele>181</ele>
        <time>2017-01-05T14:01:58.000Z</time>
      </trkpt>
      <trkpt lat="48.46719" lon="-2.8911">
        <ele>182</ele>
        <time>2017-01-05T14:01:59.000Z</time>
      </trkpt>
      <trkpt lat="48.46718" lon="-2.89114">
        <ele>182</ele>
        <time>2017-01-05T14:02:00.000Z</time>
      </trkpt>
      <trkpt lat="48.46716" lon="-2.89118">
        <ele>182</ele>
        <time>2017-01-05T14:02:01.000Z</time>
      </trkpt>
      <trkpt lat="48.46715" lon="-2.89121">
        <ele>182</ele>
        <time>2017-01-05T14:02:02.000Z</time>
      </trkpt>
      <trkpt lat="48.46714" lon="-2.89124">
        <ele>182</ele>
        <time>2017-01-05T14:02:03.000Z</time>
      </trkpt>
      <trkpt lat="48.46713" lon="-2.89128">
        <ele>182</ele>
        <time>2017-01-05T14:02:04.000Z</time>
      </trkpt>
      <trkpt lat="48.46711" lon="-2.89131">
        <ele>182</ele>
        <time>2017-01-05T14:02:05.000Z</time>
      </trkpt>
      <trkpt lat="48.4671" lon="-2.89135">
        <ele>182</ele>
        <time>2017-01-05T14:02:06.000Z</time>
      </trkpt>
      <trkpt lat="48.46709" lon="-2.89139">
        <ele>182</ele>
        <time>2017-01-05T14:02:07.000Z</time>
      </trkpt>
      <trkpt lat="48.46708" lon="-2.89142">
        <ele>182</ele>
        <time>2017-01-05T14:02:08.000Z</time>
      </trkpt>
      <trkpt lat="48.46707" lon="-2.89146">
        <ele>183</ele>
        <time>2017-01-05T14:02:09.000Z</time>
      </trkpt>
      <trkpt lat="48.46706" lon="-2.8915">
        <ele>183</ele>
        <time>2017-01-05T14:02:10.000Z</time>
      </trkpt>
      <trkpt lat="48.46706" lon="-2.89154">
        <ele>183</ele>
        <time>2017-01-05T14:02:11.000Z</time>
      </trkpt>
      <trkpt lat="48.46705" lon="-2.89158">
        <ele>183</ele>
        <time>2017-01-05T14:02:12.000Z</time>
      </trkpt>
      <trkpt lat="48.46705" lon="-2.89162">
        <ele>183</ele>
        <time>2017-01-05T14:02:13.000Z</time>
      </trkpt>
      <trkpt lat="48.46704" lon="-2.89166">
        <ele>183</ele>
        <time>2017-01-05T14:02:14.000Z</time>
      </trkpt>
      <trkpt lat="48.46704" lon="-2.89169">
        <ele>186</ele>
        <time>2017-01-05T14:02:15.000Z</time>
      </trkpt>
      <trkpt lat="48.46704" lon="-2.89173">
        <ele>186</ele>
        <time>2017-01-05T14:02:16.000Z</time>
      </trkpt>
      <trkpt lat="48.46704" lon="-2.89177">
        <ele>186</ele>
        <time>2017-01-05T14:02:17.000Z</time>
      </trkpt>
      <trkpt lat="48.46704" lon="-2.89181">
        <ele>186</ele>
        <time>2017-01-05T14:02:18.000Z</time>
      </trkpt>
      <trkpt lat="48.46704" lon="-2.89185">
        <ele>186</ele>
        <time>2017-01-05T14:02:19.000Z</time>
      </trkpt>
      <trkpt lat="48.46704" lon="-2.89189">
        <ele>186</ele>
        <time>2017-01-05T14:02:20.000Z</time>
      </trkpt>
      <trkpt lat="48.46705" lon="-2.89193">
        <ele>186</ele>
        <time>2017-01-05T14:02:21.000Z</time>
      </trkpt>
      <trkpt lat="48.46705" lon="-2.89197">
        <ele>186</ele>
        <time>2017-01-05T14:02:22.000Z</time>
      </trkpt>
      <trkpt lat="48.46705" lon="-2.89201">
        <ele>186</ele>
        <time>2017-01-05T14:02:23.000Z</time>
      </trkpt>
      <trkpt lat="48.46706" lon="-2.89205">
        <ele>186</ele>
        <time>2017-01-05T14:02:24.000Z</time>
      </trkpt>
      <trkpt lat="48.46706" lon="-2.89209">
        <ele>187</ele>
        <time>2017-01-05T14:02:25.000Z</time>
      </trkpt>
      <trkpt lat="48.46706" lon="-2.89213">
        <ele>187</ele>
        <time>2017-01-05T14:02:26.000Z</time>
      </trkpt>
      <trkpt lat="48.46707" lon="-2.89216">
        <ele>187</ele>
        <time>2017-01-05T14:02:27.000Z</time>
      </trkpt>
      <trkpt lat="48.46707" lon="-2.8922">
        <ele>187</ele>
        <time>2017-01-05T14:02:28.000Z</time>
      </trkpt>
      <trkpt lat="48.46708" lon="-2.89224">
        <ele>187</ele>
        <time>2017-01-05T14:02:29.000Z</time>
      </trkpt>
      <trkpt lat="48.46708" lon="-2.89228">
        <ele>187</ele>
        <time>2017-01-05T14:02:30.000Z</time>
      </trkpt>
      <trkpt lat="48.46708" lon="-2.89232">
        <ele>187</ele>
        <time>2017-01-05T14:02:31.000Z</time>
      </trkpt>
      <trkpt lat="48.46709" lon="-2.89236">
        <ele>187</ele>
        <time>2017-01-05T14:02:32.000Z</time>
      </trkpt>
      <trkpt lat="48.46709" lon="-2.8924">
        <ele>187</ele>
        <time>2017-01-05T14:02:33.000Z</time>
      </trkpt>
      <trkpt lat="48.46709" lon="-2.89244">
        <ele>187</ele>
        <time>2017-01-05T14:02:34.000Z</time>
      </trkpt>
      <trkpt lat="48.46709" lon="-2.89248">
        <ele>187</ele>
        <time>2017-01-05T14:02:35.000Z</time>
      </trkpt>
      <trkpt lat="48.46709" lon="-2.89252">
        <ele>189</ele>
        <time>2017-01-05T14:02:36.000Z</time>
      </trkpt>
      <trkpt lat="48.4671" lon="-2.89256">
        <ele>189</ele>
        <time>2017-01-05T14:02:37.000Z</time>
      </trkpt>
      <trkpt lat="48.4671" lon="-2.89259">
        <ele>189</ele>
        <time>2017-01-05T14:02:38.000Z</time>
      </trkpt>
      <trkpt lat="48.4671" lon="-2.89263">
        <ele>190</ele>
        <time>2017-01-05T14:02:39.000Z</time>
      </trkpt>
      <trkpt lat="48.4671" lon="-2.89267">
        <ele>190</ele>
        <time>2017-01-05T14:02:40.000Z</time>
      </trkpt>
      <trkpt lat="48.4671" lon="-2.89271">
        <ele>190</ele>
        <time>2017-01-05T14:02:41.000Z</time>
      </trkpt>
      <trkpt lat="48.4671" lon="-2.89274">
        <ele>190</ele>
        <time>2017-01-05T14:02:42.000Z</time>
      </trkpt>
      <trkpt lat="48.46709" lon="-2.89278">
        <ele>190</ele>
        <time>2017-01-05T14:02:43.000Z</time>
      </trkpt>
      <trkpt lat="48.46709" lon="-2.89282">
        <ele>190</ele>
        <time>2017-01-05T14:02:44.000Z</time>
      </trkpt>
      <trkpt lat="48.46709" lon="-2.89286">
        <ele>190</ele>
        <time>2017-01-05T14:02:45.000Z</time>
      </trkpt>
      <trkpt lat="48.46709" lon="-2.8929">
        <ele>190</ele>
        <time>2017-01-05T14:02:46.000Z</time>
      </trkpt>
      <trkpt lat="48.46709" lon="-2.89294">
        <ele>190</ele>
        <time>2017-01-05T14:02:47.000Z</time>
      </trkpt>
      <trkpt lat="48.46708" lon="-2.89298">
        <ele>190</ele>
        <time>2017-01-05T14:02:48.000Z</time>
      </trkpt>
      <trkpt lat="48.46708" lon="-2.89301">
        <ele>190</ele>
        <time>2017-01-05T14:02:49.000Z</time>
      </trkpt>
      <trkpt lat="48.46708" lon="-2.89305">
        <ele>190</ele>
        <time>2017-01-05T14:02:50.000Z</time>
      </trkpt>
      <trkpt lat="48.46707" lon="-2.89309">
        <ele>190</ele>
        <time>2017-01-05T14:02:51.000Z</time>
      </trkpt>
      <trkpt lat="48.46707" lon="-2.89313">
        <ele>190</ele>
        <time>2017-01-05T14:02:52.000Z</time>
      </trkpt>
      <trkpt lat="48.46707" lon="-2.89316">
        <ele>190</ele>
        <time>2017-01-05T14:02:53.000Z</time>
      </trkpt>
      <trkpt lat="48.46707" lon="-2.8932">
        <ele>191</ele>
        <time>2017-01-05T14:02:54.000Z</time>
      </trkpt>
      <trkpt lat="48.46706" lon="-2.89324">
        <ele>191</ele>
        <time>2017-01-05T14:02:55.000Z</time>
      </trkpt>
      <trkpt lat="48.46706" lon="-2.89328">
        <ele>191</ele>
        <time>2017-01-05T14:02:56.000Z</time>
      </trkpt>
      <trkpt lat="48.46706" lon="-2.89332">
        <ele>191</ele>
        <time>2017-01-05T14:02:57.000Z</time>
      </trkpt>
      <trkpt lat="48.46705" lon="-2.89336">
        <ele>193</ele>
        <time>2017-01-05T14:02:58.000Z</time>
      </trkpt>
      <trkpt lat="48.46705" lon="-2.8934">
        <ele>193</ele>
        <time>2017-01-05T14:02:59.000Z</time>
      </trkpt>
      <trkpt lat="48.46705" lon="-2.89343">
        <ele>193</ele>
        <time>2017-01-05T14:03:00.000Z</time>
      </trkpt>
      <trkpt lat="48.46704" lon="-2.89347">
        <ele>193</ele>
        <time>2017-01-05T14:03:01.000Z</time>
      </trkpt>
      <trkpt lat="48.46704" lon="-2.89351">
        <ele>193</ele>
        <time>2017-01-05T14:03:02.000Z</time>
      </trkpt>
      <trkpt lat="48.46704" lon="-2.89355">
        <ele>193</ele>
        <time>2017-01-05T14:03:03.000Z</time>
      </trkpt>
      <trkpt lat="48.46703" lon="-2.89358">
        <ele>193</ele>
        <time>2017-01-05T14:03:04.000Z</time>
      </trkpt>
      <trkpt lat="48.46703" lon="-2.89362">
        <ele>193</ele>
        <time>2017-01-05T14:03:05.000Z</time>
      </trkpt>
      <trkpt lat="48.46702" lon="-2.89366">
        <ele>193</ele>
        <time>2017-01-05T14:03:06.000Z</time>
      </trkpt>
      <trkpt lat="48.46702" lon="-2.89369">
        <ele>193</ele>
        <time>2017-01-05T14:03:07.000Z</time>
      </trkpt>
      <trkpt lat="48.46702" lon="-2.89373">
        <ele>193</ele>
        <time>2017-01-05T14:03:08.000Z</time>
      </trkpt>
      <trkpt lat="48.46701" lon="-2.89377">
        <ele>193</ele>
        <time>2017-01-05T14:03:09.000Z</time>
      </trkpt>
      <trkpt lat="48.46701" lon="-2.89381">
        <ele>193</ele>
        <time>2017-01-05T14:03:10.000Z</time>
      </trkpt>
      <trkpt lat="48.46701" lon="-2.89384">
        <ele>193</ele>
        <time>2017-01-05T14:03:11.000Z</time>
      </trkpt>
      <trkpt lat="48.467" lon="-2.89388">
        <ele>193</ele>
        <time>2017-01-05T14:03:12.000Z</time>
      </trkpt>
      <trkpt lat="48.467" lon="-2.89392">
        <ele>194</ele>
        <time>2017-01-05T14:03:13.000Z</time>
      </trkpt>
      <trkpt lat="48.467" lon="-2.89396">
        <ele>194</ele>
        <time>2017-01-05T14:03:14.000Z</time>
      </trkpt>
      <trkpt lat="48.46699" lon="-2.89399">
        <ele>194</ele>
        <time>2017-01-05T14:03:15.000Z</time>
      </trkpt>
      <trkpt lat="48.46699" lon="-2.89403">
        <ele>194</ele>
        <time>2017-01-05T14:03:16.000Z</time>
      </trkpt>
      <trkpt lat="48.46698" lon="-2.89407">
        <ele>194</ele>
        <time>2017-01-05T14:03:17.000Z</time>
      </trkpt>
      <trkpt lat="48.46698" lon="-2.89411">
        <ele>194</ele>
        <time>2017-01-05T14:03:18.000Z</time>
      </trkpt>
      <trkpt lat="48.46698" lon="-2.89415">
        <ele>194</ele>
        <time>2017-01-05T14:03:19.000Z</time>
      </trkpt>
      <trkpt lat="48.46697" lon="-2.89418">
        <ele>195</ele>
        <time>2017-01-05T14:03:20.000Z</time>
      </trkpt>
      <trkpt lat="48.46697" lon="-2.89422">
        <ele>195</ele>
        <time>2017-01-05T14:03:21.000Z</time>
      </trkpt>
      <trkpt lat="48.46697" lon="-2.89426">
        <ele>195</ele>
        <time>2017-01-05T14:03:22.000Z</time>
      </trkpt>
      <trkpt lat="48.46696" lon="-2.8943">
        <ele>195</ele>
        <time>2017-01-05T14:03:23.000Z</time>
      </trkpt>
      <trkpt lat="48.46696" lon="-2.89433">
        <ele>195</ele>
        <time>2017-01-05T14:03:24.000Z</time>
      </trkpt>
      <trkpt lat="48.46696" lon="-2.89437">
        <ele>195</ele>
        <time>2017-01-05T14:03:25.000Z</time>
      </trkpt>
      <trkpt lat="48.46696" lon="-2.89441">
        <ele>196</ele>
        <time>2017-01-05T14:03:26.000Z</time>
      </trkpt>
      <trkpt lat="48.46695" lon="-2.89445">
        <ele>196</ele>
        <time>2017-01-05T14:03:27.000Z</time>
      </trkpt>
      <trkpt lat="48.46695" lon="-2.89448">
        <ele>196</ele>
        <time>2017-01-05T14:03:28.000Z</time>
      </trkpt>
      <trkpt lat="48.46694" lon="-2.89452">
        <ele>196</ele>
        <time>2017-01-05T14:03:29.000Z</time>
      </trkpt>
      <trkpt lat="48.46693" lon="-2.89456">
        <ele>196</ele>
        <time>2017-01-05T14:03:30.000Z</time>
      </trkpt>
      <trkpt lat="48.46693" lon="-2.89459">
        <ele>196</ele>
        <time>2017-01-05T14:03:31.000Z</time>
      </trkpt>
      <trkpt lat="48.46692" lon="-2.89463">
        <ele>196</ele>
        <time>2017-01-05T14:03:32.000Z</time>
      </trkpt>
      <trkpt lat="48.46691" lon="-2.89467">
        <ele>196</ele>
        <time>2017-01-05T14:03:33.000Z</time>
      </trkpt>
      <trkpt lat="48.4669" lon="-2.8947">
        <ele>196</ele>
        <time>2017-01-05T14:03:34.000Z</time>
      </trkpt>
      <trkpt lat="48.46689" lon="-2.89474">
        <ele>196</ele>
        <time>2017-01-05T14:03:35.000Z</time>
      </trkpt>
      <trkpt lat="48.46688" lon="-2.89478">
        <ele>196</ele>
        <time>2017-01-05T14:03:36.000Z</time>
      </trkpt>
      <trkpt lat="48.46687" lon="-2.89481">
        <ele>196</ele>
        <time>2017-01-05T14:03:37.000Z</time>
      </trkpt>
      <trkpt lat="48.46686" lon="-2.89485">
        <ele>196</ele>
        <time>2017-01-05T14:03:38.000Z</time>
      </trkpt>
      <trkpt lat="48.46685" lon="-2.89488">
        <ele>196</ele>
        <time>2017-01-05T14:03:39.000Z</time>
      </trkpt>
      <trkpt lat="48.46684" lon="-2.89492">
        <ele>196</ele>
        <time>2017-01-05T14:03:40.000Z</time>
      </trkpt>
      <trkpt lat="48.46683" lon="-2.89496">
        <ele>196</ele>
        <time>2017-01-05T14:03:41.000Z</time>
      </trkpt>
      <trkpt lat="48.46682" lon="-2.89499">
        <ele>196</ele>
        <time>2017-01-05T14:03:42.000Z</time>
      </trkpt>
      <trkpt lat="48.46681" lon="-2.89502">
        <ele>197</ele>
        <time>2017-01-05T14:03:43.000Z</time>
      </trkpt>
      <trkpt lat="48.4668" lon="-2.89506">
        <ele>197</ele>
        <time>2017-01-05T14:03:44.000Z</time>
      </trkpt>
      <trkpt lat="48.46679" lon="-2.89509">
        <ele>197</ele>
        <time>2017-01-05T14:03:45.000Z</time>
      </trkpt>
      <trkpt lat="48.46678" lon="-2.89513">
        <ele>197</ele>
        <time>2017-01-05T14:03:46.000Z</time>
      </trkpt>
      <trkpt lat="48.46677" lon="-2.89516">
        <ele>197</ele>
        <time>2017-01-05T14:03:47.000Z</time>
      </trkpt>
      <trkpt lat="48.46677" lon="-2.89519">
        <ele>197</ele>
        <time>2017-01-05T14:03:48.000Z</time>
      </trkpt>
      <trkpt lat="48.46676" lon="-2.89522">
        <ele>197</ele>
        <time>2017-01-05T14:03:49.000Z</time>
      </trkpt>
      <trkpt lat="48.46675" lon="-2.89525">
        <ele>197</ele>
        <time>2017-01-05T14:03:50.000Z</time>
      </trkpt>
      <trkpt lat="48.46675" lon="-2.89528">
        <ele>197</ele>
        <time>2017-01-05T14:03:51.000Z</time>
      </trkpt>
      <trkpt lat="48.46674" lon="-2.89531">
        <ele>197</ele>
        <time>2017-01-05T14:03:52.000Z</time>
      </trkpt>
      <trkpt lat="48.46674" lon="-2.89534">
        <ele>197</ele>
        <time>2017-01-05T14:03:53.000Z</time>
      </trkpt>
      <trkpt lat="48.46673" lon="-2.89537">
        <ele>197</ele>
        <time>2017-01-05T14:03:54.000Z</time>
      </trkpt>
      <trkpt lat="48.46673" lon="-2.8954">
        <ele>197</ele>
        <time>2017-01-05T14:03:55.000Z</time>
      </trkpt>
      <trkpt lat="48.46674" lon="-2.89544">
        <ele>197</ele>
        <time>2017-01-05T14:03:56.000Z</time>
      </trkpt>
      <trkpt lat="48.46675" lon="-2.89548">
        <ele>197</ele>
        <time>2017-01-05T14:03:57.000Z</time>
      </trkpt>
      <trkpt lat="48.46676" lon="-2.89552">
        <ele>197</ele>
        <time>2017-01-05T14:03:58.000Z</time>
      </trkpt>
      <trkpt lat="48.46677" lon="-2.89556">
        <ele>197</ele>
        <time>2017-01-05T14:03:59.000Z</time>
      </trkpt>
      <trkpt lat="48.46677" lon="-2.8956">
        <ele>198</ele>
        <time>2017-01-05T14:04:00.000Z</time>
      </trkpt>
      <trkpt lat="48.46678" lon="-2.89565">
        <ele>198</ele>
        <time>2017-01-05T14:04:01.000Z</time>
      </trkpt>
      <trkpt lat="48.46679" lon="-2.89569">
        <ele>198</ele>
        <time>2017-01-05T14:04:02.000Z</time>
      </trkpt>
      <trkpt lat="48.4668" lon="-2.89573">
        <ele>198</ele>
        <time>2017-01-05T14:04:03.000Z</time>
      </trkpt>
      <trkpt lat="48.4668" lon="-2.89578">
        <ele>198</ele>
        <time>2017-01-05T14:04:04.000Z</time>
      </trkpt>
      <trkpt lat="48.46681" lon="-2.89582">
        <ele>198</ele>
        <time>2017-01-05T14:04:05.000Z</time>
      </trkpt>
      <trkpt lat="48.46681" lon="-2.89586">
        <ele>198</ele>
        <time>2017-01-05T14:04:06.000Z</time>
      </trkpt>
      <trkpt lat="48.46681" lon="-2.8959">
        <ele>198</ele>
        <time>2017-01-05T14:04:07.000Z</time>
      </trkpt>
      <trkpt lat="48.46682" lon="-2.89595">
        <ele>198</ele>
        <time>2017-01-05T14:04:08.000Z</time>
      </trkpt>
      <trkpt lat="48.46682" lon="-2.89599">
        <ele>198</ele>
        <time>2017-01-05T14:04:09.000Z</time>
      </trkpt>
      <trkpt lat="48.46683" lon="-2.89603">
        <ele>198</ele>
        <time>2017-01-05T14:04:10.000Z</time>
      </trkpt>
      <trkpt lat="48.46683" lon="-2.89607">
        <ele>198</ele>
        <time>2017-01-05T14:04:11.000Z</time>
      </trkpt>
      <trkpt lat="48.46683" lon="-2.8961">
        <ele>198</ele>
        <time>2017-01-05T14:04:12.000Z</time>
      </trkpt>
      <trkpt lat="48.46683" lon="-2.89614">
        <ele>198</ele>
        <time>2017-01-05T14:04:13.000Z</time>
      </trkpt>
      <trkpt lat="48.46682" lon="-2.89617">
        <ele>198</ele>
        <time>2017-01-05T14:04:14.000Z</time>
      </trkpt>
      <trkpt lat="48.46682" lon="-2.89621">
        <ele>198</ele>
        <time>2017-01-05T14:04:15.000Z</time>
      </trkpt>
      <trkpt lat="48.46682" lon="-2.89625">
        <ele>198</ele>
        <time>2017-01-05T14:04:16.000Z</time>
      </trkpt>
      <trkpt lat="48.46682" lon="-2.89629">
        <ele>198</ele>
        <time>2017-01-05T14:04:17.000Z</time>
      </trkpt>
      <trkpt lat="48.46681" lon="-2.89633">
        <ele>198</ele>
        <time>2017-01-05T14:04:18.000Z</time>
      </trkpt>
      <trkpt lat="48.4668" lon="-2.89635">
        <ele>198</ele>
        <time>2017-01-05T14:04:19.000Z</time>
      </trkpt>
      <trkpt lat="48.46678" lon="-2.89637">
        <ele>198</ele>
        <time>2017-01-05T14:04:21.000Z</time>
      </trkpt>
      <trkpt lat="48.46677" lon="-2.89635">
        <ele>198</ele>
        <time>2017-01-05T14:04:23.000Z</time>
      </trkpt>
      <trkpt lat="48.46674" lon="-2.89632">
        <ele>198</ele>
        <time>2017-01-05T14:04:35.000Z</time>
      </trkpt>
      <trkpt lat="48.46672" lon="-2.89631">
        <ele>198</ele>
        <time>2017-01-05T14:04:36.000Z</time>
      </trkpt>
      <trkpt lat="48.46669" lon="-2.89629">
        <ele>198</ele>
        <time>2017-01-05T14:04:37.000Z</time>
      </trkpt>
      <trkpt lat="48.46667" lon="-2.89626">
        <ele>197</ele>
        <time>2017-01-05T14:04:38.000Z</time>
      </trkpt>
      <trkpt lat="48.46663" lon="-2.89624">
        <ele>197</ele>
        <time>2017-01-05T14:04:39.000Z</time>
      </trkpt>
      <trkpt lat="48.46659" lon="-2.89623">
        <ele>197</ele>
        <time>2017-01-05T14:04:40.000Z</time>
      </trkpt>
      <trkpt lat="48.46655" lon="-2.89621">
        <ele>197</ele>
        <time>2017-01-05T14:04:41.000Z</time>
      </trkpt>
      <trkpt lat="48.46651" lon="-2.89618">
        <ele>197</ele>
        <time>2017-01-05T14:04:42.000Z</time>
      </trkpt>
      <trkpt lat="48.46646" lon="-2.89616">
        <ele>197</ele>
        <time>2017-01-05T14:04:43.000Z</time>
      </trkpt>
      <trkpt lat="48.46641" lon="-2.89613">
        <ele>197</ele>
        <time>2017-01-05T14:04:44.000Z</time>
      </trkpt>
      <trkpt lat="48.46636" lon="-2.89611">
        <ele>197</ele>
        <time>2017-01-05T14:04:45.000Z</time>
      </trkpt>
      <trkpt lat="48.4663" lon="-2.89608">
        <ele>197</ele>
        <time>2017-01-05T14:04:46.000Z</time>
      </trkpt>
      <trkpt lat="48.46624" lon="-2.89605">
        <ele>197</ele>
        <time>2017-01-05T14:04:47.000Z</time>
      </trkpt>
      <trkpt lat="48.46618" lon="-2.89602">
        <ele>197</ele>
        <time>2017-01-05T14:04:48.000Z</time>
      </trkpt>
      <trkpt lat="48.46611" lon="-2.89599">
        <ele>196</ele>
        <time>2017-01-05T14:04:49.000Z</time>
      </trkpt>
      <trkpt lat="48.46605" lon="-2.89595">
        <ele>196</ele>
        <time>2017-01-05T14:04:50.000Z</time>
      </trkpt>
      <trkpt lat="48.46598" lon="-2.89591">
        <ele>196</ele>
        <time>2017-01-05T14:04:51.000Z</time>
      </trkpt>
      <trkpt lat="48.46592" lon="-2.89586">
        <ele>196</ele>
        <time>2017-01-05T14:04:52.000Z</time>
      </trkpt>
      <trkpt lat="48.46587" lon="-2.89581">
        <ele>195</ele>
        <time>2017-01-05T14:04:53.000Z</time>
      </trkpt>
      <trkpt lat="48.46581" lon="-2.89575">
        <ele>194</ele>
        <time>2017-01-05T14:04:54.000Z</time>
      </trkpt>
      <trkpt lat="48.46577" lon="-2.8957">
        <ele>194</ele>
        <time>2017-01-05T14:04:55.000Z</time>
      </trkpt>
      <trkpt lat="48.46573" lon="-2.89565">
        <ele>193</ele>
        <time>2017-01-05T14:04:56.000Z</time>
      </trkpt>
      <trkpt lat="48.46569" lon="-2.8956">
        <ele>193</ele>
        <time>2017-01-05T14:04:57.000Z</time>
      </trkpt>
      <trkpt lat="48.46565" lon="-2.89557">
        <ele>193</ele>
        <time>2017-01-05T14:04:58.000Z</time>
      </trkpt>
      <trkpt lat="48.46562" lon="-2.89553">
        <ele>193</ele>
        <time>2017-01-05T14:04:59.000Z</time>
      </trkpt>
      <trkpt lat="48.46558" lon="-2.8955">
        <ele>193</ele>
        <time>2017-01-05T14:05:00.000Z</time>
      </trkpt>
      <trkpt lat="48.46555" lon="-2.89548">
        <ele>193</ele>
        <time>2017-01-05T14:05:01.000Z</time>
      </trkpt>
      <trkpt lat="48.46551" lon="-2.89546">
        <ele>192</ele>
        <time>2017-01-05T14:05:02.000Z</time>
      </trkpt>
      <trkpt lat="48.46547" lon="-2.89546">
        <ele>192</ele>
        <time>2017-01-05T14:05:03.000Z</time>
      </trkpt>
      <trkpt lat="48.46544" lon="-2.89546">
        <ele>192</ele>
        <time>2017-01-05T14:05:04.000Z</time>
      </trkpt>
      <trkpt lat="48.46541" lon="-2.89548">
        <ele>192</ele>
        <time>2017-01-05T14:05:05.000Z</time>
      </trkpt>
      <trkpt lat="48.46538" lon="-2.89551">
        <ele>192</ele>
        <time>2017-01-05T14:05:06.000Z</time>
      </trkpt>
      <trkpt lat="48.46536" lon="-2.89555">
        <ele>192</ele>
        <time>2017-01-05T14:05:07.000Z</time>
      </trkpt>
      <trkpt lat="48.46533" lon="-2.8956">
        <ele>192</ele>
        <time>2017-01-05T14:05:08.000Z</time>
      </trkpt>
      <trkpt lat="48.46531" lon="-2.89566">
        <ele>192</ele>
        <time>2017-01-05T14:05:09.000Z</time>
      </trkpt>
      <trkpt lat="48.4653" lon="-2.89571">
        <ele>192</ele>
        <time>2017-01-05T14:05:10.000Z</time>
      </trkpt>
      <trkpt lat="48.46528" lon="-2.89577">
        <ele>192</ele>
        <time>2017-01-05T14:05:11.000Z</time>
      </trkpt>
      <trkpt lat="48.46527" lon="-2.89582">
        <ele>192</ele>
        <time>2017-01-05T14:05:12.000Z</time>
      </trkpt>
      <trkpt lat="48.46525" lon="-2.89587">
        <ele>192</ele>
        <time>2017-01-05T14:05:13.000Z</time>
      </trkpt>
      <trkpt lat="48.46523" lon="-2.89593">
        <ele>192</ele>
        <time>2017-01-05T14:05:14.000Z</time>
      </trkpt>
      <trkpt lat="48.46521" lon="-2.89598">
        <ele>192</ele>
        <time>2017-01-05T14:05:15.000Z</time>
      </trkpt>
      <trkpt lat="48.4652" lon="-2.89604">
        <ele>192</ele>
        <time>2017-01-05T14:05:16.000Z</time>
      </trkpt>
      <trkpt lat="48.46518" lon="-2.8961">
        <ele>192</ele>
        <time>2017-01-05T14:05:17.000Z</time>
      </trkpt>
      <trkpt lat="48.46517" lon="-2.89617">
        <ele>192</ele>
        <time>2017-01-05T14:05:18.000Z</time>
      </trkpt>
      <trkpt lat="48.46516" lon="-2.89623">
        <ele>192</ele>
        <time>2017-01-05T14:05:19.000Z</time>
      </trkpt>
      <trkpt lat="48.46515" lon="-2.8963">
        <ele>192</ele>
        <time>2017-01-05T14:05:20.000Z</time>
      </trkpt>
      <trkpt lat="48.46514" lon="-2.89636">
        <ele>192</ele>
        <time>2017-01-05T14:05:21.000Z</time>
      </trkpt>
      <trkpt lat="48.46513" lon="-2.89643">
        <ele>192</ele>
        <time>2017-01-05T14:05:22.000Z</time>
      </trkpt>
      <trkpt lat="48.46512" lon="-2.89649">
        <ele>192</ele>
        <time>2017-01-05T14:05:23.000Z</time>
      </trkpt>
      <trkpt lat="48.46511" lon="-2.89656">
        <ele>192</ele>
        <time>2017-01-05T14:05:24.000Z</time>
      </trkpt>
      <trkpt lat="48.4651" lon="-2.89662">
        <ele>192</ele>
        <time>2017-01-05T14:05:25.000Z</time>
      </trkpt>
      <trkpt lat="48.4651" lon="-2.89669">
        <ele>192</ele>
        <time>2017-01-05T14:05:26.000Z</time>
      </trkpt>
      <trkpt lat="48.46509" lon="-2.89675">
        <ele>192</ele>
        <time>2017-01-05T14:05:27.000Z</time>
      </trkpt>
      <trkpt lat="48.46509" lon="-2.89682">
        <ele>192</ele>
        <time>2017-01-05T14:05:28.000Z</time>
      </trkpt>
      <trkpt lat="48.46509" lon="-2.89688">
        <ele>193</ele>
        <time>2017-01-05T14:05:29.000Z</time>
      </trkpt>
      <trkpt lat="48.4651" lon="-2.89694">
        <ele>193</ele>
        <time>2017-01-05T14:05:30.000Z</time>
      </trkpt>
      <trkpt lat="48.46512" lon="-2.89699">
        <ele>193</ele>
        <time>2017-01-05T14:05:31.000Z</time>
      </trkpt>
      <trkpt lat="48.46514" lon="-2.89702">
        <ele>193</ele>
        <time>2017-01-05T14:05:32.000Z</time>
      </trkpt>
      <trkpt lat="48.46515" lon="-2.89706">
        <ele>193</ele>
        <time>2017-01-05T14:05:33.000Z</time>
      </trkpt>
      <trkpt lat="48.46516" lon="-2.89709">
        <ele>193</ele>
        <time>2017-01-05T14:05:34.000Z</time>
      </trkpt>
      <trkpt lat="48.46517" lon="-2.89712">
        <ele>193</ele>
        <time>2017-01-05T14:05:36.000Z</time>
      </trkpt>
      <trkpt lat="48.46518" lon="-2.89714">
        <ele>193</ele>
        <time>2017-01-05T14:07:02.000Z</time>
      </trkpt>
      <trkpt lat="48.46519" lon="-2.89717">
        <ele>193</ele>
        <time>2017-01-05T14:08:40.000Z</time>
      </trkpt>
      <trkpt lat="48.46519" lon="-2.89724">
        <ele>193</ele>
        <time>2017-01-05T14:08:42.000Z</time>
      </trkpt>
      <trkpt lat="48.4652" lon="-2.89728">
        <ele>193</ele>
        <time>2017-01-05T14:08:43.000Z</time>
      </trkpt>
      <trkpt lat="48.46522" lon="-2.89734">
        <ele>193</ele>
        <time>2017-01-05T14:08:44.000Z</time>
      </trkpt>
      <trkpt lat="48.46523" lon="-2.8974">
        <ele>193</ele>
        <time>2017-01-05T14:08:45.000Z</time>
      </trkpt>
      <trkpt lat="48.46523" lon="-2.89746">
        <ele>193</ele>
        <time>2017-01-05T14:08:46.000Z</time>
      </trkpt>
      <trkpt lat="48.46524" lon="-2.89752">
        <ele>194</ele>
        <time>2017-01-05T14:08:47.000Z</time>
      </trkpt>
      <trkpt lat="48.46524" lon="-2.89758">
        <ele>194</ele>
        <time>2017-01-05T14:08:48.000Z</time>
      </trkpt>
      <trkpt lat="48.46523" lon="-2.89763">
        <ele>194</ele>
        <time>2017-01-05T14:08:49.000Z</time>
      </trkpt>
      <trkpt lat="48.46523" lon="-2.89768">
        <ele>194</ele>
        <time>2017-01-05T14:08:50.000Z</time>
      </trkpt>
      <trkpt lat="48.46523" lon="-2.89773">
        <ele>194</ele>
        <time>2017-01-05T14:08:51.000Z</time>
      </trkpt>
      <trkpt lat="48.46522" lon="-2.89778">
        <ele>194</ele>
        <time>2017-01-05T14:08:52.000Z</time>
      </trkpt>
      <trkpt lat="48.46522" lon="-2.89783">
        <ele>195</ele>
        <time>2017-01-05T14:08:53.000Z</time>
      </trkpt>
      <trkpt lat="48.46521" lon="-2.89789">
        <ele>195</ele>
        <time>2017-01-05T14:08:54.000Z</time>
      </trkpt>
      <trkpt lat="48.4652" lon="-2.89795">
        <ele>195</ele>
        <time>2017-01-05T14:08:55.000Z</time>
      </trkpt>
      <trkpt lat="48.46519" lon="-2.89802">
        <ele>195</ele>
        <time>2017-01-05T14:08:56.000Z</time>
      </trkpt>
      <trkpt lat="48.46519" lon="-2.89808">
        <ele>195</ele>
        <time>2017-01-05T14:08:57.000Z</time>
      </trkpt>
      <trkpt lat="48.46519" lon="-2.89815">
        <ele>195</ele>
        <time>2017-01-05T14:08:58.000Z</time>
      </trkpt>
      <trkpt lat="48.46519" lon="-2.89822">
        <ele>195</ele>
        <time>2017-01-05T14:08:59.000Z</time>
      </trkpt>
      <trkpt lat="48.46521" lon="-2.89828">
        <ele>195</ele>
        <time>2017-01-05T14:09:00.000Z</time>
      </trkpt>
      <trkpt lat="48.46522" lon="-2.89834">
        <ele>196</ele>
        <time>2017-01-05T14:09:01.000Z</time>
      </trkpt>
      <trkpt lat="48.46524" lon="-2.89841">
        <ele>196</ele>
        <time>2017-01-05T14:09:02.000Z</time>
      </trkpt>
      <trkpt lat="48.46526" lon="-2.89847">
        <ele>196</ele>
        <time>2017-01-05T14:09:03.000Z</time>
      </trkpt>
      <trkpt lat="48.46529" lon="-2.89853">
        <ele>197</ele>
        <time>2017-01-05T14:09:04.000Z</time>
      </trkpt>
      <trkpt lat="48.46531" lon="-2.89858">
        <ele>197</ele>
        <time>2017-01-05T14:09:05.000Z</time>
      </trkpt>
      <trkpt lat="48.46534" lon="-2.89863">
        <ele>197</ele>
        <time>2017-01-05T14:09:06.000Z</time>
      </trkpt>
      <trkpt lat="48.46536" lon="-2.89869">
        <ele>197</ele>
        <time>2017-01-05T14:09:07.000Z</time>
      </trkpt>
      <trkpt lat="48.46539" lon="-2.89875">
        <ele>197</ele>
        <time>2017-01-05T14:09:08.000Z</time>
      </trkpt>
      <trkpt lat="48.46541" lon="-2.8988">
        <ele>197</ele>
        <time>2017-01-05T14:09:09.000Z</time>
      </trkpt>
      <trkpt lat="48.46544" lon="-2.89886">
        <ele>197</ele>
        <time>2017-01-05T14:09:10.000Z</time>
      </trkpt>
      <trkpt lat="48.46547" lon="-2.89891">
        <ele>198</ele>
        <time>2017-01-05T14:09:11.000Z</time>
      </trkpt>
      <trkpt lat="48.46549" lon="-2.89896">
        <ele>198</ele>
        <time>2017-01-05T14:09:12.000Z</time>
      </trkpt>
      <trkpt lat="48.46552" lon="-2.89902">
        <ele>198</ele>
        <time>2017-01-05T14:09:13.000Z</time>
      </trkpt>
      <trkpt lat="48.46554" lon="-2.89907">
        <ele>198</ele>
        <time>2017-01-05T14:09:14.000Z</time>
      </trkpt>
      <trkpt lat="48.46556" lon="-2.89912">
        <ele>198</ele>
        <time>2017-01-05T14:09:15.000Z</time>
      </trkpt>
      <trkpt lat="48.46558" lon="-2.89917">
        <ele>199</ele>
        <time>2017-01-05T14:09:16.000Z</time>
      </trkpt>
      <trkpt lat="48.4656" lon="-2.89921">
        <ele>199</ele>
        <time>2017-01-05T14:09:17.000Z</time>
      </trkpt>
      <trkpt lat="48.46563" lon="-2.89924">
        <ele>199</ele>
        <time>2017-01-05T14:09:18.000Z</time>
      </trkpt>
      <trkpt lat="48.46565" lon="-2.89927">
        <ele>200</ele>
        <time>2017-01-05T14:09:19.000Z</time>
      </trkpt>
      <trkpt lat="48.46567" lon="-2.89929">
        <ele>200</ele>
        <time>2017-01-05T14:09:20.000Z</time>
      </trkpt>
      <trkpt lat="48.46569" lon="-2.89931">
        <ele>200</ele>
        <time>2017-01-05T14:09:21.000Z</time>
      </trkpt>
      <trkpt lat="48.46572" lon="-2.89934">
        <ele>200</ele>
        <time>2017-01-05T14:09:23.000Z</time>
      </trkpt>
      <trkpt lat="48.46573" lon="-2.89937">
        <ele>200</ele>
        <time>2017-01-05T14:09:24.000Z</time>
      </trkpt>
      <trkpt lat="48.46573" lon="-2.89942">
        <ele>200</ele>
        <time>2017-01-05T14:09:25.000Z</time>
      </trkpt>
      <trkpt lat="48.46571" lon="-2.89948">
        <ele>200</ele>
        <time>2017-01-05T14:09:26.000Z</time>
      </trkpt>
      <trkpt lat="48.4657" lon="-2.89954">
        <ele>199</ele>
        <time>2017-01-05T14:09:27.000Z</time>
      </trkpt>
      <trkpt lat="48.46568" lon="-2.8996">
        <ele>200</ele>
        <time>2017-01-05T14:09:28.000Z</time>
      </trkpt>
      <trkpt lat="48.46566" lon="-2.89966">
        <ele>200</ele>
        <time>2017-01-05T14:09:29.000Z</time>
      </trkpt>
      <trkpt lat="48.46564" lon="-2.89972">
        <ele>200</ele>
        <time>2017-01-05T14:09:30.000Z</time>
      </trkpt>
      <trkpt lat="48.46561" lon="-2.89978">
        <ele>200</ele>
        <time>2017-01-05T14:09:31.000Z</time>
      </trkpt>
      <trkpt lat="48.46558" lon="-2.89983">
        <ele>200</ele>
        <time>2017-01-05T14:09:32.000Z</time>
      </trkpt>
      <trkpt lat="48.46555" lon="-2.89988">
        <ele>200</ele>
        <time>2017-01-05T14:09:33.000Z</time>
      </trkpt>
      <trkpt lat="48.46552" lon="-2.89994">
        <ele>199</ele>
        <time>2017-01-05T14:09:34.000Z</time>
      </trkpt>
      <trkpt lat="48.46549" lon="-2.89999">
        <ele>199</ele>
        <time>2017-01-05T14:09:35.000Z</time>
      </trkpt>
      <trkpt lat="48.46546" lon="-2.90005">
        <ele>200</ele>
        <time>2017-01-05T14:09:36.000Z</time>
      </trkpt>
      <trkpt lat="48.46543" lon="-2.9001">
        <ele>200</ele>
        <time>2017-01-05T14:09:37.000Z</time>
      </trkpt>
      <trkpt lat="48.46541" lon="-2.90014">
        <ele>199</ele>
        <time>2017-01-05T14:09:38.000Z</time>
      </trkpt>
      <trkpt lat="48.46539" lon="-2.90018">
        <ele>199</ele>
        <time>2017-01-05T14:09:39.000Z</time>
      </trkpt>
      <trkpt lat="48.46536" lon="-2.90023">
        <ele>199</ele>
        <time>2017-01-05T14:09:40.000Z</time>
      </trkpt>
      <trkpt lat="48.46532" lon="-2.90028">
        <ele>199</ele>
        <time>2017-01-05T14:09:41.000Z</time>
      </trkpt>
      <trkpt lat="48.46528" lon="-2.90034">
        <ele>199</ele>
        <time>2017-01-05T14:09:42.000Z</time>
      </trkpt>
      <trkpt lat="48.46525" lon="-2.90041">
        <ele>199</ele>
        <time>2017-01-05T14:09:43.000Z</time>
      </trkpt>
      <trkpt lat="48.46521" lon="-2.90049">
        <ele>199</ele>
        <time>2017-01-05T14:09:44.000Z</time>
      </trkpt>
      <trkpt lat="48.46517" lon="-2.90057">
        <ele>199</ele>
        <time>2017-01-05T14:09:45.000Z</time>
      </trkpt>
      <trkpt lat="48.46514" lon="-2.90066">
        <ele>199</ele>
        <time>2017-01-05T14:09:46.000Z</time>
      </trkpt>
      <trkpt lat="48.4651" lon="-2.90074">
        <ele>198</ele>
        <time>2017-01-05T14:09:47.000Z</time>
      </trkpt>
      <trkpt lat="48.46507" lon="-2.90083">
        <ele>198</ele>
        <time>2017-01-05T14:09:48.000Z</time>
      </trkpt>
      <trkpt lat="48.46503" lon="-2.90091">
        <ele>198</ele>
        <time>2017-01-05T14:09:49.000Z</time>
      </trkpt>
      <trkpt lat="48.46499" lon="-2.90099">
        <ele>196</ele>
        <time>2017-01-05T14:09:50.000Z</time>
      </trkpt>
      <trkpt lat="48.46496" lon="-2.90107">
        <ele>196</ele>
        <time>2017-01-05T14:09:51.000Z</time>
      </trkpt>
      <trkpt lat="48.46493" lon="-2.90114">
        <ele>196</ele>
        <time>2017-01-05T14:09:52.000Z</time>
      </trkpt>
      <trkpt lat="48.4649" lon="-2.90123">
        <ele>196</ele>
        <time>2017-01-05T14:09:53.000Z</time>
      </trkpt>
      <trkpt lat="48.46488" lon="-2.90131">
        <ele>196</ele>
        <time>2017-01-05T14:09:54.000Z</time>
      </trkpt>
      <trkpt lat="48.46487" lon="-2.90139">
        <ele>196</ele>
        <time>2017-01-05T14:09:55.000Z</time>
      </trkpt>
      <trkpt lat="48.46485" lon="-2.90147">
        <ele>197</ele>
        <time>2017-01-05T14:09:56.000Z</time>
      </trkpt>
      <trkpt lat="48.46485" lon="-2.90155">
        <ele>197</ele>
        <time>2017-01-05T14:09:57.000Z</time>
      </trkpt>
      <trkpt lat="48.46485" lon="-2.90162">
        <ele>198</ele>
        <time>2017-01-05T14:09:58.000Z</time>
      </trkpt>
      <trkpt lat="48.46485" lon="-2.9017">
        <ele>198</ele>
        <time>2017-01-05T14:09:59.000Z</time>
      </trkpt>
      <trkpt lat="48.46485" lon="-2.90179">
        <ele>198</ele>
        <time>2017-01-05T14:10:00.000Z</time>
      </trkpt>
      <trkpt lat="48.46486" lon="-2.90187">
        <ele>197</ele>
        <time>2017-01-05T14:10:01.000Z</time>
      </trkpt>
      <trkpt lat="48.46485" lon="-2.90194">
        <ele>197</ele>
        <time>2017-01-05T14:10:02.000Z</time>
      </trkpt>
      <trkpt lat="48.46485" lon="-2.90199">
        <ele>197</ele>
        <time>2017-01-05T14:10:03.000Z</time>
      </trkpt>
      <trkpt lat="48.46484" lon="-2.90204">
        <ele>197</ele>
        <time>2017-01-05T14:10:04.000Z</time>
      </trkpt>
      <trkpt lat="48.46483" lon="-2.90207">
        <ele>196</ele>
        <time>2017-01-05T14:10:05.000Z</time>
      </trkpt>
      <trkpt lat="48.46481" lon="-2.90209">
        <ele>196</ele>
        <time>2017-01-05T14:10:06.000Z</time>
      </trkpt>
      <trkpt lat="48.4648" lon="-2.90211">
        <ele>196</ele>
        <time>2017-01-05T14:10:07.000Z</time>
      </trkpt>
      <trkpt lat="48.46478" lon="-2.90214">
        <ele>196</ele>
        <time>2017-01-05T14:10:08.000Z</time>
      </trkpt>
      <trkpt lat="48.46477" lon="-2.90217">
        <ele>196</ele>
        <time>2017-01-05T14:10:09.000Z</time>
      </trkpt>
      <trkpt lat="48.46475" lon="-2.90219">
        <ele>196</ele>
        <time>2017-01-05T14:10:10.000Z</time>
      </trkpt>
      <trkpt lat="48.46474" lon="-2.90222">
        <ele>196</ele>
        <time>2017-01-05T14:10:11.000Z</time>
      </trkpt>
      <trkpt lat="48.46472" lon="-2.90224">
        <ele>196</ele>
        <time>2017-01-05T14:10:12.000Z</time>
      </trkpt>
      <trkpt lat="48.46469" lon="-2.90227">
        <ele>196</ele>
        <time>2017-01-05T14:10:13.000Z</time>
      </trkpt>
      <trkpt lat="48.46467" lon="-2.90229">
        <ele>196</ele>
        <time>2017-01-05T14:10:14.000Z</time>
      </trkpt>
      <trkpt lat="48.46465" lon="-2.90231">
        <ele>196</ele>
        <time>2017-01-05T14:10:15.000Z</time>
      </trkpt>
      <trkpt lat="48.46462" lon="-2.90234">
        <ele>196</ele>
        <time>2017-01-05T14:10:16.000Z</time>
      </trkpt>
      <trkpt lat="48.46459" lon="-2.90236">
        <ele>195</ele>
        <time>2017-01-05T14:10:17.000Z</time>
      </trkpt>
      <trkpt lat="48.46457" lon="-2.90238">
        <ele>195</ele>
        <time>2017-01-05T14:10:18.000Z</time>
      </trkpt>
      <trkpt lat="48.46454" lon="-2.90241">
        <ele>195</ele>
        <time>2017-01-05T14:10:19.000Z</time>
      </trkpt>
      <trkpt lat="48.46452" lon="-2.90243">
        <ele>195</ele>
        <time>2017-01-05T14:10:20.000Z</time>
      </trkpt>
      <trkpt lat="48.46449" lon="-2.90246">
        <ele>195</ele>
        <time>2017-01-05T14:10:21.000Z</time>
      </trkpt>
      <trkpt lat="48.46447" lon="-2.90248">
        <ele>195</ele>
        <time>2017-01-05T14:10:22.000Z</time>
      </trkpt>
      <trkpt lat="48.46445" lon="-2.9025">
        <ele>195</ele>
        <time>2017-01-05T14:10:23.000Z</time>
      </trkpt>
      <trkpt lat="48.46443" lon="-2.90253">
        <ele>195</ele>
        <time>2017-01-05T14:10:24.000Z</time>
      </trkpt>
      <trkpt lat="48.4644" lon="-2.90255">
        <ele>195</ele>
        <time>2017-01-05T14:10:25.000Z</time>
      </trkpt>
      <trkpt lat="48.46438" lon="-2.90258">
        <ele>195</ele>
        <time>2017-01-05T14:10:26.000Z</time>
      </trkpt>
      <trkpt lat="48.46435" lon="-2.90261">
        <ele>194</ele>
        <time>2017-01-05T14:10:27.000Z</time>
      </trkpt>
      <trkpt lat="48.46432" lon="-2.90264">
        <ele>194</ele>
        <time>2017-01-05T14:10:28.000Z</time>
      </trkpt>
      <trkpt lat="48.4643" lon="-2.90267">
        <ele>194</ele>
        <time>2017-01-05T14:10:29.000Z</time>
      </trkpt>
      <trkpt lat="48.46427" lon="-2.9027">
        <ele>194</ele>
        <time>2017-01-05T14:10:30.000Z</time>
      </trkpt>
      <trkpt lat="48.46425" lon="-2.90273">
        <ele>194</ele>
        <time>2017-01-05T14:10:31.000Z</time>
      </trkpt>
      <trkpt lat="48.46422" lon="-2.90275">
        <ele>195</ele>
        <time>2017-01-05T14:10:32.000Z</time>
      </trkpt>
      <trkpt lat="48.46419" lon="-2.90278">
        <ele>195</ele>
        <time>2017-01-05T14:10:33.000Z</time>
      </trkpt>
      <trkpt lat="48.46416" lon="-2.9028">
        <ele>191</ele>
        <time>2017-01-05T14:10:34.000Z</time>
      </trkpt>
      <trkpt lat="48.46413" lon="-2.90282">
        <ele>191</ele>
        <time>2017-01-05T14:10:35.000Z</time>
      </trkpt>
      <trkpt lat="48.46411" lon="-2.90285">
        <ele>191</ele>
        <time>2017-01-05T14:10:36.000Z</time>
      </trkpt>
      <trkpt lat="48.46408" lon="-2.90287">
        <ele>191</ele>
        <time>2017-01-05T14:10:37.000Z</time>
      </trkpt>
      <trkpt lat="48.46406" lon="-2.90289">
        <ele>191</ele>
        <time>2017-01-05T14:10:38.000Z</time>
      </trkpt>
      <trkpt lat="48.46403" lon="-2.90291">
        <ele>191</ele>
        <time>2017-01-05T14:10:39.000Z</time>
      </trkpt>
      <trkpt lat="48.464" lon="-2.90293">
        <ele>190</ele>
        <time>2017-01-05T14:10:40.000Z</time>
      </trkpt>
      <trkpt lat="48.46398" lon="-2.90295">
        <ele>190</ele>
        <time>2017-01-05T14:10:41.000Z</time>
      </trkpt>
      <trkpt lat="48.46396" lon="-2.90297">
        <ele>190</ele>
        <time>2017-01-05T14:10:42.000Z</time>
      </trkpt>
      <trkpt lat="48.46394" lon="-2.90299">
        <ele>190</ele>
        <time>2017-01-05T14:10:43.000Z</time>
      </trkpt>
      <trkpt lat="48.46391" lon="-2.903">
        <ele>190</ele>
        <time>2017-01-05T14:10:44.000Z</time>
      </trkpt>
      <trkpt lat="48.46389" lon="-2.90302">
        <ele>190</ele>
        <time>2017-01-05T14:10:45.000Z</time>
      </trkpt>
      <trkpt lat="48.46386" lon="-2.90303">
        <ele>190</ele>
        <time>2017-01-05T14:10:46.000Z</time>
      </trkpt>
      <trkpt lat="48.46383" lon="-2.90305">
        <ele>190</ele>
        <time>2017-01-05T14:10:47.000Z</time>
      </trkpt>
      <trkpt lat="48.46381" lon="-2.90307">
        <ele>190</ele>
        <time>2017-01-05T14:10:48.000Z</time>
      </trkpt>
      <trkpt lat="48.46378" lon="-2.90308">
        <ele>190</ele>
        <time>2017-01-05T14:10:49.000Z</time>
      </trkpt>
      <trkpt lat="48.46375" lon="-2.9031">
        <ele>190</ele>
        <time>2017-01-05T14:10:50.000Z</time>
      </trkpt>
      <trkpt lat="48.46372" lon="-2.90312">
        <ele>190</ele>
        <time>2017-01-05T14:10:51.000Z</time>
      </trkpt>
      <trkpt lat="48.4637" lon="-2.90314">
        <ele>189</ele>
        <time>2017-01-05T14:10:52.000Z</time>
      </trkpt>
      <trkpt lat="48.46367" lon="-2.90316">
        <ele>189</ele>
        <time>2017-01-05T14:10:53.000Z</time>
      </trkpt>
      <trkpt lat="48.46365" lon="-2.90318">
        <ele>189</ele>
        <time>2017-01-05T14:10:54.000Z</time>
      </trkpt>
      <trkpt lat="48.46362" lon="-2.9032">
        <ele>189</ele>
        <time>2017-01-05T14:10:55.000Z</time>
      </trkpt>
      <trkpt lat="48.4636" lon="-2.90322">
        <ele>189</ele>
        <time>2017-01-05T14:10:56.000Z</time>
      </trkpt>
      <trkpt lat="48.46358" lon="-2.90325">
        <ele>189</ele>
        <time>2017-01-05T14:10:57.000Z</time>
      </trkpt>
      <trkpt lat="48.46356" lon="-2.90329">
        <ele>189</ele>
        <time>2017-01-05T14:10:58.000Z</time>
      </trkpt>
      <trkpt lat="48.46355" lon="-2.90333">
        <ele>189</ele>
        <time>2017-01-05T14:10:59.000Z</time>
      </trkpt>
      <trkpt lat="48.46354" lon="-2.90337">
        <ele>190</ele>
        <time>2017-01-05T14:11:00.000Z</time>
      </trkpt>
      <trkpt lat="48.46355" lon="-2.90341">
        <ele>190</ele>
        <time>2017-01-05T14:11:01.000Z</time>
      </trkpt>
      <trkpt lat="48.46356" lon="-2.90345">
        <ele>190</ele>
        <time>2017-01-05T14:11:02.000Z</time>
      </trkpt>
      <trkpt lat="48.46357" lon="-2.90349">
        <ele>190</ele>
        <time>2017-01-05T14:11:03.000Z</time>
      </trkpt>
      <trkpt lat="48.46358" lon="-2.90354">
        <ele>190</ele>
        <time>2017-01-05T14:11:04.000Z</time>
      </trkpt>
      <trkpt lat="48.46359" lon="-2.90358">
        <ele>190</ele>
        <time>2017-01-05T14:11:05.000Z</time>
      </trkpt>
      <trkpt lat="48.4636" lon="-2.90363">
        <ele>190</ele>
        <time>2017-01-05T14:11:06.000Z</time>
      </trkpt>
      <trkpt lat="48.4636" lon="-2.90368">
        <ele>191</ele>
        <time>2017-01-05T14:11:07.000Z</time>
      </trkpt>
      <trkpt lat="48.46361" lon="-2.90374">
        <ele>191</ele>
        <time>2017-01-05T14:11:08.000Z</time>
      </trkpt>
      <trkpt lat="48.46362" lon="-2.90379">
        <ele>191</ele>
        <time>2017-01-05T14:11:09.000Z</time>
      </trkpt>
      <trkpt lat="48.46362" lon="-2.90385">
        <ele>191</ele>
        <time>2017-01-05T14:11:10.000Z</time>
      </trkpt>
      <trkpt lat="48.46363" lon="-2.9039">
        <ele>191</ele>
        <time>2017-01-05T14:11:11.000Z</time>
      </trkpt>
      <trkpt lat="48.46363" lon="-2.90395">
        <ele>191</ele>
        <time>2017-01-05T14:11:12.000Z</time>
      </trkpt>
      <trkpt lat="48.46364" lon="-2.90401">
        <ele>191</ele>
        <time>2017-01-05T14:11:13.000Z</time>
      </trkpt>
      <trkpt lat="48.46365" lon="-2.90407">
        <ele>191</ele>
        <time>2017-01-05T14:11:14.000Z</time>
      </trkpt>
      <trkpt lat="48.46365" lon="-2.90412">
        <ele>191</ele>
        <time>2017-01-05T14:11:15.000Z</time>
      </trkpt>
      <trkpt lat="48.46366" lon="-2.90418">
        <ele>192</ele>
        <time>2017-01-05T14:11:16.000Z</time>
      </trkpt>
      <trkpt lat="48.46366" lon="-2.90423">
        <ele>192</ele>
        <time>2017-01-05T14:11:17.000Z</time>
      </trkpt>
      <trkpt lat="48.46367" lon="-2.90428">
        <ele>192</ele>
        <time>2017-01-05T14:11:18.000Z</time>
      </trkpt>
      <trkpt lat="48.46369" lon="-2.90433">
        <ele>192</ele>
        <time>2017-01-05T14:11:19.000Z</time>
      </trkpt>
      <trkpt lat="48.4637" lon="-2.90438">
        <ele>192</ele>
        <time>2017-01-05T14:11:20.000Z</time>
      </trkpt>
      <trkpt lat="48.46372" lon="-2.90442">
        <ele>192</ele>
        <time>2017-01-05T14:11:21.000Z</time>
      </trkpt>
      <trkpt lat="48.46373" lon="-2.90446">
        <ele>192</ele>
        <time>2017-01-05T14:11:22.000Z</time>
      </trkpt>
      <trkpt lat="48.46375" lon="-2.90449">
        <ele>192</ele>
        <time>2017-01-05T14:11:23.000Z</time>
      </trkpt>
      <trkpt lat="48.46376" lon="-2.90452">
        <ele>192</ele>
        <time>2017-01-05T14:11:25.000Z</time>
      </trkpt>
      <trkpt lat="48.46375" lon="-2.90458">
        <ele>192</ele>
        <time>2017-01-05T14:11:27.000Z</time>
      </trkpt>
      <trkpt lat="48.46374" lon="-2.90462">
        <ele>192</ele>
        <time>2017-01-05T14:11:28.000Z</time>
      </trkpt>
      <trkpt lat="48.46372" lon="-2.90466">
        <ele>192</ele>
        <time>2017-01-05T14:11:29.000Z</time>
      </trkpt>
      <trkpt lat="48.46369" lon="-2.9047">
        <ele>192</ele>
        <time>2017-01-05T14:11:30.000Z</time>
      </trkpt>
      <trkpt lat="48.46365" lon="-2.90474">
        <ele>192</ele>
        <time>2017-01-05T14:11:31.000Z</time>
      </trkpt>
      <trkpt lat="48.4636" lon="-2.90478">
        <ele>192</ele>
        <time>2017-01-05T14:11:32.000Z</time>
      </trkpt>
      <trkpt lat="48.46356" lon="-2.90482">
        <ele>192</ele>
        <time>2017-01-05T14:11:33.000Z</time>
      </trkpt>
      <trkpt lat="48.46352" lon="-2.90486">
        <ele>191</ele>
        <time>2017-01-05T14:11:34.000Z</time>
      </trkpt>
      <trkpt lat="48.46347" lon="-2.9049">
        <ele>191</ele>
        <time>2017-01-05T14:11:35.000Z</time>
      </trkpt>
      <trkpt lat="48.46342" lon="-2.90495">
        <ele>191</ele>
        <time>2017-01-05T14:11:36.000Z</time>
      </trkpt>
      <trkpt lat="48.46337" lon="-2.90499">
        <ele>190</ele>
        <time>2017-01-05T14:11:37.000Z</time>
      </trkpt>
      <trkpt lat="48.46332" lon="-2.90502">
        <ele>190</ele>
        <time>2017-01-05T14:11:38.000Z</time>
      </trkpt>
      <trkpt lat="48.46327" lon="-2.90506">
        <ele>190</ele>
        <time>2017-01-05T14:11:39.000Z</time>
      </trkpt>
      <trkpt lat="48.46322" lon="-2.9051">
        <ele>190</ele>
        <time>2017-01-05T14:11:40.000Z</time>
      </trkpt>
      <trkpt lat="48.46317" lon="-2.90514">
        <ele>190</ele>
        <time>2017-01-05T14:11:41.000Z</time>
      </trkpt>
      <trkpt lat="48.46312" lon="-2.90517">
        <ele>190</ele>
        <time>2017-01-05T14:11:42.000Z</time>
      </trkpt>
      <trkpt lat="48.46307" lon="-2.90521">
        <ele>190</ele>
        <time>2017-01-05T14:11:43.000Z</time>
      </trkpt>
      <trkpt lat="48.46302" lon="-2.90524">
        <ele>190</ele>
        <time>2017-01-05T14:11:44.000Z</time>
      </trkpt>
      <trkpt lat="48.46298" lon="-2.90527">
        <ele>190</ele>
        <time>2017-01-05T14:11:45.000Z</time>
      </trkpt>
      <trkpt lat="48.46293" lon="-2.9053">
        <ele>190</ele>
        <time>2017-01-05T14:11:46.000Z</time>
      </trkpt>
      <trkpt lat="48.46289" lon="-2.90532">
        <ele>190</ele>
        <time>2017-01-05T14:11:47.000Z</time>
      </trkpt>
      <trkpt lat="48.46285" lon="-2.90533">
        <ele>190</ele>
        <time>2017-01-05T14:11:48.000Z</time>
      </trkpt>
      <trkpt lat="48.46281" lon="-2.90535">
        <ele>190</ele>
        <time>2017-01-05T14:11:49.000Z</time>
      </trkpt>
      <trkpt lat="48.46277" lon="-2.90536">
        <ele>190</ele>
        <time>2017-01-05T14:11:50.000Z</time>
      </trkpt>
      <trkpt lat="48.46274" lon="-2.90537">
        <ele>190</ele>
        <time>2017-01-05T14:11:51.000Z</time>
      </trkpt>
      <trkpt lat="48.46271" lon="-2.90539">
        <ele>190</ele>
        <time>2017-01-05T14:11:52.000Z</time>
      </trkpt>
      <trkpt lat="48.46269" lon="-2.90541">
        <ele>190</ele>
        <time>2017-01-05T14:11:53.000Z</time>
      </trkpt>
      <trkpt lat="48.46268" lon="-2.90543">
        <ele>190</ele>
        <time>2017-01-05T14:11:54.000Z</time>
      </trkpt>
      <trkpt lat="48.46267" lon="-2.90546">
        <ele>190</ele>
        <time>2017-01-05T14:11:55.000Z</time>
      </trkpt>
      <trkpt lat="48.46268" lon="-2.9055">
        <ele>190</ele>
        <time>2017-01-05T14:11:56.000Z</time>
      </trkpt>
      <trkpt lat="48.46269" lon="-2.90553">
        <ele>190</ele>
        <time>2017-01-05T14:11:57.000Z</time>
      </trkpt>
      <trkpt lat="48.46271" lon="-2.90556">
        <ele>190</ele>
        <time>2017-01-05T14:11:58.000Z</time>
      </trkpt>
      <trkpt lat="48.46273" lon="-2.90559">
        <ele>190</ele>
        <time>2017-01-05T14:11:59.000Z</time>
      </trkpt>
      <trkpt lat="48.46275" lon="-2.90561">
        <ele>190</ele>
        <time>2017-01-05T14:12:00.000Z</time>
      </trkpt>
      <trkpt lat="48.46277" lon="-2.90563">
        <ele>190</ele>
        <time>2017-01-05T14:12:01.000Z</time>
      </trkpt>
      <trkpt lat="48.4628" lon="-2.90564">
        <ele>190</ele>
        <time>2017-01-05T14:12:02.000Z</time>
      </trkpt>
      <trkpt lat="48.46282" lon="-2.90566">
        <ele>191</ele>
        <time>2017-01-05T14:12:03.000Z</time>
      </trkpt>
      <trkpt lat="48.46285" lon="-2.90567">
        <ele>191</ele>
        <time>2017-01-05T14:12:04.000Z</time>
      </trkpt>
      <trkpt lat="48.46287" lon="-2.90568">
        <ele>191</ele>
        <time>2017-01-05T14:12:05.000Z</time>
      </trkpt>
      <trkpt lat="48.46289" lon="-2.90569">
        <ele>191</ele>
        <time>2017-01-05T14:12:06.000Z</time>
      </trkpt>
      <trkpt lat="48.46292" lon="-2.9057">
        <ele>191</ele>
        <time>2017-01-05T14:12:07.000Z</time>
      </trkpt>
      <trkpt lat="48.46295" lon="-2.90571">
        <ele>191</ele>
        <time>2017-01-05T14:12:08.000Z</time>
      </trkpt>
      <trkpt lat="48.46298" lon="-2.90572">
        <ele>191</ele>
        <time>2017-01-05T14:12:09.000Z</time>
      </trkpt>
      <trkpt lat="48.46301" lon="-2.90574">
        <ele>191</ele>
        <time>2017-01-05T14:12:10.000Z</time>
      </trkpt>
      <trkpt lat="48.46304" lon="-2.90575">
        <ele>191</ele>
        <time>2017-01-05T14:12:11.000Z</time>
      </trkpt>
      <trkpt lat="48.46307" lon="-2.90577">
        <ele>191</ele>
        <time>2017-01-05T14:12:12.000Z</time>
      </trkpt>
      <trkpt lat="48.4631" lon="-2.90579">
        <ele>191</ele>
        <time>2017-01-05T14:12:13.000Z</time>
      </trkpt>
      <trkpt lat="48.46313" lon="-2.90581">
        <ele>191</ele>
        <time>2017-01-05T14:12:14.000Z</time>
      </trkpt>
      <trkpt lat="48.46316" lon="-2.90583">
        <ele>191</ele>
        <time>2017-01-05T14:12:15.000Z</time>
      </trkpt>
      <trkpt lat="48.46319" lon="-2.90584">
        <ele>192</ele>
        <time>2017-01-05T14:12:16.000Z</time>
      </trkpt>
      <trkpt lat="48.46323" lon="-2.90586">
        <ele>192</ele>
        <time>2017-01-05T14:12:17.000Z</time>
      </trkpt>
      <trkpt lat="48.46326" lon="-2.90587">
        <ele>192</ele>
        <time>2017-01-05T14:12:18.000Z</time>
      </trkpt>
      <trkpt lat="48.46329" lon="-2.90589">
        <ele>192</ele>
        <time>2017-01-05T14:12:19.000Z</time>
      </trkpt>
      <trkpt lat="48.46333" lon="-2.9059">
        <ele>192</ele>
        <time>2017-01-05T14:12:20.000Z</time>
      </trkpt>
      <trkpt lat="48.46336" lon="-2.90592">
        <ele>193</ele>
        <time>2017-01-05T14:12:21.000Z</time>
      </trkpt>
      <trkpt lat="48.46339" lon="-2.90593">
        <ele>193</ele>
        <time>2017-01-05T14:12:22.000Z</time>
      </trkpt>
      <trkpt lat="48.46342" lon="-2.90594">
        <ele>193</ele>
        <time>2017-01-05T14:12:23.000Z</time>
      </trkpt>
      <trkpt lat="48.46345" lon="-2.90595">
        <ele>193</ele>
        <time>2017-01-05T14:12:24.000Z</time>
      </trkpt>
      <trkpt lat="48.46348" lon="-2.90596">
        <ele>193</ele>
        <time>2017-01-05T14:12:25.000Z</time>
      </trkpt>
      <trkpt lat="48.46351" lon="-2.90597">
        <ele>194</ele>
        <time>2017-01-05T14:12:26.000Z</time>
      </trkpt>
      <trkpt lat="48.46355" lon="-2.90598">
        <ele>194</ele>
        <time>2017-01-05T14:12:27.000Z</time>
      </trkpt>
      <trkpt lat="48.46358" lon="-2.90599">
        <ele>194</ele>
        <time>2017-01-05T14:12:28.000Z</time>
      </trkpt>
      <trkpt lat="48.46361" lon="-2.90601">
        <ele>194</ele>
        <time>2017-01-05T14:12:29.000Z</time>
      </trkpt>
      <trkpt lat="48.46364" lon="-2.90602">
        <ele>194</ele>
        <time>2017-01-05T14:12:30.000Z</time>
      </trkpt>
      <trkpt lat="48.46368" lon="-2.90603">
        <ele>194</ele>
        <time>2017-01-05T14:12:31.000Z</time>
      </trkpt>
      <trkpt lat="48.46371" lon="-2.90605">
        <ele>194</ele>
        <time>2017-01-05T14:12:32.000Z</time>
      </trkpt>
      <trkpt lat="48.46374" lon="-2.90606">
        <ele>194</ele>
        <time>2017-01-05T14:12:33.000Z</time>
      </trkpt>
      <trkpt lat="48.46377" lon="-2.90608">
        <ele>194</ele>
        <time>2017-01-05T14:12:34.000Z</time>
      </trkpt>
      <trkpt lat="48.4638" lon="-2.90609">
        <ele>195</ele>
        <time>2017-01-05T14:12:35.000Z</time>
      </trkpt>
      <trkpt lat="48.46383" lon="-2.90611">
        <ele>195</ele>
        <time>2017-01-05T14:12:36.000Z</time>
      </trkpt>
      <trkpt lat="48.46387" lon="-2.90612">
        <ele>195</ele>
        <time>2017-01-05T14:12:37.000Z</time>
      </trkpt>
      <trkpt lat="48.46389" lon="-2.90613">
        <ele>195</ele>
        <time>2017-01-05T14:12:38.000Z</time>
      </trkpt>
      <trkpt lat="48.46392" lon="-2.90614">
        <ele>195</ele>
        <time>2017-01-05T14:12:39.000Z</time>
      </trkpt>
      <trkpt lat="48.46396" lon="-2.90615">
        <ele>195</ele>
        <time>2017-01-05T14:12:40.000Z</time>
      </trkpt>
      <trkpt lat="48.46399" lon="-2.90615">
        <ele>195</ele>
        <time>2017-01-05T14:12:41.000Z</time>
      </trkpt>
      <trkpt lat="48.46402" lon="-2.90616">
        <ele>195</ele>
        <time>2017-01-05T14:12:42.000Z</time>
      </trkpt>
      <trkpt lat="48.46405" lon="-2.90617">
        <ele>195</ele>
        <time>2017-01-05T14:12:43.000Z</time>
      </trkpt>
      <trkpt lat="48.46409" lon="-2.90618">
        <ele>195</ele>
        <time>2017-01-05T14:12:44.000Z</time>
      </trkpt>
      <trkpt lat="48.46412" lon="-2.9062">
        <ele>195</ele>
        <time>2017-01-05T14:12:45.000Z</time>
      </trkpt>
      <trkpt lat="48.46415" lon="-2.90621">
        <ele>195</ele>
        <time>2017-01-05T14:12:46.000Z</time>
      </trkpt>
      <trkpt lat="48.46418" lon="-2.90622">
        <ele>198</ele>
        <time>2017-01-05T14:12:47.000Z</time>
      </trkpt>
      <trkpt lat="48.46421" lon="-2.90623">
        <ele>198</ele>
        <time>2017-01-05T14:12:48.000Z</time>
      </trkpt>
      <trkpt lat="48.46423" lon="-2.90625">
        <ele>198</ele>
        <time>2017-01-05T14:12:49.000Z</time>
      </trkpt>
      <trkpt lat="48.46426" lon="-2.90627">
        <ele>199</ele>
        <time>2017-01-05T14:12:50.000Z</time>
      </trkpt>
      <trkpt lat="48.4643" lon="-2.90629">
        <ele>199</ele>
        <time>2017-01-05T14:12:51.000Z</time>
      </trkpt>
      <trkpt lat="48.46433" lon="-2.9063">
        <ele>199</ele>
        <time>2017-01-05T14:12:52.000Z</time>
      </trkpt>
      <trkpt lat="48.46436" lon="-2.90631">
        <ele>199</ele>
        <time>2017-01-05T14:12:53.000Z</time>
      </trkpt>
      <trkpt lat="48.46439" lon="-2.90632">
        <ele>199</ele>
        <time>2017-01-05T14:12:54.000Z</time>
      </trkpt>
      <trkpt lat="48.46442" lon="-2.90633">
        <ele>199</ele>
        <time>2017-01-05T14:12:55.000Z</time>
      </trkpt>
      <trkpt lat="48.46444" lon="-2.90634">
        <ele>199</ele>
        <time>2017-01-05T14:12:56.000Z</time>
      </trkpt>
      <trkpt lat="48.46447" lon="-2.90635">
        <ele>199</ele>
        <time>2017-01-05T14:12:57.000Z</time>
      </trkpt>
      <trkpt lat="48.46449" lon="-2.90637">
        <ele>199</ele>
        <time>2017-01-05T14:12:58.000Z</time>
      </trkpt>
      <trkpt lat="48.46452" lon="-2.90638">
        <ele>199</ele>
        <time>2017-01-05T14:12:59.000Z</time>
      </trkpt>
      <trkpt lat="48.46454" lon="-2.90639">
        <ele>199</ele>
        <time>2017-01-05T14:13:00.000Z</time>
      </trkpt>
      <trkpt lat="48.46456" lon="-2.90639">
        <ele>200</ele>
        <time>2017-01-05T14:13:01.000Z</time>
      </trkpt>
      <trkpt lat="48.46459" lon="-2.9064">
        <ele>200</ele>
        <time>2017-01-05T14:13:02.000Z</time>
      </trkpt>
      <trkpt lat="48.46461" lon="-2.9064">
        <ele>200</ele>
        <time>2017-01-05T14:13:03.000Z</time>
      </trkpt>
      <trkpt lat="48.46464" lon="-2.90641">
        <ele>200</ele>
        <time>2017-01-05T14:13:04.000Z</time>
      </trkpt>
      <trkpt lat="48.46466" lon="-2.90642">
        <ele>200</ele>
        <time>2017-01-05T14:13:05.000Z</time>
      </trkpt>
      <trkpt lat="48.46468" lon="-2.90643">
        <ele>200</ele>
        <time>2017-01-05T14:13:06.000Z</time>
      </trkpt>
      <trkpt lat="48.46471" lon="-2.90644">
        <ele>200</ele>
        <time>2017-01-05T14:13:07.000Z</time>
      </trkpt>
      <trkpt lat="48.46473" lon="-2.90645">
        <ele>200</ele>
        <time>2017-01-05T14:13:08.000Z</time>
      </trkpt>
      <trkpt lat="48.46476" lon="-2.90647">
        <ele>200</ele>
        <time>2017-01-05T14:13:09.000Z</time>
      </trkpt>
      <trkpt lat="48.46478" lon="-2.90648">
        <ele>201</ele>
        <time>2017-01-05T14:13:10.000Z</time>
      </trkpt>
      <trkpt lat="48.4648" lon="-2.90649">
        <ele>201</ele>
        <time>2017-01-05T14:13:11.000Z</time>
      </trkpt>
      <trkpt lat="48.46482" lon="-2.9065">
        <ele>201</ele>
        <time>2017-01-05T14:13:12.000Z</time>
      </trkpt>
      <trkpt lat="48.46485" lon="-2.90651">
        <ele>201</ele>
        <time>2017-01-05T14:13:13.000Z</time>
      </trkpt>
      <trkpt lat="48.46486" lon="-2.90652">
        <ele>201</ele>
        <time>2017-01-05T14:13:14.000Z</time>
      </trkpt>
      <trkpt lat="48.4649" lon="-2.90653">
        <ele>201</ele>
        <time>2017-01-05T14:13:16.000Z</time>
      </trkpt>
      <trkpt lat="48.46492" lon="-2.90655">
        <ele>201</ele>
        <time>2017-01-05T14:13:17.000Z</time>
      </trkpt>
      <trkpt lat="48.46494" lon="-2.90656">
        <ele>202</ele>
        <time>2017-01-05T14:13:18.000Z</time>
      </trkpt>
      <trkpt lat="48.46496" lon="-2.90658">
        <ele>202</ele>
        <time>2017-01-05T14:13:19.000Z</time>
      </trkpt>
      <trkpt lat="48.46499" lon="-2.90661">
        <ele>202</ele>
        <time>2017-01-05T14:13:20.000Z</time>
      </trkpt>
      <trkpt lat="48.46501" lon="-2.90662">
        <ele>203</ele>
        <time>2017-01-05T14:13:21.000Z</time>
      </trkpt>
      <trkpt lat="48.46504" lon="-2.90664">
        <ele>203</ele>
        <time>2017-01-05T14:13:22.000Z</time>
      </trkpt>
      <trkpt lat="48.46506" lon="-2.90666">
        <ele>203</ele>
        <time>2017-01-05T14:13:23.000Z</time>
      </trkpt>
      <trkpt lat="48.46509" lon="-2.90667">
        <ele>204</ele>
        <time>2017-01-05T14:13:24.000Z</time>
      </trkpt>
      <trkpt lat="48.46511" lon="-2.90668">
        <ele>204</ele>
        <time>2017-01-05T14:13:25.000Z</time>
      </trkpt>
      <trkpt lat="48.46513" lon="-2.90669">
        <ele>204</ele>
        <time>2017-01-05T14:13:26.000Z</time>
      </trkpt>
      <trkpt lat="48.46516" lon="-2.9067">
        <ele>204</ele>
        <time>2017-01-05T14:13:27.000Z</time>
      </trkpt>
      <trkpt lat="48.46518" lon="-2.90671">
        <ele>204</ele>
        <time>2017-01-05T14:13:28.000Z</time>
      </trkpt>
      <trkpt lat="48.4652" lon="-2.90672">
        <ele>204</ele>
        <time>2017-01-05T14:13:29.000Z</time>
      </trkpt>
      <trkpt lat="48.46522" lon="-2.90673">
        <ele>204</ele>
        <time>2017-01-05T14:13:30.000Z</time>
      </trkpt>
      <trkpt lat="48.46524" lon="-2.90675">
        <ele>204</ele>
        <time>2017-01-05T14:13:31.000Z</time>
      </trkpt>
      <trkpt lat="48.46526" lon="-2.90676">
        <ele>204</ele>
        <time>2017-01-05T14:13:32.000Z</time>
      </trkpt>
      <trkpt lat="48.46528" lon="-2.90677">
        <ele>204</ele>
        <time>2017-01-05T14:13:33.000Z</time>
      </trkpt>
      <trkpt lat="48.4653" lon="-2.90679">
        <ele>205</ele>
        <time>2017-01-05T14:13:34.000Z</time>
      </trkpt>
      <trkpt lat="48.46532" lon="-2.9068">
        <ele>205</ele>
        <time>2017-01-05T14:13:35.000Z</time>
      </trkpt>
      <trkpt lat="48.46534" lon="-2.90682">
        <ele>205</ele>
        <time>2017-01-05T14:13:36.000Z</time>
      </trkpt>
      <trkpt lat="48.46536" lon="-2.90684">
        <ele>205</ele>
        <time>2017-01-05T14:13:37.000Z</time>
      </trkpt>
      <trkpt lat="48.46539" lon="-2.90685">
        <ele>205</ele>
        <time>2017-01-05T14:13:38.000Z</time>
      </trkpt>
      <trkpt lat="48.46541" lon="-2.90687">
        <ele>205</ele>
        <time>2017-01-05T14:13:39.000Z</time>
      </trkpt>
      <trkpt lat="48.46543" lon="-2.90689">
        <ele>205</ele>
        <time>2017-01-05T14:13:40.000Z</time>
      </trkpt>
      <trkpt lat="48.46545" lon="-2.9069">
        <ele>205</ele>
        <time>2017-01-05T14:13:41.000Z</time>
      </trkpt>
      <trkpt lat="48.46547" lon="-2.90692">
        <ele>205</ele>
        <time>2017-01-05T14:13:42.000Z</time>
      </trkpt>
      <trkpt lat="48.4655" lon="-2.90694">
        <ele>205</ele>
        <time>2017-01-05T14:13:43.000Z</time>
      </trkpt>
      <trkpt lat="48.46552" lon="-2.90696">
        <ele>205</ele>
        <time>2017-01-05T14:13:44.000Z</time>
      </trkpt>
      <trkpt lat="48.46554" lon="-2.90698">
        <ele>205</ele>
        <time>2017-01-05T14:13:45.000Z</time>
      </trkpt>
      <trkpt lat="48.46556" lon="-2.907">
        <ele>205</ele>
        <time>2017-01-05T14:13:46.000Z</time>
      </trkpt>
      <trkpt lat="48.46558" lon="-2.90702">
        <ele>205</ele>
        <time>2017-01-05T14:13:47.000Z</time>
      </trkpt>
      <trkpt lat="48.4656" lon="-2.90704">
        <ele>205</ele>
        <time>2017-01-05T14:13:48.000Z</time>
      </trkpt>
      <trkpt lat="48.46563" lon="-2.90706">
        <ele>205</ele>
        <time>2017-01-05T14:13:49.000Z</time>
      </trkpt>
      <trkpt lat="48.46565" lon="-2.90708">
        <ele>206</ele>
        <time>2017-01-05T14:13:50.000Z</time>
      </trkpt>
      <trkpt lat="48.46567" lon="-2.9071">
        <ele>206</ele>
        <time>2017-01-05T14:13:51.000Z</time>
      </trkpt>
      <trkpt lat="48.46569" lon="-2.90711">
        <ele>206</ele>
        <time>2017-01-05T14:13:52.000Z</time>
      </trkpt>
      <trkpt lat="48.46572" lon="-2.90713">
        <ele>206</ele>
        <time>2017-01-05T14:13:53.000Z</time>
      </trkpt>
      <trkpt lat="48.46574" lon="-2.90715">
        <ele>206</ele>
        <time>2017-01-05T14:13:54.000Z</time>
      </trkpt>
      <trkpt lat="48.46576" lon="-2.90716">
        <ele>206</ele>
        <time>2017-01-05T14:13:55.000Z</time>
      </trkpt>
      <trkpt lat="48.46578" lon="-2.90718">
        <ele>206</ele>
        <time>2017-01-05T14:13:56.000Z</time>
      </trkpt>
      <trkpt lat="48.4658" lon="-2.9072">
        <ele>206</ele>
        <time>2017-01-05T14:13:57.000Z</time>
      </trkpt>
      <trkpt lat="48.46582" lon="-2.90722">
        <ele>206</ele>
        <time>2017-01-05T14:13:58.000Z</time>
      </trkpt>
      <trkpt lat="48.46584" lon="-2.90724">
        <ele>208</ele>
        <time>2017-01-05T14:13:59.000Z</time>
      </trkpt>
      <trkpt lat="48.46586" lon="-2.90725">
        <ele>208</ele>
        <time>2017-01-05T14:14:00.000Z</time>
      </trkpt>
      <trkpt lat="48.46588" lon="-2.90726">
        <ele>208</ele>
        <time>2017-01-05T14:14:01.000Z</time>
      </trkpt>
      <trkpt lat="48.4659" lon="-2.90728">
        <ele>208</ele>
        <time>2017-01-05T14:14:02.000Z</time>
      </trkpt>
      <trkpt lat="48.46592" lon="-2.90729">
        <ele>208</ele>
        <time>2017-01-05T14:14:03.000Z</time>
      </trkpt>
      <trkpt lat="48.46594" lon="-2.9073">
        <ele>208</ele>
        <time>2017-01-05T14:14:04.000Z</time>
      </trkpt>
      <trkpt lat="48.46597" lon="-2.90732">
        <ele>208</ele>
        <time>2017-01-05T14:14:05.000Z</time>
      </trkpt>
      <trkpt lat="48.46599" lon="-2.90733">
        <ele>208</ele>
        <time>2017-01-05T14:14:06.000Z</time>
      </trkpt>
      <trkpt lat="48.46601" lon="-2.90735">
        <ele>208</ele>
        <time>2017-01-05T14:14:07.000Z</time>
      </trkpt>
      <trkpt lat="48.46603" lon="-2.90736">
        <ele>208</ele>
        <time>2017-01-05T14:14:08.000Z</time>
      </trkpt>
      <trkpt lat="48.46605" lon="-2.90736">
        <ele>208</ele>
        <time>2017-01-05T14:14:09.000Z</time>
      </trkpt>
      <trkpt lat="48.46607" lon="-2.90736">
        <ele>208</ele>
        <time>2017-01-05T14:14:10.000Z</time>
      </trkpt>
      <trkpt lat="48.4661" lon="-2.90735">
        <ele>208</ele>
        <time>2017-01-05T14:14:12.000Z</time>
      </trkpt>
      <trkpt lat="48.46612" lon="-2.90734">
        <ele>208</ele>
        <time>2017-01-05T14:14:13.000Z</time>
      </trkpt>
      <trkpt lat="48.46614" lon="-2.90733">
        <ele>208</ele>
        <time>2017-01-05T14:14:14.000Z</time>
      </trkpt>
      <trkpt lat="48.46616" lon="-2.90734">
        <ele>208</ele>
        <time>2017-01-05T14:14:15.000Z</time>
      </trkpt>
      <trkpt lat="48.46619" lon="-2.90735">
        <ele>208</ele>
        <time>2017-01-05T14:14:16.000Z</time>
      </trkpt>
      <trkpt lat="48.46621" lon="-2.90738">
        <ele>208</ele>
        <time>2017-01-05T14:14:17.000Z</time>
      </trkpt>
      <trkpt lat="48.46623" lon="-2.90741">
        <ele>208</ele>
        <time>2017-01-05T14:14:18.000Z</time>
      </trkpt>
      <trkpt lat="48.46625" lon="-2.90743">
        <ele>209</ele>
        <time>2017-01-05T14:14:19.000Z</time>
      </trkpt>
      <trkpt lat="48.46627" lon="-2.90746">
        <ele>209</ele>
        <time>2017-01-05T14:14:20.000Z</time>
      </trkpt>
      <trkpt lat="48.4663" lon="-2.90748">
        <ele>209</ele>
        <time>2017-01-05T14:14:21.000Z</time>
      </trkpt>
      <trkpt lat="48.46632" lon="-2.90751">
        <ele>209</ele>
        <time>2017-01-05T14:14:22.000Z</time>
      </trkpt>
      <trkpt lat="48.46634" lon="-2.90754">
        <ele>209</ele>
        <time>2017-01-05T14:14:23.000Z</time>
      </trkpt>
      <trkpt lat="48.46636" lon="-2.90756">
        <ele>210</ele>
        <time>2017-01-05T14:14:24.000Z</time>
      </trkpt>
      <trkpt lat="48.46638" lon="-2.90758">
        <ele>210</ele>
        <time>2017-01-05T14:14:25.000Z</time>
      </trkpt>
      <trkpt lat="48.46641" lon="-2.9076">
        <ele>210</ele>
        <time>2017-01-05T14:14:26.000Z</time>
      </trkpt>
      <trkpt lat="48.46643" lon="-2.90763">
        <ele>210</ele>
        <time>2017-01-05T14:14:27.000Z</time>
      </trkpt>
      <trkpt lat="48.46645" lon="-2.90765">
        <ele>210</ele>
        <time>2017-01-05T14:14:28.000Z</time>
      </trkpt>
      <trkpt lat="48.46648" lon="-2.90767">
        <ele>210</ele>
        <time>2017-01-05T14:14:29.000Z</time>
      </trkpt>
      <trkpt lat="48.46651" lon="-2.90769">
        <ele>210</ele>
        <time>2017-01-05T14:14:30.000Z</time>
      </trkpt>
      <trkpt lat="48.46653" lon="-2.90771">
        <ele>210</ele>
        <time>2017-01-05T14:14:31.000Z</time>
      </trkpt>
      <trkpt lat="48.46656" lon="-2.90773">
        <ele>210</ele>
        <time>2017-01-05T14:14:32.000Z</time>
      </trkpt>
      <trkpt lat="48.46659" lon="-2.90774">
        <ele>210</ele>
        <time>2017-01-05T14:14:33.000Z</time>
      </trkpt>
      <trkpt lat="48.46662" lon="-2.90776">
        <ele>210</ele>
        <time>2017-01-05T14:14:34.000Z</time>
      </trkpt>
      <trkpt lat="48.46665" lon="-2.90777">
        <ele>210</ele>
        <time>2017-01-05T14:14:35.000Z</time>
      </trkpt>
      <trkpt lat="48.46668" lon="-2.90779">
        <ele>211</ele>
        <time>2017-01-05T14:14:36.000Z</time>
      </trkpt>
      <trkpt lat="48.46671" lon="-2.9078">
        <ele>211</ele>
        <time>2017-01-05T14:14:37.000Z</time>
      </trkpt>
      <trkpt lat="48.46674" lon="-2.90782">
        <ele>211</ele>
        <time>2017-01-05T14:14:38.000Z</time>
      </trkpt>
      <trkpt lat="48.46678" lon="-2.90783">
        <ele>211</ele>
        <time>2017-01-05T14:14:39.000Z</time>
      </trkpt>
      <trkpt lat="48.46681" lon="-2.90784">
        <ele>211</ele>
        <time>2017-01-05T14:14:40.000Z</time>
      </trkpt>
      <trkpt lat="48.46684" lon="-2.90785">
        <ele>211</ele>
        <time>2017-01-05T14:14:41.000Z</time>
      </trkpt>
      <trkpt lat="48.46687" lon="-2.90786">
        <ele>211</ele>
        <time>2017-01-05T14:14:42.000Z</time>
      </trkpt>
      <trkpt lat="48.46691" lon="-2.90788">
        <ele>211</ele>
        <time>2017-01-05T14:14:43.000Z</time>
      </trkpt>
      <trkpt lat="48.46694" lon="-2.90789">
        <ele>211</ele>
        <time>2017-01-05T14:14:44.000Z</time>
      </trkpt>
      <trkpt lat="48.46697" lon="-2.9079">
        <ele>211</ele>
        <time>2017-01-05T14:14:45.000Z</time>
      </trkpt>
      <trkpt lat="48.467" lon="-2.90791">
        <ele>211</ele>
        <time>2017-01-05T14:14:46.000Z</time>
      </trkpt>
      <trkpt lat="48.46704" lon="-2.90792">
        <ele>211</ele>
        <time>2017-01-05T14:14:47.000Z</time>
      </trkpt>
      <trkpt lat="48.46707" lon="-2.90794">
        <ele>211</ele>
        <time>2017-01-05T14:14:48.000Z</time>
      </trkpt>
      <trkpt lat="48.4671" lon="-2.90795">
        <ele>211</ele>
        <time>2017-01-05T14:14:49.000Z</time>
      </trkpt>
      <trkpt lat="48.46714" lon="-2.90797">
        <ele>211</ele>
        <time>2017-01-05T14:14:50.000Z</time>
      </trkpt>
      <trkpt lat="48.46717" lon="-2.90798">
        <ele>211</ele>
        <time>2017-01-05T14:14:51.000Z</time>
      </trkpt>
      <trkpt lat="48.4672" lon="-2.90799">
        <ele>211</ele>
        <time>2017-01-05T14:14:52.000Z</time>
      </trkpt>
      <trkpt lat="48.46723" lon="-2.908">
        <ele>211</ele>
        <time>2017-01-05T14:14:53.000Z</time>
      </trkpt>
      <trkpt lat="48.46727" lon="-2.90801">
        <ele>211</ele>
        <time>2017-01-05T14:14:54.000Z</time>
      </trkpt>
      <trkpt lat="48.4673" lon="-2.90802">
        <ele>211</ele>
        <time>2017-01-05T14:14:55.000Z</time>
      </trkpt>
      <trkpt lat="48.46734" lon="-2.90803">
        <ele>211</ele>
        <time>2017-01-05T14:14:56.000Z</time>
      </trkpt>
      <trkpt lat="48.46737" lon="-2.90804">
        <ele>211</ele>
        <time>2017-01-05T14:14:57.000Z</time>
      </trkpt>
      <trkpt lat="48.46741" lon="-2.90806">
        <ele>211</ele>
        <time>2017-01-05T14:14:58.000Z</time>
      </trkpt>
      <trkpt lat="48.46744" lon="-2.90807">
        <ele>211</ele>
        <time>2017-01-05T14:14:59.000Z</time>
      </trkpt>
      <trkpt lat="48.46748" lon="-2.90808">
        <ele>211</ele>
        <time>2017-01-05T14:15:00.000Z</time>
      </trkpt>
      <trkpt lat="48.46752" lon="-2.90809">
        <ele>212</ele>
        <time>2017-01-05T14:15:01.000Z</time>
      </trkpt>
      <trkpt lat="48.46755" lon="-2.90811">
        <ele>212</ele>
        <time>2017-01-05T14:15:02.000Z</time>
      </trkpt>
      <trkpt lat="48.46759" lon="-2.90812">
        <ele>212</ele>
        <time>2017-01-05T14:15:03.000Z</time>
      </trkpt>
      <trkpt lat="48.46762" lon="-2.90814">
        <ele>212</ele>
        <time>2017-01-05T14:15:04.000Z</time>
      </trkpt>
      <trkpt lat="48.46766" lon="-2.90815">
        <ele>212</ele>
        <time>2017-01-05T14:15:05.000Z</time>
      </trkpt>
      <trkpt lat="48.46769" lon="-2.90816">
        <ele>212</ele>
        <time>2017-01-05T14:15:06.000Z</time>
      </trkpt>
      <trkpt lat="48.46773" lon="-2.90817">
        <ele>212</ele>
        <time>2017-01-05T14:15:07.000Z</time>
      </trkpt>
      <trkpt lat="48.46776" lon="-2.90819">
        <ele>212</ele>
        <time>2017-01-05T14:15:08.000Z</time>
      </trkpt>
      <trkpt lat="48.46779" lon="-2.9082">
        <ele>212</ele>
        <time>2017-01-05T14:15:09.000Z</time>
      </trkpt>
      <trkpt lat="48.46783" lon="-2.90821">
        <ele>212</ele>
        <time>2017-01-05T14:15:10.000Z</time>
      </trkpt>
      <trkpt lat="48.46786" lon="-2.90823">
        <ele>212</ele>
        <time>2017-01-05T14:15:11.000Z</time>
      </trkpt>
      <trkpt lat="48.4679" lon="-2.90824">
        <ele>213</ele>
        <time>2017-01-05T14:15:12.000Z</time>
      </trkpt>
      <trkpt lat="48.46793" lon="-2.90826">
        <ele>213</ele>
        <time>2017-01-05T14:15:13.000Z</time>
      </trkpt>
      <trkpt lat="48.46797" lon="-2.90827">
        <ele>213</ele>
        <time>2017-01-05T14:15:14.000Z</time>
      </trkpt>
      <trkpt lat="48.46801" lon="-2.90828">
        <ele>213</ele>
        <time>2017-01-05T14:15:15.000Z</time>
      </trkpt>
      <trkpt lat="48.46804" lon="-2.9083">
        <ele>213</ele>
        <time>2017-01-05T14:15:16.000Z</time>
      </trkpt>
      <trkpt lat="48.46808" lon="-2.90831">
        <ele>213</ele>
        <time>2017-01-05T14:15:17.000Z</time>
      </trkpt>
      <trkpt lat="48.46812" lon="-2.90832">
        <ele>213</ele>
        <time>2017-01-05T14:15:18.000Z</time>
      </trkpt>
      <trkpt lat="48.46815" lon="-2.90833">
        <ele>214</ele>
        <time>2017-01-05T14:15:19.000Z</time>
      </trkpt>
      <trkpt lat="48.46819" lon="-2.90835">
        <ele>214</ele>
        <time>2017-01-05T14:15:20.000Z</time>
      </trkpt>
      <trkpt lat="48.46822" lon="-2.90836">
        <ele>214</ele>
        <time>2017-01-05T14:15:21.000Z</time>
      </trkpt>
      <trkpt lat="48.46826" lon="-2.90837">
        <ele>214</ele>
        <time>2017-01-05T14:15:22.000Z</time>
      </trkpt>
      <trkpt lat="48.4683" lon="-2.90839">
        <ele>215</ele>
        <time>2017-01-05T14:15:23.000Z</time>
      </trkpt>
      <trkpt lat="48.46834" lon="-2.9084">
        <ele>215</ele>
        <time>2017-01-05T14:15:24.000Z</time>
      </trkpt>
      <trkpt lat="48.46838" lon="-2.90841">
        <ele>215</ele>
        <time>2017-01-05T14:15:25.000Z</time>
      </trkpt>
      <trkpt lat="48.46842" lon="-2.90843">
        <ele>214</ele>
        <time>2017-01-05T14:15:26.000Z</time>
      </trkpt>
      <trkpt lat="48.46847" lon="-2.90844">
        <ele>214</ele>
        <time>2017-01-05T14:15:27.000Z</time>
      </trkpt>
      <trkpt lat="48.46851" lon="-2.90845">
        <ele>214</ele>
        <time>2017-01-05T14:15:28.000Z</time>
      </trkpt>
      <trkpt lat="48.46856" lon="-2.90846">
        <ele>214</ele>
        <time>2017-01-05T14:15:29.000Z</time>
      </trkpt>
      <trkpt lat="48.46861" lon="-2.90847">
        <ele>214</ele>
        <time>2017-01-05T14:15:30.000Z</time>
      </trkpt>
      <trkpt lat="48.46865" lon="-2.90848">
        <ele>214</ele>
        <time>2017-01-05T14:15:31.000Z</time>
      </trkpt>
      <trkpt lat="48.4687" lon="-2.9085">
        <ele>214</ele>
        <time>2017-01-05T14:15:32.000Z</time>
      </trkpt>
      <trkpt lat="48.46875" lon="-2.9085">
        <ele>214</ele>
        <time>2017-01-05T14:15:33.000Z</time>
      </trkpt>
      <trkpt lat="48.46879" lon="-2.90851">
        <ele>214</ele>
        <time>2017-01-05T14:15:34.000Z</time>
      </trkpt>
      <trkpt lat="48.46884" lon="-2.90852">
        <ele>213</ele>
        <time>2017-01-05T14:15:35.000Z</time>
      </trkpt>
      <trkpt lat="48.46889" lon="-2.90853">
        <ele>213</ele>
        <time>2017-01-05T14:15:36.000Z</time>
      </trkpt>
      <trkpt lat="48.46894" lon="-2.90854">
        <ele>213</ele>
        <time>2017-01-05T14:15:37.000Z</time>
      </trkpt>
      <trkpt lat="48.46899" lon="-2.90854">
        <ele>213</ele>
        <time>2017-01-05T14:15:38.000Z</time>
      </trkpt>
      <trkpt lat="48.46904" lon="-2.90855">
        <ele>213</ele>
        <time>2017-01-05T14:15:39.000Z</time>
      </trkpt>
      <trkpt lat="48.46908" lon="-2.90856">
        <ele>213</ele>
        <time>2017-01-05T14:15:40.000Z</time>
      </trkpt>
      <trkpt lat="48.46913" lon="-2.90858">
        <ele>213</ele>
        <time>2017-01-05T14:15:41.000Z</time>
      </trkpt>
      <trkpt lat="48.46918" lon="-2.90859">
        <ele>212</ele>
        <time>2017-01-05T14:15:42.000Z</time>
      </trkpt>
      <trkpt lat="48.46923" lon="-2.90861">
        <ele>212</ele>
        <time>2017-01-05T14:15:43.000Z</time>
      </trkpt>
      <trkpt lat="48.46927" lon="-2.90863">
        <ele>212</ele>
        <time>2017-01-05T14:15:44.000Z</time>
      </trkpt>
      <trkpt lat="48.46932" lon="-2.90865">
        <ele>212</ele>
        <time>2017-01-05T14:15:45.000Z</time>
      </trkpt>
      <trkpt lat="48.46936" lon="-2.90867">
        <ele>212</ele>
        <time>2017-01-05T14:15:46.000Z</time>
      </trkpt>
      <trkpt lat="48.46941" lon="-2.90869">
        <ele>212</ele>
        <time>2017-01-05T14:15:47.000Z</time>
      </trkpt>
      <trkpt lat="48.46946" lon="-2.90872">
        <ele>212</ele>
        <time>2017-01-05T14:15:48.000Z</time>
      </trkpt>
      <trkpt lat="48.4695" lon="-2.90874">
        <ele>212</ele>
        <time>2017-01-05T14:15:49.000Z</time>
      </trkpt>
      <trkpt lat="48.46955" lon="-2.90877">
        <ele>212</ele>
        <time>2017-01-05T14:15:50.000Z</time>
      </trkpt>
      <trkpt lat="48.46959" lon="-2.90879">
        <ele>211</ele>
        <time>2017-01-05T14:15:51.000Z</time>
      </trkpt>
      <trkpt lat="48.46964" lon="-2.90882">
        <ele>211</ele>
        <time>2017-01-05T14:15:52.000Z</time>
      </trkpt>
      <trkpt lat="48.46968" lon="-2.90885">
        <ele>211</ele>
        <time>2017-01-05T14:15:53.000Z</time>
      </trkpt>
      <trkpt lat="48.46973" lon="-2.90887">
        <ele>211</ele>
        <time>2017-01-05T14:15:54.000Z</time>
      </trkpt>
      <trkpt lat="48.46978" lon="-2.90889">
        <ele>211</ele>
        <time>2017-01-05T14:15:55.000Z</time>
      </trkpt>
      <trkpt lat="48.46982" lon="-2.90891">
        <ele>211</ele>
        <time>2017-01-05T14:15:56.000Z</time>
      </trkpt>
      <trkpt lat="48.46987" lon="-2.90893">
        <ele>211</ele>
        <time>2017-01-05T14:15:57.000Z</time>
      </trkpt>
      <trkpt lat="48.46991" lon="-2.90896">
        <ele>211</ele>
        <time>2017-01-05T14:15:58.000Z</time>
      </trkpt>
      <trkpt lat="48.46996" lon="-2.90898">
        <ele>211</ele>
        <time>2017-01-05T14:15:59.000Z</time>
      </trkpt>
      <trkpt lat="48.46999" lon="-2.90899">
        <ele>211</ele>
        <time>2017-01-05T14:16:00.000Z</time>
      </trkpt>
      <trkpt lat="48.47003" lon="-2.90901">
        <ele>211</ele>
        <time>2017-01-05T14:16:01.000Z</time>
      </trkpt>
      <trkpt lat="48.47007" lon="-2.90902">
        <ele>211</ele>
        <time>2017-01-05T14:16:02.000Z</time>
      </trkpt>
      <trkpt lat="48.47011" lon="-2.90903">
        <ele>211</ele>
        <time>2017-01-05T14:16:03.000Z</time>
      </trkpt>
      <trkpt lat="48.47015" lon="-2.90904">
        <ele>211</ele>
        <time>2017-01-05T14:16:04.000Z</time>
      </trkpt>
      <trkpt lat="48.47019" lon="-2.90905">
        <ele>211</ele>
        <time>2017-01-05T14:16:05.000Z</time>
      </trkpt>
      <trkpt lat="48.47023" lon="-2.90905">
        <ele>210</ele>
        <time>2017-01-05T14:16:06.000Z</time>
      </trkpt>
      <trkpt lat="48.47028" lon="-2.90906">
        <ele>210</ele>
        <time>2017-01-05T14:16:07.000Z</time>
      </trkpt>
      <trkpt lat="48.47033" lon="-2.90906">
        <ele>210</ele>
        <time>2017-01-05T14:16:08.000Z</time>
      </trkpt>
      <trkpt lat="48.47038" lon="-2.90905">
        <ele>210</ele>
        <time>2017-01-05T14:16:09.000Z</time>
      </trkpt>
      <trkpt lat="48.47043" lon="-2.90904">
        <ele>210</ele>
        <time>2017-01-05T14:16:10.000Z</time>
      </trkpt>
      <trkpt lat="48.47048" lon="-2.90902">
        <ele>210</ele>
        <time>2017-01-05T14:16:11.000Z</time>
      </trkpt>
      <trkpt lat="48.47054" lon="-2.90901">
        <ele>210</ele>
        <time>2017-01-05T14:16:12.000Z</time>
      </trkpt>
      <trkpt lat="48.47059" lon="-2.90899">
        <ele>210</ele>
        <time>2017-01-05T14:16:13.000Z</time>
      </trkpt>
      <trkpt lat="48.47065" lon="-2.90898">
        <ele>210</ele>
        <time>2017-01-05T14:16:14.000Z</time>
      </trkpt>
      <trkpt lat="48.4707" lon="-2.90896">
        <ele>210</ele>
        <time>2017-01-05T14:16:15.000Z</time>
      </trkpt>
      <trkpt lat="48.47076" lon="-2.90894">
        <ele>210</ele>
        <time>2017-01-05T14:16:16.000Z</time>
      </trkpt>
      <trkpt lat="48.47082" lon="-2.90893">
        <ele>210</ele>
        <time>2017-01-05T14:16:17.000Z</time>
      </trkpt>
      <trkpt lat="48.47088" lon="-2.90893">
        <ele>209</ele>
        <time>2017-01-05T14:16:18.000Z</time>
      </trkpt>
      <trkpt lat="48.47093" lon="-2.90892">
        <ele>209</ele>
        <time>2017-01-05T14:16:19.000Z</time>
      </trkpt>
      <trkpt lat="48.47099" lon="-2.90892">
        <ele>209</ele>
        <time>2017-01-05T14:16:20.000Z</time>
      </trkpt>
      <trkpt lat="48.47105" lon="-2.90892">
        <ele>209</ele>
        <time>2017-01-05T14:16:21.000Z</time>
      </trkpt>
      <trkpt lat="48.47111" lon="-2.90893">
        <ele>209</ele>
        <time>2017-01-05T14:16:22.000Z</time>
      </trkpt>
      <trkpt lat="48.47116" lon="-2.90894">
        <ele>209</ele>
        <time>2017-01-05T14:16:23.000Z</time>
      </trkpt>
      <trkpt lat="48.47122" lon="-2.90895">
        <ele>209</ele>
        <time>2017-01-05T14:16:24.000Z</time>
      </trkpt>
      <trkpt lat="48.47128" lon="-2.90895">
        <ele>209</ele>
        <time>2017-01-05T14:16:25.000Z</time>
      </trkpt>
      <trkpt lat="48.47134" lon="-2.90896">
        <ele>209</ele>
        <time>2017-01-05T14:16:26.000Z</time>
      </trkpt>
      <trkpt lat="48.4714" lon="-2.90897">
        <ele>209</ele>
        <time>2017-01-05T14:16:27.000Z</time>
      </trkpt>
      <trkpt lat="48.47146" lon="-2.90897">
        <ele>208</ele>
        <time>2017-01-05T14:16:28.000Z</time>
      </trkpt>
      <trkpt lat="48.47152" lon="-2.90898">
        <ele>208</ele>
        <time>2017-01-05T14:16:29.000Z</time>
      </trkpt>
      <trkpt lat="48.47157" lon="-2.90899">
        <ele>208</ele>
        <time>2017-01-05T14:16:30.000Z</time>
      </trkpt>
      <trkpt lat="48.47163" lon="-2.90899">
        <ele>208</ele>
        <time>2017-01-05T14:16:31.000Z</time>
      </trkpt>
      <trkpt lat="48.47169" lon="-2.90899">
        <ele>208</ele>
        <time>2017-01-05T14:16:32.000Z</time>
      </trkpt>
      <trkpt lat="48.47174" lon="-2.90897">
        <ele>208</ele>
        <time>2017-01-05T14:16:33.000Z</time>
      </trkpt>
      <trkpt lat="48.4718" lon="-2.90893">
        <ele>208</ele>
        <time>2017-01-05T14:16:34.000Z</time>
      </trkpt>
      <trkpt lat="48.47184" lon="-2.90888">
        <ele>208</ele>
        <time>2017-01-05T14:16:35.000Z</time>
      </trkpt>
      <trkpt lat="48.47189" lon="-2.90882">
        <ele>208</ele>
        <time>2017-01-05T14:16:36.000Z</time>
      </trkpt>
      <trkpt lat="48.47193" lon="-2.90876">
        <ele>208</ele>
        <time>2017-01-05T14:16:37.000Z</time>
      </trkpt>
      <trkpt lat="48.47197" lon="-2.9087">
        <ele>208</ele>
        <time>2017-01-05T14:16:38.000Z</time>
      </trkpt>
      <trkpt lat="48.47201" lon="-2.90863">
        <ele>208</ele>
        <time>2017-01-05T14:16:39.000Z</time>
      </trkpt>
      <trkpt lat="48.47205" lon="-2.90856">
        <ele>208</ele>
        <time>2017-01-05T14:16:40.000Z</time>
      </trkpt>
      <trkpt lat="48.47209" lon="-2.90849">
        <ele>208</ele>
        <time>2017-01-05T14:16:41.000Z</time>
      </trkpt>
      <trkpt lat="48.47213" lon="-2.90842">
        <ele>208</ele>
        <time>2017-01-05T14:16:42.000Z</time>
      </trkpt>
      <trkpt lat="48.47217" lon="-2.90835">
        <ele>208</ele>
        <time>2017-01-05T14:16:43.000Z</time>
      </trkpt>
      <trkpt lat="48.47221" lon="-2.90828">
        <ele>207</ele>
        <time>2017-01-05T14:16:44.000Z</time>
      </trkpt>
      <trkpt lat="48.47225" lon="-2.90821">
        <ele>207</ele>
        <time>2017-01-05T14:16:45.000Z</time>
      </trkpt>
      <trkpt lat="48.47229" lon="-2.90813">
        <ele>207</ele>
        <time>2017-01-05T14:16:46.000Z</time>
      </trkpt>
      <trkpt lat="48.47233" lon="-2.90806">
        <ele>207</ele>
        <time>2017-01-05T14:16:47.000Z</time>
      </trkpt>
      <trkpt lat="48.47237" lon="-2.90799">
        <ele>207</ele>
        <time>2017-01-05T14:16:48.000Z</time>
      </trkpt>
      <trkpt lat="48.47241" lon="-2.90792">
        <ele>207</ele>
        <time>2017-01-05T14:16:49.000Z</time>
      </trkpt>
      <trkpt lat="48.47244" lon="-2.90785">
        <ele>207</ele>
        <time>2017-01-05T14:16:50.000Z</time>
      </trkpt>
      <trkpt lat="48.47248" lon="-2.90778">
        <ele>206</ele>
        <time>2017-01-05T14:16:51.000Z</time>
      </trkpt>
      <trkpt lat="48.47251" lon="-2.90772">
        <ele>207</ele>
        <time>2017-01-05T14:16:52.000Z</time>
      </trkpt>
      <trkpt lat="48.47254" lon="-2.90766">
        <ele>207</ele>
        <time>2017-01-05T14:16:53.000Z</time>
      </trkpt>
      <trkpt lat="48.47257" lon="-2.9076">
        <ele>206</ele>
        <time>2017-01-05T14:16:54.000Z</time>
      </trkpt>
      <trkpt lat="48.47261" lon="-2.90754">
        <ele>206</ele>
        <time>2017-01-05T14:16:55.000Z</time>
      </trkpt>
      <trkpt lat="48.47264" lon="-2.90748">
        <ele>206</ele>
        <time>2017-01-05T14:16:56.000Z</time>
      </trkpt>
      <trkpt lat="48.47268" lon="-2.90741">
        <ele>205</ele>
        <time>2017-01-05T14:16:57.000Z</time>
      </trkpt>
      <trkpt lat="48.47272" lon="-2.90734">
        <ele>205</ele>
        <time>2017-01-05T14:16:58.000Z</time>
      </trkpt>
      <trkpt lat="48.47276" lon="-2.90727">
        <ele>205</ele>
        <time>2017-01-05T14:16:59.000Z</time>
      </trkpt>
      <trkpt lat="48.4728" lon="-2.9072">
        <ele>205</ele>
        <time>2017-01-05T14:17:00.000Z</time>
      </trkpt>
      <trkpt lat="48.47284" lon="-2.90713">
        <ele>205</ele>
        <time>2017-01-05T14:17:01.000Z</time>
      </trkpt>
      <trkpt lat="48.47288" lon="-2.90705">
        <ele>205</ele>
        <time>2017-01-05T14:17:02.000Z</time>
      </trkpt>
      <trkpt lat="48.47292" lon="-2.90698">
        <ele>205</ele>
        <time>2017-01-05T14:17:03.000Z</time>
      </trkpt>
      <trkpt lat="48.47296" lon="-2.9069">
        <ele>205</ele>
        <time>2017-01-05T14:17:04.000Z</time>
      </trkpt>
      <trkpt lat="48.47301" lon="-2.90683">
        <ele>205</ele>
        <time>2017-01-05T14:17:05.000Z</time>
      </trkpt>
      <trkpt lat="48.47305" lon="-2.90675">
        <ele>205</ele>
        <time>2017-01-05T14:17:06.000Z</time>
      </trkpt>
      <trkpt lat="48.47309" lon="-2.90668">
        <ele>205</ele>
        <time>2017-01-05T14:17:07.000Z</time>
      </trkpt>
      <trkpt lat="48.47313" lon="-2.90661">
        <ele>203</ele>
        <time>2017-01-05T14:17:08.000Z</time>
      </trkpt>
      <trkpt lat="48.47318" lon="-2.90654">
        <ele>203</ele>
        <time>2017-01-05T14:17:09.000Z</time>
      </trkpt>
      <trkpt lat="48.47323" lon="-2.90647">
        <ele>203</ele>
        <time>2017-01-05T14:17:10.000Z</time>
      </trkpt>
      <trkpt lat="48.47328" lon="-2.90641">
        <ele>203</ele>
        <time>2017-01-05T14:17:11.000Z</time>
      </trkpt>
      <trkpt lat="48.47333" lon="-2.90635">
        <ele>203</ele>
        <time>2017-01-05T14:17:12.000Z</time>
      </trkpt>
      <trkpt lat="48.47338" lon="-2.9063">
        <ele>204</ele>
        <time>2017-01-05T14:17:13.000Z</time>
      </trkpt>
      <trkpt lat="48.47344" lon="-2.90625">
        <ele>204</ele>
        <time>2017-01-05T14:17:14.000Z</time>
      </trkpt>
      <trkpt lat="48.47349" lon="-2.9062">
        <ele>204</ele>
        <time>2017-01-05T14:17:15.000Z</time>
      </trkpt>
      <trkpt lat="48.47355" lon="-2.90616">
        <ele>204</ele>
        <time>2017-01-05T14:17:16.000Z</time>
      </trkpt>
      <trkpt lat="48.4736" lon="-2.90611">
        <ele>204</ele>
        <time>2017-01-05T14:17:17.000Z</time>
      </trkpt>
      <trkpt lat="48.47365" lon="-2.90605">
        <ele>204</ele>
        <time>2017-01-05T14:17:18.000Z</time>
      </trkpt>
      <trkpt lat="48.4737" lon="-2.90599">
        <ele>204</ele>
        <time>2017-01-05T14:17:19.000Z</time>
      </trkpt>
      <trkpt lat="48.47375" lon="-2.90593">
        <ele>204</ele>
        <time>2017-01-05T14:17:20.000Z</time>
      </trkpt>
      <trkpt lat="48.4738" lon="-2.90585">
        <ele>204</ele>
        <time>2017-01-05T14:17:21.000Z</time>
      </trkpt>
      <trkpt lat="48.47384" lon="-2.90577">
        <ele>204</ele>
        <time>2017-01-05T14:17:22.000Z</time>
      </trkpt>
      <trkpt lat="48.47388" lon="-2.90569">
        <ele>204</ele>
        <time>2017-01-05T14:17:23.000Z</time>
      </trkpt>
      <trkpt lat="48.47391" lon="-2.90561">
        <ele>204</ele>
        <time>2017-01-05T14:17:24.000Z</time>
      </trkpt>
      <trkpt lat="48.47394" lon="-2.90553">
        <ele>204</ele>
        <time>2017-01-05T14:17:25.000Z</time>
      </trkpt>
      <trkpt lat="48.47397" lon="-2.90544">
        <ele>204</ele>
        <time>2017-01-05T14:17:26.000Z</time>
      </trkpt>
      <trkpt lat="48.47399" lon="-2.90535">
        <ele>204</ele>
        <time>2017-01-05T14:17:27.000Z</time>
      </trkpt>
      <trkpt lat="48.47401" lon="-2.90526">
        <ele>204</ele>
        <time>2017-01-05T14:17:28.000Z</time>
      </trkpt>
      <trkpt lat="48.47403" lon="-2.90517">
        <ele>204</ele>
        <time>2017-01-05T14:17:29.000Z</time>
      </trkpt>
      <trkpt lat="48.47405" lon="-2.90507">
        <ele>204</ele>
        <time>2017-01-05T14:17:30.000Z</time>
      </trkpt>
      <trkpt lat="48.47408" lon="-2.90498">
        <ele>204</ele>
        <time>2017-01-05T14:17:31.000Z</time>
      </trkpt>
      <trkpt lat="48.4741" lon="-2.90489">
        <ele>204</ele>
        <time>2017-01-05T14:17:32.000Z</time>
      </trkpt>
      <trkpt lat="48.47412" lon="-2.90479">
        <ele>204</ele>
        <time>2017-01-05T14:17:33.000Z</time>
      </trkpt>
      <trkpt lat="48.47414" lon="-2.9047">
        <ele>203</ele>
        <time>2017-01-05T14:17:34.000Z</time>
      </trkpt>
      <trkpt lat="48.47417" lon="-2.90461">
        <ele>203</ele>
        <time>2017-01-05T14:17:35.000Z</time>
      </trkpt>
      <trkpt lat="48.47419" lon="-2.90451">
        <ele>203</ele>
        <time>2017-01-05T14:17:36.000Z</time>
      </trkpt>
      <trkpt lat="48.47421" lon="-2.90442">
        <ele>203</ele>
        <time>2017-01-05T14:17:37.000Z</time>
      </trkpt>
      <trkpt lat="48.47424" lon="-2.90433">
        <ele>203</ele>
        <time>2017-01-05T14:17:38.000Z</time>
      </trkpt>
      <trkpt lat="48.47426" lon="-2.90424">
        <ele>203</ele>
        <time>2017-01-05T14:17:39.000Z</time>
      </trkpt>
      <trkpt lat="48.47429" lon="-2.90415">
        <ele>202</ele>
        <time>2017-01-05T14:17:40.000Z</time>
      </trkpt>
      <trkpt lat="48.47431" lon="-2.90406">
        <ele>202</ele>
        <time>2017-01-05T14:17:41.000Z</time>
      </trkpt>
      <trkpt lat="48.47434" lon="-2.90397">
        <ele>202</ele>
        <time>2017-01-05T14:17:42.000Z</time>
      </trkpt>
      <trkpt lat="48.47437" lon="-2.90388">
        <ele>201</ele>
        <time>2017-01-05T14:17:43.000Z</time>
      </trkpt>
      <trkpt lat="48.4744" lon="-2.90379">
        <ele>201</ele>
        <time>2017-01-05T14:17:44.000Z</time>
      </trkpt>
      <trkpt lat="48.47442" lon="-2.9037">
        <ele>201</ele>
        <time>2017-01-05T14:17:45.000Z</time>
      </trkpt>
      <trkpt lat="48.47445" lon="-2.90361">
        <ele>201</ele>
        <time>2017-01-05T14:17:46.000Z</time>
      </trkpt>
      <trkpt lat="48.47448" lon="-2.90352">
        <ele>201</ele>
        <time>2017-01-05T14:17:47.000Z</time>
      </trkpt>
      <trkpt lat="48.47451" lon="-2.90343">
        <ele>201</ele>
        <time>2017-01-05T14:17:48.000Z</time>
      </trkpt>
      <trkpt lat="48.47453" lon="-2.90334">
        <ele>201</ele>
        <time>2017-01-05T14:17:49.000Z</time>
      </trkpt>
      <trkpt lat="48.47456" lon="-2.90326">
        <ele>201</ele>
        <time>2017-01-05T14:17:50.000Z</time>
      </trkpt>
      <trkpt lat="48.47458" lon="-2.90318">
        <ele>200</ele>
        <time>2017-01-05T14:17:51.000Z</time>
      </trkpt>
      <trkpt lat="48.47461" lon="-2.9031">
        <ele>200</ele>
        <time>2017-01-05T14:17:52.000Z</time>
      </trkpt>
      <trkpt lat="48.47463" lon="-2.90304">
        <ele>200</ele>
        <time>2017-01-05T14:17:53.000Z</time>
      </trkpt>
      <trkpt lat="48.47464" lon="-2.90298">
        <ele>200</ele>
        <time>2017-01-05T14:17:54.000Z</time>
      </trkpt>
      <trkpt lat="48.47466" lon="-2.90293">
        <ele>200</ele>
        <time>2017-01-05T14:17:55.000Z</time>
      </trkpt>
      <trkpt lat="48.47467" lon="-2.90288">
        <ele>200</ele>
        <time>2017-01-05T14:17:56.000Z</time>
      </trkpt>
      <trkpt lat="48.47469" lon="-2.90284">
        <ele>200</ele>
        <time>2017-01-05T14:17:57.000Z</time>
      </trkpt>
      <trkpt lat="48.4747" lon="-2.9028">
        <ele>200</ele>
        <time>2017-01-05T14:17:58.000Z</time>
      </trkpt>
      <trkpt lat="48.47471" lon="-2.90277">
        <ele>200</ele>
        <time>2017-01-05T14:17:59.000Z</time>
      </trkpt>
      <trkpt lat="48.4747" lon="-2.90271">
        <ele>200</ele>
        <time>2017-01-05T14:18:01.000Z</time>
      </trkpt>
      <trkpt lat="48.47469" lon="-2.90269">
        <ele>200</ele>
        <time>2017-01-05T14:18:02.000Z</time>
      </trkpt>
      <trkpt lat="48.47467" lon="-2.90266">
        <ele>200</ele>
        <time>2017-01-05T14:18:03.000Z</time>
      </trkpt>
      <trkpt lat="48.47464" lon="-2.90264">
        <ele>200</ele>
        <time>2017-01-05T14:18:04.000Z</time>
      </trkpt>
      <trkpt lat="48.47462" lon="-2.90262">
        <ele>200</ele>
        <time>2017-01-05T14:18:05.000Z</time>
      </trkpt>
      <trkpt lat="48.47459" lon="-2.90261">
        <ele>200</ele>
        <time>2017-01-05T14:18:06.000Z</time>
      </trkpt>
      <trkpt lat="48.47456" lon="-2.90259">
        <ele>201</ele>
        <time>2017-01-05T14:18:07.000Z</time>
      </trkpt>
      <trkpt lat="48.47454" lon="-2.90257">
        <ele>201</ele>
        <time>2017-01-05T14:18:08.000Z</time>
      </trkpt>
      <trkpt lat="48.47451" lon="-2.90254">
        <ele>201</ele>
        <time>2017-01-05T14:18:09.000Z</time>
      </trkpt>
      <trkpt lat="48.47449" lon="-2.9025">
        <ele>201</ele>
        <time>2017-01-05T14:18:10.000Z</time>
      </trkpt>
      <trkpt lat="48.47446" lon="-2.90246">
        <ele>201</ele>
        <time>2017-01-05T14:18:11.000Z</time>
      </trkpt>
      <trkpt lat="48.47444" lon="-2.90242">
        <ele>201</ele>
        <time>2017-01-05T14:18:12.000Z</time>
      </trkpt>
      <trkpt lat="48.47441" lon="-2.90238">
        <ele>201</ele>
        <time>2017-01-05T14:18:13.000Z</time>
      </trkpt>
      <trkpt lat="48.47439" lon="-2.90235">
        <ele>201</ele>
        <time>2017-01-05T14:18:14.000Z</time>
      </trkpt>
      <trkpt lat="48.47437" lon="-2.90231">
        <ele>201</ele>
        <time>2017-01-05T14:18:15.000Z</time>
      </trkpt>
      <trkpt lat="48.47435" lon="-2.90227">
        <ele>201</ele>
        <time>2017-01-05T14:18:16.000Z</time>
      </trkpt>
      <trkpt lat="48.47432" lon="-2.90224">
        <ele>201</ele>
        <time>2017-01-05T14:18:17.000Z</time>
      </trkpt>
      <trkpt lat="48.4743" lon="-2.90222">
        <ele>201</ele>
        <time>2017-01-05T14:18:18.000Z</time>
      </trkpt>
      <trkpt lat="48.47428" lon="-2.90221">
        <ele>201</ele>
        <time>2017-01-05T14:18:19.000Z</time>
      </trkpt>
      <trkpt lat="48.47426" lon="-2.90219">
        <ele>201</ele>
        <time>2017-01-05T14:18:20.000Z</time>
      </trkpt>
      <trkpt lat="48.47423" lon="-2.90218">
        <ele>201</ele>
        <time>2017-01-05T14:18:21.000Z</time>
      </trkpt>
      <trkpt lat="48.47421" lon="-2.90216">
        <ele>201</ele>
        <time>2017-01-05T14:18:22.000Z</time>
      </trkpt>
      <trkpt lat="48.47419" lon="-2.90215">
        <ele>201</ele>
        <time>2017-01-05T14:18:23.000Z</time>
      </trkpt>
      <trkpt lat="48.47417" lon="-2.90213">
        <ele>201</ele>
        <time>2017-01-05T14:18:25.000Z</time>
      </trkpt>
      <trkpt lat="48.47416" lon="-2.90211">
        <ele>202</ele>
        <time>2017-01-05T14:18:28.000Z</time>
      </trkpt>
      <trkpt lat="48.47414" lon="-2.9021">
        <ele>202</ele>
        <time>2017-01-05T14:18:30.000Z</time>
      </trkpt>
      <trkpt lat="48.47411" lon="-2.90208">
        <ele>202</ele>
        <time>2017-01-05T14:18:32.000Z</time>
      </trkpt>
      <trkpt lat="48.47409" lon="-2.90206">
        <ele>201</ele>
        <time>2017-01-05T14:18:34.000Z</time>
      </trkpt>
      <trkpt lat="48.47406" lon="-2.90202">
        <ele>201</ele>
        <time>2017-01-05T14:18:36.000Z</time>
      </trkpt>
      <trkpt lat="48.47403" lon="-2.90198">
        <ele>201</ele>
        <time>2017-01-05T14:18:37.000Z</time>
      </trkpt>
      <trkpt lat="48.47401" lon="-2.90194">
        <ele>201</ele>
        <time>2017-01-05T14:18:38.000Z</time>
      </trkpt>
      <trkpt lat="48.47399" lon="-2.90189">
        <ele>201</ele>
        <time>2017-01-05T14:18:39.000Z</time>
      </trkpt>
      <trkpt lat="48.47397" lon="-2.90186">
        <ele>201</ele>
        <time>2017-01-05T14:18:40.000Z</time>
      </trkpt>
      <trkpt lat="48.47395" lon="-2.90182">
        <ele>201</ele>
        <time>2017-01-05T14:18:41.000Z</time>
      </trkpt>
      <trkpt lat="48.47394" lon="-2.90178">
        <ele>201</ele>
        <time>2017-01-05T14:18:42.000Z</time>
      </trkpt>
      <trkpt lat="48.47392" lon="-2.90174">
        <ele>201</ele>
        <time>2017-01-05T14:18:43.000Z</time>
      </trkpt>
      <trkpt lat="48.4739" lon="-2.9017">
        <ele>201</ele>
        <time>2017-01-05T14:18:44.000Z</time>
      </trkpt>
      <trkpt lat="48.47389" lon="-2.90165">
        <ele>201</ele>
        <time>2017-01-05T14:18:45.000Z</time>
      </trkpt>
      <trkpt lat="48.47387" lon="-2.90162">
        <ele>201</ele>
        <time>2017-01-05T14:18:46.000Z</time>
      </trkpt>
      <trkpt lat="48.47385" lon="-2.90158">
        <ele>201</ele>
        <time>2017-01-05T14:18:47.000Z</time>
      </trkpt>
      <trkpt lat="48.47383" lon="-2.90154">
        <ele>201</ele>
        <time>2017-01-05T14:18:48.000Z</time>
      </trkpt>
      <trkpt lat="48.47381" lon="-2.90149">
        <ele>201</ele>
        <time>2017-01-05T14:18:49.000Z</time>
      </trkpt>
      <trkpt lat="48.47379" lon="-2.90145">
        <ele>201</ele>
        <time>2017-01-05T14:18:50.000Z</time>
      </trkpt>
      <trkpt lat="48.47376" lon="-2.90141">
        <ele>201</ele>
        <time>2017-01-05T14:18:51.000Z</time>
      </trkpt>
      <trkpt lat="48.47375" lon="-2.90138">
        <ele>200</ele>
        <time>2017-01-05T14:18:52.000Z</time>
      </trkpt>
      <trkpt lat="48.47373" lon="-2.90134">
        <ele>200</ele>
        <time>2017-01-05T14:18:53.000Z</time>
      </trkpt>
      <trkpt lat="48.47371" lon="-2.90131">
        <ele>200</ele>
        <time>2017-01-05T14:18:54.000Z</time>
      </trkpt>
      <trkpt lat="48.4737" lon="-2.90128">
        <ele>200</ele>
        <time>2017-01-05T14:18:55.000Z</time>
      </trkpt>
      <trkpt lat="48.47368" lon="-2.90124">
        <ele>200</ele>
        <time>2017-01-05T14:18:56.000Z</time>
      </trkpt>
      <trkpt lat="48.47367" lon="-2.9012">
        <ele>200</ele>
        <time>2017-01-05T14:18:57.000Z</time>
      </trkpt>
      <trkpt lat="48.47365" lon="-2.90117">
        <ele>200</ele>
        <time>2017-01-05T14:18:58.000Z</time>
      </trkpt>
      <trkpt lat="48.47364" lon="-2.90113">
        <ele>200</ele>
        <time>2017-01-05T14:18:59.000Z</time>
      </trkpt>
      <trkpt lat="48.47362" lon="-2.9011">
        <ele>200</ele>
        <time>2017-01-05T14:19:00.000Z</time>
      </trkpt>
      <trkpt lat="48.47361" lon="-2.90106">
        <ele>200</ele>
        <time>2017-01-05T14:19:01.000Z</time>
      </trkpt>
      <trkpt lat="48.4736" lon="-2.90102">
        <ele>200</ele>
        <time>2017-01-05T14:19:02.000Z</time>
      </trkpt>
      <trkpt lat="48.47358" lon="-2.90099">
        <ele>200</ele>
        <time>2017-01-05T14:19:03.000Z</time>
      </trkpt>
      <trkpt lat="48.47357" lon="-2.90095">
        <ele>200</ele>
        <time>2017-01-05T14:19:04.000Z</time>
      </trkpt>
      <trkpt lat="48.47355" lon="-2.90091">
        <ele>200</ele>
        <time>2017-01-05T14:19:05.000Z</time>
      </trkpt>
      <trkpt lat="48.47354" lon="-2.90087">
        <ele>200</ele>
        <time>2017-01-05T14:19:06.000Z</time>
      </trkpt>
      <trkpt lat="48.47352" lon="-2.90083">
        <ele>200</ele>
        <time>2017-01-05T14:19:07.000Z</time>
      </trkpt>
      <trkpt lat="48.4735" lon="-2.90079">
        <ele>200</ele>
        <time>2017-01-05T14:19:08.000Z</time>
      </trkpt>
      <trkpt lat="48.47349" lon="-2.90074">
        <ele>200</ele>
        <time>2017-01-05T14:19:09.000Z</time>
      </trkpt>
      <trkpt lat="48.47347" lon="-2.9007">
        <ele>200</ele>
        <time>2017-01-05T14:19:10.000Z</time>
      </trkpt>
      <trkpt lat="48.47346" lon="-2.90066">
        <ele>200</ele>
        <time>2017-01-05T14:19:11.000Z</time>
      </trkpt>
      <trkpt lat="48.47344" lon="-2.90063">
        <ele>200</ele>
        <time>2017-01-05T14:19:12.000Z</time>
      </trkpt>
      <trkpt lat="48.47342" lon="-2.90059">
        <ele>200</ele>
        <time>2017-01-05T14:19:13.000Z</time>
      </trkpt>
      <trkpt lat="48.4734" lon="-2.90056">
        <ele>200</ele>
        <time>2017-01-05T14:19:14.000Z</time>
      </trkpt>
      <trkpt lat="48.47339" lon="-2.90053">
        <ele>200</ele>
        <time>2017-01-05T14:19:15.000Z</time>
      </trkpt>
      <trkpt lat="48.47337" lon="-2.9005">
        <ele>200</ele>
        <time>2017-01-05T14:19:16.000Z</time>
      </trkpt>
      <trkpt lat="48.47335" lon="-2.90047">
        <ele>200</ele>
        <time>2017-01-05T14:19:17.000Z</time>
      </trkpt>
      <trkpt lat="48.47333" lon="-2.90043">
        <ele>199</ele>
        <time>2017-01-05T14:19:18.000Z</time>
      </trkpt>
      <trkpt lat="48.47332" lon="-2.9004">
        <ele>199</ele>
        <time>2017-01-05T14:19:19.000Z</time>
      </trkpt>
      <trkpt lat="48.4733" lon="-2.90036">
        <ele>199</ele>
        <time>2017-01-05T14:19:20.000Z</time>
      </trkpt>
      <trkpt lat="48.47329" lon="-2.90032">
        <ele>199</ele>
        <time>2017-01-05T14:19:21.000Z</time>
      </trkpt>
      <trkpt lat="48.47327" lon="-2.90028">
        <ele>199</ele>
        <time>2017-01-05T14:19:22.000Z</time>
      </trkpt>
      <trkpt lat="48.47326" lon="-2.90023">
        <ele>199</ele>
        <time>2017-01-05T14:19:23.000Z</time>
      </trkpt>
      <trkpt lat="48.47324" lon="-2.90019">
        <ele>199</ele>
        <time>2017-01-05T14:19:24.000Z</time>
      </trkpt>
      <trkpt lat="48.47323" lon="-2.90015">
        <ele>199</ele>
        <time>2017-01-05T14:19:25.000Z</time>
      </trkpt>
      <trkpt lat="48.47322" lon="-2.90011">
        <ele>199</ele>
        <time>2017-01-05T14:19:26.000Z</time>
      </trkpt>
      <trkpt lat="48.47321" lon="-2.90007">
        <ele>199</ele>
        <time>2017-01-05T14:19:27.000Z</time>
      </trkpt>
      <trkpt lat="48.4732" lon="-2.90003">
        <ele>199</ele>
        <time>2017-01-05T14:19:28.000Z</time>
      </trkpt>
      <trkpt lat="48.47318" lon="-2.89998">
        <ele>199</ele>
        <time>2017-01-05T14:19:29.000Z</time>
      </trkpt>
      <trkpt lat="48.47317" lon="-2.89994">
        <ele>200</ele>
        <time>2017-01-05T14:19:30.000Z</time>
      </trkpt>
      <trkpt lat="48.47316" lon="-2.8999">
        <ele>200</ele>
        <time>2017-01-05T14:19:31.000Z</time>
      </trkpt>
      <trkpt lat="48.47315" lon="-2.89986">
        <ele>200</ele>
        <time>2017-01-05T14:19:32.000Z</time>
      </trkpt>
      <trkpt lat="48.47314" lon="-2.89982">
        <ele>200</ele>
        <time>2017-01-05T14:19:33.000Z</time>
      </trkpt>
      <trkpt lat="48.47313" lon="-2.89977">
        <ele>200</ele>
        <time>2017-01-05T14:19:34.000Z</time>
      </trkpt>
      <trkpt lat="48.47312" lon="-2.89973">
        <ele>200</ele>
        <time>2017-01-05T14:19:35.000Z</time>
      </trkpt>
      <trkpt lat="48.47311" lon="-2.89968">
        <ele>200</ele>
        <time>2017-01-05T14:19:36.000Z</time>
      </trkpt>
      <trkpt lat="48.47309" lon="-2.89964">
        <ele>200</ele>
        <time>2017-01-05T14:19:37.000Z</time>
      </trkpt>
      <trkpt lat="48.47308" lon="-2.89959">
        <ele>200</ele>
        <time>2017-01-05T14:19:38.000Z</time>
      </trkpt>
      <trkpt lat="48.47307" lon="-2.89954">
        <ele>200</ele>
        <time>2017-01-05T14:19:39.000Z</time>
      </trkpt>
      <trkpt lat="48.47306" lon="-2.89949">
        <ele>200</ele>
        <time>2017-01-05T14:19:40.000Z</time>
      </trkpt>
      <trkpt lat="48.47304" lon="-2.89944">
        <ele>200</ele>
        <time>2017-01-05T14:19:41.000Z</time>
      </trkpt>
      <trkpt lat="48.47303" lon="-2.8994">
        <ele>200</ele>
        <time>2017-01-05T14:19:42.000Z</time>
      </trkpt>
      <trkpt lat="48.47301" lon="-2.89935">
        <ele>200</ele>
        <time>2017-01-05T14:19:43.000Z</time>
      </trkpt>
      <trkpt lat="48.473" lon="-2.8993">
        <ele>200</ele>
        <time>2017-01-05T14:19:44.000Z</time>
      </trkpt>
      <trkpt lat="48.47298" lon="-2.89925">
        <ele>200</ele>
        <time>2017-01-05T14:19:45.000Z</time>
      </trkpt>
      <trkpt lat="48.47297" lon="-2.8992">
        <ele>200</ele>
        <time>2017-01-05T14:19:46.000Z</time>
      </trkpt>
      <trkpt lat="48.47295" lon="-2.89916">
        <ele>200</ele>
        <time>2017-01-05T14:19:47.000Z</time>
      </trkpt>
      <trkpt lat="48.47293" lon="-2.89911">
        <ele>200</ele>
        <time>2017-01-05T14:19:48.000Z</time>
      </trkpt>
      <trkpt lat="48.47292" lon="-2.89907">
        <ele>200</ele>
        <time>2017-01-05T14:19:49.000Z</time>
      </trkpt>
      <trkpt lat="48.4729" lon="-2.89903">
        <ele>200</ele>
        <time>2017-01-05T14:19:50.000Z</time>
      </trkpt>
      <trkpt lat="48.4729" lon="-2.899">
        <ele>200</ele>
        <time>2017-01-05T14:19:51.000Z</time>
      </trkpt>
      <trkpt lat="48.47289" lon="-2.89897">
        <ele>200</ele>
        <time>2017-01-05T14:19:52.000Z</time>
      </trkpt>
      <trkpt lat="48.47288" lon="-2.89893">
        <ele>200</ele>
        <time>2017-01-05T14:19:54.000Z</time>
      </trkpt>
      <trkpt lat="48.47289" lon="-2.8989">
        <ele>200</ele>
        <time>2017-01-05T14:19:56.000Z</time>
      </trkpt>
      <trkpt lat="48.47291" lon="-2.89889">
        <ele>200</ele>
        <time>2017-01-05T14:19:57.000Z</time>
      </trkpt>
      <trkpt lat="48.47294" lon="-2.89888">
        <ele>200</ele>
        <time>2017-01-05T14:19:58.000Z</time>
      </trkpt>
      <trkpt lat="48.47297" lon="-2.89887">
        <ele>200</ele>
        <time>2017-01-05T14:19:59.000Z</time>
      </trkpt>
      <trkpt lat="48.473" lon="-2.89885">
        <ele>200</ele>
        <time>2017-01-05T14:20:00.000Z</time>
      </trkpt>
      <trkpt lat="48.47304" lon="-2.89883">
        <ele>200</ele>
        <time>2017-01-05T14:20:01.000Z</time>
      </trkpt>
      <trkpt lat="48.47308" lon="-2.89881">
        <ele>200</ele>
        <time>2017-01-05T14:20:02.000Z</time>
      </trkpt>
      <trkpt lat="48.47312" lon="-2.89879">
        <ele>200</ele>
        <time>2017-01-05T14:20:03.000Z</time>
      </trkpt>
      <trkpt lat="48.47316" lon="-2.89877">
        <ele>200</ele>
        <time>2017-01-05T14:20:04.000Z</time>
      </trkpt>
      <trkpt lat="48.4732" lon="-2.89875">
        <ele>200</ele>
        <time>2017-01-05T14:20:05.000Z</time>
      </trkpt>
      <trkpt lat="48.47324" lon="-2.89872">
        <ele>200</ele>
        <time>2017-01-05T14:20:06.000Z</time>
      </trkpt>
      <trkpt lat="48.47328" lon="-2.8987">
        <ele>200</ele>
        <time>2017-01-05T14:20:07.000Z</time>
      </trkpt>
      <trkpt lat="48.47333" lon="-2.89867">
        <ele>200</ele>
        <time>2017-01-05T14:20:08.000Z</time>
      </trkpt>
      <trkpt lat="48.47337" lon="-2.89864">
        <ele>200</ele>
        <time>2017-01-05T14:20:09.000Z</time>
      </trkpt>
      <trkpt lat="48.47342" lon="-2.89861">
        <ele>200</ele>
        <time>2017-01-05T14:20:10.000Z</time>
      </trkpt>
      <trkpt lat="48.47346" lon="-2.89859">
        <ele>200</ele>
        <time>2017-01-05T14:20:11.000Z</time>
      </trkpt>
      <trkpt lat="48.47351" lon="-2.89856">
        <ele>200</ele>
        <time>2017-01-05T14:20:12.000Z</time>
      </trkpt>
      <trkpt lat="48.47355" lon="-2.89853">
        <ele>200</ele>
        <time>2017-01-05T14:20:13.000Z</time>
      </trkpt>
      <trkpt lat="48.47359" lon="-2.89851">
        <ele>200</ele>
        <time>2017-01-05T14:20:14.000Z</time>
      </trkpt>
      <trkpt lat="48.47364" lon="-2.89849">
        <ele>200</ele>
        <time>2017-01-05T14:20:15.000Z</time>
      </trkpt>
      <trkpt lat="48.47369" lon="-2.89846">
        <ele>200</ele>
        <time>2017-01-05T14:20:16.000Z</time>
      </trkpt>
      <trkpt lat="48.47374" lon="-2.89844">
        <ele>200</ele>
        <time>2017-01-05T14:20:17.000Z</time>
      </trkpt>
      <trkpt lat="48.47378" lon="-2.89843">
        <ele>200</ele>
        <time>2017-01-05T14:20:18.000Z</time>
      </trkpt>
      <trkpt lat="48.47383" lon="-2.89841">
        <ele>200</ele>
        <time>2017-01-05T14:20:19.000Z</time>
      </trkpt>
      <trkpt lat="48.47388" lon="-2.8984">
        <ele>200</ele>
        <time>2017-01-05T14:20:20.000Z</time>
      </trkpt>
      <trkpt lat="48.47393" lon="-2.89839">
        <ele>200</ele>
        <time>2017-01-05T14:20:21.000Z</time>
      </trkpt>
      <trkpt lat="48.47398" lon="-2.89838">
        <ele>200</ele>
        <time>2017-01-05T14:20:22.000Z</time>
      </trkpt>
      <trkpt lat="48.47403" lon="-2.89837">
        <ele>200</ele>
        <time>2017-01-05T14:20:23.000Z</time>
      </trkpt>
      <trkpt lat="48.47408" lon="-2.89836">
        <ele>200</ele>
        <time>2017-01-05T14:20:24.000Z</time>
      </trkpt>
      <trkpt lat="48.47413" lon="-2.89835">
        <ele>200</ele>
        <time>2017-01-05T14:20:25.000Z</time>
      </trkpt>
      <trkpt lat="48.47417" lon="-2.89834">
        <ele>200</ele>
        <time>2017-01-05T14:20:26.000Z</time>
      </trkpt>
      <trkpt lat="48.47422" lon="-2.89834">
        <ele>200</ele>
        <time>2017-01-05T14:20:27.000Z</time>
      </trkpt>
      <trkpt lat="48.47428" lon="-2.89833">
        <ele>201</ele>
        <time>2017-01-05T14:20:28.000Z</time>
      </trkpt>
      <trkpt lat="48.47433" lon="-2.89832">
        <ele>200</ele>
        <time>2017-01-05T14:20:29.000Z</time>
      </trkpt>
      <trkpt lat="48.47438" lon="-2.89831">
        <ele>200</ele>
        <time>2017-01-05T14:20:30.000Z</time>
      </trkpt>
      <trkpt lat="48.47443" lon="-2.89831">
        <ele>200</ele>
        <time>2017-01-05T14:20:31.000Z</time>
      </trkpt>
      <trkpt lat="48.47448" lon="-2.8983">
        <ele>200</ele>
        <time>2017-01-05T14:20:32.000Z</time>
      </trkpt>
      <trkpt lat="48.47454" lon="-2.89829">
        <ele>200</ele>
        <time>2017-01-05T14:20:33.000Z</time>
      </trkpt>
      <trkpt lat="48.47459" lon="-2.89828">
        <ele>200</ele>
        <time>2017-01-05T14:20:34.000Z</time>
      </trkpt>
      <trkpt lat="48.47464" lon="-2.89828">
        <ele>200</ele>
        <time>2017-01-05T14:20:35.000Z</time>
      </trkpt>
      <trkpt lat="48.4747" lon="-2.89828">
        <ele>200</ele>
        <time>2017-01-05T14:20:36.000Z</time>
      </trkpt>
      <trkpt lat="48.47475" lon="-2.89828">
        <ele>200</ele>
        <time>2017-01-05T14:20:37.000Z</time>
      </trkpt>
      <trkpt lat="48.4748" lon="-2.89827">
        <ele>200</ele>
        <time>2017-01-05T14:20:38.000Z</time>
      </trkpt>
      <trkpt lat="48.47485" lon="-2.89827">
        <ele>200</ele>
        <time>2017-01-05T14:20:39.000Z</time>
      </trkpt>
      <trkpt lat="48.47491" lon="-2.89827">
        <ele>200</ele>
        <time>2017-01-05T14:20:40.000Z</time>
      </trkpt>
      <trkpt lat="48.47496" lon="-2.89827">
        <ele>201</ele>
        <time>2017-01-05T14:20:41.000Z</time>
      </trkpt>
      <trkpt lat="48.47501" lon="-2.89828">
        <ele>201</ele>
        <time>2017-01-05T14:20:42.000Z</time>
      </trkpt>
      <trkpt lat="48.47507" lon="-2.89828">
        <ele>201</ele>
        <time>2017-01-05T14:20:43.000Z</time>
      </trkpt>
      <trkpt lat="48.47512" lon="-2.89828">
        <ele>201</ele>
        <time>2017-01-05T14:20:44.000Z</time>
      </trkpt>
      <trkpt lat="48.47517" lon="-2.89829">
        <ele>201</ele>
        <time>2017-01-05T14:20:45.000Z</time>
      </trkpt>
      <trkpt lat="48.47522" lon="-2.89829">
        <ele>201</ele>
        <time>2017-01-05T14:20:46.000Z</time>
      </trkpt>
      <trkpt lat="48.47528" lon="-2.89829">
        <ele>201</ele>
        <time>2017-01-05T14:20:47.000Z</time>
      </trkpt>
      <trkpt lat="48.47533" lon="-2.89829">
        <ele>201</ele>
        <time>2017-01-05T14:20:48.000Z</time>
      </trkpt>
      <trkpt lat="48.47538" lon="-2.89829">
        <ele>201</ele>
        <time>2017-01-05T14:20:49.000Z</time>
      </trkpt>
      <trkpt lat="48.47543" lon="-2.89829">
        <ele>201</ele>
        <time>2017-01-05T14:20:50.000Z</time>
      </trkpt>
      <trkpt lat="48.47548" lon="-2.89829">
        <ele>201</ele>
        <time>2017-01-05T14:20:51.000Z</time>
      </trkpt>
      <trkpt lat="48.47554" lon="-2.89829">
        <ele>201</ele>
        <time>2017-01-05T14:20:52.000Z</time>
      </trkpt>
      <trkpt lat="48.47559" lon="-2.8983">
        <ele>201</ele>
        <time>2017-01-05T14:20:53.000Z</time>
      </trkpt>
      <trkpt lat="48.47564" lon="-2.8983">
        <ele>201</ele>
        <time>2017-01-05T14:20:54.000Z</time>
      </trkpt>
      <trkpt lat="48.47569" lon="-2.8983">
        <ele>201</ele>
        <time>2017-01-05T14:20:55.000Z</time>
      </trkpt>
      <trkpt lat="48.47574" lon="-2.89831">
        <ele>202</ele>
        <time>2017-01-05T14:20:56.000Z</time>
      </trkpt>
      <trkpt lat="48.47579" lon="-2.89831">
        <ele>202</ele>
        <time>2017-01-05T14:20:57.000Z</time>
      </trkpt>
      <trkpt lat="48.47584" lon="-2.89831">
        <ele>202</ele>
        <time>2017-01-05T14:20:58.000Z</time>
      </trkpt>
      <trkpt lat="48.47589" lon="-2.89832">
        <ele>202</ele>
        <time>2017-01-05T14:20:59.000Z</time>
      </trkpt>
      <trkpt lat="48.47594" lon="-2.89834">
        <ele>202</ele>
        <time>2017-01-05T14:21:00.000Z</time>
      </trkpt>
      <trkpt lat="48.47599" lon="-2.89836">
        <ele>202</ele>
        <time>2017-01-05T14:21:01.000Z</time>
      </trkpt>
      <trkpt lat="48.47604" lon="-2.89838">
        <ele>202</ele>
        <time>2017-01-05T14:21:02.000Z</time>
      </trkpt>
      <trkpt lat="48.47609" lon="-2.89841">
        <ele>202</ele>
        <time>2017-01-05T14:21:03.000Z</time>
      </trkpt>
      <trkpt lat="48.47614" lon="-2.89845">
        <ele>202</ele>
        <time>2017-01-05T14:21:04.000Z</time>
      </trkpt>
      <trkpt lat="48.47618" lon="-2.89849">
        <ele>202</ele>
        <time>2017-01-05T14:21:05.000Z</time>
      </trkpt>
      <trkpt lat="48.47622" lon="-2.89853">
        <ele>202</ele>
        <time>2017-01-05T14:21:06.000Z</time>
      </trkpt>
      <trkpt lat="48.47627" lon="-2.89857">
        <ele>201</ele>
        <time>2017-01-05T14:21:07.000Z</time>
      </trkpt>
      <trkpt lat="48.47631" lon="-2.89861">
        <ele>201</ele>
        <time>2017-01-05T14:21:08.000Z</time>
      </trkpt>
      <trkpt lat="48.47635" lon="-2.89864">
        <ele>201</ele>
        <time>2017-01-05T14:21:09.000Z</time>
      </trkpt>
      <trkpt lat="48.47638" lon="-2.89868">
        <ele>201</ele>
        <time>2017-01-05T14:21:10.000Z</time>
      </trkpt>
      <trkpt lat="48.47641" lon="-2.89871">
        <ele>201</ele>
        <time>2017-01-05T14:21:11.000Z</time>
      </trkpt>
      <trkpt lat="48.47644" lon="-2.89874">
        <ele>201</ele>
        <time>2017-01-05T14:21:12.000Z</time>
      </trkpt>
      <trkpt lat="48.47647" lon="-2.89877">
        <ele>201</ele>
        <time>2017-01-05T14:21:13.000Z</time>
      </trkpt>
      <trkpt lat="48.4765" lon="-2.8988">
        <ele>201</ele>
        <time>2017-01-05T14:21:14.000Z</time>
      </trkpt>
      <trkpt lat="48.47653" lon="-2.89882">
        <ele>201</ele>
        <time>2017-01-05T14:21:15.000Z</time>
      </trkpt>
      <trkpt lat="48.47656" lon="-2.89884">
        <ele>201</ele>
        <time>2017-01-05T14:21:16.000Z</time>
      </trkpt>
      <trkpt lat="48.47658" lon="-2.89886">
        <ele>201</ele>
        <time>2017-01-05T14:21:17.000Z</time>
      </trkpt>
      <trkpt lat="48.47661" lon="-2.89887">
        <ele>201</ele>
        <time>2017-01-05T14:21:18.000Z</time>
      </trkpt>
      <trkpt lat="48.47663" lon="-2.89888">
        <ele>201</ele>
        <time>2017-01-05T14:21:19.000Z</time>
      </trkpt>
      <trkpt lat="48.47665" lon="-2.8989">
        <ele>201</ele>
        <time>2017-01-05T14:21:21.000Z</time>
      </trkpt>
      <trkpt lat="48.47668" lon="-2.89895">
        <ele>201</ele>
        <time>2017-01-05T14:21:23.000Z</time>
      </trkpt>
      <trkpt lat="48.4767" lon="-2.89898">
        <ele>201</ele>
        <time>2017-01-05T14:21:24.000Z</time>
      </trkpt>
      <trkpt lat="48.47672" lon="-2.89901">
        <ele>201</ele>
        <time>2017-01-05T14:21:25.000Z</time>
      </trkpt>
      <trkpt lat="48.47674" lon="-2.89904">
        <ele>201</ele>
        <time>2017-01-05T14:21:26.000Z</time>
      </trkpt>
      <trkpt lat="48.47677" lon="-2.89906">
        <ele>201</ele>
        <time>2017-01-05T14:21:27.000Z</time>
      </trkpt>
      <trkpt lat="48.47681" lon="-2.89909">
        <ele>201</ele>
        <time>2017-01-05T14:21:28.000Z</time>
      </trkpt>
      <trkpt lat="48.47684" lon="-2.89912">
        <ele>201</ele>
        <time>2017-01-05T14:21:29.000Z</time>
      </trkpt>
      <trkpt lat="48.47688" lon="-2.89914">
        <ele>201</ele>
        <time>2017-01-05T14:21:30.000Z</time>
      </trkpt>
      <trkpt lat="48.47692" lon="-2.89917">
        <ele>201</ele>
        <time>2017-01-05T14:21:31.000Z</time>
      </trkpt>
      <trkpt lat="48.47696" lon="-2.89919">
        <ele>201</ele>
        <time>2017-01-05T14:21:32.000Z</time>
      </trkpt>
      <trkpt lat="48.47699" lon="-2.89922">
        <ele>201</ele>
        <time>2017-01-05T14:21:33.000Z</time>
      </trkpt>
      <trkpt lat="48.47703" lon="-2.89924">
        <ele>201</ele>
        <time>2017-01-05T14:21:34.000Z</time>
      </trkpt>
      <trkpt lat="48.47707" lon="-2.89926">
        <ele>201</ele>
        <time>2017-01-05T14:21:35.000Z</time>
      </trkpt>
      <trkpt lat="48.47711" lon="-2.89928">
        <ele>201</ele>
        <time>2017-01-05T14:21:36.000Z</time>
      </trkpt>
      <trkpt lat="48.47715" lon="-2.8993">
        <ele>201</ele>
        <time>2017-01-05T14:21:37.000Z</time>
      </trkpt>
      <trkpt lat="48.47719" lon="-2.89933">
        <ele>201</ele>
        <time>2017-01-05T14:21:38.000Z</time>
      </trkpt>
      <trkpt lat="48.47723" lon="-2.89935">
        <ele>201</ele>
        <time>2017-01-05T14:21:39.000Z</time>
      </trkpt>
      <trkpt lat="48.47727" lon="-2.89937">
        <ele>201</ele>
        <time>2017-01-05T14:21:40.000Z</time>
      </trkpt>
      <trkpt lat="48.47731" lon="-2.89939">
        <ele>200</ele>
        <time>2017-01-05T14:21:41.000Z</time>
      </trkpt>
      <trkpt lat="48.47735" lon="-2.89942">
        <ele>200</ele>
        <time>2017-01-05T14:21:42.000Z</time>
      </trkpt>
      <trkpt lat="48.47739" lon="-2.89944">
        <ele>200</ele>
        <time>2017-01-05T14:21:43.000Z</time>
      </trkpt>
      <trkpt lat="48.47743" lon="-2.89947">
        <ele>200</ele>
        <time>2017-01-05T14:21:44.000Z</time>
      </trkpt>
      <trkpt lat="48.47747" lon="-2.89949">
        <ele>200</ele>
        <time>2017-01-05T14:21:45.000Z</time>
      </trkpt>
      <trkpt lat="48.4775" lon="-2.89951">
        <ele>200</ele>
        <time>2017-01-05T14:21:46.000Z</time>
      </trkpt>
      <trkpt lat="48.47754" lon="-2.89953">
        <ele>200</ele>
        <time>2017-01-05T14:21:47.000Z</time>
      </trkpt>
      <trkpt lat="48.47757" lon="-2.89954">
        <ele>200</ele>
        <time>2017-01-05T14:21:48.000Z</time>
      </trkpt>
      <trkpt lat="48.47761" lon="-2.89955">
        <ele>200</ele>
        <time>2017-01-05T14:21:49.000Z</time>
      </trkpt>
      <trkpt lat="48.47764" lon="-2.89956">
        <ele>200</ele>
        <time>2017-01-05T14:21:50.000Z</time>
      </trkpt>
      <trkpt lat="48.47767" lon="-2.89957">
        <ele>200</ele>
        <time>2017-01-05T14:21:51.000Z</time>
      </trkpt>
      <trkpt lat="48.47771" lon="-2.89958">
        <ele>200</ele>
        <time>2017-01-05T14:21:52.000Z</time>
      </trkpt>
      <trkpt lat="48.47774" lon="-2.89959">
        <ele>200</ele>
        <time>2017-01-05T14:21:53.000Z</time>
      </trkpt>
      <trkpt lat="48.47778" lon="-2.89961">
        <ele>200</ele>
        <time>2017-01-05T14:21:54.000Z</time>
      </trkpt>
      <trkpt lat="48.47781" lon="-2.89962">
        <ele>200</ele>
        <time>2017-01-05T14:21:55.000Z</time>
      </trkpt>
      <trkpt lat="48.47785" lon="-2.89964">
        <ele>200</ele>
        <time>2017-01-05T14:21:56.000Z</time>
      </trkpt>
      <trkpt lat="48.47788" lon="-2.89966">
        <ele>200</ele>
        <time>2017-01-05T14:21:57.000Z</time>
      </trkpt>
      <trkpt lat="48.47791" lon="-2.89967">
        <ele>200</ele>
        <time>2017-01-05T14:21:58.000Z</time>
      </trkpt>
      <trkpt lat="48.47794" lon="-2.89969">
        <ele>199</ele>
        <time>2017-01-05T14:21:59.000Z</time>
      </trkpt>
      <trkpt lat="48.47798" lon="-2.89971">
        <ele>199</ele>
        <time>2017-01-05T14:22:00.000Z</time>
      </trkpt>
      <trkpt lat="48.47801" lon="-2.89972">
        <ele>199</ele>
        <time>2017-01-05T14:22:01.000Z</time>
      </trkpt>
      <trkpt lat="48.47804" lon="-2.89975">
        <ele>199</ele>
        <time>2017-01-05T14:22:02.000Z</time>
      </trkpt>
      <trkpt lat="48.47808" lon="-2.89977">
        <ele>199</ele>
        <time>2017-01-05T14:22:03.000Z</time>
      </trkpt>
      <trkpt lat="48.47812" lon="-2.89979">
        <ele>199</ele>
        <time>2017-01-05T14:22:04.000Z</time>
      </trkpt>
      <trkpt lat="48.47815" lon="-2.89982">
        <ele>199</ele>
        <time>2017-01-05T14:22:05.000Z</time>
      </trkpt>
      <trkpt lat="48.47819" lon="-2.89984">
        <ele>199</ele>
        <time>2017-01-05T14:22:06.000Z</time>
      </trkpt>
      <trkpt lat="48.47823" lon="-2.89987">
        <ele>199</ele>
        <time>2017-01-05T14:22:07.000Z</time>
      </trkpt>
      <trkpt lat="48.47826" lon="-2.89989">
        <ele>199</ele>
        <time>2017-01-05T14:22:08.000Z</time>
      </trkpt>
      <trkpt lat="48.4783" lon="-2.89991">
        <ele>199</ele>
        <time>2017-01-05T14:22:09.000Z</time>
      </trkpt>
      <trkpt lat="48.47833" lon="-2.89993">
        <ele>199</ele>
        <time>2017-01-05T14:22:10.000Z</time>
      </trkpt>
      <trkpt lat="48.47837" lon="-2.89996">
        <ele>199</ele>
        <time>2017-01-05T14:22:11.000Z</time>
      </trkpt>
      <trkpt lat="48.4784" lon="-2.89998">
        <ele>199</ele>
        <time>2017-01-05T14:22:12.000Z</time>
      </trkpt>
      <trkpt lat="48.47843" lon="-2.9">
        <ele>198</ele>
        <time>2017-01-05T14:22:13.000Z</time>
      </trkpt>
      <trkpt lat="48.47846" lon="-2.90002">
        <ele>198</ele>
        <time>2017-01-05T14:22:14.000Z</time>
      </trkpt>
      <trkpt lat="48.47849" lon="-2.90004">
        <ele>198</ele>
        <time>2017-01-05T14:22:15.000Z</time>
      </trkpt>
      <trkpt lat="48.47851" lon="-2.90005">
        <ele>198</ele>
        <time>2017-01-05T14:22:16.000Z</time>
      </trkpt>
      <trkpt lat="48.47853" lon="-2.90006">
        <ele>198</ele>
        <time>2017-01-05T14:22:17.000Z</time>
      </trkpt>
      <trkpt lat="48.47855" lon="-2.90007">
        <ele>198</ele>
        <time>2017-01-05T14:22:18.000Z</time>
      </trkpt>
      <trkpt lat="48.47858" lon="-2.90008">
        <ele>198</ele>
        <time>2017-01-05T14:22:19.000Z</time>
      </trkpt>
      <trkpt lat="48.47861" lon="-2.90009">
        <ele>198</ele>
        <time>2017-01-05T14:22:20.000Z</time>
      </trkpt>
      <trkpt lat="48.47864" lon="-2.90012">
        <ele>198</ele>
        <time>2017-01-05T14:22:21.000Z</time>
      </trkpt>
      <trkpt lat="48.47866" lon="-2.90016">
        <ele>198</ele>
        <time>2017-01-05T14:22:22.000Z</time>
      </trkpt>
      <trkpt lat="48.47869" lon="-2.90021">
        <ele>198</ele>
        <time>2017-01-05T14:22:23.000Z</time>
      </trkpt>
      <trkpt lat="48.47871" lon="-2.90026">
        <ele>197</ele>
        <time>2017-01-05T14:22:24.000Z</time>
      </trkpt>
      <trkpt lat="48.47874" lon="-2.90032">
        <ele>197</ele>
        <time>2017-01-05T14:22:25.000Z</time>
      </trkpt>
      <trkpt lat="48.47877" lon="-2.90038">
        <ele>197</ele>
        <time>2017-01-05T14:22:26.000Z</time>
      </trkpt>
      <trkpt lat="48.47879" lon="-2.90045">
        <ele>197</ele>
        <time>2017-01-05T14:22:27.000Z</time>
      </trkpt>
      <trkpt lat="48.47882" lon="-2.90052">
        <ele>197</ele>
        <time>2017-01-05T14:22:28.000Z</time>
      </trkpt>
      <trkpt lat="48.47885" lon="-2.9006">
        <ele>197</ele>
        <time>2017-01-05T14:22:29.000Z</time>
      </trkpt>
      <trkpt lat="48.47887" lon="-2.90069">
        <ele>197</ele>
        <time>2017-01-05T14:22:30.000Z</time>
      </trkpt>
      <trkpt lat="48.47889" lon="-2.90078">
        <ele>197</ele>
        <time>2017-01-05T14:22:31.000Z</time>
      </trkpt>
      <trkpt lat="48.47891" lon="-2.90088">
        <ele>196</ele>
        <time>2017-01-05T14:22:32.000Z</time>
      </trkpt>
      <trkpt lat="48.47893" lon="-2.90097">
        <ele>196</ele>
        <time>2017-01-05T14:22:33.000Z</time>
      </trkpt>
      <trkpt lat="48.47895" lon="-2.90107">
        <ele>196</ele>
        <time>2017-01-05T14:22:34.000Z</time>
      </trkpt>
      <trkpt lat="48.47896" lon="-2.90116">
        <ele>196</ele>
        <time>2017-01-05T14:22:35.000Z</time>
      </trkpt>
      <trkpt lat="48.47898" lon="-2.90126">
        <ele>196</ele>
        <time>2017-01-05T14:22:36.000Z</time>
      </trkpt>
      <trkpt lat="48.479" lon="-2.90136">
        <ele>196</ele>
        <time>2017-01-05T14:22:37.000Z</time>
      </trkpt>
      <trkpt lat="48.47902" lon="-2.90146">
        <ele>196</ele>
        <time>2017-01-05T14:22:38.000Z</time>
      </trkpt>
      <trkpt lat="48.47905" lon="-2.90155">
        <ele>196</ele>
        <time>2017-01-05T14:22:39.000Z</time>
      </trkpt>
      <trkpt lat="48.47907" lon="-2.90164">
        <ele>196</ele>
        <time>2017-01-05T14:22:40.000Z</time>
      </trkpt>
      <trkpt lat="48.47911" lon="-2.90172">
        <ele>196</ele>
        <time>2017-01-05T14:22:41.000Z</time>
      </trkpt>
      <trkpt lat="48.47914" lon="-2.9018">
        <ele>196</ele>
        <time>2017-01-05T14:22:42.000Z</time>
      </trkpt>
      <trkpt lat="48.47918" lon="-2.90188">
        <ele>196</ele>
        <time>2017-01-05T14:22:43.000Z</time>
      </trkpt>
      <trkpt lat="48.47922" lon="-2.90196">
        <ele>196</ele>
        <time>2017-01-05T14:22:44.000Z</time>
      </trkpt>
      <trkpt lat="48.47926" lon="-2.90204">
        <ele>196</ele>
        <time>2017-01-05T14:22:45.000Z</time>
      </trkpt>
      <trkpt lat="48.47929" lon="-2.90212">
        <ele>196</ele>
        <time>2017-01-05T14:22:46.000Z</time>
      </trkpt>
      <trkpt lat="48.47933" lon="-2.90221">
        <ele>196</ele>
        <time>2017-01-05T14:22:47.000Z</time>
      </trkpt>
      <trkpt lat="48.47936" lon="-2.90229">
        <ele>196</ele>
        <time>2017-01-05T14:22:48.000Z</time>
      </trkpt>
      <trkpt lat="48.47939" lon="-2.90238">
        <ele>196</ele>
        <time>2017-01-05T14:22:49.000Z</time>
      </trkpt>
      <trkpt lat="48.47942" lon="-2.90247">
        <ele>196</ele>
        <time>2017-01-05T14:22:50.000Z</time>
      </trkpt>
      <trkpt lat="48.47945" lon="-2.90255">
        <ele>194</ele>
        <time>2017-01-05T14:22:51.000Z</time>
      </trkpt>
      <trkpt lat="48.47948" lon="-2.90264">
        <ele>194</ele>
        <time>2017-01-05T14:22:52.000Z</time>
      </trkpt>
      <trkpt lat="48.47951" lon="-2.90273">
        <ele>194</ele>
        <time>2017-01-05T14:22:53.000Z</time>
      </trkpt>
      <trkpt lat="48.47954" lon="-2.90282">
        <ele>194</ele>
        <time>2017-01-05T14:22:54.000Z</time>
      </trkpt>
      <trkpt lat="48.47957" lon="-2.9029">
        <ele>194</ele>
        <time>2017-01-05T14:22:55.000Z</time>
      </trkpt>
      <trkpt lat="48.4796" lon="-2.90299">
        <ele>194</ele>
        <time>2017-01-05T14:22:56.000Z</time>
      </trkpt>
      <trkpt lat="48.47964" lon="-2.90307">
        <ele>194</ele>
        <time>2017-01-05T14:22:57.000Z</time>
      </trkpt>
      <trkpt lat="48.47966" lon="-2.90315">
        <ele>194</ele>
        <time>2017-01-05T14:22:58.000Z</time>
      </trkpt>
      <trkpt lat="48.47969" lon="-2.90324">
        <ele>193</ele>
        <time>2017-01-05T14:22:59.000Z</time>
      </trkpt>
      <trkpt lat="48.47972" lon="-2.90333">
        <ele>193</ele>
        <time>2017-01-05T14:23:00.000Z</time>
      </trkpt>
      <trkpt lat="48.47974" lon="-2.90342">
        <ele>193</ele>
        <time>2017-01-05T14:23:01.000Z</time>
      </trkpt>
      <trkpt lat="48.47977" lon="-2.90351">
        <ele>193</ele>
        <time>2017-01-05T14:23:02.000Z</time>
      </trkpt>
      <trkpt lat="48.47979" lon="-2.90361">
        <ele>193</ele>
        <time>2017-01-05T14:23:03.000Z</time>
      </trkpt>
      <trkpt lat="48.4798" lon="-2.9037">
        <ele>193</ele>
        <time>2017-01-05T14:23:04.000Z</time>
      </trkpt>
      <trkpt lat="48.47982" lon="-2.90379">
        <ele>193</ele>
        <time>2017-01-05T14:23:05.000Z</time>
      </trkpt>
      <trkpt lat="48.47983" lon="-2.90389">
        <ele>193</ele>
        <time>2017-01-05T14:23:06.000Z</time>
      </trkpt>
      <trkpt lat="48.47985" lon="-2.90398">
        <ele>193</ele>
        <time>2017-01-05T14:23:07.000Z</time>
      </trkpt>
      <trkpt lat="48.47986" lon="-2.90407">
        <ele>193</ele>
        <time>2017-01-05T14:23:08.000Z</time>
      </trkpt>
      <trkpt lat="48.47987" lon="-2.90417">
        <ele>193</ele>
        <time>2017-01-05T14:23:09.000Z</time>
      </trkpt>
      <trkpt lat="48.47989" lon="-2.90426">
        <ele>193</ele>
        <time>2017-01-05T14:23:10.000Z</time>
      </trkpt>
      <trkpt lat="48.47991" lon="-2.90435">
        <ele>193</ele>
        <time>2017-01-05T14:23:11.000Z</time>
      </trkpt>
      <trkpt lat="48.47993" lon="-2.90443">
        <ele>193</ele>
        <time>2017-01-05T14:23:12.000Z</time>
      </trkpt>
      <trkpt lat="48.47996" lon="-2.90451">
        <ele>193</ele>
        <time>2017-01-05T14:23:13.000Z</time>
      </trkpt>
      <trkpt lat="48.47999" lon="-2.90458">
        <ele>193</ele>
        <time>2017-01-05T14:23:14.000Z</time>
      </trkpt>
      <trkpt lat="48.48002" lon="-2.90465">
        <ele>193</ele>
        <time>2017-01-05T14:23:15.000Z</time>
      </trkpt>
      <trkpt lat="48.48005" lon="-2.90471">
        <ele>193</ele>
        <time>2017-01-05T14:23:16.000Z</time>
      </trkpt>
      <trkpt lat="48.48008" lon="-2.90476">
        <ele>193</ele>
        <time>2017-01-05T14:23:17.000Z</time>
      </trkpt>
      <trkpt lat="48.48011" lon="-2.90481">
        <ele>193</ele>
        <time>2017-01-05T14:23:18.000Z</time>
      </trkpt>
      <trkpt lat="48.48014" lon="-2.90486">
        <ele>193</ele>
        <time>2017-01-05T14:23:19.000Z</time>
      </trkpt>
      <trkpt lat="48.48017" lon="-2.90491">
        <ele>193</ele>
        <time>2017-01-05T14:23:20.000Z</time>
      </trkpt>
      <trkpt lat="48.4802" lon="-2.90495">
        <ele>193</ele>
        <time>2017-01-05T14:23:21.000Z</time>
      </trkpt>
      <trkpt lat="48.48023" lon="-2.905">
        <ele>193</ele>
        <time>2017-01-05T14:23:22.000Z</time>
      </trkpt>
      <trkpt lat="48.48027" lon="-2.90503">
        <ele>193</ele>
        <time>2017-01-05T14:23:23.000Z</time>
      </trkpt>
      <trkpt lat="48.48031" lon="-2.90506">
        <ele>193</ele>
        <time>2017-01-05T14:23:24.000Z</time>
      </trkpt>
      <trkpt lat="48.48035" lon="-2.90508">
        <ele>193</ele>
        <time>2017-01-05T14:23:25.000Z</time>
      </trkpt>
      <trkpt lat="48.4804" lon="-2.90509">
        <ele>193</ele>
        <time>2017-01-05T14:23:26.000Z</time>
      </trkpt>
      <trkpt lat="48.48044" lon="-2.9051">
        <ele>193</ele>
        <time>2017-01-05T14:23:27.000Z</time>
      </trkpt>
      <trkpt lat="48.48049" lon="-2.90511">
        <ele>193</ele>
        <time>2017-01-05T14:23:28.000Z</time>
      </trkpt>
      <trkpt lat="48.48053" lon="-2.90512">
        <ele>193</ele>
        <time>2017-01-05T14:23:29.000Z</time>
      </trkpt>
      <trkpt lat="48.48057" lon="-2.90514">
        <ele>193</ele>
        <time>2017-01-05T14:23:30.000Z</time>
      </trkpt>
      <trkpt lat="48.48062" lon="-2.90514">
        <ele>193</ele>
        <time>2017-01-05T14:23:31.000Z</time>
      </trkpt>
      <trkpt lat="48.48066" lon="-2.90515">
        <ele>193</ele>
        <time>2017-01-05T14:23:32.000Z</time>
      </trkpt>
      <trkpt lat="48.4807" lon="-2.90515">
        <ele>193</ele>
        <time>2017-01-05T14:23:33.000Z</time>
      </trkpt>
      <trkpt lat="48.48074" lon="-2.90514">
        <ele>193</ele>
        <time>2017-01-05T14:23:34.000Z</time>
      </trkpt>
      <trkpt lat="48.48078" lon="-2.90512">
        <ele>193</ele>
        <time>2017-01-05T14:23:35.000Z</time>
      </trkpt>
      <trkpt lat="48.48082" lon="-2.90508">
        <ele>194</ele>
        <time>2017-01-05T14:23:36.000Z</time>
      </trkpt>
      <trkpt lat="48.48085" lon="-2.90504">
        <ele>193</ele>
        <time>2017-01-05T14:23:37.000Z</time>
      </trkpt>
      <trkpt lat="48.48087" lon="-2.90498">
        <ele>194</ele>
        <time>2017-01-05T14:23:38.000Z</time>
      </trkpt>
      <trkpt lat="48.48089" lon="-2.90492">
        <ele>193</ele>
        <time>2017-01-05T14:23:39.000Z</time>
      </trkpt>
      <trkpt lat="48.48091" lon="-2.90485">
        <ele>193</ele>
        <time>2017-01-05T14:23:40.000Z</time>
      </trkpt>
      <trkpt lat="48.48092" lon="-2.90478">
        <ele>193</ele>
        <time>2017-01-05T14:23:41.000Z</time>
      </trkpt>
      <trkpt lat="48.48094" lon="-2.90472">
        <ele>193</ele>
        <time>2017-01-05T14:23:42.000Z</time>
      </trkpt>
      <trkpt lat="48.48095" lon="-2.90465">
        <ele>193</ele>
        <time>2017-01-05T14:23:43.000Z</time>
      </trkpt>
      <trkpt lat="48.48096" lon="-2.90459">
        <ele>193</ele>
        <time>2017-01-05T14:23:44.000Z</time>
      </trkpt>
      <trkpt lat="48.48098" lon="-2.90453">
        <ele>193</ele>
        <time>2017-01-05T14:23:45.000Z</time>
      </trkpt>
      <trkpt lat="48.48099" lon="-2.90446">
        <ele>193</ele>
        <time>2017-01-05T14:23:46.000Z</time>
      </trkpt>
      <trkpt lat="48.481" lon="-2.9044">
        <ele>193</ele>
        <time>2017-01-05T14:23:47.000Z</time>
      </trkpt>
      <trkpt lat="48.48101" lon="-2.90434">
        <ele>193</ele>
        <time>2017-01-05T14:23:48.000Z</time>
      </trkpt>
      <trkpt lat="48.48102" lon="-2.90428">
        <ele>193</ele>
        <time>2017-01-05T14:23:49.000Z</time>
      </trkpt>
      <trkpt lat="48.48104" lon="-2.90422">
        <ele>193</ele>
        <time>2017-01-05T14:23:50.000Z</time>
      </trkpt>
      <trkpt lat="48.48105" lon="-2.90417">
        <ele>193</ele>
        <time>2017-01-05T14:23:51.000Z</time>
      </trkpt>
      <trkpt lat="48.48106" lon="-2.90411">
        <ele>193</ele>
        <time>2017-01-05T14:23:52.000Z</time>
      </trkpt>
      <trkpt lat="48.48108" lon="-2.90405">
        <ele>193</ele>
        <time>2017-01-05T14:23:53.000Z</time>
      </trkpt>
      <trkpt lat="48.4811" lon="-2.904">
        <ele>193</ele>
        <time>2017-01-05T14:23:54.000Z</time>
      </trkpt>
      <trkpt lat="48.48112" lon="-2.90395">
        <ele>193</ele>
        <time>2017-01-05T14:23:55.000Z</time>
      </trkpt>
      <trkpt lat="48.48114" lon="-2.90389">
        <ele>193</ele>
        <time>2017-01-05T14:23:56.000Z</time>
      </trkpt>
      <trkpt lat="48.48116" lon="-2.90384">
        <ele>193</ele>
        <time>2017-01-05T14:23:57.000Z</time>
      </trkpt>
      <trkpt lat="48.48118" lon="-2.90378">
        <ele>193</ele>
        <time>2017-01-05T14:23:58.000Z</time>
      </trkpt>
      <trkpt lat="48.4812" lon="-2.90373">
        <ele>193</ele>
        <time>2017-01-05T14:23:59.000Z</time>
      </trkpt>
      <trkpt lat="48.48122" lon="-2.90367">
        <ele>193</ele>
        <time>2017-01-05T14:24:00.000Z</time>
      </trkpt>
      <trkpt lat="48.48125" lon="-2.90362">
        <ele>193</ele>
        <time>2017-01-05T14:24:01.000Z</time>
      </trkpt>
      <trkpt lat="48.48127" lon="-2.90357">
        <ele>193</ele>
        <time>2017-01-05T14:24:02.000Z</time>
      </trkpt>
      <trkpt lat="48.48129" lon="-2.90352">
        <ele>193</ele>
        <time>2017-01-05T14:24:03.000Z</time>
      </trkpt>
      <trkpt lat="48.48132" lon="-2.90347">
        <ele>193</ele>
        <time>2017-01-05T14:24:04.000Z</time>
      </trkpt>
      <trkpt lat="48.48134" lon="-2.90342">
        <ele>193</ele>
        <time>2017-01-05T14:24:05.000Z</time>
      </trkpt>
      <trkpt lat="48.48136" lon="-2.90336">
        <ele>193</ele>
        <time>2017-01-05T14:24:06.000Z</time>
      </trkpt>
      <trkpt lat="48.48139" lon="-2.90331">
        <ele>193</ele>
        <time>2017-01-05T14:24:07.000Z</time>
      </trkpt>
      <trkpt lat="48.48141" lon="-2.90325">
        <ele>193</ele>
        <time>2017-01-05T14:24:08.000Z</time>
      </trkpt>
      <trkpt lat="48.48143" lon="-2.9032">
        <ele>193</ele>
        <time>2017-01-05T14:24:09.000Z</time>
      </trkpt>
      <trkpt lat="48.48145" lon="-2.90314">
        <ele>193</ele>
        <time>2017-01-05T14:24:10.000Z</time>
      </trkpt>
      <trkpt lat="48.48148" lon="-2.90309">
        <ele>193</ele>
        <time>2017-01-05T14:24:11.000Z</time>
      </trkpt>
      <trkpt lat="48.4815" lon="-2.90304">
        <ele>193</ele>
        <time>2017-01-05T14:24:12.000Z</time>
      </trkpt>
      <trkpt lat="48.48153" lon="-2.90298">
        <ele>193</ele>
        <time>2017-01-05T14:24:13.000Z</time>
      </trkpt>
      <trkpt lat="48.48155" lon="-2.90293">
        <ele>193</ele>
        <time>2017-01-05T14:24:14.000Z</time>
      </trkpt>
      <trkpt lat="48.48158" lon="-2.90287">
        <ele>193</ele>
        <time>2017-01-05T14:24:15.000Z</time>
      </trkpt>
      <trkpt lat="48.48161" lon="-2.90281">
        <ele>193</ele>
        <time>2017-01-05T14:24:16.000Z</time>
      </trkpt>
      <trkpt lat="48.48163" lon="-2.90275">
        <ele>193</ele>
        <time>2017-01-05T14:24:17.000Z</time>
      </trkpt>
      <trkpt lat="48.48166" lon="-2.90269">
        <ele>192</ele>
        <time>2017-01-05T14:24:18.000Z</time>
      </trkpt>
      <trkpt lat="48.48168" lon="-2.90263">
        <ele>192</ele>
        <time>2017-01-05T14:24:19.000Z</time>
      </trkpt>
      <trkpt lat="48.4817" lon="-2.90257">
        <ele>192</ele>
        <time>2017-01-05T14:24:20.000Z</time>
      </trkpt>
      <trkpt lat="48.48172" lon="-2.90251">
        <ele>192</ele>
        <time>2017-01-05T14:24:21.000Z</time>
      </trkpt>
      <trkpt lat="48.48174" lon="-2.90245">
        <ele>192</ele>
        <time>2017-01-05T14:24:22.000Z</time>
      </trkpt>
      <trkpt lat="48.48176" lon="-2.90239">
        <ele>192</ele>
        <time>2017-01-05T14:24:23.000Z</time>
      </trkpt>
      <trkpt lat="48.48178" lon="-2.90233">
        <ele>192</ele>
        <time>2017-01-05T14:24:24.000Z</time>
      </trkpt>
      <trkpt lat="48.4818" lon="-2.90227">
        <ele>192</ele>
        <time>2017-01-05T14:24:25.000Z</time>
      </trkpt>
      <trkpt lat="48.48182" lon="-2.90222">
        <ele>192</ele>
        <time>2017-01-05T14:24:26.000Z</time>
      </trkpt>
      <trkpt lat="48.48184" lon="-2.90216">
        <ele>192</ele>
        <time>2017-01-05T14:24:27.000Z</time>
      </trkpt>
      <trkpt lat="48.48186" lon="-2.90211">
        <ele>192</ele>
        <time>2017-01-05T14:24:28.000Z</time>
      </trkpt>
      <trkpt lat="48.48189" lon="-2.90206">
        <ele>192</ele>
        <time>2017-01-05T14:24:29.000Z</time>
      </trkpt>
      <trkpt lat="48.48192" lon="-2.90201">
        <ele>192</ele>
        <time>2017-01-05T14:24:30.000Z</time>
      </trkpt>
      <trkpt lat="48.48196" lon="-2.90198">
        <ele>192</ele>
        <time>2017-01-05T14:24:31.000Z</time>
      </trkpt>
      <trkpt lat="48.48199" lon="-2.90194">
        <ele>192</ele>
        <time>2017-01-05T14:24:32.000Z</time>
      </trkpt>
      <trkpt lat="48.48203" lon="-2.90191">
        <ele>192</ele>
        <time>2017-01-05T14:24:33.000Z</time>
      </trkpt>
      <trkpt lat="48.48206" lon="-2.90188">
        <ele>192</ele>
        <time>2017-01-05T14:24:34.000Z</time>
      </trkpt>
      <trkpt lat="48.4821" lon="-2.90185">
        <ele>192</ele>
        <time>2017-01-05T14:24:35.000Z</time>
      </trkpt>
      <trkpt lat="48.48213" lon="-2.90182">
        <ele>192</ele>
        <time>2017-01-05T14:24:36.000Z</time>
      </trkpt>
      <trkpt lat="48.48216" lon="-2.90179">
        <ele>192</ele>
        <time>2017-01-05T14:24:37.000Z</time>
      </trkpt>
      <trkpt lat="48.48218" lon="-2.90176">
        <ele>192</ele>
        <time>2017-01-05T14:24:38.000Z</time>
      </trkpt>
      <trkpt lat="48.48221" lon="-2.90171">
        <ele>192</ele>
        <time>2017-01-05T14:24:39.000Z</time>
      </trkpt>
      <trkpt lat="48.48223" lon="-2.90167">
        <ele>192</ele>
        <time>2017-01-05T14:24:40.000Z</time>
      </trkpt>
      <trkpt lat="48.48224" lon="-2.90161">
        <ele>192</ele>
        <time>2017-01-05T14:24:41.000Z</time>
      </trkpt>
      <trkpt lat="48.48225" lon="-2.90156">
        <ele>192</ele>
        <time>2017-01-05T14:24:42.000Z</time>
      </trkpt>
      <trkpt lat="48.48227" lon="-2.9015">
        <ele>192</ele>
        <time>2017-01-05T14:24:43.000Z</time>
      </trkpt>
      <trkpt lat="48.48228" lon="-2.90143">
        <ele>192</ele>
        <time>2017-01-05T14:24:44.000Z</time>
      </trkpt>
      <trkpt lat="48.48229" lon="-2.90137">
        <ele>192</ele>
        <time>2017-01-05T14:24:45.000Z</time>
      </trkpt>
      <trkpt lat="48.48228" lon="-2.90131">
        <ele>192</ele>
        <time>2017-01-05T14:24:46.000Z</time>
      </trkpt>
      <trkpt lat="48.48229" lon="-2.90125">
        <ele>192</ele>
        <time>2017-01-05T14:24:47.000Z</time>
      </trkpt>
      <trkpt lat="48.48229" lon="-2.9012">
        <ele>192</ele>
        <time>2017-01-05T14:24:48.000Z</time>
      </trkpt>
      <trkpt lat="48.48229" lon="-2.90115">
        <ele>192</ele>
        <time>2017-01-05T14:24:49.000Z</time>
      </trkpt>
      <trkpt lat="48.4823" lon="-2.90111">
        <ele>192</ele>
        <time>2017-01-05T14:24:50.000Z</time>
      </trkpt>
      <trkpt lat="48.48231" lon="-2.90107">
        <ele>192</ele>
        <time>2017-01-05T14:24:51.000Z</time>
      </trkpt>
      <trkpt lat="48.48233" lon="-2.90103">
        <ele>192</ele>
        <time>2017-01-05T14:24:52.000Z</time>
      </trkpt>
      <trkpt lat="48.48234" lon="-2.90099">
        <ele>192</ele>
        <time>2017-01-05T14:24:53.000Z</time>
      </trkpt>
      <trkpt lat="48.48235" lon="-2.90095">
        <ele>191</ele>
        <time>2017-01-05T14:24:54.000Z</time>
      </trkpt>
      <trkpt lat="48.48237" lon="-2.9009">
        <ele>191</ele>
        <time>2017-01-05T14:24:55.000Z</time>
      </trkpt>
      <trkpt lat="48.48238" lon="-2.90086">
        <ele>191</ele>
        <time>2017-01-05T14:24:56.000Z</time>
      </trkpt>
      <trkpt lat="48.4824" lon="-2.90082">
        <ele>191</ele>
        <time>2017-01-05T14:24:57.000Z</time>
      </trkpt>
      <trkpt lat="48.48241" lon="-2.90078">
        <ele>191</ele>
        <time>2017-01-05T14:24:58.000Z</time>
      </trkpt>
      <trkpt lat="48.48243" lon="-2.90074">
        <ele>191</ele>
        <time>2017-01-05T14:24:59.000Z</time>
      </trkpt>
      <trkpt lat="48.48245" lon="-2.9007">
        <ele>191</ele>
        <time>2017-01-05T14:25:00.000Z</time>
      </trkpt>
      <trkpt lat="48.48247" lon="-2.90066">
        <ele>191</ele>
        <time>2017-01-05T14:25:01.000Z</time>
      </trkpt>
      <trkpt lat="48.48248" lon="-2.90062">
        <ele>192</ele>
        <time>2017-01-05T14:25:02.000Z</time>
      </trkpt>
      <trkpt lat="48.4825" lon="-2.90058">
        <ele>190</ele>
        <time>2017-01-05T14:25:03.000Z</time>
      </trkpt>
      <trkpt lat="48.48252" lon="-2.90055">
        <ele>190</ele>
        <time>2017-01-05T14:25:04.000Z</time>
      </trkpt>
      <trkpt lat="48.48254" lon="-2.90051">
        <ele>191</ele>
        <time>2017-01-05T14:25:05.000Z</time>
      </trkpt>
      <trkpt lat="48.48256" lon="-2.90047">
        <ele>191</ele>
        <time>2017-01-05T14:25:06.000Z</time>
      </trkpt>
      <trkpt lat="48.48258" lon="-2.90043">
        <ele>191</ele>
        <time>2017-01-05T14:25:07.000Z</time>
      </trkpt>
      <trkpt lat="48.4826" lon="-2.90038">
        <ele>191</ele>
        <time>2017-01-05T14:25:08.000Z</time>
      </trkpt>
      <trkpt lat="48.48262" lon="-2.90034">
        <ele>191</ele>
        <time>2017-01-05T14:25:09.000Z</time>
      </trkpt>
      <trkpt lat="48.48263" lon="-2.9003">
        <ele>191</ele>
        <time>2017-01-05T14:25:10.000Z</time>
      </trkpt>
      <trkpt lat="48.48265" lon="-2.90026">
        <ele>191</ele>
        <time>2017-01-05T14:25:11.000Z</time>
      </trkpt>
      <trkpt lat="48.48267" lon="-2.90022">
        <ele>191</ele>
        <time>2017-01-05T14:25:12.000Z</time>
      </trkpt>
      <trkpt lat="48.48268" lon="-2.90018">
        <ele>191</ele>
        <time>2017-01-05T14:25:13.000Z</time>
      </trkpt>
      <trkpt lat="48.4827" lon="-2.90015">
        <ele>191</ele>
        <time>2017-01-05T14:25:14.000Z</time>
      </trkpt>
      <trkpt lat="48.48272" lon="-2.90012">
        <ele>191</ele>
        <time>2017-01-05T14:25:15.000Z</time>
      </trkpt>
      <trkpt lat="48.48273" lon="-2.90008">
        <ele>191</ele>
        <time>2017-01-05T14:25:16.000Z</time>
      </trkpt>
      <trkpt lat="48.48275" lon="-2.90004">
        <ele>191</ele>
        <time>2017-01-05T14:25:17.000Z</time>
      </trkpt>
      <trkpt lat="48.48278" lon="-2.9">
        <ele>191</ele>
        <time>2017-01-05T14:25:18.000Z</time>
      </trkpt>
      <trkpt lat="48.4828" lon="-2.89996">
        <ele>191</ele>
        <time>2017-01-05T14:25:19.000Z</time>
      </trkpt>
      <trkpt lat="48.48282" lon="-2.89992">
        <ele>191</ele>
        <time>2017-01-05T14:25:20.000Z</time>
      </trkpt>
      <trkpt lat="48.48284" lon="-2.89989">
        <ele>191</ele>
        <time>2017-01-05T14:25:21.000Z</time>
      </trkpt>
      <trkpt lat="48.48285" lon="-2.89986">
        <ele>191</ele>
        <time>2017-01-05T14:25:22.000Z</time>
      </trkpt>
      <trkpt lat="48.48287" lon="-2.89982">
        <ele>191</ele>
        <time>2017-01-05T14:25:23.000Z</time>
      </trkpt>
      <trkpt lat="48.48288" lon="-2.89978">
        <ele>191</ele>
        <time>2017-01-05T14:25:24.000Z</time>
      </trkpt>
      <trkpt lat="48.4829" lon="-2.89974">
        <ele>191</ele>
        <time>2017-01-05T14:25:25.000Z</time>
      </trkpt>
      <trkpt lat="48.48292" lon="-2.8997">
        <ele>191</ele>
        <time>2017-01-05T14:25:26.000Z</time>
      </trkpt>
      <trkpt lat="48.48294" lon="-2.89966">
        <ele>191</ele>
        <time>2017-01-05T14:25:27.000Z</time>
      </trkpt>
      <trkpt lat="48.48295" lon="-2.89962">
        <ele>191</ele>
        <time>2017-01-05T14:25:28.000Z</time>
      </trkpt>
      <trkpt lat="48.48297" lon="-2.89957">
        <ele>191</ele>
        <time>2017-01-05T14:25:29.000Z</time>
      </trkpt>
      <trkpt lat="48.48299" lon="-2.89954">
        <ele>191</ele>
        <time>2017-01-05T14:25:30.000Z</time>
      </trkpt>
      <trkpt lat="48.48301" lon="-2.8995">
        <ele>191</ele>
        <time>2017-01-05T14:25:31.000Z</time>
      </trkpt>
      <trkpt lat="48.48302" lon="-2.89946">
        <ele>191</ele>
        <time>2017-01-05T14:25:32.000Z</time>
      </trkpt>
      <trkpt lat="48.48305" lon="-2.89941">
        <ele>191</ele>
        <time>2017-01-05T14:25:33.000Z</time>
      </trkpt>
      <trkpt lat="48.48307" lon="-2.89937">
        <ele>191</ele>
        <time>2017-01-05T14:25:34.000Z</time>
      </trkpt>
      <trkpt lat="48.48309" lon="-2.89933">
        <ele>191</ele>
        <time>2017-01-05T14:25:35.000Z</time>
      </trkpt>
      <trkpt lat="48.48311" lon="-2.89929">
        <ele>191</ele>
        <time>2017-01-05T14:25:36.000Z</time>
      </trkpt>
      <trkpt lat="48.48313" lon="-2.89926">
        <ele>192</ele>
        <time>2017-01-05T14:25:37.000Z</time>
      </trkpt>
      <trkpt lat="48.48315" lon="-2.89922">
        <ele>192</ele>
        <time>2017-01-05T14:25:38.000Z</time>
      </trkpt>
      <trkpt lat="48.48317" lon="-2.89918">
        <ele>192</ele>
        <time>2017-01-05T14:25:39.000Z</time>
      </trkpt>
      <trkpt lat="48.4832" lon="-2.89913">
        <ele>192</ele>
        <time>2017-01-05T14:25:40.000Z</time>
      </trkpt>
      <trkpt lat="48.48323" lon="-2.89908">
        <ele>192</ele>
        <time>2017-01-05T14:25:41.000Z</time>
      </trkpt>
      <trkpt lat="48.48325" lon="-2.89904">
        <ele>192</ele>
        <time>2017-01-05T14:25:42.000Z</time>
      </trkpt>
      <trkpt lat="48.48327" lon="-2.899">
        <ele>192</ele>
        <time>2017-01-05T14:25:43.000Z</time>
      </trkpt>
      <trkpt lat="48.48329" lon="-2.89897">
        <ele>192</ele>
        <time>2017-01-05T14:25:44.000Z</time>
      </trkpt>
      <trkpt lat="48.4833" lon="-2.89893">
        <ele>192</ele>
        <time>2017-01-05T14:25:45.000Z</time>
      </trkpt>
      <trkpt lat="48.48332" lon="-2.89889">
        <ele>192</ele>
        <time>2017-01-05T14:25:46.000Z</time>
      </trkpt>
      <trkpt lat="48.48334" lon="-2.89884">
        <ele>192</ele>
        <time>2017-01-05T14:25:47.000Z</time>
      </trkpt>
      <trkpt lat="48.48336" lon="-2.89879">
        <ele>192</ele>
        <time>2017-01-05T14:25:48.000Z</time>
      </trkpt>
      <trkpt lat="48.48338" lon="-2.89875">
        <ele>192</ele>
        <time>2017-01-05T14:25:49.000Z</time>
      </trkpt>
      <trkpt lat="48.4834" lon="-2.89871">
        <ele>192</ele>
        <time>2017-01-05T14:25:50.000Z</time>
      </trkpt>
      <trkpt lat="48.48344" lon="-2.89866">
        <ele>192</ele>
        <time>2017-01-05T14:25:51.000Z</time>
      </trkpt>
      <trkpt lat="48.48347" lon="-2.89864">
        <ele>192</ele>
        <time>2017-01-05T14:25:52.000Z</time>
      </trkpt>
      <trkpt lat="48.4835" lon="-2.89863">
        <ele>192</ele>
        <time>2017-01-05T14:25:53.000Z</time>
      </trkpt>
      <trkpt lat="48.48353" lon="-2.89864">
        <ele>192</ele>
        <time>2017-01-05T14:25:54.000Z</time>
      </trkpt>
      <trkpt lat="48.48356" lon="-2.89865">
        <ele>192</ele>
        <time>2017-01-05T14:25:55.000Z</time>
      </trkpt>
      <trkpt lat="48.48359" lon="-2.89867">
        <ele>192</ele>
        <time>2017-01-05T14:25:56.000Z</time>
      </trkpt>
      <trkpt lat="48.48361" lon="-2.8987">
        <ele>192</ele>
        <time>2017-01-05T14:25:57.000Z</time>
      </trkpt>
      <trkpt lat="48.48364" lon="-2.89872">
        <ele>192</ele>
        <time>2017-01-05T14:25:58.000Z</time>
      </trkpt>
      <trkpt lat="48.48367" lon="-2.89873">
        <ele>192</ele>
        <time>2017-01-05T14:25:59.000Z</time>
      </trkpt>
      <trkpt lat="48.4837" lon="-2.89874">
        <ele>192</ele>
        <time>2017-01-05T14:26:00.000Z</time>
      </trkpt>
      <trkpt lat="48.48373" lon="-2.89875">
        <ele>192</ele>
        <time>2017-01-05T14:26:01.000Z</time>
      </trkpt>
      <trkpt lat="48.48378" lon="-2.89875">
        <ele>192</ele>
        <time>2017-01-05T14:26:02.000Z</time>
      </trkpt>
      <trkpt lat="48.48382" lon="-2.89876">
        <ele>192</ele>
        <time>2017-01-05T14:26:03.000Z</time>
      </trkpt>
      <trkpt lat="48.48386" lon="-2.89876">
        <ele>192</ele>
        <time>2017-01-05T14:26:04.000Z</time>
      </trkpt>
      <trkpt lat="48.4839" lon="-2.89877">
        <ele>192</ele>
        <time>2017-01-05T14:26:05.000Z</time>
      </trkpt>
      <trkpt lat="48.48393" lon="-2.89877">
        <ele>192</ele>
        <time>2017-01-05T14:26:06.000Z</time>
      </trkpt>
      <trkpt lat="48.48397" lon="-2.89876">
        <ele>192</ele>
        <time>2017-01-05T14:26:07.000Z</time>
      </trkpt>
      <trkpt lat="48.484" lon="-2.89876">
        <ele>192</ele>
        <time>2017-01-05T14:26:08.000Z</time>
      </trkpt>
      <trkpt lat="48.48403" lon="-2.89875">
        <ele>192</ele>
        <time>2017-01-05T14:26:09.000Z</time>
      </trkpt>
      <trkpt lat="48.48406" lon="-2.89875">
        <ele>192</ele>
        <time>2017-01-05T14:26:10.000Z</time>
      </trkpt>
      <trkpt lat="48.48409" lon="-2.89874">
        <ele>192</ele>
        <time>2017-01-05T14:26:11.000Z</time>
      </trkpt>
      <trkpt lat="48.48412" lon="-2.89874">
        <ele>192</ele>
        <time>2017-01-05T14:26:12.000Z</time>
      </trkpt>
      <trkpt lat="48.48415" lon="-2.89873">
        <ele>192</ele>
        <time>2017-01-05T14:26:13.000Z</time>
      </trkpt>
      <trkpt lat="48.48417" lon="-2.89871">
        <ele>191</ele>
        <time>2017-01-05T14:26:14.000Z</time>
      </trkpt>
      <trkpt lat="48.48419" lon="-2.89868">
        <ele>191</ele>
        <time>2017-01-05T14:26:15.000Z</time>
      </trkpt>
      <trkpt lat="48.48421" lon="-2.89865">
        <ele>191</ele>
        <time>2017-01-05T14:26:16.000Z</time>
      </trkpt>
      <trkpt lat="48.48422" lon="-2.89861">
        <ele>191</ele>
        <time>2017-01-05T14:26:17.000Z</time>
      </trkpt>
      <trkpt lat="48.48424" lon="-2.89857">
        <ele>191</ele>
        <time>2017-01-05T14:26:18.000Z</time>
      </trkpt>
      <trkpt lat="48.48425" lon="-2.89852">
        <ele>191</ele>
        <time>2017-01-05T14:26:19.000Z</time>
      </trkpt>
      <trkpt lat="48.48427" lon="-2.89848">
        <ele>192</ele>
        <time>2017-01-05T14:26:20.000Z</time>
      </trkpt>
      <trkpt lat="48.48428" lon="-2.89843">
        <ele>192</ele>
        <time>2017-01-05T14:26:21.000Z</time>
      </trkpt>
      <trkpt lat="48.48429" lon="-2.89838">
        <ele>192</ele>
        <time>2017-01-05T14:26:22.000Z</time>
      </trkpt>
      <trkpt lat="48.4843" lon="-2.89833">
        <ele>192</ele>
        <time>2017-01-05T14:26:23.000Z</time>
      </trkpt>
      <trkpt lat="48.48431" lon="-2.89828">
        <ele>192</ele>
        <time>2017-01-05T14:26:24.000Z</time>
      </trkpt>
      <trkpt lat="48.48432" lon="-2.89823">
        <ele>192</ele>
        <time>2017-01-05T14:26:25.000Z</time>
      </trkpt>
      <trkpt lat="48.48433" lon="-2.89818">
        <ele>192</ele>
        <time>2017-01-05T14:26:26.000Z</time>
      </trkpt>
      <trkpt lat="48.48434" lon="-2.89813">
        <ele>192</ele>
        <time>2017-01-05T14:26:27.000Z</time>
      </trkpt>
      <trkpt lat="48.48435" lon="-2.89809">
        <ele>192</ele>
        <time>2017-01-05T14:26:28.000Z</time>
      </trkpt>
      <trkpt lat="48.48435" lon="-2.89804">
        <ele>192</ele>
        <time>2017-01-05T14:26:29.000Z</time>
      </trkpt>
      <trkpt lat="48.48436" lon="-2.89798">
        <ele>192</ele>
        <time>2017-01-05T14:26:30.000Z</time>
      </trkpt>
      <trkpt lat="48.48436" lon="-2.89793">
        <ele>192</ele>
        <time>2017-01-05T14:26:31.000Z</time>
      </trkpt>
      <trkpt lat="48.48436" lon="-2.89788">
        <ele>192</ele>
        <time>2017-01-05T14:26:32.000Z</time>
      </trkpt>
      <trkpt lat="48.48436" lon="-2.89784">
        <ele>192</ele>
        <time>2017-01-05T14:26:33.000Z</time>
      </trkpt>
      <trkpt lat="48.48435" lon="-2.89779">
        <ele>192</ele>
        <time>2017-01-05T14:26:34.000Z</time>
      </trkpt>
      <trkpt lat="48.48434" lon="-2.89774">
        <ele>192</ele>
        <time>2017-01-05T14:26:35.000Z</time>
      </trkpt>
      <trkpt lat="48.48433" lon="-2.89769">
        <ele>192</ele>
        <time>2017-01-05T14:26:36.000Z</time>
      </trkpt>
      <trkpt lat="48.48431" lon="-2.89764">
        <ele>192</ele>
        <time>2017-01-05T14:26:37.000Z</time>
      </trkpt>
      <trkpt lat="48.4843" lon="-2.89759">
        <ele>192</ele>
        <time>2017-01-05T14:26:38.000Z</time>
      </trkpt>
      <trkpt lat="48.48429" lon="-2.89754">
        <ele>192</ele>
        <time>2017-01-05T14:26:39.000Z</time>
      </trkpt>
      <trkpt lat="48.48427" lon="-2.8975">
        <ele>192</ele>
        <time>2017-01-05T14:26:40.000Z</time>
      </trkpt>
      <trkpt lat="48.48427" lon="-2.89745">
        <ele>192</ele>
        <time>2017-01-05T14:26:41.000Z</time>
      </trkpt>
      <trkpt lat="48.48426" lon="-2.8974">
        <ele>192</ele>
        <time>2017-01-05T14:26:42.000Z</time>
      </trkpt>
      <trkpt lat="48.48426" lon="-2.89735">
        <ele>193</ele>
        <time>2017-01-05T14:26:43.000Z</time>
      </trkpt>
      <trkpt lat="48.48427" lon="-2.8973">
        <ele>193</ele>
        <time>2017-01-05T14:26:44.000Z</time>
      </trkpt>
      <trkpt lat="48.48427" lon="-2.89725">
        <ele>193</ele>
        <time>2017-01-05T14:26:45.000Z</time>
      </trkpt>
      <trkpt lat="48.48427" lon="-2.89721">
        <ele>193</ele>
        <time>2017-01-05T14:26:46.000Z</time>
      </trkpt>
      <trkpt lat="48.48428" lon="-2.89717">
        <ele>193</ele>
        <time>2017-01-05T14:26:47.000Z</time>
      </trkpt>
      <trkpt lat="48.48428" lon="-2.89713">
        <ele>193</ele>
        <time>2017-01-05T14:26:48.000Z</time>
      </trkpt>
      <trkpt lat="48.48429" lon="-2.89708">
        <ele>193</ele>
        <time>2017-01-05T14:26:49.000Z</time>
      </trkpt>
      <trkpt lat="48.48429" lon="-2.89703">
        <ele>193</ele>
        <time>2017-01-05T14:26:50.000Z</time>
      </trkpt>
      <trkpt lat="48.48429" lon="-2.89698">
        <ele>193</ele>
        <time>2017-01-05T14:26:51.000Z</time>
      </trkpt>
      <trkpt lat="48.48428" lon="-2.89693">
        <ele>193</ele>
        <time>2017-01-05T14:26:52.000Z</time>
      </trkpt>
      <trkpt lat="48.48428" lon="-2.89688">
        <ele>193</ele>
        <time>2017-01-05T14:26:53.000Z</time>
      </trkpt>
      <trkpt lat="48.48427" lon="-2.89683">
        <ele>193</ele>
        <time>2017-01-05T14:26:54.000Z</time>
      </trkpt>
      <trkpt lat="48.48427" lon="-2.89678">
        <ele>193</ele>
        <time>2017-01-05T14:26:55.000Z</time>
      </trkpt>
      <trkpt lat="48.48426" lon="-2.89673">
        <ele>193</ele>
        <time>2017-01-05T14:26:56.000Z</time>
      </trkpt>
      <trkpt lat="48.48426" lon="-2.89669">
        <ele>193</ele>
        <time>2017-01-05T14:26:57.000Z</time>
      </trkpt>
      <trkpt lat="48.48426" lon="-2.89664">
        <ele>194</ele>
        <time>2017-01-05T14:26:58.000Z</time>
      </trkpt>
      <trkpt lat="48.48425" lon="-2.89659">
        <ele>194</ele>
        <time>2017-01-05T14:26:59.000Z</time>
      </trkpt>
      <trkpt lat="48.48425" lon="-2.89654">
        <ele>194</ele>
        <time>2017-01-05T14:27:00.000Z</time>
      </trkpt>
      <trkpt lat="48.48424" lon="-2.89649">
        <ele>194</ele>
        <time>2017-01-05T14:27:01.000Z</time>
      </trkpt>
      <trkpt lat="48.48424" lon="-2.89645">
        <ele>195</ele>
        <time>2017-01-05T14:27:02.000Z</time>
      </trkpt>
      <trkpt lat="48.48424" lon="-2.8964">
        <ele>195</ele>
        <time>2017-01-05T14:27:03.000Z</time>
      </trkpt>
      <trkpt lat="48.48423" lon="-2.89635">
        <ele>195</ele>
        <time>2017-01-05T14:27:04.000Z</time>
      </trkpt>
      <trkpt lat="48.48423" lon="-2.8963">
        <ele>195</ele>
        <time>2017-01-05T14:27:05.000Z</time>
      </trkpt>
      <trkpt lat="48.48423" lon="-2.89626">
        <ele>195</ele>
        <time>2017-01-05T14:27:06.000Z</time>
      </trkpt>
      <trkpt lat="48.48422" lon="-2.89621">
        <ele>195</ele>
        <time>2017-01-05T14:27:07.000Z</time>
      </trkpt>
      <trkpt lat="48.48422" lon="-2.89616">
        <ele>196</ele>
        <time>2017-01-05T14:27:08.000Z</time>
      </trkpt>
      <trkpt lat="48.48422" lon="-2.89611">
        <ele>196</ele>
        <time>2017-01-05T14:27:09.000Z</time>
      </trkpt>
      <trkpt lat="48.48421" lon="-2.89606">
        <ele>196</ele>
        <time>2017-01-05T14:27:10.000Z</time>
      </trkpt>
      <trkpt lat="48.48421" lon="-2.89601">
        <ele>196</ele>
        <time>2017-01-05T14:27:11.000Z</time>
      </trkpt>
      <trkpt lat="48.48421" lon="-2.89596">
        <ele>196</ele>
        <time>2017-01-05T14:27:12.000Z</time>
      </trkpt>
      <trkpt lat="48.4842" lon="-2.89591">
        <ele>196</ele>
        <time>2017-01-05T14:27:13.000Z</time>
      </trkpt>
      <trkpt lat="48.48421" lon="-2.89586">
        <ele>196</ele>
        <time>2017-01-05T14:27:14.000Z</time>
      </trkpt>
      <trkpt lat="48.48421" lon="-2.89581">
        <ele>196</ele>
        <time>2017-01-05T14:27:15.000Z</time>
      </trkpt>
      <trkpt lat="48.48421" lon="-2.89576">
        <ele>197</ele>
        <time>2017-01-05T14:27:16.000Z</time>
      </trkpt>
      <trkpt lat="48.48421" lon="-2.89571">
        <ele>197</ele>
        <time>2017-01-05T14:27:17.000Z</time>
      </trkpt>
      <trkpt lat="48.48422" lon="-2.89567">
        <ele>197</ele>
        <time>2017-01-05T14:27:18.000Z</time>
      </trkpt>
      <trkpt lat="48.48423" lon="-2.89562">
        <ele>197</ele>
        <time>2017-01-05T14:27:19.000Z</time>
      </trkpt>
      <trkpt lat="48.48423" lon="-2.89557">
        <ele>197</ele>
        <time>2017-01-05T14:27:20.000Z</time>
      </trkpt>
      <trkpt lat="48.48424" lon="-2.89552">
        <ele>198</ele>
        <time>2017-01-05T14:27:21.000Z</time>
      </trkpt>
      <trkpt lat="48.48425" lon="-2.89548">
        <ele>198</ele>
        <time>2017-01-05T14:27:22.000Z</time>
      </trkpt>
      <trkpt lat="48.48426" lon="-2.89543">
        <ele>198</ele>
        <time>2017-01-05T14:27:23.000Z</time>
      </trkpt>
      <trkpt lat="48.48427" lon="-2.89539">
        <ele>198</ele>
        <time>2017-01-05T14:27:24.000Z</time>
      </trkpt>
      <trkpt lat="48.48428" lon="-2.89534">
        <ele>198</ele>
        <time>2017-01-05T14:27:25.000Z</time>
      </trkpt>
      <trkpt lat="48.48428" lon="-2.8953">
        <ele>198</ele>
        <time>2017-01-05T14:27:26.000Z</time>
      </trkpt>
      <trkpt lat="48.48429" lon="-2.89526">
        <ele>198</ele>
        <time>2017-01-05T14:27:27.000Z</time>
      </trkpt>
      <trkpt lat="48.48428" lon="-2.89522">
        <ele>198</ele>
        <time>2017-01-05T14:27:28.000Z</time>
      </trkpt>
      <trkpt lat="48.48427" lon="-2.89518">
        <ele>198</ele>
        <time>2017-01-05T14:27:29.000Z</time>
      </trkpt>
      <trkpt lat="48.48426" lon="-2.89515">
        <ele>198</ele>
        <time>2017-01-05T14:27:30.000Z</time>
      </trkpt>
      <trkpt lat="48.48424" lon="-2.89513">
        <ele>199</ele>
        <time>2017-01-05T14:27:31.000Z</time>
      </trkpt>
      <trkpt lat="48.48421" lon="-2.89511">
        <ele>199</ele>
        <time>2017-01-05T14:27:32.000Z</time>
      </trkpt>
      <trkpt lat="48.48418" lon="-2.89511">
        <ele>199</ele>
        <time>2017-01-05T14:27:33.000Z</time>
      </trkpt>
      <trkpt lat="48.48415" lon="-2.89512">
        <ele>198</ele>
        <time>2017-01-05T14:27:34.000Z</time>
      </trkpt>
      <trkpt lat="48.48411" lon="-2.89513">
        <ele>198</ele>
        <time>2017-01-05T14:27:35.000Z</time>
      </trkpt>
      <trkpt lat="48.48408" lon="-2.89513">
        <ele>198</ele>
        <time>2017-01-05T14:27:36.000Z</time>
      </trkpt>
      <trkpt lat="48.48404" lon="-2.89514">
        <ele>198</ele>
        <time>2017-01-05T14:27:37.000Z</time>
      </trkpt>
      <trkpt lat="48.484" lon="-2.89514">
        <ele>198</ele>
        <time>2017-01-05T14:27:38.000Z</time>
      </trkpt>
      <trkpt lat="48.48395" lon="-2.89514">
        <ele>197</ele>
        <time>2017-01-05T14:27:39.000Z</time>
      </trkpt>
      <trkpt lat="48.48391" lon="-2.89515">
        <ele>197</ele>
        <time>2017-01-05T14:27:40.000Z</time>
      </trkpt>
      <trkpt lat="48.48386" lon="-2.89515">
        <ele>197</ele>
        <time>2017-01-05T14:27:41.000Z</time>
      </trkpt>
      <trkpt lat="48.48381" lon="-2.89514">
        <ele>197</ele>
        <time>2017-01-05T14:27:42.000Z</time>
      </trkpt>
      <trkpt lat="48.48376" lon="-2.89514">
        <ele>197</ele>
        <time>2017-01-05T14:27:43.000Z</time>
      </trkpt>
      <trkpt lat="48.48371" lon="-2.89513">
        <ele>197</ele>
        <time>2017-01-05T14:27:44.000Z</time>
      </trkpt>
      <trkpt lat="48.48366" lon="-2.89512">
        <ele>197</ele>
        <time>2017-01-05T14:27:45.000Z</time>
      </trkpt>
      <trkpt lat="48.48361" lon="-2.89511">
        <ele>197</ele>
        <time>2017-01-05T14:27:46.000Z</time>
      </trkpt>
      <trkpt lat="48.48356" lon="-2.8951">
        <ele>197</ele>
        <time>2017-01-05T14:27:47.000Z</time>
      </trkpt>
      <trkpt lat="48.48351" lon="-2.89509">
        <ele>197</ele>
        <time>2017-01-05T14:27:48.000Z</time>
      </trkpt>
      <trkpt lat="48.48347" lon="-2.89507">
        <ele>197</ele>
        <time>2017-01-05T14:27:49.000Z</time>
      </trkpt>
      <trkpt lat="48.48342" lon="-2.89505">
        <ele>197</ele>
        <time>2017-01-05T14:27:50.000Z</time>
      </trkpt>
      <trkpt lat="48.48337" lon="-2.89503">
        <ele>197</ele>
        <time>2017-01-05T14:27:51.000Z</time>
      </trkpt>
      <trkpt lat="48.48332" lon="-2.89501">
        <ele>197</ele>
        <time>2017-01-05T14:27:52.000Z</time>
      </trkpt>
      <trkpt lat="48.48327" lon="-2.89498">
        <ele>198</ele>
        <time>2017-01-05T14:27:53.000Z</time>
      </trkpt>
      <trkpt lat="48.48323" lon="-2.89495">
        <ele>198</ele>
        <time>2017-01-05T14:27:54.000Z</time>
      </trkpt>
      <trkpt lat="48.48318" lon="-2.89493">
        <ele>198</ele>
        <time>2017-01-05T14:27:55.000Z</time>
      </trkpt>
      <trkpt lat="48.48313" lon="-2.8949">
        <ele>198</ele>
        <time>2017-01-05T14:27:56.000Z</time>
      </trkpt>
      <trkpt lat="48.48308" lon="-2.89488">
        <ele>199</ele>
        <time>2017-01-05T14:27:57.000Z</time>
      </trkpt>
      <trkpt lat="48.48304" lon="-2.89485">
        <ele>199</ele>
        <time>2017-01-05T14:27:58.000Z</time>
      </trkpt>
      <trkpt lat="48.48299" lon="-2.89482">
        <ele>199</ele>
        <time>2017-01-05T14:27:59.000Z</time>
      </trkpt>
      <trkpt lat="48.48294" lon="-2.89479">
        <ele>199</ele>
        <time>2017-01-05T14:28:00.000Z</time>
      </trkpt>
      <trkpt lat="48.4829" lon="-2.89477">
        <ele>199</ele>
        <time>2017-01-05T14:28:01.000Z</time>
      </trkpt>
      <trkpt lat="48.48285" lon="-2.89474">
        <ele>199</ele>
        <time>2017-01-05T14:28:02.000Z</time>
      </trkpt>
      <trkpt lat="48.48281" lon="-2.89472">
        <ele>199</ele>
        <time>2017-01-05T14:28:03.000Z</time>
      </trkpt>
      <trkpt lat="48.48277" lon="-2.89469">
        <ele>199</ele>
        <time>2017-01-05T14:28:04.000Z</time>
      </trkpt>
      <trkpt lat="48.48273" lon="-2.89467">
        <ele>199</ele>
        <time>2017-01-05T14:28:05.000Z</time>
      </trkpt>
      <trkpt lat="48.4827" lon="-2.89464">
        <ele>199</ele>
        <time>2017-01-05T14:28:06.000Z</time>
      </trkpt>
      <trkpt lat="48.48267" lon="-2.89462">
        <ele>199</ele>
        <time>2017-01-05T14:28:07.000Z</time>
      </trkpt>
      <trkpt lat="48.48264" lon="-2.89461">
        <ele>199</ele>
        <time>2017-01-05T14:28:08.000Z</time>
      </trkpt>
      <trkpt lat="48.48262" lon="-2.89459">
        <ele>199</ele>
        <time>2017-01-05T14:28:09.000Z</time>
      </trkpt>
      <trkpt lat="48.4826" lon="-2.89457">
        <ele>199</ele>
        <time>2017-01-05T14:28:10.000Z</time>
      </trkpt>
      <trkpt lat="48.48259" lon="-2.89455">
        <ele>199</ele>
        <time>2017-01-05T14:28:11.000Z</time>
      </trkpt>
      <trkpt lat="48.48258" lon="-2.89451">
        <ele>199</ele>
        <time>2017-01-05T14:28:12.000Z</time>
      </trkpt>
      <trkpt lat="48.48257" lon="-2.89448">
        <ele>199</ele>
        <time>2017-01-05T14:28:13.000Z</time>
      </trkpt>
      <trkpt lat="48.48258" lon="-2.89443">
        <ele>199</ele>
        <time>2017-01-05T14:28:14.000Z</time>
      </trkpt>
      <trkpt lat="48.48259" lon="-2.89438">
        <ele>200</ele>
        <time>2017-01-05T14:28:15.000Z</time>
      </trkpt>
      <trkpt lat="48.48259" lon="-2.89433">
        <ele>200</ele>
        <time>2017-01-05T14:28:16.000Z</time>
      </trkpt>
      <trkpt lat="48.4826" lon="-2.89428">
        <ele>200</ele>
        <time>2017-01-05T14:28:17.000Z</time>
      </trkpt>
      <trkpt lat="48.48261" lon="-2.89422">
        <ele>200</ele>
        <time>2017-01-05T14:28:18.000Z</time>
      </trkpt>
      <trkpt lat="48.48262" lon="-2.89417">
        <ele>200</ele>
        <time>2017-01-05T14:28:19.000Z</time>
      </trkpt>
      <trkpt lat="48.48262" lon="-2.89412">
        <ele>201</ele>
        <time>2017-01-05T14:28:20.000Z</time>
      </trkpt>
      <trkpt lat="48.48262" lon="-2.89406">
        <ele>201</ele>
        <time>2017-01-05T14:28:21.000Z</time>
      </trkpt>
      <trkpt lat="48.48261" lon="-2.89401">
        <ele>201</ele>
        <time>2017-01-05T14:28:22.000Z</time>
      </trkpt>
      <trkpt lat="48.48261" lon="-2.89395">
        <ele>201</ele>
        <time>2017-01-05T14:28:23.000Z</time>
      </trkpt>
      <trkpt lat="48.4826" lon="-2.8939">
        <ele>201</ele>
        <time>2017-01-05T14:28:24.000Z</time>
      </trkpt>
      <trkpt lat="48.4826" lon="-2.89385">
        <ele>201</ele>
        <time>2017-01-05T14:28:25.000Z</time>
      </trkpt>
      <trkpt lat="48.48259" lon="-2.8938">
        <ele>202</ele>
        <time>2017-01-05T14:28:26.000Z</time>
      </trkpt>
      <trkpt lat="48.48258" lon="-2.89375">
        <ele>202</ele>
        <time>2017-01-05T14:28:27.000Z</time>
      </trkpt>
      <trkpt lat="48.48257" lon="-2.8937">
        <ele>202</ele>
        <time>2017-01-05T14:28:28.000Z</time>
      </trkpt>
      <trkpt lat="48.48255" lon="-2.89365">
        <ele>202</ele>
        <time>2017-01-05T14:28:29.000Z</time>
      </trkpt>
      <trkpt lat="48.48254" lon="-2.89359">
        <ele>202</ele>
        <time>2017-01-05T14:28:30.000Z</time>
      </trkpt>
      <trkpt lat="48.48252" lon="-2.89355">
        <ele>202</ele>
        <time>2017-01-05T14:28:31.000Z</time>
      </trkpt>
      <trkpt lat="48.4825" lon="-2.8935">
        <ele>202</ele>
        <time>2017-01-05T14:28:32.000Z</time>
      </trkpt>
      <trkpt lat="48.48249" lon="-2.89345">
        <ele>202</ele>
        <time>2017-01-05T14:28:33.000Z</time>
      </trkpt>
      <trkpt lat="48.48247" lon="-2.89341">
        <ele>202</ele>
        <time>2017-01-05T14:28:34.000Z</time>
      </trkpt>
      <trkpt lat="48.48245" lon="-2.89336">
        <ele>202</ele>
        <time>2017-01-05T14:28:35.000Z</time>
      </trkpt>
      <trkpt lat="48.48243" lon="-2.89332">
        <ele>202</ele>
        <time>2017-01-05T14:28:36.000Z</time>
      </trkpt>
      <trkpt lat="48.48241" lon="-2.89328">
        <ele>202</ele>
        <time>2017-01-05T14:28:37.000Z</time>
      </trkpt>
      <trkpt lat="48.48239" lon="-2.89324">
        <ele>202</ele>
        <time>2017-01-05T14:28:38.000Z</time>
      </trkpt>
      <trkpt lat="48.48237" lon="-2.8932">
        <ele>202</ele>
        <time>2017-01-05T14:28:39.000Z</time>
      </trkpt>
      <trkpt lat="48.48234" lon="-2.89317">
        <ele>202</ele>
        <time>2017-01-05T14:28:40.000Z</time>
      </trkpt>
      <trkpt lat="48.48232" lon="-2.89314">
        <ele>202</ele>
        <time>2017-01-05T14:28:41.000Z</time>
      </trkpt>
      <trkpt lat="48.48229" lon="-2.89311">
        <ele>202</ele>
        <time>2017-01-05T14:28:42.000Z</time>
      </trkpt>
      <trkpt lat="48.48226" lon="-2.89309">
        <ele>202</ele>
        <time>2017-01-05T14:28:43.000Z</time>
      </trkpt>
      <trkpt lat="48.48222" lon="-2.89308">
        <ele>202</ele>
        <time>2017-01-05T14:28:44.000Z</time>
      </trkpt>
      <trkpt lat="48.48219" lon="-2.89307">
        <ele>202</ele>
        <time>2017-01-05T14:28:45.000Z</time>
      </trkpt>
      <trkpt lat="48.48216" lon="-2.89305">
        <ele>202</ele>
        <time>2017-01-05T14:28:46.000Z</time>
      </trkpt>
      <trkpt lat="48.48213" lon="-2.89304">
        <ele>202</ele>
        <time>2017-01-05T14:28:47.000Z</time>
      </trkpt>
      <trkpt lat="48.48211" lon="-2.89302">
        <ele>202</ele>
        <time>2017-01-05T14:28:48.000Z</time>
      </trkpt>
      <trkpt lat="48.4821" lon="-2.89299">
        <ele>202</ele>
        <time>2017-01-05T14:28:49.000Z</time>
      </trkpt>
      <trkpt lat="48.48209" lon="-2.89295">
        <ele>202</ele>
        <time>2017-01-05T14:28:50.000Z</time>
      </trkpt>
      <trkpt lat="48.48209" lon="-2.89291">
        <ele>203</ele>
        <time>2017-01-05T14:28:51.000Z</time>
      </trkpt>
      <trkpt lat="48.48209" lon="-2.89287">
        <ele>203</ele>
        <time>2017-01-05T14:28:52.000Z</time>
      </trkpt>
      <trkpt lat="48.4821" lon="-2.89283">
        <ele>203</ele>
        <time>2017-01-05T14:28:53.000Z</time>
      </trkpt>
      <trkpt lat="48.48211" lon="-2.89279">
        <ele>203</ele>
        <time>2017-01-05T14:28:54.000Z</time>
      </trkpt>
      <trkpt lat="48.48212" lon="-2.89275">
        <ele>203</ele>
        <time>2017-01-05T14:28:55.000Z</time>
      </trkpt>
      <trkpt lat="48.48214" lon="-2.89271">
        <ele>203</ele>
        <time>2017-01-05T14:28:56.000Z</time>
      </trkpt>
      <trkpt lat="48.48215" lon="-2.89267">
        <ele>203</ele>
        <time>2017-01-05T14:28:57.000Z</time>
      </trkpt>
      <trkpt lat="48.48216" lon="-2.89262">
        <ele>203</ele>
        <time>2017-01-05T14:28:58.000Z</time>
      </trkpt>
      <trkpt lat="48.48218" lon="-2.89257">
        <ele>203</ele>
        <time>2017-01-05T14:28:59.000Z</time>
      </trkpt>
      <trkpt lat="48.48219" lon="-2.89253">
        <ele>203</ele>
        <time>2017-01-05T14:29:00.000Z</time>
      </trkpt>
      <trkpt lat="48.4822" lon="-2.89248">
        <ele>203</ele>
        <time>2017-01-05T14:29:01.000Z</time>
      </trkpt>
      <trkpt lat="48.48221" lon="-2.89243">
        <ele>203</ele>
        <time>2017-01-05T14:29:02.000Z</time>
      </trkpt>
      <trkpt lat="48.48223" lon="-2.89238">
        <ele>203</ele>
        <time>2017-01-05T14:29:03.000Z</time>
      </trkpt>
      <trkpt lat="48.48224" lon="-2.89234">
        <ele>203</ele>
        <time>2017-01-05T14:29:04.000Z</time>
      </trkpt>
      <trkpt lat="48.48225" lon="-2.89229">
        <ele>203</ele>
        <time>2017-01-05T14:29:05.000Z</time>
      </trkpt>
      <trkpt lat="48.48227" lon="-2.89225">
        <ele>203</ele>
        <time>2017-01-05T14:29:06.000Z</time>
      </trkpt>
      <trkpt lat="48.48228" lon="-2.89221">
        <ele>203</ele>
        <time>2017-01-05T14:29:07.000Z</time>
      </trkpt>
      <trkpt lat="48.4823" lon="-2.89218">
        <ele>203</ele>
        <time>2017-01-05T14:29:08.000Z</time>
      </trkpt>
      <trkpt lat="48.48232" lon="-2.89215">
        <ele>203</ele>
        <time>2017-01-05T14:29:09.000Z</time>
      </trkpt>
      <trkpt lat="48.48235" lon="-2.89212">
        <ele>203</ele>
        <time>2017-01-05T14:29:10.000Z</time>
      </trkpt>
      <trkpt lat="48.48238" lon="-2.8921">
        <ele>203</ele>
        <time>2017-01-05T14:29:11.000Z</time>
      </trkpt>
      <trkpt lat="48.4824" lon="-2.89208">
        <ele>203</ele>
        <time>2017-01-05T14:29:12.000Z</time>
      </trkpt>
      <trkpt lat="48.48243" lon="-2.89206">
        <ele>203</ele>
        <time>2017-01-05T14:29:13.000Z</time>
      </trkpt>
      <trkpt lat="48.48246" lon="-2.89204">
        <ele>203</ele>
        <time>2017-01-05T14:29:14.000Z</time>
      </trkpt>
      <trkpt lat="48.48249" lon="-2.89201">
        <ele>203</ele>
        <time>2017-01-05T14:29:15.000Z</time>
      </trkpt>
      <trkpt lat="48.48251" lon="-2.89198">
        <ele>204</ele>
        <time>2017-01-05T14:29:16.000Z</time>
      </trkpt>
      <trkpt lat="48.48253" lon="-2.89194">
        <ele>204</ele>
        <time>2017-01-05T14:29:17.000Z</time>
      </trkpt>
      <trkpt lat="48.48255" lon="-2.8919">
        <ele>204</ele>
        <time>2017-01-05T14:29:18.000Z</time>
      </trkpt>
      <trkpt lat="48.48257" lon="-2.89186">
        <ele>204</ele>
        <time>2017-01-05T14:29:19.000Z</time>
      </trkpt>
      <trkpt lat="48.48258" lon="-2.89181">
        <ele>204</ele>
        <time>2017-01-05T14:29:20.000Z</time>
      </trkpt>
      <trkpt lat="48.48259" lon="-2.89176">
        <ele>204</ele>
        <time>2017-01-05T14:29:21.000Z</time>
      </trkpt>
      <trkpt lat="48.4826" lon="-2.89171">
        <ele>204</ele>
        <time>2017-01-05T14:29:22.000Z</time>
      </trkpt>
      <trkpt lat="48.48261" lon="-2.89166">
        <ele>204</ele>
        <time>2017-01-05T14:29:23.000Z</time>
      </trkpt>
      <trkpt lat="48.48261" lon="-2.89161">
        <ele>204</ele>
        <time>2017-01-05T14:29:24.000Z</time>
      </trkpt>
      <trkpt lat="48.48261" lon="-2.89156">
        <ele>204</ele>
        <time>2017-01-05T14:29:25.000Z</time>
      </trkpt>
      <trkpt lat="48.48261" lon="-2.8915">
        <ele>204</ele>
        <time>2017-01-05T14:29:26.000Z</time>
      </trkpt>
      <trkpt lat="48.48261" lon="-2.89145">
        <ele>204</ele>
        <time>2017-01-05T14:29:27.000Z</time>
      </trkpt>
      <trkpt lat="48.48261" lon="-2.89139">
        <ele>204</ele>
        <time>2017-01-05T14:29:28.000Z</time>
      </trkpt>
      <trkpt lat="48.48261" lon="-2.89133">
        <ele>204</ele>
        <time>2017-01-05T14:29:29.000Z</time>
      </trkpt>
      <trkpt lat="48.48261" lon="-2.89127">
        <ele>204</ele>
        <time>2017-01-05T14:29:30.000Z</time>
      </trkpt>
      <trkpt lat="48.48261" lon="-2.89122">
        <ele>204</ele>
        <time>2017-01-05T14:29:31.000Z</time>
      </trkpt>
      <trkpt lat="48.4826" lon="-2.89116">
        <ele>204</ele>
        <time>2017-01-05T14:29:32.000Z</time>
      </trkpt>
      <trkpt lat="48.48261" lon="-2.89111">
        <ele>204</ele>
        <time>2017-01-05T14:29:33.000Z</time>
      </trkpt>
      <trkpt lat="48.48261" lon="-2.89105">
        <ele>204</ele>
        <time>2017-01-05T14:29:34.000Z</time>
      </trkpt>
      <trkpt lat="48.48261" lon="-2.891">
        <ele>204</ele>
        <time>2017-01-05T14:29:35.000Z</time>
      </trkpt>
      <trkpt lat="48.48262" lon="-2.89095">
        <ele>204</ele>
        <time>2017-01-05T14:29:36.000Z</time>
      </trkpt>
      <trkpt lat="48.48263" lon="-2.89089">
        <ele>204</ele>
        <time>2017-01-05T14:29:37.000Z</time>
      </trkpt>
      <trkpt lat="48.48265" lon="-2.89083">
        <ele>204</ele>
        <time>2017-01-05T14:29:38.000Z</time>
      </trkpt>
      <trkpt lat="48.48266" lon="-2.89078">
        <ele>204</ele>
        <time>2017-01-05T14:29:39.000Z</time>
      </trkpt>
      <trkpt lat="48.48268" lon="-2.89073">
        <ele>204</ele>
        <time>2017-01-05T14:29:40.000Z</time>
      </trkpt>
      <trkpt lat="48.4827" lon="-2.89067">
        <ele>204</ele>
        <time>2017-01-05T14:29:41.000Z</time>
      </trkpt>
      <trkpt lat="48.48271" lon="-2.89062">
        <ele>204</ele>
        <time>2017-01-05T14:29:42.000Z</time>
      </trkpt>
      <trkpt lat="48.48273" lon="-2.89057">
        <ele>204</ele>
        <time>2017-01-05T14:29:43.000Z</time>
      </trkpt>
      <trkpt lat="48.48275" lon="-2.89052">
        <ele>204</ele>
        <time>2017-01-05T14:29:44.000Z</time>
      </trkpt>
      <trkpt lat="48.48277" lon="-2.89048">
        <ele>204</ele>
        <time>2017-01-05T14:29:45.000Z</time>
      </trkpt>
      <trkpt lat="48.48279" lon="-2.89043">
        <ele>204</ele>
        <time>2017-01-05T14:29:46.000Z</time>
      </trkpt>
      <trkpt lat="48.48281" lon="-2.89037">
        <ele>205</ele>
        <time>2017-01-05T14:29:47.000Z</time>
      </trkpt>
      <trkpt lat="48.48283" lon="-2.89033">
        <ele>205</ele>
        <time>2017-01-05T14:29:48.000Z</time>
      </trkpt>
      <trkpt lat="48.48284" lon="-2.89027">
        <ele>205</ele>
        <time>2017-01-05T14:29:49.000Z</time>
      </trkpt>
      <trkpt lat="48.48286" lon="-2.89022">
        <ele>205</ele>
        <time>2017-01-05T14:29:50.000Z</time>
      </trkpt>
      <trkpt lat="48.48288" lon="-2.89018">
        <ele>205</ele>
        <time>2017-01-05T14:29:51.000Z</time>
      </trkpt>
      <trkpt lat="48.4829" lon="-2.89012">
        <ele>205</ele>
        <time>2017-01-05T14:29:52.000Z</time>
      </trkpt>
      <trkpt lat="48.48292" lon="-2.89008">
        <ele>205</ele>
        <time>2017-01-05T14:29:53.000Z</time>
      </trkpt>
      <trkpt lat="48.48294" lon="-2.89003">
        <ele>205</ele>
        <time>2017-01-05T14:29:54.000Z</time>
      </trkpt>
      <trkpt lat="48.48297" lon="-2.88999">
        <ele>205</ele>
        <time>2017-01-05T14:29:55.000Z</time>
      </trkpt>
      <trkpt lat="48.48299" lon="-2.88995">
        <ele>205</ele>
        <time>2017-01-05T14:29:56.000Z</time>
      </trkpt>
      <trkpt lat="48.48302" lon="-2.88991">
        <ele>205</ele>
        <time>2017-01-05T14:29:57.000Z</time>
      </trkpt>
      <trkpt lat="48.48304" lon="-2.88987">
        <ele>205</ele>
        <time>2017-01-05T14:29:58.000Z</time>
      </trkpt>
      <trkpt lat="48.48306" lon="-2.88982">
        <ele>205</ele>
        <time>2017-01-05T14:29:59.000Z</time>
      </trkpt>
      <trkpt lat="48.48308" lon="-2.88977">
        <ele>205</ele>
        <time>2017-01-05T14:30:00.000Z</time>
      </trkpt>
      <trkpt lat="48.4831" lon="-2.88972">
        <ele>205</ele>
        <time>2017-01-05T14:30:01.000Z</time>
      </trkpt>
      <trkpt lat="48.48312" lon="-2.88966">
        <ele>205</ele>
        <time>2017-01-05T14:30:02.000Z</time>
      </trkpt>
      <trkpt lat="48.48314" lon="-2.88962">
        <ele>205</ele>
        <time>2017-01-05T14:30:03.000Z</time>
      </trkpt>
      <trkpt lat="48.48316" lon="-2.88957">
        <ele>205</ele>
        <time>2017-01-05T14:30:04.000Z</time>
      </trkpt>
      <trkpt lat="48.48318" lon="-2.88952">
        <ele>205</ele>
        <time>2017-01-05T14:30:05.000Z</time>
      </trkpt>
      <trkpt lat="48.4832" lon="-2.88948">
        <ele>205</ele>
        <time>2017-01-05T14:30:06.000Z</time>
      </trkpt>
      <trkpt lat="48.48321" lon="-2.88943">
        <ele>205</ele>
        <time>2017-01-05T14:30:07.000Z</time>
      </trkpt>
      <trkpt lat="48.48323" lon="-2.88939">
        <ele>205</ele>
        <time>2017-01-05T14:30:08.000Z</time>
      </trkpt>
      <trkpt lat="48.48325" lon="-2.88934">
        <ele>205</ele>
        <time>2017-01-05T14:30:09.000Z</time>
      </trkpt>
      <trkpt lat="48.48327" lon="-2.8893">
        <ele>206</ele>
        <time>2017-01-05T14:30:10.000Z</time>
      </trkpt>
      <trkpt lat="48.48329" lon="-2.88926">
        <ele>206</ele>
        <time>2017-01-05T14:30:11.000Z</time>
      </trkpt>
      <trkpt lat="48.4833" lon="-2.88922">
        <ele>206</ele>
        <time>2017-01-05T14:30:12.000Z</time>
      </trkpt>
      <trkpt lat="48.4833" lon="-2.88918">
        <ele>206</ele>
        <time>2017-01-05T14:30:13.000Z</time>
      </trkpt>
      <trkpt lat="48.48329" lon="-2.88913">
        <ele>206</ele>
        <time>2017-01-05T14:30:14.000Z</time>
      </trkpt>
      <trkpt lat="48.48326" lon="-2.8891">
        <ele>206</ele>
        <time>2017-01-05T14:30:15.000Z</time>
      </trkpt>
      <trkpt lat="48.48323" lon="-2.88906">
        <ele>206</ele>
        <time>2017-01-05T14:30:16.000Z</time>
      </trkpt>
      <trkpt lat="48.48319" lon="-2.88903">
        <ele>206</ele>
        <time>2017-01-05T14:30:17.000Z</time>
      </trkpt>
      <trkpt lat="48.48316" lon="-2.889">
        <ele>206</ele>
        <time>2017-01-05T14:30:18.000Z</time>
      </trkpt>
      <trkpt lat="48.48312" lon="-2.88896">
        <ele>206</ele>
        <time>2017-01-05T14:30:19.000Z</time>
      </trkpt>
      <trkpt lat="48.48308" lon="-2.88893">
        <ele>206</ele>
        <time>2017-01-05T14:30:20.000Z</time>
      </trkpt>
      <trkpt lat="48.48305" lon="-2.88889">
        <ele>206</ele>
        <time>2017-01-05T14:30:21.000Z</time>
      </trkpt>
      <trkpt lat="48.48301" lon="-2.88885">
        <ele>206</ele>
        <time>2017-01-05T14:30:22.000Z</time>
      </trkpt>
      <trkpt lat="48.48298" lon="-2.88881">
        <ele>206</ele>
        <time>2017-01-05T14:30:23.000Z</time>
      </trkpt>
      <trkpt lat="48.48294" lon="-2.88878">
        <ele>206</ele>
        <time>2017-01-05T14:30:24.000Z</time>
      </trkpt>
      <trkpt lat="48.48291" lon="-2.88874">
        <ele>206</ele>
        <time>2017-01-05T14:30:25.000Z</time>
      </trkpt>
      <trkpt lat="48.48287" lon="-2.8887">
        <ele>206</ele>
        <time>2017-01-05T14:30:26.000Z</time>
      </trkpt>
      <trkpt lat="48.48284" lon="-2.88866">
        <ele>206</ele>
        <time>2017-01-05T14:30:27.000Z</time>
      </trkpt>
      <trkpt lat="48.4828" lon="-2.88862">
        <ele>206</ele>
        <time>2017-01-05T14:30:28.000Z</time>
      </trkpt>
      <trkpt lat="48.48277" lon="-2.88859">
        <ele>206</ele>
        <time>2017-01-05T14:30:29.000Z</time>
      </trkpt>
      <trkpt lat="48.48273" lon="-2.88855">
        <ele>206</ele>
        <time>2017-01-05T14:30:30.000Z</time>
      </trkpt>
      <trkpt lat="48.4827" lon="-2.88851">
        <ele>206</ele>
        <time>2017-01-05T14:30:31.000Z</time>
      </trkpt>
      <trkpt lat="48.48266" lon="-2.88847">
        <ele>206</ele>
        <time>2017-01-05T14:30:32.000Z</time>
      </trkpt>
      <trkpt lat="48.48263" lon="-2.88842">
        <ele>206</ele>
        <time>2017-01-05T14:30:33.000Z</time>
      </trkpt>
      <trkpt lat="48.48259" lon="-2.88838">
        <ele>205</ele>
        <time>2017-01-05T14:30:34.000Z</time>
      </trkpt>
      <trkpt lat="48.48256" lon="-2.88835">
        <ele>205</ele>
        <time>2017-01-05T14:30:35.000Z</time>
      </trkpt>
      <trkpt lat="48.48252" lon="-2.88831">
        <ele>205</ele>
        <time>2017-01-05T14:30:36.000Z</time>
      </trkpt>
      <trkpt lat="48.48249" lon="-2.88828">
        <ele>205</ele>
        <time>2017-01-05T14:30:37.000Z</time>
      </trkpt>
      <trkpt lat="48.48246" lon="-2.88825">
        <ele>205</ele>
        <time>2017-01-05T14:30:38.000Z</time>
      </trkpt>
      <trkpt lat="48.48243" lon="-2.88821">
        <ele>205</ele>
        <time>2017-01-05T14:30:39.000Z</time>
      </trkpt>
      <trkpt lat="48.4824" lon="-2.88818">
        <ele>204</ele>
        <time>2017-01-05T14:30:40.000Z</time>
      </trkpt>
      <trkpt lat="48.48237" lon="-2.88815">
        <ele>204</ele>
        <time>2017-01-05T14:30:41.000Z</time>
      </trkpt>
      <trkpt lat="48.48235" lon="-2.88812">
        <ele>204</ele>
        <time>2017-01-05T14:30:42.000Z</time>
      </trkpt>
      <trkpt lat="48.48232" lon="-2.88809">
        <ele>204</ele>
        <time>2017-01-05T14:30:43.000Z</time>
      </trkpt>
      <trkpt lat="48.48229" lon="-2.88806">
        <ele>204</ele>
        <time>2017-01-05T14:30:44.000Z</time>
      </trkpt>
      <trkpt lat="48.48227" lon="-2.88803">
        <ele>204</ele>
        <time>2017-01-05T14:30:45.000Z</time>
      </trkpt>
      <trkpt lat="48.48225" lon="-2.888">
        <ele>204</ele>
        <time>2017-01-05T14:30:46.000Z</time>
      </trkpt>
      <trkpt lat="48.48223" lon="-2.88798">
        <ele>204</ele>
        <time>2017-01-05T14:30:47.000Z</time>
      </trkpt>
      <trkpt lat="48.48221" lon="-2.88795">
        <ele>204</ele>
        <time>2017-01-05T14:30:48.000Z</time>
      </trkpt>
      <trkpt lat="48.48218" lon="-2.88792">
        <ele>204</ele>
        <time>2017-01-05T14:30:49.000Z</time>
      </trkpt>
      <trkpt lat="48.48216" lon="-2.88789">
        <ele>204</ele>
        <time>2017-01-05T14:30:50.000Z</time>
      </trkpt>
      <trkpt lat="48.48214" lon="-2.88786">
        <ele>204</ele>
        <time>2017-01-05T14:30:51.000Z</time>
      </trkpt>
      <trkpt lat="48.48212" lon="-2.88782">
        <ele>204</ele>
        <time>2017-01-05T14:30:52.000Z</time>
      </trkpt>
      <trkpt lat="48.4821" lon="-2.88778">
        <ele>204</ele>
        <time>2017-01-05T14:30:53.000Z</time>
      </trkpt>
      <trkpt lat="48.48207" lon="-2.88775">
        <ele>204</ele>
        <time>2017-01-05T14:30:54.000Z</time>
      </trkpt>
      <trkpt lat="48.48204" lon="-2.88771">
        <ele>204</ele>
        <time>2017-01-05T14:30:55.000Z</time>
      </trkpt>
      <trkpt lat="48.48202" lon="-2.88767">
        <ele>204</ele>
        <time>2017-01-05T14:30:56.000Z</time>
      </trkpt>
      <trkpt lat="48.48199" lon="-2.88763">
        <ele>204</ele>
        <time>2017-01-05T14:30:57.000Z</time>
      </trkpt>
      <trkpt lat="48.48196" lon="-2.88758">
        <ele>203</ele>
        <time>2017-01-05T14:30:58.000Z</time>
      </trkpt>
      <trkpt lat="48.48194" lon="-2.88754">
        <ele>203</ele>
        <time>2017-01-05T14:30:59.000Z</time>
      </trkpt>
      <trkpt lat="48.48191" lon="-2.88749">
        <ele>204</ele>
        <time>2017-01-05T14:31:00.000Z</time>
      </trkpt>
      <trkpt lat="48.48188" lon="-2.88744">
        <ele>204</ele>
        <time>2017-01-05T14:31:01.000Z</time>
      </trkpt>
      <trkpt lat="48.48185" lon="-2.88738">
        <ele>204</ele>
        <time>2017-01-05T14:31:02.000Z</time>
      </trkpt>
      <trkpt lat="48.48183" lon="-2.88733">
        <ele>204</ele>
        <time>2017-01-05T14:31:03.000Z</time>
      </trkpt>
      <trkpt lat="48.48181" lon="-2.88727">
        <ele>204</ele>
        <time>2017-01-05T14:31:04.000Z</time>
      </trkpt>
      <trkpt lat="48.48179" lon="-2.88722">
        <ele>204</ele>
        <time>2017-01-05T14:31:05.000Z</time>
      </trkpt>
      <trkpt lat="48.48178" lon="-2.88716">
        <ele>204</ele>
        <time>2017-01-05T14:31:06.000Z</time>
      </trkpt>
      <trkpt lat="48.48177" lon="-2.88711">
        <ele>205</ele>
        <time>2017-01-05T14:31:07.000Z</time>
      </trkpt>
      <trkpt lat="48.48177" lon="-2.88706">
        <ele>205</ele>
        <time>2017-01-05T14:31:08.000Z</time>
      </trkpt>
      <trkpt lat="48.48177" lon="-2.88701">
        <ele>205</ele>
        <time>2017-01-05T14:31:09.000Z</time>
      </trkpt>
      <trkpt lat="48.48175" lon="-2.88696">
        <ele>205</ele>
        <time>2017-01-05T14:31:10.000Z</time>
      </trkpt>
      <trkpt lat="48.48173" lon="-2.8869">
        <ele>205</ele>
        <time>2017-01-05T14:31:11.000Z</time>
      </trkpt>
      <trkpt lat="48.48171" lon="-2.88684">
        <ele>205</ele>
        <time>2017-01-05T14:31:12.000Z</time>
      </trkpt>
      <trkpt lat="48.48167" lon="-2.88678">
        <ele>205</ele>
        <time>2017-01-05T14:31:13.000Z</time>
      </trkpt>
      <trkpt lat="48.48164" lon="-2.88673">
        <ele>205</ele>
        <time>2017-01-05T14:31:14.000Z</time>
      </trkpt>
      <trkpt lat="48.48161" lon="-2.88668">
        <ele>205</ele>
        <time>2017-01-05T14:31:15.000Z</time>
      </trkpt>
      <trkpt lat="48.48158" lon="-2.88663">
        <ele>205</ele>
        <time>2017-01-05T14:31:16.000Z</time>
      </trkpt>
      <trkpt lat="48.48155" lon="-2.88658">
        <ele>205</ele>
        <time>2017-01-05T14:31:17.000Z</time>
      </trkpt>
      <trkpt lat="48.48152" lon="-2.88653">
        <ele>205</ele>
        <time>2017-01-05T14:31:18.000Z</time>
      </trkpt>
      <trkpt lat="48.4815" lon="-2.88648">
        <ele>205</ele>
        <time>2017-01-05T14:31:19.000Z</time>
      </trkpt>
      <trkpt lat="48.48147" lon="-2.88644">
        <ele>205</ele>
        <time>2017-01-05T14:31:20.000Z</time>
      </trkpt>
      <trkpt lat="48.48145" lon="-2.8864">
        <ele>206</ele>
        <time>2017-01-05T14:31:21.000Z</time>
      </trkpt>
      <trkpt lat="48.48143" lon="-2.88635">
        <ele>206</ele>
        <time>2017-01-05T14:31:22.000Z</time>
      </trkpt>
      <trkpt lat="48.48142" lon="-2.88629">
        <ele>206</ele>
        <time>2017-01-05T14:31:23.000Z</time>
      </trkpt>
      <trkpt lat="48.48139" lon="-2.88624">
        <ele>206</ele>
        <time>2017-01-05T14:31:24.000Z</time>
      </trkpt>
      <trkpt lat="48.48137" lon="-2.88619">
        <ele>206</ele>
        <time>2017-01-05T14:31:25.000Z</time>
      </trkpt>
      <trkpt lat="48.48134" lon="-2.88614">
        <ele>206</ele>
        <time>2017-01-05T14:31:26.000Z</time>
      </trkpt>
      <trkpt lat="48.48133" lon="-2.88608">
        <ele>206</ele>
        <time>2017-01-05T14:31:27.000Z</time>
      </trkpt>
      <trkpt lat="48.48131" lon="-2.88602">
        <ele>206</ele>
        <time>2017-01-05T14:31:28.000Z</time>
      </trkpt>
      <trkpt lat="48.4813" lon="-2.88597">
        <ele>206</ele>
        <time>2017-01-05T14:31:29.000Z</time>
      </trkpt>
      <trkpt lat="48.48129" lon="-2.88591">
        <ele>206</ele>
        <time>2017-01-05T14:31:30.000Z</time>
      </trkpt>
      <trkpt lat="48.48127" lon="-2.88586">
        <ele>206</ele>
        <time>2017-01-05T14:31:31.000Z</time>
      </trkpt>
      <trkpt lat="48.48126" lon="-2.88581">
        <ele>208</ele>
        <time>2017-01-05T14:31:32.000Z</time>
      </trkpt>
      <trkpt lat="48.48124" lon="-2.88576">
        <ele>208</ele>
        <time>2017-01-05T14:31:33.000Z</time>
      </trkpt>
      <trkpt lat="48.48122" lon="-2.8857">
        <ele>208</ele>
        <time>2017-01-05T14:31:34.000Z</time>
      </trkpt>
      <trkpt lat="48.48121" lon="-2.88565">
        <ele>208</ele>
        <time>2017-01-05T14:31:35.000Z</time>
      </trkpt>
      <trkpt lat="48.48119" lon="-2.8856">
        <ele>208</ele>
        <time>2017-01-05T14:31:36.000Z</time>
      </trkpt>
      <trkpt lat="48.48117" lon="-2.88556">
        <ele>208</ele>
        <time>2017-01-05T14:31:37.000Z</time>
      </trkpt>
      <trkpt lat="48.48115" lon="-2.8855">
        <ele>209</ele>
        <time>2017-01-05T14:31:38.000Z</time>
      </trkpt>
      <trkpt lat="48.48114" lon="-2.88546">
        <ele>209</ele>
        <time>2017-01-05T14:31:39.000Z</time>
      </trkpt>
      <trkpt lat="48.48112" lon="-2.8854">
        <ele>209</ele>
        <time>2017-01-05T14:31:40.000Z</time>
      </trkpt>
      <trkpt lat="48.48109" lon="-2.88534">
        <ele>209</ele>
        <time>2017-01-05T14:31:41.000Z</time>
      </trkpt>
      <trkpt lat="48.48106" lon="-2.88528">
        <ele>209</ele>
        <time>2017-01-05T14:31:42.000Z</time>
      </trkpt>
      <trkpt lat="48.48103" lon="-2.88524">
        <ele>209</ele>
        <time>2017-01-05T14:31:43.000Z</time>
      </trkpt>
      <trkpt lat="48.48101" lon="-2.88519">
        <ele>209</ele>
        <time>2017-01-05T14:31:44.000Z</time>
      </trkpt>
      <trkpt lat="48.48099" lon="-2.88514">
        <ele>209</ele>
        <time>2017-01-05T14:31:45.000Z</time>
      </trkpt>
      <trkpt lat="48.48097" lon="-2.88509">
        <ele>209</ele>
        <time>2017-01-05T14:31:46.000Z</time>
      </trkpt>
      <trkpt lat="48.48094" lon="-2.88505">
        <ele>209</ele>
        <time>2017-01-05T14:31:47.000Z</time>
      </trkpt>
      <trkpt lat="48.48091" lon="-2.885">
        <ele>210</ele>
        <time>2017-01-05T14:31:48.000Z</time>
      </trkpt>
      <trkpt lat="48.48088" lon="-2.88495">
        <ele>210</ele>
        <time>2017-01-05T14:31:49.000Z</time>
      </trkpt>
      <trkpt lat="48.48085" lon="-2.88489">
        <ele>210</ele>
        <time>2017-01-05T14:31:50.000Z</time>
      </trkpt>
      <trkpt lat="48.48082" lon="-2.88484">
        <ele>209</ele>
        <time>2017-01-05T14:31:51.000Z</time>
      </trkpt>
      <trkpt lat="48.4808" lon="-2.8848">
        <ele>209</ele>
        <time>2017-01-05T14:31:52.000Z</time>
      </trkpt>
      <trkpt lat="48.48077" lon="-2.88475">
        <ele>209</ele>
        <time>2017-01-05T14:31:53.000Z</time>
      </trkpt>
      <trkpt lat="48.48075" lon="-2.88471">
        <ele>209</ele>
        <time>2017-01-05T14:31:54.000Z</time>
      </trkpt>
      <trkpt lat="48.48072" lon="-2.88467">
        <ele>209</ele>
        <time>2017-01-05T14:31:55.000Z</time>
      </trkpt>
      <trkpt lat="48.4807" lon="-2.88463">
        <ele>209</ele>
        <time>2017-01-05T14:31:56.000Z</time>
      </trkpt>
      <trkpt lat="48.48067" lon="-2.8846">
        <ele>209</ele>
        <time>2017-01-05T14:31:57.000Z</time>
      </trkpt>
      <trkpt lat="48.48064" lon="-2.88456">
        <ele>209</ele>
        <time>2017-01-05T14:31:58.000Z</time>
      </trkpt>
      <trkpt lat="48.48062" lon="-2.88453">
        <ele>209</ele>
        <time>2017-01-05T14:31:59.000Z</time>
      </trkpt>
      <trkpt lat="48.4806" lon="-2.8845">
        <ele>209</ele>
        <time>2017-01-05T14:32:00.000Z</time>
      </trkpt>
      <trkpt lat="48.48057" lon="-2.88446">
        <ele>209</ele>
        <time>2017-01-05T14:32:01.000Z</time>
      </trkpt>
      <trkpt lat="48.48054" lon="-2.88442">
        <ele>209</ele>
        <time>2017-01-05T14:32:02.000Z</time>
      </trkpt>
      <trkpt lat="48.48052" lon="-2.88438">
        <ele>209</ele>
        <time>2017-01-05T14:32:03.000Z</time>
      </trkpt>
      <trkpt lat="48.48049" lon="-2.88435">
        <ele>208</ele>
        <time>2017-01-05T14:32:04.000Z</time>
      </trkpt>
      <trkpt lat="48.48046" lon="-2.88431">
        <ele>208</ele>
        <time>2017-01-05T14:32:05.000Z</time>
      </trkpt>
      <trkpt lat="48.48042" lon="-2.88426">
        <ele>208</ele>
        <time>2017-01-05T14:32:06.000Z</time>
      </trkpt>
      <trkpt lat="48.4804" lon="-2.88422">
        <ele>208</ele>
        <time>2017-01-05T14:32:07.000Z</time>
      </trkpt>
      <trkpt lat="48.48036" lon="-2.88418">
        <ele>208</ele>
        <time>2017-01-05T14:32:08.000Z</time>
      </trkpt>
      <trkpt lat="48.48033" lon="-2.88413">
        <ele>209</ele>
        <time>2017-01-05T14:32:09.000Z</time>
      </trkpt>
      <trkpt lat="48.4803" lon="-2.8841">
        <ele>209</ele>
        <time>2017-01-05T14:32:10.000Z</time>
      </trkpt>
      <trkpt lat="48.48026" lon="-2.88405">
        <ele>209</ele>
        <time>2017-01-05T14:32:11.000Z</time>
      </trkpt>
      <trkpt lat="48.48022" lon="-2.884">
        <ele>209</ele>
        <time>2017-01-05T14:32:12.000Z</time>
      </trkpt>
      <trkpt lat="48.48019" lon="-2.88394">
        <ele>209</ele>
        <time>2017-01-05T14:32:13.000Z</time>
      </trkpt>
      <trkpt lat="48.48016" lon="-2.8839">
        <ele>209</ele>
        <time>2017-01-05T14:32:14.000Z</time>
      </trkpt>
      <trkpt lat="48.48014" lon="-2.88385">
        <ele>209</ele>
        <time>2017-01-05T14:32:15.000Z</time>
      </trkpt>
      <trkpt lat="48.48011" lon="-2.8838">
        <ele>209</ele>
        <time>2017-01-05T14:32:16.000Z</time>
      </trkpt>
      <trkpt lat="48.48009" lon="-2.88376">
        <ele>209</ele>
        <time>2017-01-05T14:32:17.000Z</time>
      </trkpt>
      <trkpt lat="48.48007" lon="-2.88372">
        <ele>209</ele>
        <time>2017-01-05T14:32:18.000Z</time>
      </trkpt>
      <trkpt lat="48.48004" lon="-2.88367">
        <ele>209</ele>
        <time>2017-01-05T14:32:19.000Z</time>
      </trkpt>
      <trkpt lat="48.48002" lon="-2.88363">
        <ele>209</ele>
        <time>2017-01-05T14:32:20.000Z</time>
      </trkpt>
      <trkpt lat="48.48001" lon="-2.88359">
        <ele>209</ele>
        <time>2017-01-05T14:32:21.000Z</time>
      </trkpt>
      <trkpt lat="48.47999" lon="-2.88354">
        <ele>209</ele>
        <time>2017-01-05T14:32:22.000Z</time>
      </trkpt>
      <trkpt lat="48.47996" lon="-2.8835">
        <ele>209</ele>
        <time>2017-01-05T14:32:23.000Z</time>
      </trkpt>
      <trkpt lat="48.47995" lon="-2.88345">
        <ele>209</ele>
        <time>2017-01-05T14:32:24.000Z</time>
      </trkpt>
      <trkpt lat="48.47992" lon="-2.8834">
        <ele>209</ele>
        <time>2017-01-05T14:32:25.000Z</time>
      </trkpt>
      <trkpt lat="48.4799" lon="-2.88335">
        <ele>209</ele>
        <time>2017-01-05T14:32:26.000Z</time>
      </trkpt>
      <trkpt lat="48.47988" lon="-2.88331">
        <ele>210</ele>
        <time>2017-01-05T14:32:27.000Z</time>
      </trkpt>
      <trkpt lat="48.47985" lon="-2.88326">
        <ele>210</ele>
        <time>2017-01-05T14:32:28.000Z</time>
      </trkpt>
      <trkpt lat="48.47982" lon="-2.88322">
        <ele>210</ele>
        <time>2017-01-05T14:32:29.000Z</time>
      </trkpt>
      <trkpt lat="48.4798" lon="-2.88317">
        <ele>209</ele>
        <time>2017-01-05T14:32:30.000Z</time>
      </trkpt>
      <trkpt lat="48.47978" lon="-2.88313">
        <ele>209</ele>
        <time>2017-01-05T14:32:31.000Z</time>
      </trkpt>
      <trkpt lat="48.47975" lon="-2.88309">
        <ele>209</ele>
        <time>2017-01-05T14:32:32.000Z</time>
      </trkpt>
      <trkpt lat="48.47974" lon="-2.88304">
        <ele>209</ele>
        <time>2017-01-05T14:32:33.000Z</time>
      </trkpt>
      <trkpt lat="48.47969" lon="-2.8829">
        <ele>209</ele>
        <time>2017-01-05T14:32:36.000Z</time>
      </trkpt>
      <trkpt lat="48.47968" lon="-2.88286">
        <ele>209</ele>
        <time>2017-01-05T14:32:37.000Z</time>
      </trkpt>
      <trkpt lat="48.47964" lon="-2.88277">
        <ele>209</ele>
        <time>2017-01-05T14:32:39.000Z</time>
      </trkpt>
      <trkpt lat="48.47963" lon="-2.88272">
        <ele>209</ele>
        <time>2017-01-05T14:32:40.000Z</time>
      </trkpt>
      <trkpt lat="48.47962" lon="-2.88267">
        <ele>209</ele>
        <time>2017-01-05T14:32:41.000Z</time>
      </trkpt>
      <trkpt lat="48.4796" lon="-2.88262">
        <ele>209</ele>
        <time>2017-01-05T14:32:42.000Z</time>
      </trkpt>
      <trkpt lat="48.47952" lon="-2.88246">
        <ele>209</ele>
        <time>2017-01-05T14:32:45.000Z</time>
      </trkpt>
      <trkpt lat="48.47947" lon="-2.88234">
        <ele>209</ele>
        <time>2017-01-05T14:32:47.000Z</time>
      </trkpt>
      <trkpt lat="48.47942" lon="-2.88221">
        <ele>209</ele>
        <time>2017-01-05T14:32:49.000Z</time>
      </trkpt>
      <trkpt lat="48.4794" lon="-2.88216">
        <ele>209</ele>
        <time>2017-01-05T14:32:50.000Z</time>
      </trkpt>
      <trkpt lat="48.47938" lon="-2.88212">
        <ele>209</ele>
        <time>2017-01-05T14:32:51.000Z</time>
      </trkpt>
      <trkpt lat="48.47936" lon="-2.88207">
        <ele>209</ele>
        <time>2017-01-05T14:32:52.000Z</time>
      </trkpt>
      <trkpt lat="48.47933" lon="-2.88203">
        <ele>209</ele>
        <time>2017-01-05T14:32:53.000Z</time>
      </trkpt>
      <trkpt lat="48.4793" lon="-2.88199">
        <ele>209</ele>
        <time>2017-01-05T14:32:54.000Z</time>
      </trkpt>
      <trkpt lat="48.47927" lon="-2.88195">
        <ele>209</ele>
        <time>2017-01-05T14:32:55.000Z</time>
      </trkpt>
      <trkpt lat="48.47923" lon="-2.88191">
        <ele>209</ele>
        <time>2017-01-05T14:32:56.000Z</time>
      </trkpt>
      <trkpt lat="48.47919" lon="-2.88188">
        <ele>209</ele>
        <time>2017-01-05T14:32:57.000Z</time>
      </trkpt>
      <trkpt lat="48.47915" lon="-2.88184">
        <ele>208</ele>
        <time>2017-01-05T14:32:58.000Z</time>
      </trkpt>
      <trkpt lat="48.47911" lon="-2.8818">
        <ele>208</ele>
        <time>2017-01-05T14:32:59.000Z</time>
      </trkpt>
      <trkpt lat="48.47907" lon="-2.88176">
        <ele>208</ele>
        <time>2017-01-05T14:33:00.000Z</time>
      </trkpt>
      <trkpt lat="48.47903" lon="-2.88173">
        <ele>208</ele>
        <time>2017-01-05T14:33:01.000Z</time>
      </trkpt>
      <trkpt lat="48.47899" lon="-2.8817">
        <ele>208</ele>
        <time>2017-01-05T14:33:02.000Z</time>
      </trkpt>
      <trkpt lat="48.47895" lon="-2.88167">
        <ele>208</ele>
        <time>2017-01-05T14:33:03.000Z</time>
      </trkpt>
      <trkpt lat="48.47891" lon="-2.88165">
        <ele>208</ele>
        <time>2017-01-05T14:33:04.000Z</time>
      </trkpt>
      <trkpt lat="48.47887" lon="-2.88162">
        <ele>208</ele>
        <time>2017-01-05T14:33:05.000Z</time>
      </trkpt>
      <trkpt lat="48.47884" lon="-2.88161">
        <ele>208</ele>
        <time>2017-01-05T14:33:06.000Z</time>
      </trkpt>
      <trkpt lat="48.4788" lon="-2.88159">
        <ele>208</ele>
        <time>2017-01-05T14:33:07.000Z</time>
      </trkpt>
      <trkpt lat="48.47876" lon="-2.88157">
        <ele>208</ele>
        <time>2017-01-05T14:33:08.000Z</time>
      </trkpt>
      <trkpt lat="48.47873" lon="-2.88155">
        <ele>208</ele>
        <time>2017-01-05T14:33:09.000Z</time>
      </trkpt>
      <trkpt lat="48.47871" lon="-2.88152">
        <ele>208</ele>
        <time>2017-01-05T14:33:10.000Z</time>
      </trkpt>
      <trkpt lat="48.47869" lon="-2.88148">
        <ele>208</ele>
        <time>2017-01-05T14:33:11.000Z</time>
      </trkpt>
      <trkpt lat="48.47867" lon="-2.88144">
        <ele>208</ele>
        <time>2017-01-05T14:33:12.000Z</time>
      </trkpt>
      <trkpt lat="48.47866" lon="-2.88141">
        <ele>208</ele>
        <time>2017-01-05T14:33:13.000Z</time>
      </trkpt>
      <trkpt lat="48.47865" lon="-2.88137">
        <ele>208</ele>
        <time>2017-01-05T14:33:14.000Z</time>
      </trkpt>
      <trkpt lat="48.47864" lon="-2.88131">
        <ele>208</ele>
        <time>2017-01-05T14:33:15.000Z</time>
      </trkpt>
      <trkpt lat="48.47864" lon="-2.88126">
        <ele>208</ele>
        <time>2017-01-05T14:33:16.000Z</time>
      </trkpt>
      <trkpt lat="48.47865" lon="-2.88119">
        <ele>208</ele>
        <time>2017-01-05T14:33:17.000Z</time>
      </trkpt>
      <trkpt lat="48.47866" lon="-2.88113">
        <ele>208</ele>
        <time>2017-01-05T14:33:18.000Z</time>
      </trkpt>
      <trkpt lat="48.47866" lon="-2.88106">
        <ele>208</ele>
        <time>2017-01-05T14:33:19.000Z</time>
      </trkpt>
      <trkpt lat="48.47867" lon="-2.88099">
        <ele>208</ele>
        <time>2017-01-05T14:33:20.000Z</time>
      </trkpt>
      <trkpt lat="48.47867" lon="-2.88092">
        <ele>208</ele>
        <time>2017-01-05T14:33:21.000Z</time>
      </trkpt>
      <trkpt lat="48.47868" lon="-2.88084">
        <ele>208</ele>
        <time>2017-01-05T14:33:22.000Z</time>
      </trkpt>
      <trkpt lat="48.47868" lon="-2.88076">
        <ele>208</ele>
        <time>2017-01-05T14:33:23.000Z</time>
      </trkpt>
      <trkpt lat="48.47868" lon="-2.88068">
        <ele>208</ele>
        <time>2017-01-05T14:33:24.000Z</time>
      </trkpt>
      <trkpt lat="48.47868" lon="-2.88061">
        <ele>208</ele>
        <time>2017-01-05T14:33:25.000Z</time>
      </trkpt>
      <trkpt lat="48.47869" lon="-2.88053">
        <ele>208</ele>
        <time>2017-01-05T14:33:26.000Z</time>
      </trkpt>
      <trkpt lat="48.47869" lon="-2.88045">
        <ele>208</ele>
        <time>2017-01-05T14:33:27.000Z</time>
      </trkpt>
      <trkpt lat="48.47869" lon="-2.88038">
        <ele>208</ele>
        <time>2017-01-05T14:33:28.000Z</time>
      </trkpt>
      <trkpt lat="48.4787" lon="-2.88032">
        <ele>208</ele>
        <time>2017-01-05T14:33:29.000Z</time>
      </trkpt>
      <trkpt lat="48.47871" lon="-2.88026">
        <ele>208</ele>
        <time>2017-01-05T14:33:30.000Z</time>
      </trkpt>
      <trkpt lat="48.47872" lon="-2.88021">
        <ele>208</ele>
        <time>2017-01-05T14:33:31.000Z</time>
      </trkpt>
      <trkpt lat="48.47873" lon="-2.88016">
        <ele>208</ele>
        <time>2017-01-05T14:33:32.000Z</time>
      </trkpt>
      <trkpt lat="48.47874" lon="-2.88012">
        <ele>208</ele>
        <time>2017-01-05T14:33:33.000Z</time>
      </trkpt>
      <trkpt lat="48.47874" lon="-2.88008">
        <ele>208</ele>
        <time>2017-01-05T14:33:34.000Z</time>
      </trkpt>
      <trkpt lat="48.47873" lon="-2.88006">
        <ele>208</ele>
        <time>2017-01-05T14:33:35.000Z</time>
      </trkpt>
      <trkpt lat="48.47871" lon="-2.88005">
        <ele>208</ele>
        <time>2017-01-05T14:33:36.000Z</time>
      </trkpt>
      <trkpt lat="48.47869" lon="-2.88003">
        <ele>208</ele>
        <time>2017-01-05T14:33:37.000Z</time>
      </trkpt>
      <trkpt lat="48.47867" lon="-2.88003">
        <ele>208</ele>
        <time>2017-01-05T14:33:38.000Z</time>
      </trkpt>
      <trkpt lat="48.47864" lon="-2.88003">
        <ele>208</ele>
        <time>2017-01-05T14:33:39.000Z</time>
      </trkpt>
      <trkpt lat="48.47862" lon="-2.88003">
        <ele>208</ele>
        <time>2017-01-05T14:33:40.000Z</time>
      </trkpt>
      <trkpt lat="48.47859" lon="-2.88003">
        <ele>208</ele>
        <time>2017-01-05T14:33:41.000Z</time>
      </trkpt>
      <trkpt lat="48.47856" lon="-2.88003">
        <ele>208</ele>
        <time>2017-01-05T14:33:42.000Z</time>
      </trkpt>
      <trkpt lat="48.47853" lon="-2.88005">
        <ele>208</ele>
        <time>2017-01-05T14:33:43.000Z</time>
      </trkpt>
      <trkpt lat="48.4785" lon="-2.88006">
        <ele>208</ele>
        <time>2017-01-05T14:33:44.000Z</time>
      </trkpt>
      <trkpt lat="48.47847" lon="-2.88007">
        <ele>208</ele>
        <time>2017-01-05T14:33:45.000Z</time>
      </trkpt>
      <trkpt lat="48.47842" lon="-2.88009">
        <ele>208</ele>
        <time>2017-01-05T14:33:46.000Z</time>
      </trkpt>
      <trkpt lat="48.47838" lon="-2.88011">
        <ele>208</ele>
        <time>2017-01-05T14:33:47.000Z</time>
      </trkpt>
      <trkpt lat="48.47833" lon="-2.88012">
        <ele>208</ele>
        <time>2017-01-05T14:33:48.000Z</time>
      </trkpt>
      <trkpt lat="48.47828" lon="-2.88013">
        <ele>208</ele>
        <time>2017-01-05T14:33:49.000Z</time>
      </trkpt>
      <trkpt lat="48.47824" lon="-2.88015">
        <ele>208</ele>
        <time>2017-01-05T14:33:50.000Z</time>
      </trkpt>
      <trkpt lat="48.4782" lon="-2.88016">
        <ele>208</ele>
        <time>2017-01-05T14:33:51.000Z</time>
      </trkpt>
      <trkpt lat="48.47815" lon="-2.88017">
        <ele>208</ele>
        <time>2017-01-05T14:33:52.000Z</time>
      </trkpt>
      <trkpt lat="48.47812" lon="-2.88019">
        <ele>208</ele>
        <time>2017-01-05T14:33:53.000Z</time>
      </trkpt>
      <trkpt lat="48.47807" lon="-2.8802">
        <ele>208</ele>
        <time>2017-01-05T14:33:54.000Z</time>
      </trkpt>
      <trkpt lat="48.47804" lon="-2.88022">
        <ele>208</ele>
        <time>2017-01-05T14:33:55.000Z</time>
      </trkpt>
      <trkpt lat="48.478" lon="-2.88023">
        <ele>208</ele>
        <time>2017-01-05T14:33:56.000Z</time>
      </trkpt>
      <trkpt lat="48.47796" lon="-2.88024">
        <ele>208</ele>
        <time>2017-01-05T14:33:57.000Z</time>
      </trkpt>
      <trkpt lat="48.47792" lon="-2.88025">
        <ele>208</ele>
        <time>2017-01-05T14:33:58.000Z</time>
      </trkpt>
      <trkpt lat="48.47787" lon="-2.88027">
        <ele>208</ele>
        <time>2017-01-05T14:33:59.000Z</time>
      </trkpt>
      <trkpt lat="48.47782" lon="-2.88028">
        <ele>208</ele>
        <time>2017-01-05T14:34:00.000Z</time>
      </trkpt>
      <trkpt lat="48.47778" lon="-2.8803">
        <ele>208</ele>
        <time>2017-01-05T14:34:01.000Z</time>
      </trkpt>
      <trkpt lat="48.47774" lon="-2.88031">
        <ele>208</ele>
        <time>2017-01-05T14:34:02.000Z</time>
      </trkpt>
      <trkpt lat="48.4777" lon="-2.88032">
        <ele>208</ele>
        <time>2017-01-05T14:34:03.000Z</time>
      </trkpt>
      <trkpt lat="48.47767" lon="-2.88034">
        <ele>208</ele>
        <time>2017-01-05T14:34:04.000Z</time>
      </trkpt>
      <trkpt lat="48.47763" lon="-2.88035">
        <ele>208</ele>
        <time>2017-01-05T14:34:05.000Z</time>
      </trkpt>
      <trkpt lat="48.4776" lon="-2.88036">
        <ele>208</ele>
        <time>2017-01-05T14:34:06.000Z</time>
      </trkpt>
      <trkpt lat="48.47756" lon="-2.88038">
        <ele>208</ele>
        <time>2017-01-05T14:34:07.000Z</time>
      </trkpt>
      <trkpt lat="48.47752" lon="-2.88039">
        <ele>208</ele>
        <time>2017-01-05T14:34:08.000Z</time>
      </trkpt>
      <trkpt lat="48.47748" lon="-2.88041">
        <ele>205</ele>
        <time>2017-01-05T14:34:09.000Z</time>
      </trkpt>
      <trkpt lat="48.47743" lon="-2.88043">
        <ele>205</ele>
        <time>2017-01-05T14:34:10.000Z</time>
      </trkpt>
      <trkpt lat="48.47739" lon="-2.88044">
        <ele>205</ele>
        <time>2017-01-05T14:34:11.000Z</time>
      </trkpt>
      <trkpt lat="48.47735" lon="-2.88046">
        <ele>205</ele>
        <time>2017-01-05T14:34:12.000Z</time>
      </trkpt>
      <trkpt lat="48.47731" lon="-2.88048">
        <ele>205</ele>
        <time>2017-01-05T14:34:13.000Z</time>
      </trkpt>
      <trkpt lat="48.47727" lon="-2.8805">
        <ele>205</ele>
        <time>2017-01-05T14:34:14.000Z</time>
      </trkpt>
      <trkpt lat="48.47723" lon="-2.88051">
        <ele>204</ele>
        <time>2017-01-05T14:34:15.000Z</time>
      </trkpt>
      <trkpt lat="48.4772" lon="-2.88052">
        <ele>204</ele>
        <time>2017-01-05T14:34:16.000Z</time>
      </trkpt>
      <trkpt lat="48.47717" lon="-2.88052">
        <ele>204</ele>
        <time>2017-01-05T14:34:17.000Z</time>
      </trkpt>
      <trkpt lat="48.47714" lon="-2.88053">
        <ele>204</ele>
        <time>2017-01-05T14:34:18.000Z</time>
      </trkpt>
      <trkpt lat="48.4771" lon="-2.88055">
        <ele>204</ele>
        <time>2017-01-05T14:34:19.000Z</time>
      </trkpt>
      <trkpt lat="48.47702" lon="-2.88058">
        <ele>203</ele>
        <time>2017-01-05T14:34:21.000Z</time>
      </trkpt>
      <trkpt lat="48.47698" lon="-2.88059">
        <ele>203</ele>
        <time>2017-01-05T14:34:22.000Z</time>
      </trkpt>
      <trkpt lat="48.47694" lon="-2.88061">
        <ele>203</ele>
        <time>2017-01-05T14:34:23.000Z</time>
      </trkpt>
      <trkpt lat="48.47691" lon="-2.88063">
        <ele>203</ele>
        <time>2017-01-05T14:34:24.000Z</time>
      </trkpt>
      <trkpt lat="48.47687" lon="-2.88065">
        <ele>203</ele>
        <time>2017-01-05T14:34:25.000Z</time>
      </trkpt>
      <trkpt lat="48.47683" lon="-2.88067">
        <ele>202</ele>
        <time>2017-01-05T14:34:26.000Z</time>
      </trkpt>
      <trkpt lat="48.47679" lon="-2.88068">
        <ele>202</ele>
        <time>2017-01-05T14:34:27.000Z</time>
      </trkpt>
      <trkpt lat="48.47676" lon="-2.8807">
        <ele>202</ele>
        <time>2017-01-05T14:34:28.000Z</time>
      </trkpt>
      <trkpt lat="48.47672" lon="-2.88072">
        <ele>201</ele>
        <time>2017-01-05T14:34:29.000Z</time>
      </trkpt>
      <trkpt lat="48.47669" lon="-2.88073">
        <ele>201</ele>
        <time>2017-01-05T14:34:30.000Z</time>
      </trkpt>
      <trkpt lat="48.47665" lon="-2.88075">
        <ele>199</ele>
        <time>2017-01-05T14:34:31.000Z</time>
      </trkpt>
      <trkpt lat="48.47661" lon="-2.88076">
        <ele>199</ele>
        <time>2017-01-05T14:34:32.000Z</time>
      </trkpt>
      <trkpt lat="48.47657" lon="-2.88077">
        <ele>199</ele>
        <time>2017-01-05T14:34:33.000Z</time>
      </trkpt>
      <trkpt lat="48.47653" lon="-2.88078">
        <ele>199</ele>
        <time>2017-01-05T14:34:34.000Z</time>
      </trkpt>
      <trkpt lat="48.47649" lon="-2.88079">
        <ele>198</ele>
        <time>2017-01-05T14:34:35.000Z</time>
      </trkpt>
      <trkpt lat="48.47646" lon="-2.8808">
        <ele>198</ele>
        <time>2017-01-05T14:34:36.000Z</time>
      </trkpt>
      <trkpt lat="48.47642" lon="-2.88081">
        <ele>198</ele>
        <time>2017-01-05T14:34:37.000Z</time>
      </trkpt>
      <trkpt lat="48.47639" lon="-2.88083">
        <ele>198</ele>
        <time>2017-01-05T14:34:38.000Z</time>
      </trkpt>
      <trkpt lat="48.47636" lon="-2.88085">
        <ele>198</ele>
        <time>2017-01-05T14:34:39.000Z</time>
      </trkpt>
      <trkpt lat="48.47633" lon="-2.88085">
        <ele>198</ele>
        <time>2017-01-05T14:34:40.000Z</time>
      </trkpt>
      <trkpt lat="48.4763" lon="-2.88083">
        <ele>197</ele>
        <time>2017-01-05T14:34:41.000Z</time>
      </trkpt>
      <trkpt lat="48.47629" lon="-2.88079">
        <ele>197</ele>
        <time>2017-01-05T14:34:42.000Z</time>
      </trkpt>
      <trkpt lat="48.47628" lon="-2.88074">
        <ele>197</ele>
        <time>2017-01-05T14:34:43.000Z</time>
      </trkpt>
      <trkpt lat="48.47628" lon="-2.88069">
        <ele>197</ele>
        <time>2017-01-05T14:34:44.000Z</time>
      </trkpt>
      <trkpt lat="48.4763" lon="-2.88064">
        <ele>197</ele>
        <time>2017-01-05T14:34:45.000Z</time>
      </trkpt>
      <trkpt lat="48.47632" lon="-2.88059">
        <ele>197</ele>
        <time>2017-01-05T14:34:46.000Z</time>
      </trkpt>
      <trkpt lat="48.47634" lon="-2.88054">
        <ele>197</ele>
        <time>2017-01-05T14:34:47.000Z</time>
      </trkpt>
      <trkpt lat="48.47637" lon="-2.88049">
        <ele>197</ele>
        <time>2017-01-05T14:34:48.000Z</time>
      </trkpt>
      <trkpt lat="48.47638" lon="-2.88043">
        <ele>197</ele>
        <time>2017-01-05T14:34:49.000Z</time>
      </trkpt>
      <trkpt lat="48.4764" lon="-2.88036">
        <ele>198</ele>
        <time>2017-01-05T14:34:50.000Z</time>
      </trkpt>
      <trkpt lat="48.4764" lon="-2.8803">
        <ele>198</ele>
        <time>2017-01-05T14:34:51.000Z</time>
      </trkpt>
      <trkpt lat="48.47641" lon="-2.88024">
        <ele>198</ele>
        <time>2017-01-05T14:34:52.000Z</time>
      </trkpt>
      <trkpt lat="48.47642" lon="-2.88018">
        <ele>198</ele>
        <time>2017-01-05T14:34:53.000Z</time>
      </trkpt>
      <trkpt lat="48.47643" lon="-2.88012">
        <ele>198</ele>
        <time>2017-01-05T14:34:54.000Z</time>
      </trkpt>
      <trkpt lat="48.47643" lon="-2.88005">
        <ele>198</ele>
        <time>2017-01-05T14:34:55.000Z</time>
      </trkpt>
      <trkpt lat="48.47644" lon="-2.87999">
        <ele>198</ele>
        <time>2017-01-05T14:34:56.000Z</time>
      </trkpt>
      <trkpt lat="48.47644" lon="-2.87993">
        <ele>198</ele>
        <time>2017-01-05T14:34:57.000Z</time>
      </trkpt>
      <trkpt lat="48.47644" lon="-2.87987">
        <ele>198</ele>
        <time>2017-01-05T14:34:58.000Z</time>
      </trkpt>
      <trkpt lat="48.47645" lon="-2.87981">
        <ele>198</ele>
        <time>2017-01-05T14:34:59.000Z</time>
      </trkpt>
      <trkpt lat="48.47645" lon="-2.87975">
        <ele>198</ele>
        <time>2017-01-05T14:35:00.000Z</time>
      </trkpt>
      <trkpt lat="48.47645" lon="-2.87969">
        <ele>197</ele>
        <time>2017-01-05T14:35:01.000Z</time>
      </trkpt>
      <trkpt lat="48.47646" lon="-2.87964">
        <ele>197</ele>
        <time>2017-01-05T14:35:02.000Z</time>
      </trkpt>
      <trkpt lat="48.47646" lon="-2.87958">
        <ele>197</ele>
        <time>2017-01-05T14:35:03.000Z</time>
      </trkpt>
      <trkpt lat="48.47647" lon="-2.87952">
        <ele>197</ele>
        <time>2017-01-05T14:35:04.000Z</time>
      </trkpt>
      <trkpt lat="48.47648" lon="-2.87946">
        <ele>197</ele>
        <time>2017-01-05T14:35:05.000Z</time>
      </trkpt>
      <trkpt lat="48.47648" lon="-2.8794">
        <ele>198</ele>
        <time>2017-01-05T14:35:06.000Z</time>
      </trkpt>
      <trkpt lat="48.47649" lon="-2.87933">
        <ele>198</ele>
        <time>2017-01-05T14:35:07.000Z</time>
      </trkpt>
      <trkpt lat="48.47649" lon="-2.87927">
        <ele>198</ele>
        <time>2017-01-05T14:35:08.000Z</time>
      </trkpt>
      <trkpt lat="48.4765" lon="-2.8792">
        <ele>198</ele>
        <time>2017-01-05T14:35:09.000Z</time>
      </trkpt>
      <trkpt lat="48.47651" lon="-2.87913">
        <ele>198</ele>
        <time>2017-01-05T14:35:10.000Z</time>
      </trkpt>
      <trkpt lat="48.47651" lon="-2.87907">
        <ele>198</ele>
        <time>2017-01-05T14:35:11.000Z</time>
      </trkpt>
      <trkpt lat="48.47652" lon="-2.879">
        <ele>198</ele>
        <time>2017-01-05T14:35:12.000Z</time>
      </trkpt>
      <trkpt lat="48.47653" lon="-2.87893">
        <ele>197</ele>
        <time>2017-01-05T14:35:13.000Z</time>
      </trkpt>
      <trkpt lat="48.47654" lon="-2.87887">
        <ele>197</ele>
        <time>2017-01-05T14:35:14.000Z</time>
      </trkpt>
      <trkpt lat="48.47655" lon="-2.8788">
        <ele>197</ele>
        <time>2017-01-05T14:35:15.000Z</time>
      </trkpt>
      <trkpt lat="48.47655" lon="-2.87873">
        <ele>197</ele>
        <time>2017-01-05T14:35:16.000Z</time>
      </trkpt>
      <trkpt lat="48.47656" lon="-2.87867">
        <ele>197</ele>
        <time>2017-01-05T14:35:17.000Z</time>
      </trkpt>
      <trkpt lat="48.47657" lon="-2.8786">
        <ele>197</ele>
        <time>2017-01-05T14:35:18.000Z</time>
      </trkpt>
      <trkpt lat="48.47658" lon="-2.87853">
        <ele>197</ele>
        <time>2017-01-05T14:35:19.000Z</time>
      </trkpt>
      <trkpt lat="48.47658" lon="-2.87846">
        <ele>197</ele>
        <time>2017-01-05T14:35:20.000Z</time>
      </trkpt>
      <trkpt lat="48.47659" lon="-2.8784">
        <ele>198</ele>
        <time>2017-01-05T14:35:21.000Z</time>
      </trkpt>
      <trkpt lat="48.47659" lon="-2.87833">
        <ele>198</ele>
        <time>2017-01-05T14:35:22.000Z</time>
      </trkpt>
      <trkpt lat="48.47659" lon="-2.87826">
        <ele>198</ele>
        <time>2017-01-05T14:35:23.000Z</time>
      </trkpt>
      <trkpt lat="48.4766" lon="-2.87819">
        <ele>198</ele>
        <time>2017-01-05T14:35:24.000Z</time>
      </trkpt>
      <trkpt lat="48.4766" lon="-2.87813">
        <ele>197</ele>
        <time>2017-01-05T14:35:25.000Z</time>
      </trkpt>
      <trkpt lat="48.47661" lon="-2.87806">
        <ele>197</ele>
        <time>2017-01-05T14:35:26.000Z</time>
      </trkpt>
      <trkpt lat="48.47661" lon="-2.87799">
        <ele>197</ele>
        <time>2017-01-05T14:35:27.000Z</time>
      </trkpt>
      <trkpt lat="48.47661" lon="-2.87793">
        <ele>197</ele>
        <time>2017-01-05T14:35:28.000Z</time>
      </trkpt>
      <trkpt lat="48.47662" lon="-2.87786">
        <ele>197</ele>
        <time>2017-01-05T14:35:29.000Z</time>
      </trkpt>
      <trkpt lat="48.47662" lon="-2.8778">
        <ele>197</ele>
        <time>2017-01-05T14:35:30.000Z</time>
      </trkpt>
      <trkpt lat="48.47663" lon="-2.87773">
        <ele>197</ele>
        <time>2017-01-05T14:35:31.000Z</time>
      </trkpt>
      <trkpt lat="48.47663" lon="-2.87766">
        <ele>197</ele>
        <time>2017-01-05T14:35:32.000Z</time>
      </trkpt>
      <trkpt lat="48.47664" lon="-2.8776">
        <ele>197</ele>
        <time>2017-01-05T14:35:33.000Z</time>
      </trkpt>
      <trkpt lat="48.47664" lon="-2.87753">
        <ele>197</ele>
        <time>2017-01-05T14:35:34.000Z</time>
      </trkpt>
      <trkpt lat="48.47665" lon="-2.87746">
        <ele>197</ele>
        <time>2017-01-05T14:35:35.000Z</time>
      </trkpt>
      <trkpt lat="48.47665" lon="-2.8774">
        <ele>197</ele>
        <time>2017-01-05T14:35:36.000Z</time>
      </trkpt>
      <trkpt lat="48.47666" lon="-2.87733">
        <ele>197</ele>
        <time>2017-01-05T14:35:37.000Z</time>
      </trkpt>
      <trkpt lat="48.47667" lon="-2.87727">
        <ele>199</ele>
        <time>2017-01-05T14:35:38.000Z</time>
      </trkpt>
      <trkpt lat="48.47668" lon="-2.87721">
        <ele>199</ele>
        <time>2017-01-05T14:35:39.000Z</time>
      </trkpt>
      <trkpt lat="48.47669" lon="-2.87714">
        <ele>199</ele>
        <time>2017-01-05T14:35:40.000Z</time>
      </trkpt>
      <trkpt lat="48.47671" lon="-2.87708">
        <ele>199</ele>
        <time>2017-01-05T14:35:41.000Z</time>
      </trkpt>
      <trkpt lat="48.47673" lon="-2.87702">
        <ele>199</ele>
        <time>2017-01-05T14:35:42.000Z</time>
      </trkpt>
      <trkpt lat="48.47675" lon="-2.87696">
        <ele>199</ele>
        <time>2017-01-05T14:35:43.000Z</time>
      </trkpt>
      <trkpt lat="48.47677" lon="-2.8769">
        <ele>199</ele>
        <time>2017-01-05T14:35:44.000Z</time>
      </trkpt>
      <trkpt lat="48.47679" lon="-2.87683">
        <ele>198</ele>
        <time>2017-01-05T14:35:45.000Z</time>
      </trkpt>
      <trkpt lat="48.4768" lon="-2.87676">
        <ele>198</ele>
        <time>2017-01-05T14:35:46.000Z</time>
      </trkpt>
      <trkpt lat="48.4768" lon="-2.87669">
        <ele>198</ele>
        <time>2017-01-05T14:35:47.000Z</time>
      </trkpt>
      <trkpt lat="48.47679" lon="-2.87662">
        <ele>197</ele>
        <time>2017-01-05T14:35:48.000Z</time>
      </trkpt>
      <trkpt lat="48.47679" lon="-2.87655">
        <ele>197</ele>
        <time>2017-01-05T14:35:49.000Z</time>
      </trkpt>
      <trkpt lat="48.47678" lon="-2.87649">
        <ele>197</ele>
        <time>2017-01-05T14:35:50.000Z</time>
      </trkpt>
      <trkpt lat="48.47677" lon="-2.87642">
        <ele>198</ele>
        <time>2017-01-05T14:35:51.000Z</time>
      </trkpt>
      <trkpt lat="48.47676" lon="-2.87635">
        <ele>198</ele>
        <time>2017-01-05T14:35:52.000Z</time>
      </trkpt>
      <trkpt lat="48.47674" lon="-2.87628">
        <ele>198</ele>
        <time>2017-01-05T14:35:53.000Z</time>
      </trkpt>
      <trkpt lat="48.47673" lon="-2.87622">
        <ele>198</ele>
        <time>2017-01-05T14:35:54.000Z</time>
      </trkpt>
      <trkpt lat="48.47672" lon="-2.87615">
        <ele>198</ele>
        <time>2017-01-05T14:35:55.000Z</time>
      </trkpt>
      <trkpt lat="48.4767" lon="-2.87609">
        <ele>197</ele>
        <time>2017-01-05T14:35:56.000Z</time>
      </trkpt>
      <trkpt lat="48.47668" lon="-2.87603">
        <ele>197</ele>
        <time>2017-01-05T14:35:57.000Z</time>
      </trkpt>
      <trkpt lat="48.47667" lon="-2.87596">
        <ele>197</ele>
        <time>2017-01-05T14:35:58.000Z</time>
      </trkpt>
      <trkpt lat="48.47665" lon="-2.8759">
        <ele>196</ele>
        <time>2017-01-05T14:35:59.000Z</time>
      </trkpt>
      <trkpt lat="48.47664" lon="-2.87583">
        <ele>196</ele>
        <time>2017-01-05T14:36:00.000Z</time>
      </trkpt>
      <trkpt lat="48.47662" lon="-2.87576">
        <ele>196</ele>
        <time>2017-01-05T14:36:01.000Z</time>
      </trkpt>
      <trkpt lat="48.4766" lon="-2.8757">
        <ele>196</ele>
        <time>2017-01-05T14:36:02.000Z</time>
      </trkpt>
      <trkpt lat="48.47658" lon="-2.87564">
        <ele>195</ele>
        <time>2017-01-05T14:36:03.000Z</time>
      </trkpt>
      <trkpt lat="48.47656" lon="-2.87558">
        <ele>195</ele>
        <time>2017-01-05T14:36:04.000Z</time>
      </trkpt>
      <trkpt lat="48.47654" lon="-2.87552">
        <ele>195</ele>
        <time>2017-01-05T14:36:05.000Z</time>
      </trkpt>
      <trkpt lat="48.47652" lon="-2.87546">
        <ele>195</ele>
        <time>2017-01-05T14:36:06.000Z</time>
      </trkpt>
      <trkpt lat="48.4765" lon="-2.87539">
        <ele>195</ele>
        <time>2017-01-05T14:36:07.000Z</time>
      </trkpt>
      <trkpt lat="48.47648" lon="-2.87533">
        <ele>195</ele>
        <time>2017-01-05T14:36:08.000Z</time>
      </trkpt>
      <trkpt lat="48.47646" lon="-2.87526">
        <ele>196</ele>
        <time>2017-01-05T14:36:09.000Z</time>
      </trkpt>
      <trkpt lat="48.47644" lon="-2.8752">
        <ele>196</ele>
        <time>2017-01-05T14:36:10.000Z</time>
      </trkpt>
      <trkpt lat="48.47642" lon="-2.87513">
        <ele>196</ele>
        <time>2017-01-05T14:36:11.000Z</time>
      </trkpt>
      <trkpt lat="48.4764" lon="-2.87506">
        <ele>196</ele>
        <time>2017-01-05T14:36:12.000Z</time>
      </trkpt>
      <trkpt lat="48.47638" lon="-2.87499">
        <ele>196</ele>
        <time>2017-01-05T14:36:13.000Z</time>
      </trkpt>
      <trkpt lat="48.47637" lon="-2.87491">
        <ele>196</ele>
        <time>2017-01-05T14:36:14.000Z</time>
      </trkpt>
      <trkpt lat="48.47635" lon="-2.87484">
        <ele>196</ele>
        <time>2017-01-05T14:36:15.000Z</time>
      </trkpt>
      <trkpt lat="48.47634" lon="-2.87477">
        <ele>196</ele>
        <time>2017-01-05T14:36:16.000Z</time>
      </trkpt>
      <trkpt lat="48.47633" lon="-2.8747">
        <ele>196</ele>
        <time>2017-01-05T14:36:17.000Z</time>
      </trkpt>
      <trkpt lat="48.47632" lon="-2.87463">
        <ele>196</ele>
        <time>2017-01-05T14:36:18.000Z</time>
      </trkpt>
      <trkpt lat="48.47632" lon="-2.87456">
        <ele>196</ele>
        <time>2017-01-05T14:36:19.000Z</time>
      </trkpt>
      <trkpt lat="48.47631" lon="-2.87449">
        <ele>196</ele>
        <time>2017-01-05T14:36:20.000Z</time>
      </trkpt>
      <trkpt lat="48.47631" lon="-2.87442">
        <ele>196</ele>
        <time>2017-01-05T14:36:21.000Z</time>
      </trkpt>
      <trkpt lat="48.4763" lon="-2.87436">
        <ele>196</ele>
        <time>2017-01-05T14:36:22.000Z</time>
      </trkpt>
      <trkpt lat="48.4763" lon="-2.8743">
        <ele>196</ele>
        <time>2017-01-05T14:36:23.000Z</time>
      </trkpt>
      <trkpt lat="48.4763" lon="-2.87424">
        <ele>196</ele>
        <time>2017-01-05T14:36:24.000Z</time>
      </trkpt>
      <trkpt lat="48.4763" lon="-2.87419">
        <ele>196</ele>
        <time>2017-01-05T14:36:25.000Z</time>
      </trkpt>
      <trkpt lat="48.4763" lon="-2.87415">
        <ele>196</ele>
        <time>2017-01-05T14:36:26.000Z</time>
      </trkpt>
      <trkpt lat="48.4763" lon="-2.87411">
        <ele>196</ele>
        <time>2017-01-05T14:36:27.000Z</time>
      </trkpt>
      <trkpt lat="48.4763" lon="-2.87408">
        <ele>196</ele>
        <time>2017-01-05T14:36:28.000Z</time>
      </trkpt>
      <trkpt lat="48.47631" lon="-2.87404">
        <ele>196</ele>
        <time>2017-01-05T14:36:30.000Z</time>
      </trkpt>
      <trkpt lat="48.47634" lon="-2.87401">
        <ele>196</ele>
        <time>2017-01-05T14:36:32.000Z</time>
      </trkpt>
      <trkpt lat="48.47638" lon="-2.87402">
        <ele>196</ele>
        <time>2017-01-05T14:36:34.000Z</time>
      </trkpt>
      <trkpt lat="48.4764" lon="-2.87403">
        <ele>196</ele>
        <time>2017-01-05T14:36:35.000Z</time>
      </trkpt>
      <trkpt lat="48.47643" lon="-2.87405">
        <ele>196</ele>
        <time>2017-01-05T14:36:36.000Z</time>
      </trkpt>
      <trkpt lat="48.47646" lon="-2.87407">
        <ele>197</ele>
        <time>2017-01-05T14:36:37.000Z</time>
      </trkpt>
      <trkpt lat="48.4765" lon="-2.87409">
        <ele>197</ele>
        <time>2017-01-05T14:36:38.000Z</time>
      </trkpt>
      <trkpt lat="48.47653" lon="-2.87411">
        <ele>197</ele>
        <time>2017-01-05T14:36:39.000Z</time>
      </trkpt>
      <trkpt lat="48.47657" lon="-2.87412">
        <ele>197</ele>
        <time>2017-01-05T14:36:40.000Z</time>
      </trkpt>
      <trkpt lat="48.47661" lon="-2.87414">
        <ele>197</ele>
        <time>2017-01-05T14:36:41.000Z</time>
      </trkpt>
      <trkpt lat="48.47665" lon="-2.87416">
        <ele>198</ele>
        <time>2017-01-05T14:36:42.000Z</time>
      </trkpt>
      <trkpt lat="48.4767" lon="-2.87418">
        <ele>198</ele>
        <time>2017-01-05T14:36:43.000Z</time>
      </trkpt>
      <trkpt lat="48.47675" lon="-2.8742">
        <ele>198</ele>
        <time>2017-01-05T14:36:44.000Z</time>
      </trkpt>
      <trkpt lat="48.47681" lon="-2.87423">
        <ele>198</ele>
        <time>2017-01-05T14:36:45.000Z</time>
      </trkpt>
      <trkpt lat="48.47686" lon="-2.87425">
        <ele>198</ele>
        <time>2017-01-05T14:36:46.000Z</time>
      </trkpt>
      <trkpt lat="48.47692" lon="-2.87427">
        <ele>198</ele>
        <time>2017-01-05T14:36:47.000Z</time>
      </trkpt>
      <trkpt lat="48.47698" lon="-2.87429">
        <ele>198</ele>
        <time>2017-01-05T14:36:48.000Z</time>
      </trkpt>
      <trkpt lat="48.47704" lon="-2.87431">
        <ele>198</ele>
        <time>2017-01-05T14:36:49.000Z</time>
      </trkpt>
      <trkpt lat="48.4771" lon="-2.87432">
        <ele>198</ele>
        <time>2017-01-05T14:36:50.000Z</time>
      </trkpt>
      <trkpt lat="48.47716" lon="-2.87434">
        <ele>198</ele>
        <time>2017-01-05T14:36:51.000Z</time>
      </trkpt>
      <trkpt lat="48.47722" lon="-2.87435">
        <ele>198</ele>
        <time>2017-01-05T14:36:52.000Z</time>
      </trkpt>
      <trkpt lat="48.47728" lon="-2.87437">
        <ele>198</ele>
        <time>2017-01-05T14:36:53.000Z</time>
      </trkpt>
      <trkpt lat="48.47733" lon="-2.87438">
        <ele>198</ele>
        <time>2017-01-05T14:36:54.000Z</time>
      </trkpt>
      <trkpt lat="48.47739" lon="-2.87438">
        <ele>198</ele>
        <time>2017-01-05T14:36:55.000Z</time>
      </trkpt>
      <trkpt lat="48.47745" lon="-2.87439">
        <ele>198</ele>
        <time>2017-01-05T14:36:56.000Z</time>
      </trkpt>
      <trkpt lat="48.47751" lon="-2.8744">
        <ele>199</ele>
        <time>2017-01-05T14:36:57.000Z</time>
      </trkpt>
      <trkpt lat="48.47757" lon="-2.8744">
        <ele>199</ele>
        <time>2017-01-05T14:36:58.000Z</time>
      </trkpt>
      <trkpt lat="48.47763" lon="-2.87441">
        <ele>199</ele>
        <time>2017-01-05T14:36:59.000Z</time>
      </trkpt>
      <trkpt lat="48.47768" lon="-2.87441">
        <ele>199</ele>
        <time>2017-01-05T14:37:00.000Z</time>
      </trkpt>
      <trkpt lat="48.47773" lon="-2.87441">
        <ele>199</ele>
        <time>2017-01-05T14:37:01.000Z</time>
      </trkpt>
      <trkpt lat="48.47778" lon="-2.87441">
        <ele>199</ele>
        <time>2017-01-05T14:37:02.000Z</time>
      </trkpt>
      <trkpt lat="48.47783" lon="-2.87441">
        <ele>199</ele>
        <time>2017-01-05T14:37:03.000Z</time>
      </trkpt>
      <trkpt lat="48.47788" lon="-2.87441">
        <ele>199</ele>
        <time>2017-01-05T14:37:04.000Z</time>
      </trkpt>
      <trkpt lat="48.47793" lon="-2.8744">
        <ele>199</ele>
        <time>2017-01-05T14:37:05.000Z</time>
      </trkpt>
      <trkpt lat="48.47797" lon="-2.8744">
        <ele>199</ele>
        <time>2017-01-05T14:37:06.000Z</time>
      </trkpt>
      <trkpt lat="48.47802" lon="-2.8744">
        <ele>199</ele>
        <time>2017-01-05T14:37:07.000Z</time>
      </trkpt>
      <trkpt lat="48.47806" lon="-2.87441">
        <ele>199</ele>
        <time>2017-01-05T14:37:08.000Z</time>
      </trkpt>
      <trkpt lat="48.47811" lon="-2.87442">
        <ele>199</ele>
        <time>2017-01-05T14:37:09.000Z</time>
      </trkpt>
      <trkpt lat="48.47816" lon="-2.87442">
        <ele>199</ele>
        <time>2017-01-05T14:37:10.000Z</time>
      </trkpt>
      <trkpt lat="48.47821" lon="-2.87443">
        <ele>199</ele>
        <time>2017-01-05T14:37:11.000Z</time>
      </trkpt>
      <trkpt lat="48.47827" lon="-2.87444">
        <ele>199</ele>
        <time>2017-01-05T14:37:12.000Z</time>
      </trkpt>
      <trkpt lat="48.47832" lon="-2.87445">
        <ele>199</ele>
        <time>2017-01-05T14:37:13.000Z</time>
      </trkpt>
      <trkpt lat="48.47838" lon="-2.87445">
        <ele>200</ele>
        <time>2017-01-05T14:37:14.000Z</time>
      </trkpt>
      <trkpt lat="48.47843" lon="-2.87446">
        <ele>200</ele>
        <time>2017-01-05T14:37:15.000Z</time>
      </trkpt>
      <trkpt lat="48.47848" lon="-2.87447">
        <ele>200</ele>
        <time>2017-01-05T14:37:16.000Z</time>
      </trkpt>
      <trkpt lat="48.47853" lon="-2.87449">
        <ele>200</ele>
        <time>2017-01-05T14:37:17.000Z</time>
      </trkpt>
      <trkpt lat="48.47859" lon="-2.87452">
        <ele>200</ele>
        <time>2017-01-05T14:37:18.000Z</time>
      </trkpt>
      <trkpt lat="48.47865" lon="-2.87454">
        <ele>200</ele>
        <time>2017-01-05T14:37:19.000Z</time>
      </trkpt>
      <trkpt lat="48.4787" lon="-2.87456">
        <ele>200</ele>
        <time>2017-01-05T14:37:20.000Z</time>
      </trkpt>
      <trkpt lat="48.47876" lon="-2.87458">
        <ele>200</ele>
        <time>2017-01-05T14:37:21.000Z</time>
      </trkpt>
      <trkpt lat="48.47881" lon="-2.87461">
        <ele>200</ele>
        <time>2017-01-05T14:37:22.000Z</time>
      </trkpt>
      <trkpt lat="48.47887" lon="-2.87464">
        <ele>200</ele>
        <time>2017-01-05T14:37:23.000Z</time>
      </trkpt>
      <trkpt lat="48.47892" lon="-2.87467">
        <ele>200</ele>
        <time>2017-01-05T14:37:24.000Z</time>
      </trkpt>
      <trkpt lat="48.47897" lon="-2.87469">
        <ele>200</ele>
        <time>2017-01-05T14:37:25.000Z</time>
      </trkpt>
      <trkpt lat="48.47902" lon="-2.87472">
        <ele>200</ele>
        <time>2017-01-05T14:37:26.000Z</time>
      </trkpt>
      <trkpt lat="48.47908" lon="-2.87476">
        <ele>200</ele>
        <time>2017-01-05T14:37:27.000Z</time>
      </trkpt>
      <trkpt lat="48.47913" lon="-2.87479">
        <ele>200</ele>
        <time>2017-01-05T14:37:28.000Z</time>
      </trkpt>
      <trkpt lat="48.47919" lon="-2.87483">
        <ele>200</ele>
        <time>2017-01-05T14:37:29.000Z</time>
      </trkpt>
      <trkpt lat="48.47925" lon="-2.87487">
        <ele>200</ele>
        <time>2017-01-05T14:37:30.000Z</time>
      </trkpt>
      <trkpt lat="48.47931" lon="-2.8749">
        <ele>200</ele>
        <time>2017-01-05T14:37:31.000Z</time>
      </trkpt>
      <trkpt lat="48.47936" lon="-2.87494">
        <ele>200</ele>
        <time>2017-01-05T14:37:32.000Z</time>
      </trkpt>
      <trkpt lat="48.47941" lon="-2.87498">
        <ele>200</ele>
        <time>2017-01-05T14:37:33.000Z</time>
      </trkpt>
      <trkpt lat="48.47948" lon="-2.87502">
        <ele>201</ele>
        <time>2017-01-05T14:37:34.000Z</time>
      </trkpt>
      <trkpt lat="48.47954" lon="-2.87506">
        <ele>200</ele>
        <time>2017-01-05T14:37:35.000Z</time>
      </trkpt>
      <trkpt lat="48.47961" lon="-2.87509">
        <ele>200</ele>
        <time>2017-01-05T14:37:36.000Z</time>
      </trkpt>
      <trkpt lat="48.47966" lon="-2.87513">
        <ele>200</ele>
        <time>2017-01-05T14:37:37.000Z</time>
      </trkpt>
      <trkpt lat="48.47972" lon="-2.87516">
        <ele>200</ele>
        <time>2017-01-05T14:37:38.000Z</time>
      </trkpt>
      <trkpt lat="48.47978" lon="-2.87519">
        <ele>200</ele>
        <time>2017-01-05T14:37:39.000Z</time>
      </trkpt>
      <trkpt lat="48.47984" lon="-2.87522">
        <ele>200</ele>
        <time>2017-01-05T14:37:40.000Z</time>
      </trkpt>
      <trkpt lat="48.47989" lon="-2.87524">
        <ele>200</ele>
        <time>2017-01-05T14:37:41.000Z</time>
      </trkpt>
      <trkpt lat="48.47995" lon="-2.87527">
        <ele>200</ele>
        <time>2017-01-05T14:37:42.000Z</time>
      </trkpt>
      <trkpt lat="48.48" lon="-2.8753">
        <ele>200</ele>
        <time>2017-01-05T14:37:43.000Z</time>
      </trkpt>
      <trkpt lat="48.48006" lon="-2.87533">
        <ele>199</ele>
        <time>2017-01-05T14:37:44.000Z</time>
      </trkpt>
      <trkpt lat="48.48011" lon="-2.87535">
        <ele>199</ele>
        <time>2017-01-05T14:37:45.000Z</time>
      </trkpt>
      <trkpt lat="48.48016" lon="-2.87538">
        <ele>199</ele>
        <time>2017-01-05T14:37:46.000Z</time>
      </trkpt>
      <trkpt lat="48.48022" lon="-2.87541">
        <ele>199</ele>
        <time>2017-01-05T14:37:47.000Z</time>
      </trkpt>
      <trkpt lat="48.48027" lon="-2.87543">
        <ele>199</ele>
        <time>2017-01-05T14:37:48.000Z</time>
      </trkpt>
      <trkpt lat="48.48032" lon="-2.87545">
        <ele>199</ele>
        <time>2017-01-05T14:37:49.000Z</time>
      </trkpt>
      <trkpt lat="48.48038" lon="-2.87548">
        <ele>199</ele>
        <time>2017-01-05T14:37:50.000Z</time>
      </trkpt>
      <trkpt lat="48.48043" lon="-2.87551">
        <ele>199</ele>
        <time>2017-01-05T14:37:51.000Z</time>
      </trkpt>
      <trkpt lat="48.48048" lon="-2.87553">
        <ele>199</ele>
        <time>2017-01-05T14:37:52.000Z</time>
      </trkpt>
      <trkpt lat="48.48052" lon="-2.87556">
        <ele>199</ele>
        <time>2017-01-05T14:37:53.000Z</time>
      </trkpt>
      <trkpt lat="48.48056" lon="-2.87558">
        <ele>199</ele>
        <time>2017-01-05T14:37:54.000Z</time>
      </trkpt>
      <trkpt lat="48.4806" lon="-2.87559">
        <ele>199</ele>
        <time>2017-01-05T14:37:55.000Z</time>
      </trkpt>
      <trkpt lat="48.48064" lon="-2.8756">
        <ele>199</ele>
        <time>2017-01-05T14:37:56.000Z</time>
      </trkpt>
      <trkpt lat="48.48068" lon="-2.87559">
        <ele>199</ele>
        <time>2017-01-05T14:37:57.000Z</time>
      </trkpt>
      <trkpt lat="48.48072" lon="-2.87556">
        <ele>199</ele>
        <time>2017-01-05T14:37:58.000Z</time>
      </trkpt>
      <trkpt lat="48.48076" lon="-2.87552">
        <ele>198</ele>
        <time>2017-01-05T14:37:59.000Z</time>
      </trkpt>
      <trkpt lat="48.48078" lon="-2.87546">
        <ele>198</ele>
        <time>2017-01-05T14:38:00.000Z</time>
      </trkpt>
      <trkpt lat="48.48081" lon="-2.87539">
        <ele>198</ele>
        <time>2017-01-05T14:38:01.000Z</time>
      </trkpt>
      <trkpt lat="48.48082" lon="-2.87532">
        <ele>198</ele>
        <time>2017-01-05T14:38:02.000Z</time>
      </trkpt>
      <trkpt lat="48.48084" lon="-2.87523">
        <ele>197</ele>
        <time>2017-01-05T14:38:03.000Z</time>
      </trkpt>
      <trkpt lat="48.48086" lon="-2.87514">
        <ele>197</ele>
        <time>2017-01-05T14:38:04.000Z</time>
      </trkpt>
      <trkpt lat="48.48087" lon="-2.87505">
        <ele>196</ele>
        <time>2017-01-05T14:38:05.000Z</time>
      </trkpt>
      <trkpt lat="48.48088" lon="-2.87495">
        <ele>196</ele>
        <time>2017-01-05T14:38:06.000Z</time>
      </trkpt>
      <trkpt lat="48.4809" lon="-2.87486">
        <ele>196</ele>
        <time>2017-01-05T14:38:07.000Z</time>
      </trkpt>
      <trkpt lat="48.48091" lon="-2.87476">
        <ele>196</ele>
        <time>2017-01-05T14:38:08.000Z</time>
      </trkpt>
      <trkpt lat="48.48093" lon="-2.87466">
        <ele>196</ele>
        <time>2017-01-05T14:38:09.000Z</time>
      </trkpt>
      <trkpt lat="48.48094" lon="-2.87456">
        <ele>196</ele>
        <time>2017-01-05T14:38:10.000Z</time>
      </trkpt>
      <trkpt lat="48.48096" lon="-2.87447">
        <ele>196</ele>
        <time>2017-01-05T14:38:11.000Z</time>
      </trkpt>
      <trkpt lat="48.48098" lon="-2.87437">
        <ele>196</ele>
        <time>2017-01-05T14:38:12.000Z</time>
      </trkpt>
      <trkpt lat="48.481" lon="-2.87428">
        <ele>196</ele>
        <time>2017-01-05T14:38:13.000Z</time>
      </trkpt>
      <trkpt lat="48.48101" lon="-2.87419">
        <ele>196</ele>
        <time>2017-01-05T14:38:14.000Z</time>
      </trkpt>
      <trkpt lat="48.48103" lon="-2.87409">
        <ele>195</ele>
        <time>2017-01-05T14:38:15.000Z</time>
      </trkpt>
      <trkpt lat="48.48105" lon="-2.874">
        <ele>195</ele>
        <time>2017-01-05T14:38:16.000Z</time>
      </trkpt>
      <trkpt lat="48.48108" lon="-2.87391">
        <ele>194</ele>
        <time>2017-01-05T14:38:17.000Z</time>
      </trkpt>
      <trkpt lat="48.48111" lon="-2.87381">
        <ele>194</ele>
        <time>2017-01-05T14:38:18.000Z</time>
      </trkpt>
      <trkpt lat="48.48114" lon="-2.87372">
        <ele>194</ele>
        <time>2017-01-05T14:38:19.000Z</time>
      </trkpt>
      <trkpt lat="48.48117" lon="-2.87364">
        <ele>194</ele>
        <time>2017-01-05T14:38:20.000Z</time>
      </trkpt>
      <trkpt lat="48.48121" lon="-2.87356">
        <ele>194</ele>
        <time>2017-01-05T14:38:21.000Z</time>
      </trkpt>
      <trkpt lat="48.48125" lon="-2.87348">
        <ele>194</ele>
        <time>2017-01-05T14:38:22.000Z</time>
      </trkpt>
      <trkpt lat="48.4813" lon="-2.8734">
        <ele>194</ele>
        <time>2017-01-05T14:38:23.000Z</time>
      </trkpt>
      <trkpt lat="48.48134" lon="-2.87333">
        <ele>192</ele>
        <time>2017-01-05T14:38:24.000Z</time>
      </trkpt>
      <trkpt lat="48.48139" lon="-2.87325">
        <ele>192</ele>
        <time>2017-01-05T14:38:25.000Z</time>
      </trkpt>
      <trkpt lat="48.48144" lon="-2.87318">
        <ele>192</ele>
        <time>2017-01-05T14:38:26.000Z</time>
      </trkpt>
      <trkpt lat="48.48148" lon="-2.87311">
        <ele>192</ele>
        <time>2017-01-05T14:38:27.000Z</time>
      </trkpt>
      <trkpt lat="48.48153" lon="-2.87304">
        <ele>192</ele>
        <time>2017-01-05T14:38:28.000Z</time>
      </trkpt>
      <trkpt lat="48.48157" lon="-2.87296">
        <ele>191</ele>
        <time>2017-01-05T14:38:29.000Z</time>
      </trkpt>
      <trkpt lat="48.48161" lon="-2.87289">
        <ele>191</ele>
        <time>2017-01-05T14:38:30.000Z</time>
      </trkpt>
      <trkpt lat="48.48164" lon="-2.87281">
        <ele>191</ele>
        <time>2017-01-05T14:38:31.000Z</time>
      </trkpt>
      <trkpt lat="48.48167" lon="-2.87272">
        <ele>191</ele>
        <time>2017-01-05T14:38:32.000Z</time>
      </trkpt>
      <trkpt lat="48.4817" lon="-2.87263">
        <ele>191</ele>
        <time>2017-01-05T14:38:33.000Z</time>
      </trkpt>
      <trkpt lat="48.48172" lon="-2.87254">
        <ele>190</ele>
        <time>2017-01-05T14:38:34.000Z</time>
      </trkpt>
      <trkpt lat="48.48174" lon="-2.87245">
        <ele>190</ele>
        <time>2017-01-05T14:38:35.000Z</time>
      </trkpt>
      <trkpt lat="48.48176" lon="-2.87235">
        <ele>189</ele>
        <time>2017-01-05T14:38:36.000Z</time>
      </trkpt>
      <trkpt lat="48.48178" lon="-2.87226">
        <ele>189</ele>
        <time>2017-01-05T14:38:37.000Z</time>
      </trkpt>
      <trkpt lat="48.48179" lon="-2.87217">
        <ele>189</ele>
        <time>2017-01-05T14:38:38.000Z</time>
      </trkpt>
      <trkpt lat="48.48181" lon="-2.87209">
        <ele>189</ele>
        <time>2017-01-05T14:38:39.000Z</time>
      </trkpt>
      <trkpt lat="48.48182" lon="-2.872">
        <ele>188</ele>
        <time>2017-01-05T14:38:40.000Z</time>
      </trkpt>
      <trkpt lat="48.48184" lon="-2.87193">
        <ele>188</ele>
        <time>2017-01-05T14:38:41.000Z</time>
      </trkpt>
      <trkpt lat="48.48185" lon="-2.87186">
        <ele>188</ele>
        <time>2017-01-05T14:38:42.000Z</time>
      </trkpt>
      <trkpt lat="48.48187" lon="-2.87179">
        <ele>188</ele>
        <time>2017-01-05T14:38:43.000Z</time>
      </trkpt>
      <trkpt lat="48.48189" lon="-2.87172">
        <ele>188</ele>
        <time>2017-01-05T14:38:44.000Z</time>
      </trkpt>
      <trkpt lat="48.48191" lon="-2.87164">
        <ele>186</ele>
        <time>2017-01-05T14:38:45.000Z</time>
      </trkpt>
      <trkpt lat="48.48194" lon="-2.87155">
        <ele>186</ele>
        <time>2017-01-05T14:38:46.000Z</time>
      </trkpt>
      <trkpt lat="48.48196" lon="-2.87147">
        <ele>186</ele>
        <time>2017-01-05T14:38:47.000Z</time>
      </trkpt>
      <trkpt lat="48.48199" lon="-2.87138">
        <ele>185</ele>
        <time>2017-01-05T14:38:48.000Z</time>
      </trkpt>
      <trkpt lat="48.48203" lon="-2.87129">
        <ele>185</ele>
        <time>2017-01-05T14:38:49.000Z</time>
      </trkpt>
      <trkpt lat="48.48206" lon="-2.87119">
        <ele>185</ele>
        <time>2017-01-05T14:38:50.000Z</time>
      </trkpt>
      <trkpt lat="48.48209" lon="-2.8711">
        <ele>185</ele>
        <time>2017-01-05T14:38:51.000Z</time>
      </trkpt>
      <trkpt lat="48.48212" lon="-2.871">
        <ele>184</ele>
        <time>2017-01-05T14:38:52.000Z</time>
      </trkpt>
      <trkpt lat="48.48215" lon="-2.8709">
        <ele>184</ele>
        <time>2017-01-05T14:38:53.000Z</time>
      </trkpt>
      <trkpt lat="48.48218" lon="-2.87079">
        <ele>181</ele>
        <time>2017-01-05T14:38:54.000Z</time>
      </trkpt>
      <trkpt lat="48.48222" lon="-2.87069">
        <ele>181</ele>
        <time>2017-01-05T14:38:55.000Z</time>
      </trkpt>
      <trkpt lat="48.48225" lon="-2.87058">
        <ele>181</ele>
        <time>2017-01-05T14:38:56.000Z</time>
      </trkpt>
      <trkpt lat="48.48229" lon="-2.87047">
        <ele>181</ele>
        <time>2017-01-05T14:38:57.000Z</time>
      </trkpt>
      <trkpt lat="48.48232" lon="-2.87036">
        <ele>180</ele>
        <time>2017-01-05T14:38:58.000Z</time>
      </trkpt>
      <trkpt lat="48.48236" lon="-2.87024">
        <ele>180</ele>
        <time>2017-01-05T14:38:59.000Z</time>
      </trkpt>
      <trkpt lat="48.48239" lon="-2.87012">
        <ele>179</ele>
        <time>2017-01-05T14:39:00.000Z</time>
      </trkpt>
      <trkpt lat="48.48243" lon="-2.87">
        <ele>179</ele>
        <time>2017-01-05T14:39:01.000Z</time>
      </trkpt>
      <trkpt lat="48.48247" lon="-2.86988">
        <ele>177</ele>
        <time>2017-01-05T14:39:02.000Z</time>
      </trkpt>
      <trkpt lat="48.4825" lon="-2.86977">
        <ele>177</ele>
        <time>2017-01-05T14:39:03.000Z</time>
      </trkpt>
      <trkpt lat="48.48254" lon="-2.86965">
        <ele>176</ele>
        <time>2017-01-05T14:39:04.000Z</time>
      </trkpt>
      <trkpt lat="48.48257" lon="-2.86955">
        <ele>176</ele>
        <time>2017-01-05T14:39:05.000Z</time>
      </trkpt>
      <trkpt lat="48.4826" lon="-2.86945">
        <ele>175</ele>
        <time>2017-01-05T14:39:06.000Z</time>
      </trkpt>
      <trkpt lat="48.48263" lon="-2.86936">
        <ele>175</ele>
        <time>2017-01-05T14:39:07.000Z</time>
      </trkpt>
      <trkpt lat="48.48265" lon="-2.86928">
        <ele>175</ele>
        <time>2017-01-05T14:39:08.000Z</time>
      </trkpt>
      <trkpt lat="48.48267" lon="-2.86922">
        <ele>175</ele>
        <time>2017-01-05T14:39:09.000Z</time>
      </trkpt>
      <trkpt lat="48.48268" lon="-2.86916">
        <ele>173</ele>
        <time>2017-01-05T14:39:10.000Z</time>
      </trkpt>
      <trkpt lat="48.4827" lon="-2.86911">
        <ele>173</ele>
        <time>2017-01-05T14:39:11.000Z</time>
      </trkpt>
      <trkpt lat="48.48271" lon="-2.86905">
        <ele>173</ele>
        <time>2017-01-05T14:39:12.000Z</time>
      </trkpt>
      <trkpt lat="48.48274" lon="-2.86899">
        <ele>173</ele>
        <time>2017-01-05T14:39:13.000Z</time>
      </trkpt>
      <trkpt lat="48.48277" lon="-2.86893">
        <ele>173</ele>
        <time>2017-01-05T14:39:14.000Z</time>
      </trkpt>
      <trkpt lat="48.48281" lon="-2.86889">
        <ele>173</ele>
        <time>2017-01-05T14:39:15.000Z</time>
      </trkpt>
      <trkpt lat="48.48286" lon="-2.86887">
        <ele>173</ele>
        <time>2017-01-05T14:39:16.000Z</time>
      </trkpt>
      <trkpt lat="48.48291" lon="-2.86886">
        <ele>173</ele>
        <time>2017-01-05T14:39:17.000Z</time>
      </trkpt>
      <trkpt lat="48.48296" lon="-2.86885">
        <ele>173</ele>
        <time>2017-01-05T14:39:18.000Z</time>
      </trkpt>
      <trkpt lat="48.48301" lon="-2.86884">
        <ele>173</ele>
        <time>2017-01-05T14:39:19.000Z</time>
      </trkpt>
      <trkpt lat="48.48306" lon="-2.86883">
        <ele>173</ele>
        <time>2017-01-05T14:39:20.000Z</time>
      </trkpt>
      <trkpt lat="48.48311" lon="-2.86881">
        <ele>173</ele>
        <time>2017-01-05T14:39:21.000Z</time>
      </trkpt>
      <trkpt lat="48.48316" lon="-2.8688">
        <ele>173</ele>
        <time>2017-01-05T14:39:22.000Z</time>
      </trkpt>
      <trkpt lat="48.48322" lon="-2.86879">
        <ele>173</ele>
        <time>2017-01-05T14:39:23.000Z</time>
      </trkpt>
      <trkpt lat="48.48327" lon="-2.86878">
        <ele>173</ele>
        <time>2017-01-05T14:39:24.000Z</time>
      </trkpt>
      <trkpt lat="48.48332" lon="-2.86877">
        <ele>173</ele>
        <time>2017-01-05T14:39:25.000Z</time>
      </trkpt>
      <trkpt lat="48.48337" lon="-2.86876">
        <ele>173</ele>
        <time>2017-01-05T14:39:26.000Z</time>
      </trkpt>
      <trkpt lat="48.48342" lon="-2.86876">
        <ele>173</ele>
        <time>2017-01-05T14:39:27.000Z</time>
      </trkpt>
      <trkpt lat="48.48347" lon="-2.86876">
        <ele>173</ele>
        <time>2017-01-05T14:39:28.000Z</time>
      </trkpt>
      <trkpt lat="48.48353" lon="-2.86875">
        <ele>173</ele>
        <time>2017-01-05T14:39:29.000Z</time>
      </trkpt>
      <trkpt lat="48.48358" lon="-2.86874">
        <ele>173</ele>
        <time>2017-01-05T14:39:30.000Z</time>
      </trkpt>
      <trkpt lat="48.48362" lon="-2.86873">
        <ele>173</ele>
        <time>2017-01-05T14:39:31.000Z</time>
      </trkpt>
      <trkpt lat="48.48367" lon="-2.86871">
        <ele>173</ele>
        <time>2017-01-05T14:39:32.000Z</time>
      </trkpt>
      <trkpt lat="48.48372" lon="-2.86869">
        <ele>173</ele>
        <time>2017-01-05T14:39:33.000Z</time>
      </trkpt>
      <trkpt lat="48.48377" lon="-2.86866">
        <ele>173</ele>
        <time>2017-01-05T14:39:34.000Z</time>
      </trkpt>
      <trkpt lat="48.48382" lon="-2.86862">
        <ele>172</ele>
        <time>2017-01-05T14:39:35.000Z</time>
      </trkpt>
      <trkpt lat="48.48387" lon="-2.86857">
        <ele>172</ele>
        <time>2017-01-05T14:39:36.000Z</time>
      </trkpt>
      <trkpt lat="48.48391" lon="-2.86851">
        <ele>172</ele>
        <time>2017-01-05T14:39:37.000Z</time>
      </trkpt>
      <trkpt lat="48.48395" lon="-2.86845">
        <ele>172</ele>
        <time>2017-01-05T14:39:38.000Z</time>
      </trkpt>
      <trkpt lat="48.48398" lon="-2.86838">
        <ele>171</ele>
        <time>2017-01-05T14:39:39.000Z</time>
      </trkpt>
      <trkpt lat="48.48402" lon="-2.86831">
        <ele>170</ele>
        <time>2017-01-05T14:39:40.000Z</time>
      </trkpt>
      <trkpt lat="48.48405" lon="-2.86825">
        <ele>170</ele>
        <time>2017-01-05T14:39:41.000Z</time>
      </trkpt>
      <trkpt lat="48.48408" lon="-2.8682">
        <ele>170</ele>
        <time>2017-01-05T14:39:42.000Z</time>
      </trkpt>
      <trkpt lat="48.48411" lon="-2.86815">
        <ele>169</ele>
        <time>2017-01-05T14:39:43.000Z</time>
      </trkpt>
      <trkpt lat="48.48414" lon="-2.86811">
        <ele>169</ele>
        <time>2017-01-05T14:39:44.000Z</time>
      </trkpt>
      <trkpt lat="48.48416" lon="-2.86806">
        <ele>169</ele>
        <time>2017-01-05T14:39:45.000Z</time>
      </trkpt>
      <trkpt lat="48.48418" lon="-2.86802">
        <ele>168</ele>
        <time>2017-01-05T14:39:46.000Z</time>
      </trkpt>
      <trkpt lat="48.48421" lon="-2.86798">
        <ele>168</ele>
        <time>2017-01-05T14:39:47.000Z</time>
      </trkpt>
      <trkpt lat="48.48423" lon="-2.86793">
        <ele>168</ele>
        <time>2017-01-05T14:39:48.000Z</time>
      </trkpt>
      <trkpt lat="48.48426" lon="-2.86789">
        <ele>167</ele>
        <time>2017-01-05T14:39:49.000Z</time>
      </trkpt>
      <trkpt lat="48.48428" lon="-2.86785">
        <ele>167</ele>
        <time>2017-01-05T14:39:50.000Z</time>
      </trkpt>
      <trkpt lat="48.48431" lon="-2.86782">
        <ele>167</ele>
        <time>2017-01-05T14:39:51.000Z</time>
      </trkpt>
      <trkpt lat="48.48434" lon="-2.86778">
        <ele>167</ele>
        <time>2017-01-05T14:39:52.000Z</time>
      </trkpt>
      <trkpt lat="48.48437" lon="-2.86775">
        <ele>167</ele>
        <time>2017-01-05T14:39:53.000Z</time>
      </trkpt>
      <trkpt lat="48.4844" lon="-2.86771">
        <ele>167</ele>
        <time>2017-01-05T14:39:54.000Z</time>
      </trkpt>
      <trkpt lat="48.48443" lon="-2.86768">
        <ele>167</ele>
        <time>2017-01-05T14:39:55.000Z</time>
      </trkpt>
      <trkpt lat="48.48447" lon="-2.86765">
        <ele>167</ele>
        <time>2017-01-05T14:39:56.000Z</time>
      </trkpt>
      <trkpt lat="48.48451" lon="-2.86761">
        <ele>167</ele>
        <time>2017-01-05T14:39:57.000Z</time>
      </trkpt>
      <trkpt lat="48.48454" lon="-2.86758">
        <ele>167</ele>
        <time>2017-01-05T14:39:58.000Z</time>
      </trkpt>
      <trkpt lat="48.48458" lon="-2.86755">
        <ele>166</ele>
        <time>2017-01-05T14:39:59.000Z</time>
      </trkpt>
      <trkpt lat="48.48462" lon="-2.86752">
        <ele>166</ele>
        <time>2017-01-05T14:40:00.000Z</time>
      </trkpt>
      <trkpt lat="48.48466" lon="-2.86749">
        <ele>164</ele>
        <time>2017-01-05T14:40:01.000Z</time>
      </trkpt>
      <trkpt lat="48.48471" lon="-2.86747">
        <ele>164</ele>
        <time>2017-01-05T14:40:02.000Z</time>
      </trkpt>
      <trkpt lat="48.48475" lon="-2.86743">
        <ele>164</ele>
        <time>2017-01-05T14:40:03.000Z</time>
      </trkpt>
      <trkpt lat="48.48479" lon="-2.8674">
        <ele>164</ele>
        <time>2017-01-05T14:40:04.000Z</time>
      </trkpt>
      <trkpt lat="48.48483" lon="-2.86736">
        <ele>164</ele>
        <time>2017-01-05T14:40:05.000Z</time>
      </trkpt>
      <trkpt lat="48.48487" lon="-2.86733">
        <ele>164</ele>
        <time>2017-01-05T14:40:06.000Z</time>
      </trkpt>
      <trkpt lat="48.48492" lon="-2.86729">
        <ele>163</ele>
        <time>2017-01-05T14:40:07.000Z</time>
      </trkpt>
      <trkpt lat="48.48496" lon="-2.86724">
        <ele>163</ele>
        <time>2017-01-05T14:40:08.000Z</time>
      </trkpt>
      <trkpt lat="48.485" lon="-2.8672">
        <ele>163</ele>
        <time>2017-01-05T14:40:09.000Z</time>
      </trkpt>
      <trkpt lat="48.48504" lon="-2.86716">
        <ele>162</ele>
        <time>2017-01-05T14:40:10.000Z</time>
      </trkpt>
      <trkpt lat="48.48508" lon="-2.86712">
        <ele>161</ele>
        <time>2017-01-05T14:40:11.000Z</time>
      </trkpt>
      <trkpt lat="48.48513" lon="-2.86708">
        <ele>161</ele>
        <time>2017-01-05T14:40:12.000Z</time>
      </trkpt>
      <trkpt lat="48.48517" lon="-2.86704">
        <ele>161</ele>
        <time>2017-01-05T14:40:13.000Z</time>
      </trkpt>
      <trkpt lat="48.48521" lon="-2.867">
        <ele>161</ele>
        <time>2017-01-05T14:40:14.000Z</time>
      </trkpt>
      <trkpt lat="48.48526" lon="-2.86696">
        <ele>161</ele>
        <time>2017-01-05T14:40:15.000Z</time>
      </trkpt>
      <trkpt lat="48.4853" lon="-2.86692">
        <ele>161</ele>
        <time>2017-01-05T14:40:16.000Z</time>
      </trkpt>
      <trkpt lat="48.48535" lon="-2.86688">
        <ele>161</ele>
        <time>2017-01-05T14:40:17.000Z</time>
      </trkpt>
      <trkpt lat="48.48539" lon="-2.86684">
        <ele>161</ele>
        <time>2017-01-05T14:40:18.000Z</time>
      </trkpt>
      <trkpt lat="48.48543" lon="-2.86681">
        <ele>161</ele>
        <time>2017-01-05T14:40:19.000Z</time>
      </trkpt>
      <trkpt lat="48.48548" lon="-2.86677">
        <ele>160</ele>
        <time>2017-01-05T14:40:20.000Z</time>
      </trkpt>
      <trkpt lat="48.48553" lon="-2.86674">
        <ele>160</ele>
        <time>2017-01-05T14:40:21.000Z</time>
      </trkpt>
      <trkpt lat="48.48558" lon="-2.86671">
        <ele>160</ele>
        <time>2017-01-05T14:40:22.000Z</time>
      </trkpt>
      <trkpt lat="48.48563" lon="-2.86669">
        <ele>160</ele>
        <time>2017-01-05T14:40:23.000Z</time>
      </trkpt>
      <trkpt lat="48.48568" lon="-2.86667">
        <ele>158</ele>
        <time>2017-01-05T14:40:24.000Z</time>
      </trkpt>
      <trkpt lat="48.48572" lon="-2.86665">
        <ele>158</ele>
        <time>2017-01-05T14:40:25.000Z</time>
      </trkpt>
      <trkpt lat="48.48577" lon="-2.86664">
        <ele>158</ele>
        <time>2017-01-05T14:40:26.000Z</time>
      </trkpt>
      <trkpt lat="48.48581" lon="-2.86664">
        <ele>159</ele>
        <time>2017-01-05T14:40:27.000Z</time>
      </trkpt>
      <trkpt lat="48.48586" lon="-2.86663">
        <ele>159</ele>
        <time>2017-01-05T14:40:28.000Z</time>
      </trkpt>
      <trkpt lat="48.4859" lon="-2.86664">
        <ele>158</ele>
        <time>2017-01-05T14:40:29.000Z</time>
      </trkpt>
      <trkpt lat="48.48595" lon="-2.86664">
        <ele>158</ele>
        <time>2017-01-05T14:40:30.000Z</time>
      </trkpt>
      <trkpt lat="48.48599" lon="-2.86665">
        <ele>158</ele>
        <time>2017-01-05T14:40:31.000Z</time>
      </trkpt>
      <trkpt lat="48.48604" lon="-2.86666">
        <ele>158</ele>
        <time>2017-01-05T14:40:32.000Z</time>
      </trkpt>
      <trkpt lat="48.48607" lon="-2.86666">
        <ele>157</ele>
        <time>2017-01-05T14:40:33.000Z</time>
      </trkpt>
      <trkpt lat="48.48611" lon="-2.86666">
        <ele>157</ele>
        <time>2017-01-05T14:40:34.000Z</time>
      </trkpt>
      <trkpt lat="48.48616" lon="-2.86665">
        <ele>157</ele>
        <time>2017-01-05T14:40:35.000Z</time>
      </trkpt>
      <trkpt lat="48.4862" lon="-2.86663">
        <ele>157</ele>
        <time>2017-01-05T14:40:36.000Z</time>
      </trkpt>
      <trkpt lat="48.48624" lon="-2.8666">
        <ele>157</ele>
        <time>2017-01-05T14:40:37.000Z</time>
      </trkpt>
      <trkpt lat="48.48627" lon="-2.86656">
        <ele>157</ele>
        <time>2017-01-05T14:40:38.000Z</time>
      </trkpt>
      <trkpt lat="48.4863" lon="-2.8665">
        <ele>157</ele>
        <time>2017-01-05T14:40:39.000Z</time>
      </trkpt>
      <trkpt lat="48.48631" lon="-2.86643">
        <ele>157</ele>
        <time>2017-01-05T14:40:40.000Z</time>
      </trkpt>
      <trkpt lat="48.48633" lon="-2.86636">
        <ele>157</ele>
        <time>2017-01-05T14:40:41.000Z</time>
      </trkpt>
      <trkpt lat="48.48634" lon="-2.86629">
        <ele>157</ele>
        <time>2017-01-05T14:40:42.000Z</time>
      </trkpt>
      <trkpt lat="48.48635" lon="-2.86622">
        <ele>156</ele>
        <time>2017-01-05T14:40:43.000Z</time>
      </trkpt>
      <trkpt lat="48.48636" lon="-2.86614">
        <ele>156</ele>
        <time>2017-01-05T14:40:44.000Z</time>
      </trkpt>
      <trkpt lat="48.48637" lon="-2.86607">
        <ele>156</ele>
        <time>2017-01-05T14:40:45.000Z</time>
      </trkpt>
      <trkpt lat="48.48639" lon="-2.866">
        <ele>156</ele>
        <time>2017-01-05T14:40:46.000Z</time>
      </trkpt>
      <trkpt lat="48.4864" lon="-2.86594">
        <ele>156</ele>
        <time>2017-01-05T14:40:47.000Z</time>
      </trkpt>
      <trkpt lat="48.48642" lon="-2.86588">
        <ele>156</ele>
        <time>2017-01-05T14:40:48.000Z</time>
      </trkpt>
      <trkpt lat="48.48645" lon="-2.86582">
        <ele>154</ele>
        <time>2017-01-05T14:40:49.000Z</time>
      </trkpt>
      <trkpt lat="48.48647" lon="-2.86577">
        <ele>154</ele>
        <time>2017-01-05T14:40:50.000Z</time>
      </trkpt>
      <trkpt lat="48.4865" lon="-2.86572">
        <ele>154</ele>
        <time>2017-01-05T14:40:51.000Z</time>
      </trkpt>
      <trkpt lat="48.48653" lon="-2.86567">
        <ele>154</ele>
        <time>2017-01-05T14:40:52.000Z</time>
      </trkpt>
      <trkpt lat="48.48657" lon="-2.86562">
        <ele>154</ele>
        <time>2017-01-05T14:40:53.000Z</time>
      </trkpt>
      <trkpt lat="48.48661" lon="-2.86557">
        <ele>154</ele>
        <time>2017-01-05T14:40:54.000Z</time>
      </trkpt>
      <trkpt lat="48.48665" lon="-2.86552">
        <ele>154</ele>
        <time>2017-01-05T14:40:55.000Z</time>
      </trkpt>
      <trkpt lat="48.48669" lon="-2.86546">
        <ele>154</ele>
        <time>2017-01-05T14:40:56.000Z</time>
      </trkpt>
      <trkpt lat="48.48673" lon="-2.86541">
        <ele>154</ele>
        <time>2017-01-05T14:40:57.000Z</time>
      </trkpt>
      <trkpt lat="48.48677" lon="-2.86535">
        <ele>154</ele>
        <time>2017-01-05T14:40:58.000Z</time>
      </trkpt>
      <trkpt lat="48.48681" lon="-2.86529">
        <ele>153</ele>
        <time>2017-01-05T14:40:59.000Z</time>
      </trkpt>
      <trkpt lat="48.48685" lon="-2.86523">
        <ele>153</ele>
        <time>2017-01-05T14:41:00.000Z</time>
      </trkpt>
      <trkpt lat="48.48688" lon="-2.86517">
        <ele>153</ele>
        <time>2017-01-05T14:41:01.000Z</time>
      </trkpt>
      <trkpt lat="48.48692" lon="-2.86512">
        <ele>153</ele>
        <time>2017-01-05T14:41:02.000Z</time>
      </trkpt>
      <trkpt lat="48.48696" lon="-2.86506">
        <ele>153</ele>
        <time>2017-01-05T14:41:03.000Z</time>
      </trkpt>
      <trkpt lat="48.48699" lon="-2.86501">
        <ele>153</ele>
        <time>2017-01-05T14:41:04.000Z</time>
      </trkpt>
      <trkpt lat="48.48702" lon="-2.86496">
        <ele>152</ele>
        <time>2017-01-05T14:41:05.000Z</time>
      </trkpt>
      <trkpt lat="48.48705" lon="-2.86491">
        <ele>152</ele>
        <time>2017-01-05T14:41:06.000Z</time>
      </trkpt>
      <trkpt lat="48.48709" lon="-2.86486">
        <ele>152</ele>
        <time>2017-01-05T14:41:07.000Z</time>
      </trkpt>
      <trkpt lat="48.48712" lon="-2.86481">
        <ele>152</ele>
        <time>2017-01-05T14:41:08.000Z</time>
      </trkpt>
      <trkpt lat="48.48716" lon="-2.86476">
        <ele>152</ele>
        <time>2017-01-05T14:41:09.000Z</time>
      </trkpt>
      <trkpt lat="48.48719" lon="-2.86472">
        <ele>152</ele>
        <time>2017-01-05T14:41:10.000Z</time>
      </trkpt>
      <trkpt lat="48.48722" lon="-2.86468">
        <ele>152</ele>
        <time>2017-01-05T14:41:11.000Z</time>
      </trkpt>
      <trkpt lat="48.48726" lon="-2.86465">
        <ele>152</ele>
        <time>2017-01-05T14:41:12.000Z</time>
      </trkpt>
      <trkpt lat="48.4873" lon="-2.86462">
        <ele>152</ele>
        <time>2017-01-05T14:41:13.000Z</time>
      </trkpt>
      <trkpt lat="48.48733" lon="-2.8646">
        <ele>152</ele>
        <time>2017-01-05T14:41:14.000Z</time>
      </trkpt>
      <trkpt lat="48.48737" lon="-2.86458">
        <ele>152</ele>
        <time>2017-01-05T14:41:15.000Z</time>
      </trkpt>
      <trkpt lat="48.48741" lon="-2.86455">
        <ele>152</ele>
        <time>2017-01-05T14:41:16.000Z</time>
      </trkpt>
      <trkpt lat="48.48745" lon="-2.8645">
        <ele>151</ele>
        <time>2017-01-05T14:41:17.000Z</time>
      </trkpt>
      <trkpt lat="48.48749" lon="-2.86445">
        <ele>151</ele>
        <time>2017-01-05T14:41:18.000Z</time>
      </trkpt>
      <trkpt lat="48.48753" lon="-2.8644">
        <ele>150</ele>
        <time>2017-01-05T14:41:19.000Z</time>
      </trkpt>
      <trkpt lat="48.48757" lon="-2.86435">
        <ele>150</ele>
        <time>2017-01-05T14:41:20.000Z</time>
      </trkpt>
      <trkpt lat="48.48759" lon="-2.86428">
        <ele>150</ele>
        <time>2017-01-05T14:41:21.000Z</time>
      </trkpt>
      <trkpt lat="48.48761" lon="-2.86422">
        <ele>150</ele>
        <time>2017-01-05T14:41:22.000Z</time>
      </trkpt>
      <trkpt lat="48.48762" lon="-2.86416">
        <ele>149</ele>
        <time>2017-01-05T14:41:23.000Z</time>
      </trkpt>
      <trkpt lat="48.48763" lon="-2.86411">
        <ele>149</ele>
        <time>2017-01-05T14:41:24.000Z</time>
      </trkpt>
      <trkpt lat="48.48763" lon="-2.86407">
        <ele>149</ele>
        <time>2017-01-05T14:41:25.000Z</time>
      </trkpt>
      <trkpt lat="48.48762" lon="-2.86404">
        <ele>149</ele>
        <time>2017-01-05T14:41:26.000Z</time>
      </trkpt>
      <trkpt lat="48.48761" lon="-2.864">
        <ele>149</ele>
        <time>2017-01-05T14:41:27.000Z</time>
      </trkpt>
      <trkpt lat="48.48758" lon="-2.86396">
        <ele>149</ele>
        <time>2017-01-05T14:41:28.000Z</time>
      </trkpt>
      <trkpt lat="48.48755" lon="-2.86392">
        <ele>148</ele>
        <time>2017-01-05T14:41:29.000Z</time>
      </trkpt>
      <trkpt lat="48.48752" lon="-2.86389">
        <ele>148</ele>
        <time>2017-01-05T14:41:30.000Z</time>
      </trkpt>
      <trkpt lat="48.48748" lon="-2.86385">
        <ele>150</ele>
        <time>2017-01-05T14:41:31.000Z</time>
      </trkpt>
      <trkpt lat="48.48745" lon="-2.86381">
        <ele>150</ele>
        <time>2017-01-05T14:41:32.000Z</time>
      </trkpt>
      <trkpt lat="48.48741" lon="-2.86376">
        <ele>150</ele>
        <time>2017-01-05T14:41:33.000Z</time>
      </trkpt>
      <trkpt lat="48.48737" lon="-2.86372">
        <ele>150</ele>
        <time>2017-01-05T14:41:34.000Z</time>
      </trkpt>
      <trkpt lat="48.48733" lon="-2.86368">
        <ele>150</ele>
        <time>2017-01-05T14:41:35.000Z</time>
      </trkpt>
      <trkpt lat="48.48729" lon="-2.86363">
        <ele>150</ele>
        <time>2017-01-05T14:41:36.000Z</time>
      </trkpt>
      <trkpt lat="48.48725" lon="-2.86358">
        <ele>150</ele>
        <time>2017-01-05T14:41:37.000Z</time>
      </trkpt>
      <trkpt lat="48.48722" lon="-2.86354">
        <ele>150</ele>
        <time>2017-01-05T14:41:38.000Z</time>
      </trkpt>
      <trkpt lat="48.48718" lon="-2.86349">
        <ele>150</ele>
        <time>2017-01-05T14:41:39.000Z</time>
      </trkpt>
      <trkpt lat="48.48714" lon="-2.86345">
        <ele>150</ele>
        <time>2017-01-05T14:41:40.000Z</time>
      </trkpt>
      <trkpt lat="48.4871" lon="-2.8634">
        <ele>150</ele>
        <time>2017-01-05T14:41:41.000Z</time>
      </trkpt>
      <trkpt lat="48.48706" lon="-2.86336">
        <ele>150</ele>
        <time>2017-01-05T14:41:42.000Z</time>
      </trkpt>
      <trkpt lat="48.48702" lon="-2.86331">
        <ele>150</ele>
        <time>2017-01-05T14:41:43.000Z</time>
      </trkpt>
      <trkpt lat="48.48698" lon="-2.86326">
        <ele>150</ele>
        <time>2017-01-05T14:41:44.000Z</time>
      </trkpt>
      <trkpt lat="48.48694" lon="-2.86322">
        <ele>150</ele>
        <time>2017-01-05T14:41:45.000Z</time>
      </trkpt>
      <trkpt lat="48.4869" lon="-2.86317">
        <ele>150</ele>
        <time>2017-01-05T14:41:46.000Z</time>
      </trkpt>
      <trkpt lat="48.48686" lon="-2.86312">
        <ele>150</ele>
        <time>2017-01-05T14:41:47.000Z</time>
      </trkpt>
      <trkpt lat="48.48681" lon="-2.86307">
        <ele>150</ele>
        <time>2017-01-05T14:41:48.000Z</time>
      </trkpt>
      <trkpt lat="48.48677" lon="-2.86301">
        <ele>150</ele>
        <time>2017-01-05T14:41:49.000Z</time>
      </trkpt>
      <trkpt lat="48.48672" lon="-2.86295">
        <ele>150</ele>
        <time>2017-01-05T14:41:50.000Z</time>
      </trkpt>
      <trkpt lat="48.48667" lon="-2.86289">
        <ele>151</ele>
        <time>2017-01-05T14:41:51.000Z</time>
      </trkpt>
      <trkpt lat="48.48662" lon="-2.86283">
        <ele>151</ele>
        <time>2017-01-05T14:41:52.000Z</time>
      </trkpt>
      <trkpt lat="48.48657" lon="-2.86276">
        <ele>150</ele>
        <time>2017-01-05T14:41:53.000Z</time>
      </trkpt>
      <trkpt lat="48.48652" lon="-2.86269">
        <ele>150</ele>
        <time>2017-01-05T14:41:54.000Z</time>
      </trkpt>
      <trkpt lat="48.48648" lon="-2.86262">
        <ele>150</ele>
        <time>2017-01-05T14:41:55.000Z</time>
      </trkpt>
      <trkpt lat="48.48643" lon="-2.86254">
        <ele>150</ele>
        <time>2017-01-05T14:41:56.000Z</time>
      </trkpt>
      <trkpt lat="48.48639" lon="-2.86246">
        <ele>149</ele>
        <time>2017-01-05T14:41:57.000Z</time>
      </trkpt>
      <trkpt lat="48.48635" lon="-2.86238">
        <ele>149</ele>
        <time>2017-01-05T14:41:58.000Z</time>
      </trkpt>
      <trkpt lat="48.48631" lon="-2.86229">
        <ele>149</ele>
        <time>2017-01-05T14:41:59.000Z</time>
      </trkpt>
      <trkpt lat="48.48627" lon="-2.86219">
        <ele>148</ele>
        <time>2017-01-05T14:42:00.000Z</time>
      </trkpt>
      <trkpt lat="48.48622" lon="-2.8621">
        <ele>148</ele>
        <time>2017-01-05T14:42:01.000Z</time>
      </trkpt>
      <trkpt lat="48.48618" lon="-2.86201">
        <ele>148</ele>
        <time>2017-01-05T14:42:02.000Z</time>
      </trkpt>
      <trkpt lat="48.48614" lon="-2.86191">
        <ele>148</ele>
        <time>2017-01-05T14:42:03.000Z</time>
      </trkpt>
      <trkpt lat="48.48609" lon="-2.86181">
        <ele>148</ele>
        <time>2017-01-05T14:42:04.000Z</time>
      </trkpt>
      <trkpt lat="48.48605" lon="-2.86171">
        <ele>148</ele>
        <time>2017-01-05T14:42:05.000Z</time>
      </trkpt>
      <trkpt lat="48.486" lon="-2.86161">
        <ele>147</ele>
        <time>2017-01-05T14:42:06.000Z</time>
      </trkpt>
      <trkpt lat="48.48595" lon="-2.86152">
        <ele>146</ele>
        <time>2017-01-05T14:42:07.000Z</time>
      </trkpt>
      <trkpt lat="48.48589" lon="-2.86143">
        <ele>146</ele>
        <time>2017-01-05T14:42:08.000Z</time>
      </trkpt>
      <trkpt lat="48.48583" lon="-2.86134">
        <ele>144</ele>
        <time>2017-01-05T14:42:09.000Z</time>
      </trkpt>
      <trkpt lat="48.48576" lon="-2.86125">
        <ele>144</ele>
        <time>2017-01-05T14:42:10.000Z</time>
      </trkpt>
      <trkpt lat="48.4857" lon="-2.86116">
        <ele>144</ele>
        <time>2017-01-05T14:42:11.000Z</time>
      </trkpt>
      <trkpt lat="48.48564" lon="-2.86107">
        <ele>143</ele>
        <time>2017-01-05T14:42:12.000Z</time>
      </trkpt>
      <trkpt lat="48.48558" lon="-2.86099">
        <ele>143</ele>
        <time>2017-01-05T14:42:13.000Z</time>
      </trkpt>
      <trkpt lat="48.48552" lon="-2.86091">
        <ele>143</ele>
        <time>2017-01-05T14:42:14.000Z</time>
      </trkpt>
      <trkpt lat="48.48546" lon="-2.86083">
        <ele>142</ele>
        <time>2017-01-05T14:42:15.000Z</time>
      </trkpt>
      <trkpt lat="48.48541" lon="-2.86076">
        <ele>141</ele>
        <time>2017-01-05T14:42:16.000Z</time>
      </trkpt>
      <trkpt lat="48.48536" lon="-2.8607">
        <ele>141</ele>
        <time>2017-01-05T14:42:17.000Z</time>
      </trkpt>
      <trkpt lat="48.48532" lon="-2.86064">
        <ele>141</ele>
        <time>2017-01-05T14:42:18.000Z</time>
      </trkpt>
      <trkpt lat="48.48528" lon="-2.86058">
        <ele>141</ele>
        <time>2017-01-05T14:42:19.000Z</time>
      </trkpt>
      <trkpt lat="48.48524" lon="-2.86053">
        <ele>141</ele>
        <time>2017-01-05T14:42:20.000Z</time>
      </trkpt>
      <trkpt lat="48.4852" lon="-2.86047">
        <ele>141</ele>
        <time>2017-01-05T14:42:21.000Z</time>
      </trkpt>
      <trkpt lat="48.48516" lon="-2.86041">
        <ele>141</ele>
        <time>2017-01-05T14:42:22.000Z</time>
      </trkpt>
      <trkpt lat="48.48512" lon="-2.86035">
        <ele>141</ele>
        <time>2017-01-05T14:42:23.000Z</time>
      </trkpt>
      <trkpt lat="48.4851" lon="-2.86027">
        <ele>140</ele>
        <time>2017-01-05T14:42:24.000Z</time>
      </trkpt>
      <trkpt lat="48.48508" lon="-2.86019">
        <ele>140</ele>
        <time>2017-01-05T14:42:25.000Z</time>
      </trkpt>
      <trkpt lat="48.48508" lon="-2.8601">
        <ele>140</ele>
        <time>2017-01-05T14:42:26.000Z</time>
      </trkpt>
      <trkpt lat="48.48509" lon="-2.86001">
        <ele>140</ele>
        <time>2017-01-05T14:42:27.000Z</time>
      </trkpt>
      <trkpt lat="48.4851" lon="-2.85992">
        <ele>139</ele>
        <time>2017-01-05T14:42:28.000Z</time>
      </trkpt>
      <trkpt lat="48.48511" lon="-2.85983">
        <ele>139</ele>
        <time>2017-01-05T14:42:29.000Z</time>
      </trkpt>
      <trkpt lat="48.48513" lon="-2.85973">
        <ele>139</ele>
        <time>2017-01-05T14:42:30.000Z</time>
      </trkpt>
      <trkpt lat="48.48514" lon="-2.85964">
        <ele>139</ele>
        <time>2017-01-05T14:42:31.000Z</time>
      </trkpt>
      <trkpt lat="48.48516" lon="-2.85954">
        <ele>138</ele>
        <time>2017-01-05T14:42:32.000Z</time>
      </trkpt>
      <trkpt lat="48.48519" lon="-2.85944">
        <ele>138</ele>
        <time>2017-01-05T14:42:33.000Z</time>
      </trkpt>
      <trkpt lat="48.48522" lon="-2.85934">
        <ele>138</ele>
        <time>2017-01-05T14:42:34.000Z</time>
      </trkpt>
      <trkpt lat="48.48524" lon="-2.85923">
        <ele>138</ele>
        <time>2017-01-05T14:42:35.000Z</time>
      </trkpt>
      <trkpt lat="48.48527" lon="-2.85912">
        <ele>136</ele>
        <time>2017-01-05T14:42:36.000Z</time>
      </trkpt>
      <trkpt lat="48.4853" lon="-2.85901">
        <ele>136</ele>
        <time>2017-01-05T14:42:37.000Z</time>
      </trkpt>
      <trkpt lat="48.48533" lon="-2.8589">
        <ele>136</ele>
        <time>2017-01-05T14:42:38.000Z</time>
      </trkpt>
      <trkpt lat="48.48535" lon="-2.85878">
        <ele>136</ele>
        <time>2017-01-05T14:42:39.000Z</time>
      </trkpt>
      <trkpt lat="48.48536" lon="-2.85866">
        <ele>136</ele>
        <time>2017-01-05T14:42:40.000Z</time>
      </trkpt>
      <trkpt lat="48.48537" lon="-2.85854">
        <ele>136</ele>
        <time>2017-01-05T14:42:41.000Z</time>
      </trkpt>
      <trkpt lat="48.48537" lon="-2.85843">
        <ele>135</ele>
        <time>2017-01-05T14:42:42.000Z</time>
      </trkpt>
      <trkpt lat="48.48536" lon="-2.85831">
        <ele>135</ele>
        <time>2017-01-05T14:42:43.000Z</time>
      </trkpt>
      <trkpt lat="48.48536" lon="-2.85821">
        <ele>135</ele>
        <time>2017-01-05T14:42:44.000Z</time>
      </trkpt>
      <trkpt lat="48.48536" lon="-2.8581">
        <ele>135</ele>
        <time>2017-01-05T14:42:45.000Z</time>
      </trkpt>
      <trkpt lat="48.48537" lon="-2.85801">
        <ele>135</ele>
        <time>2017-01-05T14:42:46.000Z</time>
      </trkpt>
      <trkpt lat="48.48537" lon="-2.85792">
        <ele>135</ele>
        <time>2017-01-05T14:42:47.000Z</time>
      </trkpt>
      <trkpt lat="48.48538" lon="-2.85784">
        <ele>135</ele>
        <time>2017-01-05T14:42:48.000Z</time>
      </trkpt>
      <trkpt lat="48.48539" lon="-2.85777">
        <ele>135</ele>
        <time>2017-01-05T14:42:49.000Z</time>
      </trkpt>
      <trkpt lat="48.48541" lon="-2.85769">
        <ele>135</ele>
        <time>2017-01-05T14:42:50.000Z</time>
      </trkpt>
      <trkpt lat="48.48542" lon="-2.85761">
        <ele>135</ele>
        <time>2017-01-05T14:42:51.000Z</time>
      </trkpt>
      <trkpt lat="48.48544" lon="-2.85754">
        <ele>135</ele>
        <time>2017-01-05T14:42:52.000Z</time>
      </trkpt>
      <trkpt lat="48.48545" lon="-2.85747">
        <ele>136</ele>
        <time>2017-01-05T14:42:53.000Z</time>
      </trkpt>
      <trkpt lat="48.48547" lon="-2.85739">
        <ele>136</ele>
        <time>2017-01-05T14:42:54.000Z</time>
      </trkpt>
      <trkpt lat="48.48549" lon="-2.85731">
        <ele>136</ele>
        <time>2017-01-05T14:42:55.000Z</time>
      </trkpt>
      <trkpt lat="48.48551" lon="-2.85724">
        <ele>136</ele>
        <time>2017-01-05T14:42:56.000Z</time>
      </trkpt>
      <trkpt lat="48.48552" lon="-2.85716">
        <ele>136</ele>
        <time>2017-01-05T14:42:57.000Z</time>
      </trkpt>
      <trkpt lat="48.48554" lon="-2.85708">
        <ele>136</ele>
        <time>2017-01-05T14:42:58.000Z</time>
      </trkpt>
      <trkpt lat="48.48555" lon="-2.85701">
        <ele>137</ele>
        <time>2017-01-05T14:42:59.000Z</time>
      </trkpt>
      <trkpt lat="48.48556" lon="-2.85693">
        <ele>137</ele>
        <time>2017-01-05T14:43:00.000Z</time>
      </trkpt>
      <trkpt lat="48.48556" lon="-2.85685">
        <ele>137</ele>
        <time>2017-01-05T14:43:01.000Z</time>
      </trkpt>
      <trkpt lat="48.48556" lon="-2.85678">
        <ele>137</ele>
        <time>2017-01-05T14:43:02.000Z</time>
      </trkpt>
      <trkpt lat="48.48555" lon="-2.8567">
        <ele>137</ele>
        <time>2017-01-05T14:43:03.000Z</time>
      </trkpt>
      <trkpt lat="48.48554" lon="-2.85663">
        <ele>139</ele>
        <time>2017-01-05T14:43:04.000Z</time>
      </trkpt>
      <trkpt lat="48.48553" lon="-2.85655">
        <ele>139</ele>
        <time>2017-01-05T14:43:05.000Z</time>
      </trkpt>
      <trkpt lat="48.48551" lon="-2.85648">
        <ele>139</ele>
        <time>2017-01-05T14:43:06.000Z</time>
      </trkpt>
      <trkpt lat="48.48549" lon="-2.85641">
        <ele>140</ele>
        <time>2017-01-05T14:43:07.000Z</time>
      </trkpt>
      <trkpt lat="48.48547" lon="-2.85634">
        <ele>140</ele>
        <time>2017-01-05T14:43:08.000Z</time>
      </trkpt>
      <trkpt lat="48.48545" lon="-2.85627">
        <ele>140</ele>
        <time>2017-01-05T14:43:09.000Z</time>
      </trkpt>
      <trkpt lat="48.48543" lon="-2.85621">
        <ele>140</ele>
        <time>2017-01-05T14:43:10.000Z</time>
      </trkpt>
      <trkpt lat="48.48541" lon="-2.85615">
        <ele>140</ele>
        <time>2017-01-05T14:43:11.000Z</time>
      </trkpt>
      <trkpt lat="48.48539" lon="-2.85608">
        <ele>141</ele>
        <time>2017-01-05T14:43:12.000Z</time>
      </trkpt>
      <trkpt lat="48.48538" lon="-2.85601">
        <ele>141</ele>
        <time>2017-01-05T14:43:13.000Z</time>
      </trkpt>
      <trkpt lat="48.48537" lon="-2.85594">
        <ele>141</ele>
        <time>2017-01-05T14:43:14.000Z</time>
      </trkpt>
      <trkpt lat="48.48537" lon="-2.85587">
        <ele>141</ele>
        <time>2017-01-05T14:43:15.000Z</time>
      </trkpt>
      <trkpt lat="48.48538" lon="-2.8558">
        <ele>142</ele>
        <time>2017-01-05T14:43:16.000Z</time>
      </trkpt>
      <trkpt lat="48.4854" lon="-2.85573">
        <ele>142</ele>
        <time>2017-01-05T14:43:17.000Z</time>
      </trkpt>
      <trkpt lat="48.48541" lon="-2.85566">
        <ele>142</ele>
        <time>2017-01-05T14:43:18.000Z</time>
      </trkpt>
      <trkpt lat="48.48543" lon="-2.85559">
        <ele>142</ele>
        <time>2017-01-05T14:43:19.000Z</time>
      </trkpt>
      <trkpt lat="48.48545" lon="-2.85552">
        <ele>142</ele>
        <time>2017-01-05T14:43:20.000Z</time>
      </trkpt>
      <trkpt lat="48.48546" lon="-2.85545">
        <ele>142</ele>
        <time>2017-01-05T14:43:21.000Z</time>
      </trkpt>
      <trkpt lat="48.48548" lon="-2.85538">
        <ele>142</ele>
        <time>2017-01-05T14:43:22.000Z</time>
      </trkpt>
      <trkpt lat="48.48549" lon="-2.85531">
        <ele>142</ele>
        <time>2017-01-05T14:43:23.000Z</time>
      </trkpt>
      <trkpt lat="48.4855" lon="-2.85525">
        <ele>142</ele>
        <time>2017-01-05T14:43:24.000Z</time>
      </trkpt>
      <trkpt lat="48.48551" lon="-2.85517">
        <ele>142</ele>
        <time>2017-01-05T14:43:25.000Z</time>
      </trkpt>
      <trkpt lat="48.48552" lon="-2.8551">
        <ele>142</ele>
        <time>2017-01-05T14:43:26.000Z</time>
      </trkpt>
      <trkpt lat="48.48553" lon="-2.85503">
        <ele>142</ele>
        <time>2017-01-05T14:43:27.000Z</time>
      </trkpt>
      <trkpt lat="48.48554" lon="-2.85495">
        <ele>142</ele>
        <time>2017-01-05T14:43:28.000Z</time>
      </trkpt>
      <trkpt lat="48.48555" lon="-2.85488">
        <ele>142</ele>
        <time>2017-01-05T14:43:29.000Z</time>
      </trkpt>
      <trkpt lat="48.48556" lon="-2.8548">
        <ele>142</ele>
        <time>2017-01-05T14:43:30.000Z</time>
      </trkpt>
      <trkpt lat="48.48557" lon="-2.85473">
        <ele>142</ele>
        <time>2017-01-05T14:43:31.000Z</time>
      </trkpt>
      <trkpt lat="48.48558" lon="-2.85467">
        <ele>142</ele>
        <time>2017-01-05T14:43:32.000Z</time>
      </trkpt>
      <trkpt lat="48.48558" lon="-2.85462">
        <ele>142</ele>
        <time>2017-01-05T14:43:33.000Z</time>
      </trkpt>
      <trkpt lat="48.48559" lon="-2.85457">
        <ele>142</ele>
        <time>2017-01-05T14:43:34.000Z</time>
      </trkpt>
      <trkpt lat="48.4856" lon="-2.85453">
        <ele>142</ele>
        <time>2017-01-05T14:43:35.000Z</time>
      </trkpt>
      <trkpt lat="48.48561" lon="-2.85449">
        <ele>142</ele>
        <time>2017-01-05T14:43:36.000Z</time>
      </trkpt>
      <trkpt lat="48.48563" lon="-2.85446">
        <ele>142</ele>
        <time>2017-01-05T14:43:37.000Z</time>
      </trkpt>
      <trkpt lat="48.48566" lon="-2.85446">
        <ele>141</ele>
        <time>2017-01-05T14:43:38.000Z</time>
      </trkpt>
      <trkpt lat="48.48569" lon="-2.85447">
        <ele>141</ele>
        <time>2017-01-05T14:43:39.000Z</time>
      </trkpt>
      <trkpt lat="48.48573" lon="-2.8545">
        <ele>141</ele>
        <time>2017-01-05T14:43:40.000Z</time>
      </trkpt>
      <trkpt lat="48.48576" lon="-2.85453">
        <ele>141</ele>
        <time>2017-01-05T14:43:41.000Z</time>
      </trkpt>
      <trkpt lat="48.48579" lon="-2.85457">
        <ele>141</ele>
        <time>2017-01-05T14:43:42.000Z</time>
      </trkpt>
      <trkpt lat="48.48583" lon="-2.85461">
        <ele>141</ele>
        <time>2017-01-05T14:43:43.000Z</time>
      </trkpt>
      <trkpt lat="48.48586" lon="-2.85465">
        <ele>139</ele>
        <time>2017-01-05T14:43:44.000Z</time>
      </trkpt>
      <trkpt lat="48.48589" lon="-2.85469">
        <ele>140</ele>
        <time>2017-01-05T14:43:45.000Z</time>
      </trkpt>
      <trkpt lat="48.48592" lon="-2.85473">
        <ele>140</ele>
        <time>2017-01-05T14:43:46.000Z</time>
      </trkpt>
      <trkpt lat="48.48595" lon="-2.85476">
        <ele>140</ele>
        <time>2017-01-05T14:43:47.000Z</time>
      </trkpt>
      <trkpt lat="48.48598" lon="-2.85479">
        <ele>140</ele>
        <time>2017-01-05T14:43:48.000Z</time>
      </trkpt>
      <trkpt lat="48.48601" lon="-2.85481">
        <ele>140</ele>
        <time>2017-01-05T14:43:49.000Z</time>
      </trkpt>
      <trkpt lat="48.48605" lon="-2.85483">
        <ele>139</ele>
        <time>2017-01-05T14:43:50.000Z</time>
      </trkpt>
      <trkpt lat="48.48608" lon="-2.85483">
        <ele>139</ele>
        <time>2017-01-05T14:43:51.000Z</time>
      </trkpt>
      <trkpt lat="48.48611" lon="-2.85483">
        <ele>139</ele>
        <time>2017-01-05T14:43:52.000Z</time>
      </trkpt>
      <trkpt lat="48.48615" lon="-2.85482">
        <ele>139</ele>
        <time>2017-01-05T14:43:53.000Z</time>
      </trkpt>
      <trkpt lat="48.48619" lon="-2.85481">
        <ele>139</ele>
        <time>2017-01-05T14:43:54.000Z</time>
      </trkpt>
      <trkpt lat="48.48622" lon="-2.85479">
        <ele>139</ele>
        <time>2017-01-05T14:43:55.000Z</time>
      </trkpt>
      <trkpt lat="48.48626" lon="-2.85477">
        <ele>139</ele>
        <time>2017-01-05T14:43:56.000Z</time>
      </trkpt>
      <trkpt lat="48.48629" lon="-2.85475">
        <ele>139</ele>
        <time>2017-01-05T14:43:57.000Z</time>
      </trkpt>
      <trkpt lat="48.48632" lon="-2.85473">
        <ele>139</ele>
        <time>2017-01-05T14:43:58.000Z</time>
      </trkpt>
      <trkpt lat="48.48636" lon="-2.85471">
        <ele>139</ele>
        <time>2017-01-05T14:43:59.000Z</time>
      </trkpt>
      <trkpt lat="48.48639" lon="-2.85469">
        <ele>139</ele>
        <time>2017-01-05T14:44:00.000Z</time>
      </trkpt>
      <trkpt lat="48.48643" lon="-2.85467">
        <ele>138</ele>
        <time>2017-01-05T14:44:01.000Z</time>
      </trkpt>
      <trkpt lat="48.48646" lon="-2.85466">
        <ele>138</ele>
        <time>2017-01-05T14:44:02.000Z</time>
      </trkpt>
      <trkpt lat="48.4865" lon="-2.85464">
        <ele>138</ele>
        <time>2017-01-05T14:44:03.000Z</time>
      </trkpt>
      <trkpt lat="48.48653" lon="-2.85463">
        <ele>138</ele>
        <time>2017-01-05T14:44:04.000Z</time>
      </trkpt>
      <trkpt lat="48.48657" lon="-2.85462">
        <ele>138</ele>
        <time>2017-01-05T14:44:05.000Z</time>
      </trkpt>
      <trkpt lat="48.48661" lon="-2.85461">
        <ele>138</ele>
        <time>2017-01-05T14:44:06.000Z</time>
      </trkpt>
      <trkpt lat="48.48665" lon="-2.8546">
        <ele>138</ele>
        <time>2017-01-05T14:44:07.000Z</time>
      </trkpt>
      <trkpt lat="48.48668" lon="-2.85459">
        <ele>136</ele>
        <time>2017-01-05T14:44:08.000Z</time>
      </trkpt>
      <trkpt lat="48.48671" lon="-2.85458">
        <ele>136</ele>
        <time>2017-01-05T14:44:09.000Z</time>
      </trkpt>
      <trkpt lat="48.48674" lon="-2.85458">
        <ele>136</ele>
        <time>2017-01-05T14:44:10.000Z</time>
      </trkpt>
      <trkpt lat="48.48676" lon="-2.85457">
        <ele>136</ele>
        <time>2017-01-05T14:44:11.000Z</time>
      </trkpt>
      <trkpt lat="48.48679" lon="-2.85456">
        <ele>136</ele>
        <time>2017-01-05T14:44:12.000Z</time>
      </trkpt>
      <trkpt lat="48.48682" lon="-2.85455">
        <ele>136</ele>
        <time>2017-01-05T14:44:13.000Z</time>
      </trkpt>
      <trkpt lat="48.48684" lon="-2.85455">
        <ele>135</ele>
        <time>2017-01-05T14:44:14.000Z</time>
      </trkpt>
      <trkpt lat="48.48687" lon="-2.85455">
        <ele>135</ele>
        <time>2017-01-05T14:44:15.000Z</time>
      </trkpt>
      <trkpt lat="48.48689" lon="-2.85454">
        <ele>135</ele>
        <time>2017-01-05T14:44:16.000Z</time>
      </trkpt>
      <trkpt lat="48.48692" lon="-2.85453">
        <ele>135</ele>
        <time>2017-01-05T14:44:17.000Z</time>
      </trkpt>
      <trkpt lat="48.48694" lon="-2.85452">
        <ele>135</ele>
        <time>2017-01-05T14:44:18.000Z</time>
      </trkpt>
      <trkpt lat="48.48696" lon="-2.8545">
        <ele>135</ele>
        <time>2017-01-05T14:44:19.000Z</time>
      </trkpt>
      <trkpt lat="48.48698" lon="-2.85449">
        <ele>135</ele>
        <time>2017-01-05T14:44:20.000Z</time>
      </trkpt>
      <trkpt lat="48.487" lon="-2.85449">
        <ele>135</ele>
        <time>2017-01-05T14:44:21.000Z</time>
      </trkpt>
      <trkpt lat="48.48703" lon="-2.85447">
        <ele>135</ele>
        <time>2017-01-05T14:44:23.000Z</time>
      </trkpt>
      <trkpt lat="48.48705" lon="-2.85446">
        <ele>135</ele>
        <time>2017-01-05T14:44:25.000Z</time>
      </trkpt>
      <trkpt lat="48.48704" lon="-2.85444">
        <ele>135</ele>
        <time>2017-01-05T14:44:38.000Z</time>
      </trkpt>
      <trkpt lat="48.48702" lon="-2.85445">
        <ele>135</ele>
        <time>2017-01-05T14:44:40.000Z</time>
      </trkpt>
      <trkpt lat="48.487" lon="-2.85446">
        <ele>135</ele>
        <time>2017-01-05T14:44:42.000Z</time>
      </trkpt>
      <trkpt lat="48.48698" lon="-2.85447">
        <ele>135</ele>
        <time>2017-01-05T14:44:44.000Z</time>
      </trkpt>
      <trkpt lat="48.48695" lon="-2.85449">
        <ele>135</ele>
        <time>2017-01-05T14:44:47.000Z</time>
      </trkpt>
      <trkpt lat="48.48693" lon="-2.8545">
        <ele>135</ele>
        <time>2017-01-05T14:44:49.000Z</time>
      </trkpt>
      <trkpt lat="48.4869" lon="-2.85452">
        <ele>135</ele>
        <time>2017-01-05T14:44:51.000Z</time>
      </trkpt>
      <trkpt lat="48.4869" lon="-2.85454">
        <ele>135</ele>
        <time>2017-01-05T14:44:56.000Z</time>
      </trkpt>
      <trkpt lat="48.48692" lon="-2.85453">
        <ele>135</ele>
        <time>2017-01-05T14:45:02.000Z</time>
      </trkpt>
      <trkpt lat="48.48694" lon="-2.85452">
        <ele>135</ele>
        <time>2017-01-05T14:45:04.000Z</time>
      </trkpt>
      <trkpt lat="48.48697" lon="-2.85452">
        <ele>135</ele>
        <time>2017-01-05T14:45:06.000Z</time>
      </trkpt>
      <trkpt lat="48.48699" lon="-2.85451">
        <ele>135</ele>
        <time>2017-01-05T14:45:08.000Z</time>
      </trkpt>
      <trkpt lat="48.48702" lon="-2.85449">
        <ele>135</ele>
        <time>2017-01-05T14:45:10.000Z</time>
      </trkpt>
      <trkpt lat="48.48704" lon="-2.85448">
        <ele>135</ele>
        <time>2017-01-05T14:45:12.000Z</time>
      </trkpt>
      <trkpt lat="48.48706" lon="-2.85445">
        <ele>135</ele>
        <time>2017-01-05T14:45:14.000Z</time>
      </trkpt>
      <trkpt lat="48.48708" lon="-2.85445">
        <ele>135</ele>
        <time>2017-01-05T14:45:18.000Z</time>
      </trkpt>
      <trkpt lat="48.4871" lon="-2.85443">
        <ele>135</ele>
        <time>2017-01-05T14:45:21.000Z</time>
      </trkpt>
      <trkpt lat="48.48712" lon="-2.85441">
        <ele>135</ele>
        <time>2017-01-05T14:45:24.000Z</time>
      </trkpt>
      <trkpt lat="48.48714" lon="-2.8544">
        <ele>135</ele>
        <time>2017-01-05T14:45:27.000Z</time>
      </trkpt>
      <trkpt lat="48.48716" lon="-2.85439">
        <ele>135</ele>
        <time>2017-01-05T14:45:30.000Z</time>
      </trkpt>
      <trkpt lat="48.48719" lon="-2.85438">
        <ele>134</ele>
        <time>2017-01-05T14:45:33.000Z</time>
      </trkpt>
      <trkpt lat="48.48721" lon="-2.85437">
        <ele>134</ele>
        <time>2017-01-05T14:45:35.000Z</time>
      </trkpt>
      <trkpt lat="48.48724" lon="-2.85436">
        <ele>134</ele>
        <time>2017-01-05T14:45:38.000Z</time>
      </trkpt>
      <trkpt lat="48.48726" lon="-2.85434">
        <ele>134</ele>
        <time>2017-01-05T14:45:41.000Z</time>
      </trkpt>
      <trkpt lat="48.48729" lon="-2.85433">
        <ele>134</ele>
        <time>2017-01-05T14:45:43.000Z</time>
      </trkpt>
      <trkpt lat="48.48731" lon="-2.85432">
        <ele>134</ele>
        <time>2017-01-05T14:45:45.000Z</time>
      </trkpt>
      <trkpt lat="48.48733" lon="-2.85431">
        <ele>134</ele>
        <time>2017-01-05T14:45:47.000Z</time>
      </trkpt>
      <trkpt lat="48.48735" lon="-2.85431">
        <ele>134</ele>
        <time>2017-01-05T14:45:49.000Z</time>
      </trkpt>
      <trkpt lat="48.48738" lon="-2.85431">
        <ele>134</ele>
        <time>2017-01-05T14:45:51.000Z</time>
      </trkpt>
      <trkpt lat="48.4874" lon="-2.8543">
        <ele>133</ele>
        <time>2017-01-05T14:45:53.000Z</time>
      </trkpt>
      <trkpt lat="48.48742" lon="-2.85428">
        <ele>133</ele>
        <time>2017-01-05T14:45:55.000Z</time>
      </trkpt>
      <trkpt lat="48.48744" lon="-2.85428">
        <ele>133</ele>
        <time>2017-01-05T14:45:57.000Z</time>
      </trkpt>
      <trkpt lat="48.48746" lon="-2.85427">
        <ele>133</ele>
        <time>2017-01-05T14:46:01.000Z</time>
      </trkpt>
      <trkpt lat="48.48748" lon="-2.85427">
        <ele>133</ele>
        <time>2017-01-05T14:46:07.000Z</time>
      </trkpt>
      <trkpt lat="48.4875" lon="-2.85425">
        <ele>133</ele>
        <time>2017-01-05T14:46:13.000Z</time>
      </trkpt>
      <trkpt lat="48.48752" lon="-2.85423">
        <ele>131</ele>
        <time>2017-01-05T14:46:15.000Z</time>
      </trkpt>
      <trkpt lat="48.48754" lon="-2.85421">
        <ele>131</ele>
        <time>2017-01-05T14:46:17.000Z</time>
      </trkpt>
      <trkpt lat="48.48756" lon="-2.8542">
        <ele>131</ele>
        <time>2017-01-05T14:46:19.000Z</time>
      </trkpt>
      <trkpt lat="48.48758" lon="-2.85418">
        <ele>131</ele>
        <time>2017-01-05T14:46:21.000Z</time>
      </trkpt>
      <trkpt lat="48.4876" lon="-2.85416">
        <ele>130</ele>
        <time>2017-01-05T14:46:23.000Z</time>
      </trkpt>
      <trkpt lat="48.48762" lon="-2.85415">
        <ele>130</ele>
        <time>2017-01-05T14:46:25.000Z</time>
      </trkpt>
      <trkpt lat="48.48764" lon="-2.85412">
        <ele>129</ele>
        <time>2017-01-05T14:46:31.000Z</time>
      </trkpt>
      <trkpt lat="48.48767" lon="-2.8541">
        <ele>129</ele>
        <time>2017-01-05T14:46:33.000Z</time>
      </trkpt>
      <trkpt lat="48.4877" lon="-2.85408">
        <ele>129</ele>
        <time>2017-01-05T14:46:35.000Z</time>
      </trkpt>
      <trkpt lat="48.48773" lon="-2.85405">
        <ele>128</ele>
        <time>2017-01-05T14:46:37.000Z</time>
      </trkpt>
      <trkpt lat="48.48775" lon="-2.85404">
        <ele>128</ele>
        <time>2017-01-05T14:46:38.000Z</time>
      </trkpt>
      <trkpt lat="48.48777" lon="-2.85403">
        <ele>128</ele>
        <time>2017-01-05T14:46:39.000Z</time>
      </trkpt>
      <trkpt lat="48.4878" lon="-2.85401">
        <ele>127</ele>
        <time>2017-01-05T14:46:41.000Z</time>
      </trkpt>
      <trkpt lat="48.48782" lon="-2.854">
        <ele>127</ele>
        <time>2017-01-05T14:46:42.000Z</time>
      </trkpt>
      <trkpt lat="48.48784" lon="-2.85401">
        <ele>127</ele>
        <time>2017-01-05T14:46:43.000Z</time>
      </trkpt>
      <trkpt lat="48.48786" lon="-2.85402">
        <ele>127</ele>
        <time>2017-01-05T14:46:44.000Z</time>
      </trkpt>
      <trkpt lat="48.48788" lon="-2.85404">
        <ele>127</ele>
        <time>2017-01-05T14:46:46.000Z</time>
      </trkpt>
      <trkpt lat="48.48791" lon="-2.85406">
        <ele>127</ele>
        <time>2017-01-05T14:46:48.000Z</time>
      </trkpt>
      <trkpt lat="48.48792" lon="-2.85407">
        <ele>127</ele>
        <time>2017-01-05T14:46:50.000Z</time>
      </trkpt>
      <trkpt lat="48.48794" lon="-2.85409">
        <ele>127</ele>
        <time>2017-01-05T14:46:53.000Z</time>
      </trkpt>
      <trkpt lat="48.48794" lon="-2.85412">
        <ele>127</ele>
        <time>2017-01-05T14:46:56.000Z</time>
      </trkpt>
      <trkpt lat="48.48796" lon="-2.85416">
        <ele>126</ele>
        <time>2017-01-05T14:47:00.000Z</time>
      </trkpt>
      <trkpt lat="48.48798" lon="-2.85419">
        <ele>127</ele>
        <time>2017-01-05T14:47:02.000Z</time>
      </trkpt>
      <trkpt lat="48.48799" lon="-2.85422">
        <ele>127</ele>
        <time>2017-01-05T14:47:04.000Z</time>
      </trkpt>
      <trkpt lat="48.48801" lon="-2.85426">
        <ele>127</ele>
        <time>2017-01-05T14:47:06.000Z</time>
      </trkpt>
      <trkpt lat="48.48802" lon="-2.8543">
        <ele>127</ele>
        <time>2017-01-05T14:47:08.000Z</time>
      </trkpt>
      <trkpt lat="48.48804" lon="-2.85434">
        <ele>127</ele>
        <time>2017-01-05T14:47:10.000Z</time>
      </trkpt>
      <trkpt lat="48.48805" lon="-2.85437">
        <ele>127</ele>
        <time>2017-01-05T14:47:12.000Z</time>
      </trkpt>
      <trkpt lat="48.48805" lon="-2.8544">
        <ele>127</ele>
        <time>2017-01-05T14:47:13.000Z</time>
      </trkpt>
      <trkpt lat="48.48806" lon="-2.85444">
        <ele>127</ele>
        <time>2017-01-05T14:47:15.000Z</time>
      </trkpt>
      <trkpt lat="48.48809" lon="-2.85446">
        <ele>127</ele>
        <time>2017-01-05T14:47:17.000Z</time>
      </trkpt>
      <trkpt lat="48.48811" lon="-2.85448">
        <ele>127</ele>
        <time>2017-01-05T14:47:19.000Z</time>
      </trkpt>
      <trkpt lat="48.48813" lon="-2.8545">
        <ele>127</ele>
        <time>2017-01-05T14:47:21.000Z</time>
      </trkpt>
      <trkpt lat="48.48814" lon="-2.85453">
        <ele>127</ele>
        <time>2017-01-05T14:47:23.000Z</time>
      </trkpt>
      <trkpt lat="48.48816" lon="-2.85454">
        <ele>127</ele>
        <time>2017-01-05T14:47:25.000Z</time>
      </trkpt>
      <trkpt lat="48.48818" lon="-2.85456">
        <ele>127</ele>
        <time>2017-01-05T14:47:27.000Z</time>
      </trkpt>
      <trkpt lat="48.48821" lon="-2.85456">
        <ele>127</ele>
        <time>2017-01-05T14:47:29.000Z</time>
      </trkpt>
      <trkpt lat="48.48823" lon="-2.85454">
        <ele>127</ele>
        <time>2017-01-05T14:47:34.000Z</time>
      </trkpt>
      <trkpt lat="48.48826" lon="-2.85454">
        <ele>127</ele>
        <time>2017-01-05T14:47:36.000Z</time>
      </trkpt>
      <trkpt lat="48.48828" lon="-2.85454">
        <ele>126</ele>
        <time>2017-01-05T14:47:37.000Z</time>
      </trkpt>
      <trkpt lat="48.48831" lon="-2.85454">
        <ele>126</ele>
        <time>2017-01-05T14:47:39.000Z</time>
      </trkpt>
      <trkpt lat="48.48833" lon="-2.85453">
        <ele>126</ele>
        <time>2017-01-05T14:47:40.000Z</time>
      </trkpt>
      <trkpt lat="48.48835" lon="-2.85454">
        <ele>124</ele>
        <time>2017-01-05T14:47:41.000Z</time>
      </trkpt>
      <trkpt lat="48.48838" lon="-2.85453">
        <ele>124</ele>
        <time>2017-01-05T14:47:43.000Z</time>
      </trkpt>
      <trkpt lat="48.48839" lon="-2.8545">
        <ele>124</ele>
        <time>2017-01-05T14:47:45.000Z</time>
      </trkpt>
      <trkpt lat="48.48839" lon="-2.85448">
        <ele>124</ele>
        <time>2017-01-05T14:47:48.000Z</time>
      </trkpt>
      <trkpt lat="48.48841" lon="-2.85446">
        <ele>124</ele>
        <time>2017-01-05T14:47:50.000Z</time>
      </trkpt>
      <trkpt lat="48.48843" lon="-2.85446">
        <ele>124</ele>
        <time>2017-01-05T14:47:52.000Z</time>
      </trkpt>
      <trkpt lat="48.48845" lon="-2.85447">
        <ele>124</ele>
        <time>2017-01-05T14:47:54.000Z</time>
      </trkpt>
      <trkpt lat="48.48847" lon="-2.85448">
        <ele>124</ele>
        <time>2017-01-05T14:47:56.000Z</time>
      </trkpt>
      <trkpt lat="48.48848" lon="-2.8545">
        <ele>125</ele>
        <time>2017-01-05T14:47:58.000Z</time>
      </trkpt>
      <trkpt lat="48.4885" lon="-2.85453">
        <ele>125</ele>
        <time>2017-01-05T14:48:03.000Z</time>
      </trkpt>
      <trkpt lat="48.48852" lon="-2.85454">
        <ele>125</ele>
        <time>2017-01-05T14:48:04.000Z</time>
      </trkpt>
      <trkpt lat="48.48854" lon="-2.85455">
        <ele>125</ele>
        <time>2017-01-05T14:48:05.000Z</time>
      </trkpt>
      <trkpt lat="48.48856" lon="-2.85457">
        <ele>125</ele>
        <time>2017-01-05T14:48:06.000Z</time>
      </trkpt>
      <trkpt lat="48.48858" lon="-2.85459">
        <ele>125</ele>
        <time>2017-01-05T14:48:07.000Z</time>
      </trkpt>
      <trkpt lat="48.48859" lon="-2.85461">
        <ele>125</ele>
        <time>2017-01-05T14:48:08.000Z</time>
      </trkpt>
      <trkpt lat="48.48862" lon="-2.85462">
        <ele>125</ele>
        <time>2017-01-05T14:48:09.000Z</time>
      </trkpt>
      <trkpt lat="48.48864" lon="-2.85463">
        <ele>125</ele>
        <time>2017-01-05T14:48:10.000Z</time>
      </trkpt>
      <trkpt lat="48.48867" lon="-2.85464">
        <ele>125</ele>
        <time>2017-01-05T14:48:11.000Z</time>
      </trkpt>
      <trkpt lat="48.48869" lon="-2.85465">
        <ele>125</ele>
        <time>2017-01-05T14:48:12.000Z</time>
      </trkpt>
      <trkpt lat="48.48871" lon="-2.85467">
        <ele>125</ele>
        <time>2017-01-05T14:48:13.000Z</time>
      </trkpt>
      <trkpt lat="48.48873" lon="-2.85469">
        <ele>125</ele>
        <time>2017-01-05T14:48:14.000Z</time>
      </trkpt>
      <trkpt lat="48.48874" lon="-2.85472">
        <ele>125</ele>
        <time>2017-01-05T14:48:15.000Z</time>
      </trkpt>
      <trkpt lat="48.48876" lon="-2.85474">
        <ele>125</ele>
        <time>2017-01-05T14:48:16.000Z</time>
      </trkpt>
      <trkpt lat="48.48878" lon="-2.85478">
        <ele>125</ele>
        <time>2017-01-05T14:48:17.000Z</time>
      </trkpt>
      <trkpt lat="48.4888" lon="-2.8548">
        <ele>125</ele>
        <time>2017-01-05T14:48:18.000Z</time>
      </trkpt>
      <trkpt lat="48.48883" lon="-2.85482">
        <ele>125</ele>
        <time>2017-01-05T14:48:19.000Z</time>
      </trkpt>
      <trkpt lat="48.48886" lon="-2.85482">
        <ele>125</ele>
        <time>2017-01-05T14:48:20.000Z</time>
      </trkpt>
      <trkpt lat="48.48888" lon="-2.85483">
        <ele>125</ele>
        <time>2017-01-05T14:48:21.000Z</time>
      </trkpt>
      <trkpt lat="48.4889" lon="-2.85484">
        <ele>125</ele>
        <time>2017-01-05T14:48:22.000Z</time>
      </trkpt>
      <trkpt lat="48.48892" lon="-2.85485">
        <ele>125</ele>
        <time>2017-01-05T14:48:23.000Z</time>
      </trkpt>
      <trkpt lat="48.48893" lon="-2.85488">
        <ele>125</ele>
        <time>2017-01-05T14:48:24.000Z</time>
      </trkpt>
      <trkpt lat="48.48895" lon="-2.8549">
        <ele>125</ele>
        <time>2017-01-05T14:48:25.000Z</time>
      </trkpt>
      <trkpt lat="48.48897" lon="-2.85492">
        <ele>125</ele>
        <time>2017-01-05T14:48:26.000Z</time>
      </trkpt>
      <trkpt lat="48.48899" lon="-2.85494">
        <ele>125</ele>
        <time>2017-01-05T14:48:27.000Z</time>
      </trkpt>
      <trkpt lat="48.48902" lon="-2.85498">
        <ele>125</ele>
        <time>2017-01-05T14:48:29.000Z</time>
      </trkpt>
      <trkpt lat="48.48904" lon="-2.855">
        <ele>125</ele>
        <time>2017-01-05T14:48:30.000Z</time>
      </trkpt>
      <trkpt lat="48.48907" lon="-2.85501">
        <ele>125</ele>
        <time>2017-01-05T14:48:31.000Z</time>
      </trkpt>
      <trkpt lat="48.4891" lon="-2.85502">
        <ele>125</ele>
        <time>2017-01-05T14:48:32.000Z</time>
      </trkpt>
      <trkpt lat="48.48914" lon="-2.85503">
        <ele>125</ele>
        <time>2017-01-05T14:48:33.000Z</time>
      </trkpt>
      <trkpt lat="48.48917" lon="-2.85504">
        <ele>125</ele>
        <time>2017-01-05T14:48:34.000Z</time>
      </trkpt>
      <trkpt lat="48.48921" lon="-2.85505">
        <ele>126</ele>
        <time>2017-01-05T14:48:35.000Z</time>
      </trkpt>
      <trkpt lat="48.48924" lon="-2.85505">
        <ele>126</ele>
        <time>2017-01-05T14:48:36.000Z</time>
      </trkpt>
      <trkpt lat="48.48927" lon="-2.85506">
        <ele>126</ele>
        <time>2017-01-05T14:48:37.000Z</time>
      </trkpt>
      <trkpt lat="48.4893" lon="-2.85507">
        <ele>126</ele>
        <time>2017-01-05T14:48:38.000Z</time>
      </trkpt>
      <trkpt lat="48.48933" lon="-2.85508">
        <ele>126</ele>
        <time>2017-01-05T14:48:39.000Z</time>
      </trkpt>
      <trkpt lat="48.48936" lon="-2.85509">
        <ele>127</ele>
        <time>2017-01-05T14:48:40.000Z</time>
      </trkpt>
      <trkpt lat="48.48939" lon="-2.8551">
        <ele>127</ele>
        <time>2017-01-05T14:48:41.000Z</time>
      </trkpt>
      <trkpt lat="48.48941" lon="-2.8551">
        <ele>127</ele>
        <time>2017-01-05T14:48:42.000Z</time>
      </trkpt>
      <trkpt lat="48.48944" lon="-2.85511">
        <ele>127</ele>
        <time>2017-01-05T14:48:43.000Z</time>
      </trkpt>
      <trkpt lat="48.48947" lon="-2.85512">
        <ele>127</ele>
        <time>2017-01-05T14:48:44.000Z</time>
      </trkpt>
      <trkpt lat="48.48949" lon="-2.85513">
        <ele>127</ele>
        <time>2017-01-05T14:48:45.000Z</time>
      </trkpt>
      <trkpt lat="48.48952" lon="-2.85514">
        <ele>127</ele>
        <time>2017-01-05T14:48:46.000Z</time>
      </trkpt>
      <trkpt lat="48.48954" lon="-2.85514">
        <ele>128</ele>
        <time>2017-01-05T14:48:47.000Z</time>
      </trkpt>
      <trkpt lat="48.48957" lon="-2.85515">
        <ele>128</ele>
        <time>2017-01-05T14:48:48.000Z</time>
      </trkpt>
      <trkpt lat="48.4896" lon="-2.85515">
        <ele>128</ele>
        <time>2017-01-05T14:48:49.000Z</time>
      </trkpt>
      <trkpt lat="48.48962" lon="-2.85515">
        <ele>128</ele>
        <time>2017-01-05T14:48:50.000Z</time>
      </trkpt>
      <trkpt lat="48.48964" lon="-2.85516">
        <ele>128</ele>
        <time>2017-01-05T14:48:51.000Z</time>
      </trkpt>
      <trkpt lat="48.48966" lon="-2.85517">
        <ele>128</ele>
        <time>2017-01-05T14:48:52.000Z</time>
      </trkpt>
      <trkpt lat="48.48969" lon="-2.85518">
        <ele>128</ele>
        <time>2017-01-05T14:48:53.000Z</time>
      </trkpt>
      <trkpt lat="48.48971" lon="-2.85519">
        <ele>128</ele>
        <time>2017-01-05T14:48:54.000Z</time>
      </trkpt>
      <trkpt lat="48.48972" lon="-2.8552">
        <ele>128</ele>
        <time>2017-01-05T14:48:55.000Z</time>
      </trkpt>
      <trkpt lat="48.48974" lon="-2.85521">
        <ele>129</ele>
        <time>2017-01-05T14:48:56.000Z</time>
      </trkpt>
      <trkpt lat="48.48976" lon="-2.85522">
        <ele>129</ele>
        <time>2017-01-05T14:48:57.000Z</time>
      </trkpt>
      <trkpt lat="48.48978" lon="-2.85522">
        <ele>129</ele>
        <time>2017-01-05T14:48:58.000Z</time>
      </trkpt>
      <trkpt lat="48.4898" lon="-2.85523">
        <ele>129</ele>
        <time>2017-01-05T14:48:59.000Z</time>
      </trkpt>
      <trkpt lat="48.48983" lon="-2.85524">
        <ele>129</ele>
        <time>2017-01-05T14:49:01.000Z</time>
      </trkpt>
      <trkpt lat="48.48985" lon="-2.85525">
        <ele>129</ele>
        <time>2017-01-05T14:49:02.000Z</time>
      </trkpt>
      <trkpt lat="48.48988" lon="-2.85525">
        <ele>129</ele>
        <time>2017-01-05T14:49:04.000Z</time>
      </trkpt>
      <trkpt lat="48.48992" lon="-2.85523">
        <ele>129</ele>
        <time>2017-01-05T14:49:06.000Z</time>
      </trkpt>
      <trkpt lat="48.48993" lon="-2.85522">
        <ele>129</ele>
        <time>2017-01-05T14:49:07.000Z</time>
      </trkpt>
      <trkpt lat="48.48995" lon="-2.8552">
        <ele>130</ele>
        <time>2017-01-05T14:49:08.000Z</time>
      </trkpt>
      <trkpt lat="48.48996" lon="-2.85518">
        <ele>130</ele>
        <time>2017-01-05T14:49:09.000Z</time>
      </trkpt>
      <trkpt lat="48.48997" lon="-2.85516">
        <ele>130</ele>
        <time>2017-01-05T14:49:10.000Z</time>
      </trkpt>
      <trkpt lat="48.48999" lon="-2.85513">
        <ele>130</ele>
        <time>2017-01-05T14:49:11.000Z</time>
      </trkpt>
      <trkpt lat="48.49" lon="-2.85511">
        <ele>132</ele>
        <time>2017-01-05T14:49:12.000Z</time>
      </trkpt>
      <trkpt lat="48.49001" lon="-2.85509">
        <ele>132</ele>
        <time>2017-01-05T14:49:13.000Z</time>
      </trkpt>
      <trkpt lat="48.49003" lon="-2.85506">
        <ele>132</ele>
        <time>2017-01-05T14:49:14.000Z</time>
      </trkpt>
      <trkpt lat="48.49004" lon="-2.85504">
        <ele>132</ele>
        <time>2017-01-05T14:49:15.000Z</time>
      </trkpt>
      <trkpt lat="48.49006" lon="-2.85501">
        <ele>132</ele>
        <time>2017-01-05T14:49:16.000Z</time>
      </trkpt>
      <trkpt lat="48.49007" lon="-2.85499">
        <ele>133</ele>
        <time>2017-01-05T14:49:17.000Z</time>
      </trkpt>
      <trkpt lat="48.49009" lon="-2.85497">
        <ele>133</ele>
        <time>2017-01-05T14:49:18.000Z</time>
      </trkpt>
      <trkpt lat="48.4901" lon="-2.85494">
        <ele>133</ele>
        <time>2017-01-05T14:49:19.000Z</time>
      </trkpt>
      <trkpt lat="48.49012" lon="-2.85492">
        <ele>133</ele>
        <time>2017-01-05T14:49:20.000Z</time>
      </trkpt>
      <trkpt lat="48.49013" lon="-2.85489">
        <ele>133</ele>
        <time>2017-01-05T14:49:21.000Z</time>
      </trkpt>
      <trkpt lat="48.49015" lon="-2.85487">
        <ele>133</ele>
        <time>2017-01-05T14:49:22.000Z</time>
      </trkpt>
      <trkpt lat="48.49016" lon="-2.85484">
        <ele>133</ele>
        <time>2017-01-05T14:49:23.000Z</time>
      </trkpt>
      <trkpt lat="48.49018" lon="-2.85482">
        <ele>133</ele>
        <time>2017-01-05T14:49:24.000Z</time>
      </trkpt>
      <trkpt lat="48.49019" lon="-2.85479">
        <ele>133</ele>
        <time>2017-01-05T14:49:25.000Z</time>
      </trkpt>
      <trkpt lat="48.49021" lon="-2.85477">
        <ele>133</ele>
        <time>2017-01-05T14:49:26.000Z</time>
      </trkpt>
      <trkpt lat="48.49023" lon="-2.85474">
        <ele>134</ele>
        <time>2017-01-05T14:49:27.000Z</time>
      </trkpt>
      <trkpt lat="48.49025" lon="-2.85471">
        <ele>134</ele>
        <time>2017-01-05T14:49:28.000Z</time>
      </trkpt>
      <trkpt lat="48.49026" lon="-2.85469">
        <ele>134</ele>
        <time>2017-01-05T14:49:29.000Z</time>
      </trkpt>
      <trkpt lat="48.49028" lon="-2.85466">
        <ele>134</ele>
        <time>2017-01-05T14:49:30.000Z</time>
      </trkpt>
      <trkpt lat="48.4903" lon="-2.85463">
        <ele>134</ele>
        <time>2017-01-05T14:49:31.000Z</time>
      </trkpt>
      <trkpt lat="48.49031" lon="-2.85461">
        <ele>134</ele>
        <time>2017-01-05T14:49:32.000Z</time>
      </trkpt>
      <trkpt lat="48.49033" lon="-2.85458">
        <ele>134</ele>
        <time>2017-01-05T14:49:33.000Z</time>
      </trkpt>
      <trkpt lat="48.49035" lon="-2.85456">
        <ele>134</ele>
        <time>2017-01-05T14:49:34.000Z</time>
      </trkpt>
      <trkpt lat="48.49037" lon="-2.85454">
        <ele>134</ele>
        <time>2017-01-05T14:49:35.000Z</time>
      </trkpt>
      <trkpt lat="48.49039" lon="-2.85451">
        <ele>134</ele>
        <time>2017-01-05T14:49:36.000Z</time>
      </trkpt>
      <trkpt lat="48.49041" lon="-2.85449">
        <ele>134</ele>
        <time>2017-01-05T14:49:37.000Z</time>
      </trkpt>
      <trkpt lat="48.49043" lon="-2.85446">
        <ele>134</ele>
        <time>2017-01-05T14:49:38.000Z</time>
      </trkpt>
      <trkpt lat="48.49045" lon="-2.85443">
        <ele>134</ele>
        <time>2017-01-05T14:49:39.000Z</time>
      </trkpt>
      <trkpt lat="48.49047" lon="-2.85441">
        <ele>134</ele>
        <time>2017-01-05T14:49:40.000Z</time>
      </trkpt>
      <trkpt lat="48.49049" lon="-2.85438">
        <ele>134</ele>
        <time>2017-01-05T14:49:41.000Z</time>
      </trkpt>
      <trkpt lat="48.49051" lon="-2.85436">
        <ele>134</ele>
        <time>2017-01-05T14:49:42.000Z</time>
      </trkpt>
      <trkpt lat="48.49053" lon="-2.85433">
        <ele>134</ele>
        <time>2017-01-05T14:49:43.000Z</time>
      </trkpt>
      <trkpt lat="48.49054" lon="-2.85431">
        <ele>134</ele>
        <time>2017-01-05T14:49:44.000Z</time>
      </trkpt>
      <trkpt lat="48.49056" lon="-2.85429">
        <ele>134</ele>
        <time>2017-01-05T14:49:45.000Z</time>
      </trkpt>
      <trkpt lat="48.49058" lon="-2.85426">
        <ele>134</ele>
        <time>2017-01-05T14:49:46.000Z</time>
      </trkpt>
      <trkpt lat="48.4906" lon="-2.85423">
        <ele>134</ele>
        <time>2017-01-05T14:49:47.000Z</time>
      </trkpt>
      <trkpt lat="48.49062" lon="-2.8542">
        <ele>134</ele>
        <time>2017-01-05T14:49:48.000Z</time>
      </trkpt>
      <trkpt lat="48.49063" lon="-2.85417">
        <ele>134</ele>
        <time>2017-01-05T14:49:49.000Z</time>
      </trkpt>
      <trkpt lat="48.49065" lon="-2.85414">
        <ele>134</ele>
        <time>2017-01-05T14:49:50.000Z</time>
      </trkpt>
      <trkpt lat="48.49066" lon="-2.85411">
        <ele>134</ele>
        <time>2017-01-05T14:49:51.000Z</time>
      </trkpt>
      <trkpt lat="48.49068" lon="-2.85409">
        <ele>134</ele>
        <time>2017-01-05T14:49:52.000Z</time>
      </trkpt>
      <trkpt lat="48.49069" lon="-2.85405">
        <ele>134</ele>
        <time>2017-01-05T14:49:53.000Z</time>
      </trkpt>
      <trkpt lat="48.4907" lon="-2.85402">
        <ele>134</ele>
        <time>2017-01-05T14:49:54.000Z</time>
      </trkpt>
      <trkpt lat="48.49071" lon="-2.85398">
        <ele>134</ele>
        <time>2017-01-05T14:49:55.000Z</time>
      </trkpt>
      <trkpt lat="48.49072" lon="-2.85393">
        <ele>134</ele>
        <time>2017-01-05T14:49:56.000Z</time>
      </trkpt>
      <trkpt lat="48.49073" lon="-2.85388">
        <ele>134</ele>
        <time>2017-01-05T14:49:57.000Z</time>
      </trkpt>
      <trkpt lat="48.49074" lon="-2.85382">
        <ele>133</ele>
        <time>2017-01-05T14:49:58.000Z</time>
      </trkpt>
      <trkpt lat="48.49074" lon="-2.85375">
        <ele>133</ele>
        <time>2017-01-05T14:49:59.000Z</time>
      </trkpt>
      <trkpt lat="48.49075" lon="-2.85368">
        <ele>133</ele>
        <time>2017-01-05T14:50:00.000Z</time>
      </trkpt>
      <trkpt lat="48.49076" lon="-2.8536">
        <ele>133</ele>
        <time>2017-01-05T14:50:01.000Z</time>
      </trkpt>
      <trkpt lat="48.49078" lon="-2.85353">
        <ele>133</ele>
        <time>2017-01-05T14:50:02.000Z</time>
      </trkpt>
      <trkpt lat="48.4908" lon="-2.85345">
        <ele>132</ele>
        <time>2017-01-05T14:50:03.000Z</time>
      </trkpt>
      <trkpt lat="48.49083" lon="-2.85338">
        <ele>132</ele>
        <time>2017-01-05T14:50:04.000Z</time>
      </trkpt>
      <trkpt lat="48.49085" lon="-2.85331">
        <ele>132</ele>
        <time>2017-01-05T14:50:05.000Z</time>
      </trkpt>
      <trkpt lat="48.49088" lon="-2.85324">
        <ele>132</ele>
        <time>2017-01-05T14:50:06.000Z</time>
      </trkpt>
      <trkpt lat="48.4909" lon="-2.85318">
        <ele>132</ele>
        <time>2017-01-05T14:50:07.000Z</time>
      </trkpt>
      <trkpt lat="48.49094" lon="-2.85313">
        <ele>132</ele>
        <time>2017-01-05T14:50:08.000Z</time>
      </trkpt>
      <trkpt lat="48.49097" lon="-2.85308">
        <ele>132</ele>
        <time>2017-01-05T14:50:09.000Z</time>
      </trkpt>
      <trkpt lat="48.49101" lon="-2.85304">
        <ele>132</ele>
        <time>2017-01-05T14:50:10.000Z</time>
      </trkpt>
      <trkpt lat="48.49104" lon="-2.853">
        <ele>132</ele>
        <time>2017-01-05T14:50:11.000Z</time>
      </trkpt>
      <trkpt lat="48.49108" lon="-2.85296">
        <ele>132</ele>
        <time>2017-01-05T14:50:12.000Z</time>
      </trkpt>
      <trkpt lat="48.49112" lon="-2.85292">
        <ele>132</ele>
        <time>2017-01-05T14:50:13.000Z</time>
      </trkpt>
      <trkpt lat="48.49115" lon="-2.85287">
        <ele>132</ele>
        <time>2017-01-05T14:50:14.000Z</time>
      </trkpt>
      <trkpt lat="48.49117" lon="-2.85283">
        <ele>132</ele>
        <time>2017-01-05T14:50:15.000Z</time>
      </trkpt>
      <trkpt lat="48.4912" lon="-2.85278">
        <ele>132</ele>
        <time>2017-01-05T14:50:16.000Z</time>
      </trkpt>
      <trkpt lat="48.49122" lon="-2.85274">
        <ele>132</ele>
        <time>2017-01-05T14:50:17.000Z</time>
      </trkpt>
      <trkpt lat="48.49124" lon="-2.8527">
        <ele>132</ele>
        <time>2017-01-05T14:50:18.000Z</time>
      </trkpt>
      <trkpt lat="48.49126" lon="-2.85267">
        <ele>132</ele>
        <time>2017-01-05T14:50:19.000Z</time>
      </trkpt>
      <trkpt lat="48.49128" lon="-2.85265">
        <ele>132</ele>
        <time>2017-01-05T14:50:20.000Z</time>
      </trkpt>
      <trkpt lat="48.49131" lon="-2.85262">
        <ele>132</ele>
        <time>2017-01-05T14:50:22.000Z</time>
      </trkpt>
      <trkpt lat="48.49133" lon="-2.85262">
        <ele>132</ele>
        <time>2017-01-05T14:50:23.000Z</time>
      </trkpt>
      <trkpt lat="48.49136" lon="-2.85263">
        <ele>132</ele>
        <time>2017-01-05T14:50:24.000Z</time>
      </trkpt>
      <trkpt lat="48.49139" lon="-2.85265">
        <ele>132</ele>
        <time>2017-01-05T14:50:25.000Z</time>
      </trkpt>
      <trkpt lat="48.49142" lon="-2.85268">
        <ele>132</ele>
        <time>2017-01-05T14:50:26.000Z</time>
      </trkpt>
      <trkpt lat="48.49145" lon="-2.85271">
        <ele>132</ele>
        <time>2017-01-05T14:50:27.000Z</time>
      </trkpt>
      <trkpt lat="48.49149" lon="-2.85274">
        <ele>132</ele>
        <time>2017-01-05T14:50:28.000Z</time>
      </trkpt>
      <trkpt lat="48.49153" lon="-2.85278">
        <ele>132</ele>
        <time>2017-01-05T14:50:29.000Z</time>
      </trkpt>
      <trkpt lat="48.49156" lon="-2.85282">
        <ele>132</ele>
        <time>2017-01-05T14:50:30.000Z</time>
      </trkpt>
      <trkpt lat="48.4916" lon="-2.85285">
        <ele>132</ele>
        <time>2017-01-05T14:50:31.000Z</time>
      </trkpt>
      <trkpt lat="48.49164" lon="-2.85289">
        <ele>132</ele>
        <time>2017-01-05T14:50:32.000Z</time>
      </trkpt>
      <trkpt lat="48.49168" lon="-2.85292">
        <ele>133</ele>
        <time>2017-01-05T14:50:33.000Z</time>
      </trkpt>
      <trkpt lat="48.49172" lon="-2.85295">
        <ele>133</ele>
        <time>2017-01-05T14:50:34.000Z</time>
      </trkpt>
      <trkpt lat="48.49175" lon="-2.85299">
        <ele>133</ele>
        <time>2017-01-05T14:50:35.000Z</time>
      </trkpt>
      <trkpt lat="48.49179" lon="-2.85302">
        <ele>133</ele>
        <time>2017-01-05T14:50:36.000Z</time>
      </trkpt>
      <trkpt lat="48.49183" lon="-2.85306">
        <ele>134</ele>
        <time>2017-01-05T14:50:37.000Z</time>
      </trkpt>
      <trkpt lat="48.49187" lon="-2.85309">
        <ele>134</ele>
        <time>2017-01-05T14:50:38.000Z</time>
      </trkpt>
      <trkpt lat="48.49191" lon="-2.85312">
        <ele>134</ele>
        <time>2017-01-05T14:50:39.000Z</time>
      </trkpt>
      <trkpt lat="48.49196" lon="-2.85315">
        <ele>134</ele>
        <time>2017-01-05T14:50:40.000Z</time>
      </trkpt>
      <trkpt lat="48.492" lon="-2.85318">
        <ele>134</ele>
        <time>2017-01-05T14:50:41.000Z</time>
      </trkpt>
      <trkpt lat="48.49205" lon="-2.85321">
        <ele>134</ele>
        <time>2017-01-05T14:50:42.000Z</time>
      </trkpt>
      <trkpt lat="48.49209" lon="-2.85323">
        <ele>134</ele>
        <time>2017-01-05T14:50:43.000Z</time>
      </trkpt>
      <trkpt lat="48.49214" lon="-2.85325">
        <ele>134</ele>
        <time>2017-01-05T14:50:44.000Z</time>
      </trkpt>
      <trkpt lat="48.49218" lon="-2.85327">
        <ele>134</ele>
        <time>2017-01-05T14:50:45.000Z</time>
      </trkpt>
      <trkpt lat="48.49223" lon="-2.85327">
        <ele>134</ele>
        <time>2017-01-05T14:50:46.000Z</time>
      </trkpt>
      <trkpt lat="48.49228" lon="-2.85328">
        <ele>134</ele>
        <time>2017-01-05T14:50:47.000Z</time>
      </trkpt>
      <trkpt lat="48.49232" lon="-2.85329">
        <ele>134</ele>
        <time>2017-01-05T14:50:48.000Z</time>
      </trkpt>
      <trkpt lat="48.49236" lon="-2.8533">
        <ele>134</ele>
        <time>2017-01-05T14:50:49.000Z</time>
      </trkpt>
      <trkpt lat="48.49238" lon="-2.8533">
        <ele>134</ele>
        <time>2017-01-05T14:50:50.000Z</time>
      </trkpt>
      <trkpt lat="48.49239" lon="-2.85333">
        <ele>134</ele>
        <time>2017-01-05T14:50:53.000Z</time>
      </trkpt>
      <trkpt lat="48.49237" lon="-2.85331">
        <ele>134</ele>
        <time>2017-01-05T14:50:56.000Z</time>
      </trkpt>
      <trkpt lat="48.49235" lon="-2.85329">
        <ele>134</ele>
        <time>2017-01-05T14:50:58.000Z</time>
      </trkpt>
      <trkpt lat="48.49234" lon="-2.8533">
        <ele>134</ele>
        <time>2017-01-05T14:51:00.000Z</time>
      </trkpt>
      <trkpt lat="48.49231" lon="-2.85331">
        <ele>134</ele>
        <time>2017-01-05T14:51:02.000Z</time>
      </trkpt>
      <trkpt lat="48.49228" lon="-2.85331">
        <ele>134</ele>
        <time>2017-01-05T14:51:04.000Z</time>
      </trkpt>
      <trkpt lat="48.49226" lon="-2.8533">
        <ele>134</ele>
        <time>2017-01-05T14:51:05.000Z</time>
      </trkpt>
      <trkpt lat="48.49224" lon="-2.8533">
        <ele>134</ele>
        <time>2017-01-05T14:51:06.000Z</time>
      </trkpt>
      <trkpt lat="48.49222" lon="-2.8533">
        <ele>134</ele>
        <time>2017-01-05T14:51:07.000Z</time>
      </trkpt>
      <trkpt lat="48.49219" lon="-2.85331">
        <ele>134</ele>
        <time>2017-01-05T14:51:08.000Z</time>
      </trkpt>
      <trkpt lat="48.49218" lon="-2.85331">
        <ele>134</ele>
        <time>2017-01-05T14:51:09.000Z</time>
      </trkpt>
      <trkpt lat="48.49216" lon="-2.85329">
        <ele>134</ele>
        <time>2017-01-05T14:51:11.000Z</time>
      </trkpt>
      <trkpt lat="48.49219" lon="-2.85328">
        <ele>134</ele>
        <time>2017-01-05T14:51:14.000Z</time>
      </trkpt>
      <trkpt lat="48.49222" lon="-2.85329">
        <ele>134</ele>
        <time>2017-01-05T14:51:15.000Z</time>
      </trkpt>
      <trkpt lat="48.49225" lon="-2.85328">
        <ele>134</ele>
        <time>2017-01-05T14:51:16.000Z</time>
      </trkpt>
      <trkpt lat="48.49228" lon="-2.85326">
        <ele>134</ele>
        <time>2017-01-05T14:51:17.000Z</time>
      </trkpt>
      <trkpt lat="48.4923" lon="-2.85322">
        <ele>134</ele>
        <time>2017-01-05T14:51:18.000Z</time>
      </trkpt>
      <trkpt lat="48.49232" lon="-2.85318">
        <ele>134</ele>
        <time>2017-01-05T14:51:19.000Z</time>
      </trkpt>
      <trkpt lat="48.49234" lon="-2.85315">
        <ele>134</ele>
        <time>2017-01-05T14:51:20.000Z</time>
      </trkpt>
      <trkpt lat="48.49236" lon="-2.85311">
        <ele>134</ele>
        <time>2017-01-05T14:51:21.000Z</time>
      </trkpt>
      <trkpt lat="48.49238" lon="-2.85308">
        <ele>134</ele>
        <time>2017-01-05T14:51:22.000Z</time>
      </trkpt>
      <trkpt lat="48.4924" lon="-2.85304">
        <ele>134</ele>
        <time>2017-01-05T14:51:23.000Z</time>
      </trkpt>
      <trkpt lat="48.49242" lon="-2.853">
        <ele>134</ele>
        <time>2017-01-05T14:51:24.000Z</time>
      </trkpt>
      <trkpt lat="48.49244" lon="-2.85297">
        <ele>134</ele>
        <time>2017-01-05T14:51:25.000Z</time>
      </trkpt>
      <trkpt lat="48.49246" lon="-2.85293">
        <ele>134</ele>
        <time>2017-01-05T14:51:26.000Z</time>
      </trkpt>
      <trkpt lat="48.49248" lon="-2.85289">
        <ele>134</ele>
        <time>2017-01-05T14:51:27.000Z</time>
      </trkpt>
      <trkpt lat="48.4925" lon="-2.85285">
        <ele>134</ele>
        <time>2017-01-05T14:51:28.000Z</time>
      </trkpt>
      <trkpt lat="48.49253" lon="-2.85281">
        <ele>134</ele>
        <time>2017-01-05T14:51:29.000Z</time>
      </trkpt>
      <trkpt lat="48.49255" lon="-2.85277">
        <ele>134</ele>
        <time>2017-01-05T14:51:30.000Z</time>
      </trkpt>
      <trkpt lat="48.49258" lon="-2.85273">
        <ele>134</ele>
        <time>2017-01-05T14:51:31.000Z</time>
      </trkpt>
      <trkpt lat="48.4926" lon="-2.85269">
        <ele>134</ele>
        <time>2017-01-05T14:51:32.000Z</time>
      </trkpt>
      <trkpt lat="48.49262" lon="-2.85265">
        <ele>134</ele>
        <time>2017-01-05T14:51:33.000Z</time>
      </trkpt>
      <trkpt lat="48.49265" lon="-2.85261">
        <ele>134</ele>
        <time>2017-01-05T14:51:34.000Z</time>
      </trkpt>
      <trkpt lat="48.49267" lon="-2.85257">
        <ele>134</ele>
        <time>2017-01-05T14:51:35.000Z</time>
      </trkpt>
      <trkpt lat="48.4927" lon="-2.85253">
        <ele>134</ele>
        <time>2017-01-05T14:51:36.000Z</time>
      </trkpt>
      <trkpt lat="48.49272" lon="-2.8525">
        <ele>135</ele>
        <time>2017-01-05T14:51:37.000Z</time>
      </trkpt>
      <trkpt lat="48.49274" lon="-2.85247">
        <ele>135</ele>
        <time>2017-01-05T14:51:38.000Z</time>
      </trkpt>
      <trkpt lat="48.49276" lon="-2.85243">
        <ele>135</ele>
        <time>2017-01-05T14:51:39.000Z</time>
      </trkpt>
      <trkpt lat="48.49278" lon="-2.8524">
        <ele>135</ele>
        <time>2017-01-05T14:51:40.000Z</time>
      </trkpt>
      <trkpt lat="48.4928" lon="-2.85237">
        <ele>135</ele>
        <time>2017-01-05T14:51:41.000Z</time>
      </trkpt>
      <trkpt lat="48.49282" lon="-2.85234">
        <ele>135</ele>
        <time>2017-01-05T14:51:42.000Z</time>
      </trkpt>
      <trkpt lat="48.49284" lon="-2.85231">
        <ele>135</ele>
        <time>2017-01-05T14:51:43.000Z</time>
      </trkpt>
      <trkpt lat="48.49286" lon="-2.85228">
        <ele>135</ele>
        <time>2017-01-05T14:51:44.000Z</time>
      </trkpt>
      <trkpt lat="48.49288" lon="-2.85225">
        <ele>135</ele>
        <time>2017-01-05T14:51:45.000Z</time>
      </trkpt>
      <trkpt lat="48.4929" lon="-2.85222">
        <ele>135</ele>
        <time>2017-01-05T14:51:46.000Z</time>
      </trkpt>
      <trkpt lat="48.49292" lon="-2.85219">
        <ele>135</ele>
        <time>2017-01-05T14:51:47.000Z</time>
      </trkpt>
      <trkpt lat="48.49294" lon="-2.85216">
        <ele>135</ele>
        <time>2017-01-05T14:51:48.000Z</time>
      </trkpt>
      <trkpt lat="48.49296" lon="-2.85213">
        <ele>135</ele>
        <time>2017-01-05T14:51:49.000Z</time>
      </trkpt>
      <trkpt lat="48.49298" lon="-2.85211">
        <ele>135</ele>
        <time>2017-01-05T14:51:50.000Z</time>
      </trkpt>
      <trkpt lat="48.49299" lon="-2.85209">
        <ele>136</ele>
        <time>2017-01-05T14:51:51.000Z</time>
      </trkpt>
      <trkpt lat="48.493" lon="-2.85206">
        <ele>136</ele>
        <time>2017-01-05T14:51:52.000Z</time>
      </trkpt>
      <trkpt lat="48.493" lon="-2.85204">
        <ele>136</ele>
        <time>2017-01-05T14:51:53.000Z</time>
      </trkpt>
      <trkpt lat="48.49299" lon="-2.85201">
        <ele>136</ele>
        <time>2017-01-05T14:51:54.000Z</time>
      </trkpt>
      <trkpt lat="48.49298" lon="-2.85199">
        <ele>136</ele>
        <time>2017-01-05T14:51:55.000Z</time>
      </trkpt>
      <trkpt lat="48.49295" lon="-2.85197">
        <ele>136</ele>
        <time>2017-01-05T14:51:56.000Z</time>
      </trkpt>
      <trkpt lat="48.49293" lon="-2.85195">
        <ele>136</ele>
        <time>2017-01-05T14:51:57.000Z</time>
      </trkpt>
      <trkpt lat="48.4929" lon="-2.85192">
        <ele>136</ele>
        <time>2017-01-05T14:51:58.000Z</time>
      </trkpt>
      <trkpt lat="48.49287" lon="-2.8519">
        <ele>136</ele>
        <time>2017-01-05T14:51:59.000Z</time>
      </trkpt>
      <trkpt lat="48.49284" lon="-2.85187">
        <ele>136</ele>
        <time>2017-01-05T14:52:00.000Z</time>
      </trkpt>
      <trkpt lat="48.49282" lon="-2.85183">
        <ele>136</ele>
        <time>2017-01-05T14:52:01.000Z</time>
      </trkpt>
      <trkpt lat="48.49279" lon="-2.8518">
        <ele>136</ele>
        <time>2017-01-05T14:52:02.000Z</time>
      </trkpt>
      <trkpt lat="48.49276" lon="-2.85176">
        <ele>136</ele>
        <time>2017-01-05T14:52:03.000Z</time>
      </trkpt>
      <trkpt lat="48.49274" lon="-2.85172">
        <ele>136</ele>
        <time>2017-01-05T14:52:04.000Z</time>
      </trkpt>
      <trkpt lat="48.49272" lon="-2.85167">
        <ele>136</ele>
        <time>2017-01-05T14:52:05.000Z</time>
      </trkpt>
      <trkpt lat="48.4927" lon="-2.85162">
        <ele>136</ele>
        <time>2017-01-05T14:52:06.000Z</time>
      </trkpt>
      <trkpt lat="48.49268" lon="-2.85157">
        <ele>135</ele>
        <time>2017-01-05T14:52:07.000Z</time>
      </trkpt>
      <trkpt lat="48.49267" lon="-2.85152">
        <ele>135</ele>
        <time>2017-01-05T14:52:08.000Z</time>
      </trkpt>
      <trkpt lat="48.49265" lon="-2.85146">
        <ele>135</ele>
        <time>2017-01-05T14:52:09.000Z</time>
      </trkpt>
      <trkpt lat="48.49263" lon="-2.8514">
        <ele>135</ele>
        <time>2017-01-05T14:52:10.000Z</time>
      </trkpt>
      <trkpt lat="48.49261" lon="-2.85134">
        <ele>135</ele>
        <time>2017-01-05T14:52:11.000Z</time>
      </trkpt>
      <trkpt lat="48.49259" lon="-2.85127">
        <ele>135</ele>
        <time>2017-01-05T14:52:12.000Z</time>
      </trkpt>
      <trkpt lat="48.49258" lon="-2.8512">
        <ele>135</ele>
        <time>2017-01-05T14:52:13.000Z</time>
      </trkpt>
      <trkpt lat="48.49256" lon="-2.85113">
        <ele>134</ele>
        <time>2017-01-05T14:52:14.000Z</time>
      </trkpt>
      <trkpt lat="48.49254" lon="-2.85106">
        <ele>134</ele>
        <time>2017-01-05T14:52:15.000Z</time>
      </trkpt>
      <trkpt lat="48.49252" lon="-2.851">
        <ele>134</ele>
        <time>2017-01-05T14:52:16.000Z</time>
      </trkpt>
      <trkpt lat="48.4925" lon="-2.85092">
        <ele>133</ele>
        <time>2017-01-05T14:52:17.000Z</time>
      </trkpt>
      <trkpt lat="48.49248" lon="-2.85085">
        <ele>133</ele>
        <time>2017-01-05T14:52:18.000Z</time>
      </trkpt>
      <trkpt lat="48.49246" lon="-2.85079">
        <ele>132</ele>
        <time>2017-01-05T14:52:19.000Z</time>
      </trkpt>
      <trkpt lat="48.49245" lon="-2.85073">
        <ele>131</ele>
        <time>2017-01-05T14:52:20.000Z</time>
      </trkpt>
      <trkpt lat="48.49244" lon="-2.85066">
        <ele>130</ele>
        <time>2017-01-05T14:52:21.000Z</time>
      </trkpt>
      <trkpt lat="48.49243" lon="-2.8506">
        <ele>130</ele>
        <time>2017-01-05T14:52:22.000Z</time>
      </trkpt>
      <trkpt lat="48.49242" lon="-2.85054">
        <ele>129</ele>
        <time>2017-01-05T14:52:23.000Z</time>
      </trkpt>
      <trkpt lat="48.49241" lon="-2.85047">
        <ele>129</ele>
        <time>2017-01-05T14:52:24.000Z</time>
      </trkpt>
      <trkpt lat="48.49241" lon="-2.85041">
        <ele>129</ele>
        <time>2017-01-05T14:52:25.000Z</time>
      </trkpt>
      <trkpt lat="48.49242" lon="-2.85033">
        <ele>128</ele>
        <time>2017-01-05T14:52:26.000Z</time>
      </trkpt>
      <trkpt lat="48.49243" lon="-2.85025">
        <ele>128</ele>
        <time>2017-01-05T14:52:27.000Z</time>
      </trkpt>
      <trkpt lat="48.49244" lon="-2.85017">
        <ele>127</ele>
        <time>2017-01-05T14:52:28.000Z</time>
      </trkpt>
      <trkpt lat="48.49245" lon="-2.85009">
        <ele>127</ele>
        <time>2017-01-05T14:52:29.000Z</time>
      </trkpt>
      <trkpt lat="48.49247" lon="-2.85">
        <ele>126</ele>
        <time>2017-01-05T14:52:30.000Z</time>
      </trkpt>
      <trkpt lat="48.49248" lon="-2.84991">
        <ele>125</ele>
        <time>2017-01-05T14:52:31.000Z</time>
      </trkpt>
      <trkpt lat="48.4925" lon="-2.84982">
        <ele>124</ele>
        <time>2017-01-05T14:52:32.000Z</time>
      </trkpt>
      <trkpt lat="48.49252" lon="-2.84973">
        <ele>125</ele>
        <time>2017-01-05T14:52:33.000Z</time>
      </trkpt>
      <trkpt lat="48.49254" lon="-2.84965">
        <ele>125</ele>
        <time>2017-01-05T14:52:34.000Z</time>
      </trkpt>
      <trkpt lat="48.49255" lon="-2.84956">
        <ele>125</ele>
        <time>2017-01-05T14:52:35.000Z</time>
      </trkpt>
      <trkpt lat="48.49257" lon="-2.84949">
        <ele>124</ele>
        <time>2017-01-05T14:52:36.000Z</time>
      </trkpt>
      <trkpt lat="48.49259" lon="-2.84942">
        <ele>124</ele>
        <time>2017-01-05T14:52:37.000Z</time>
      </trkpt>
      <trkpt lat="48.4926" lon="-2.84934">
        <ele>124</ele>
        <time>2017-01-05T14:52:38.000Z</time>
      </trkpt>
      <trkpt lat="48.49262" lon="-2.84928">
        <ele>123</ele>
        <time>2017-01-05T14:52:39.000Z</time>
      </trkpt>
      <trkpt lat="48.49264" lon="-2.84922">
        <ele>123</ele>
        <time>2017-01-05T14:52:40.000Z</time>
      </trkpt>
      <trkpt lat="48.49265" lon="-2.84917">
        <ele>122</ele>
        <time>2017-01-05T14:52:41.000Z</time>
      </trkpt>
      <trkpt lat="48.49264" lon="-2.84911">
        <ele>121</ele>
        <time>2017-01-05T14:52:42.000Z</time>
      </trkpt>
      <trkpt lat="48.49262" lon="-2.84907">
        <ele>121</ele>
        <time>2017-01-05T14:52:43.000Z</time>
      </trkpt>
      <trkpt lat="48.49259" lon="-2.84903">
        <ele>121</ele>
        <time>2017-01-05T14:52:44.000Z</time>
      </trkpt>
      <trkpt lat="48.49254" lon="-2.849">
        <ele>121</ele>
        <time>2017-01-05T14:52:45.000Z</time>
      </trkpt>
      <trkpt lat="48.49249" lon="-2.84897">
        <ele>119</ele>
        <time>2017-01-05T14:52:46.000Z</time>
      </trkpt>
      <trkpt lat="48.49244" lon="-2.84894">
        <ele>119</ele>
        <time>2017-01-05T14:52:47.000Z</time>
      </trkpt>
      <trkpt lat="48.49238" lon="-2.84892">
        <ele>118</ele>
        <time>2017-01-05T14:52:48.000Z</time>
      </trkpt>
      <trkpt lat="48.49232" lon="-2.84889">
        <ele>118</ele>
        <time>2017-01-05T14:52:49.000Z</time>
      </trkpt>
      <trkpt lat="48.49226" lon="-2.84886">
        <ele>118</ele>
        <time>2017-01-05T14:52:50.000Z</time>
      </trkpt>
      <trkpt lat="48.49221" lon="-2.84883">
        <ele>117</ele>
        <time>2017-01-05T14:52:51.000Z</time>
      </trkpt>
      <trkpt lat="48.49216" lon="-2.8488">
        <ele>117</ele>
        <time>2017-01-05T14:52:52.000Z</time>
      </trkpt>
      <trkpt lat="48.4921" lon="-2.84878">
        <ele>117</ele>
        <time>2017-01-05T14:52:53.000Z</time>
      </trkpt>
      <trkpt lat="48.49205" lon="-2.84875">
        <ele>117</ele>
        <time>2017-01-05T14:52:54.000Z</time>
      </trkpt>
      <trkpt lat="48.492" lon="-2.84872">
        <ele>116</ele>
        <time>2017-01-05T14:52:55.000Z</time>
      </trkpt>
      <trkpt lat="48.49194" lon="-2.8487">
        <ele>116</ele>
        <time>2017-01-05T14:52:56.000Z</time>
      </trkpt>
      <trkpt lat="48.49187" lon="-2.84867">
        <ele>116</ele>
        <time>2017-01-05T14:52:57.000Z</time>
      </trkpt>
      <trkpt lat="48.49181" lon="-2.84864">
        <ele>116</ele>
        <time>2017-01-05T14:52:58.000Z</time>
      </trkpt>
      <trkpt lat="48.49175" lon="-2.8486">
        <ele>115</ele>
        <time>2017-01-05T14:52:59.000Z</time>
      </trkpt>
      <trkpt lat="48.49169" lon="-2.84857">
        <ele>115</ele>
        <time>2017-01-05T14:53:00.000Z</time>
      </trkpt>
      <trkpt lat="48.49163" lon="-2.84855">
        <ele>113</ele>
        <time>2017-01-05T14:53:01.000Z</time>
      </trkpt>
      <trkpt lat="48.49157" lon="-2.84852">
        <ele>113</ele>
        <time>2017-01-05T14:53:02.000Z</time>
      </trkpt>
      <trkpt lat="48.49151" lon="-2.8485">
        <ele>112</ele>
        <time>2017-01-05T14:53:03.000Z</time>
      </trkpt>
      <trkpt lat="48.49145" lon="-2.84848">
        <ele>112</ele>
        <time>2017-01-05T14:53:04.000Z</time>
      </trkpt>
      <trkpt lat="48.49138" lon="-2.84845">
        <ele>112</ele>
        <time>2017-01-05T14:53:05.000Z</time>
      </trkpt>
      <trkpt lat="48.49132" lon="-2.84843">
        <ele>112</ele>
        <time>2017-01-05T14:53:06.000Z</time>
      </trkpt>
      <trkpt lat="48.49126" lon="-2.84841">
        <ele>112</ele>
        <time>2017-01-05T14:53:07.000Z</time>
      </trkpt>
      <trkpt lat="48.49121" lon="-2.84839">
        <ele>112</ele>
        <time>2017-01-05T14:53:08.000Z</time>
      </trkpt>
      <trkpt lat="48.49115" lon="-2.84837">
        <ele>111</ele>
        <time>2017-01-05T14:53:09.000Z</time>
      </trkpt>
      <trkpt lat="48.4911" lon="-2.84835">
        <ele>111</ele>
        <time>2017-01-05T14:53:10.000Z</time>
      </trkpt>
      <trkpt lat="48.49106" lon="-2.84835">
        <ele>111</ele>
        <time>2017-01-05T14:53:11.000Z</time>
      </trkpt>
      <trkpt lat="48.49102" lon="-2.84833">
        <ele>108</ele>
        <time>2017-01-05T14:53:12.000Z</time>
      </trkpt>
      <trkpt lat="48.49097" lon="-2.84832">
        <ele>108</ele>
        <time>2017-01-05T14:53:13.000Z</time>
      </trkpt>
      <trkpt lat="48.49093" lon="-2.84829">
        <ele>108</ele>
        <time>2017-01-05T14:53:14.000Z</time>
      </trkpt>
      <trkpt lat="48.49087" lon="-2.84825">
        <ele>108</ele>
        <time>2017-01-05T14:53:15.000Z</time>
      </trkpt>
      <trkpt lat="48.4908" lon="-2.8482">
        <ele>106</ele>
        <time>2017-01-05T14:53:16.000Z</time>
      </trkpt>
      <trkpt lat="48.49074" lon="-2.84815">
        <ele>106</ele>
        <time>2017-01-05T14:53:17.000Z</time>
      </trkpt>
      <trkpt lat="48.49069" lon="-2.84812">
        <ele>105</ele>
        <time>2017-01-05T14:53:18.000Z</time>
      </trkpt>
      <trkpt lat="48.49063" lon="-2.84808">
        <ele>105</ele>
        <time>2017-01-05T14:53:19.000Z</time>
      </trkpt>
      <trkpt lat="48.49057" lon="-2.84803">
        <ele>105</ele>
        <time>2017-01-05T14:53:20.000Z</time>
      </trkpt>
      <trkpt lat="48.49051" lon="-2.848">
        <ele>105</ele>
        <time>2017-01-05T14:53:21.000Z</time>
      </trkpt>
      <trkpt lat="48.49046" lon="-2.84797">
        <ele>104</ele>
        <time>2017-01-05T14:53:22.000Z</time>
      </trkpt>
      <trkpt lat="48.4904" lon="-2.84793">
        <ele>104</ele>
        <time>2017-01-05T14:53:23.000Z</time>
      </trkpt>
      <trkpt lat="48.49034" lon="-2.84788">
        <ele>104</ele>
        <time>2017-01-05T14:53:24.000Z</time>
      </trkpt>
      <trkpt lat="48.49029" lon="-2.84785">
        <ele>104</ele>
        <time>2017-01-05T14:53:25.000Z</time>
      </trkpt>
      <trkpt lat="48.49024" lon="-2.84781">
        <ele>104</ele>
        <time>2017-01-05T14:53:26.000Z</time>
      </trkpt>
      <trkpt lat="48.49019" lon="-2.84778">
        <ele>104</ele>
        <time>2017-01-05T14:53:27.000Z</time>
      </trkpt>
      <trkpt lat="48.49016" lon="-2.84775">
        <ele>104</ele>
        <time>2017-01-05T14:53:28.000Z</time>
      </trkpt>
      <trkpt lat="48.49013" lon="-2.84773">
        <ele>103</ele>
        <time>2017-01-05T14:53:29.000Z</time>
      </trkpt>
      <trkpt lat="48.4901" lon="-2.84772">
        <ele>103</ele>
        <time>2017-01-05T14:53:30.000Z</time>
      </trkpt>
      <trkpt lat="48.49007" lon="-2.84773">
        <ele>103</ele>
        <time>2017-01-05T14:53:31.000Z</time>
      </trkpt>
      <trkpt lat="48.49004" lon="-2.84776">
        <ele>103</ele>
        <time>2017-01-05T14:53:32.000Z</time>
      </trkpt>
      <trkpt lat="48.49002" lon="-2.8478">
        <ele>104</ele>
        <time>2017-01-05T14:53:33.000Z</time>
      </trkpt>
      <trkpt lat="48.49" lon="-2.84784">
        <ele>104</ele>
        <time>2017-01-05T14:53:34.000Z</time>
      </trkpt>
      <trkpt lat="48.48999" lon="-2.84788">
        <ele>106</ele>
        <time>2017-01-05T14:53:35.000Z</time>
      </trkpt>
      <trkpt lat="48.48998" lon="-2.84793">
        <ele>107</ele>
        <time>2017-01-05T14:53:36.000Z</time>
      </trkpt>
      <trkpt lat="48.48997" lon="-2.84798">
        <ele>107</ele>
        <time>2017-01-05T14:53:37.000Z</time>
      </trkpt>
      <trkpt lat="48.48997" lon="-2.84803">
        <ele>107</ele>
        <time>2017-01-05T14:53:38.000Z</time>
      </trkpt>
      <trkpt lat="48.48997" lon="-2.84808">
        <ele>107</ele>
        <time>2017-01-05T14:53:39.000Z</time>
      </trkpt>
      <trkpt lat="48.48997" lon="-2.84813">
        <ele>106</ele>
        <time>2017-01-05T14:53:40.000Z</time>
      </trkpt>
      <trkpt lat="48.48997" lon="-2.84818">
        <ele>106</ele>
        <time>2017-01-05T14:53:41.000Z</time>
      </trkpt>
      <trkpt lat="48.48997" lon="-2.84822">
        <ele>106</ele>
        <time>2017-01-05T14:53:42.000Z</time>
      </trkpt>
      <trkpt lat="48.48995" lon="-2.84825">
        <ele>106</ele>
        <time>2017-01-05T14:53:43.000Z</time>
      </trkpt>
      <trkpt lat="48.48994" lon="-2.84828">
        <ele>106</ele>
        <time>2017-01-05T14:53:44.000Z</time>
      </trkpt>
      <trkpt lat="48.48992" lon="-2.84831">
        <ele>106</ele>
        <time>2017-01-05T14:53:46.000Z</time>
      </trkpt>
      <trkpt lat="48.4899" lon="-2.84833">
        <ele>106</ele>
        <time>2017-01-05T14:53:48.000Z</time>
      </trkpt>
      <trkpt lat="48.48988" lon="-2.84834">
        <ele>107</ele>
        <time>2017-01-05T14:53:50.000Z</time>
      </trkpt>
      <trkpt lat="48.48985" lon="-2.84835">
        <ele>107</ele>
        <time>2017-01-05T14:53:52.000Z</time>
      </trkpt>
      <trkpt lat="48.48983" lon="-2.84834">
        <ele>108</ele>
        <time>2017-01-05T14:53:53.000Z</time>
      </trkpt>
      <trkpt lat="48.48982" lon="-2.84832">
        <ele>107</ele>
        <time>2017-01-05T14:53:54.000Z</time>
      </trkpt>
      <trkpt lat="48.4898" lon="-2.84829">
        <ele>107</ele>
        <time>2017-01-05T14:53:55.000Z</time>
      </trkpt>
      <trkpt lat="48.48979" lon="-2.84826">
        <ele>107</ele>
        <time>2017-01-05T14:53:56.000Z</time>
      </trkpt>
      <trkpt lat="48.48977" lon="-2.84822">
        <ele>107</ele>
        <time>2017-01-05T14:53:57.000Z</time>
      </trkpt>
      <trkpt lat="48.48974" lon="-2.84819">
        <ele>108</ele>
        <time>2017-01-05T14:53:58.000Z</time>
      </trkpt>
      <trkpt lat="48.48971" lon="-2.84815">
        <ele>108</ele>
        <time>2017-01-05T14:53:59.000Z</time>
      </trkpt>
      <trkpt lat="48.48968" lon="-2.84812">
        <ele>108</ele>
        <time>2017-01-05T14:54:00.000Z</time>
      </trkpt>
      <trkpt lat="48.48966" lon="-2.84809">
        <ele>108</ele>
        <time>2017-01-05T14:54:01.000Z</time>
      </trkpt>
      <trkpt lat="48.48963" lon="-2.84806">
        <ele>108</ele>
        <time>2017-01-05T14:54:02.000Z</time>
      </trkpt>
      <trkpt lat="48.48961" lon="-2.84803">
        <ele>108</ele>
        <time>2017-01-05T14:54:03.000Z</time>
      </trkpt>
      <trkpt lat="48.48958" lon="-2.848">
        <ele>108</ele>
        <time>2017-01-05T14:54:04.000Z</time>
      </trkpt>
      <trkpt lat="48.48956" lon="-2.84799">
        <ele>108</ele>
        <time>2017-01-05T14:54:05.000Z</time>
      </trkpt>
      <trkpt lat="48.48953" lon="-2.84797">
        <ele>109</ele>
        <time>2017-01-05T14:54:06.000Z</time>
      </trkpt>
      <trkpt lat="48.48951" lon="-2.84796">
        <ele>109</ele>
        <time>2017-01-05T14:54:07.000Z</time>
      </trkpt>
      <trkpt lat="48.48949" lon="-2.84794">
        <ele>109</ele>
        <time>2017-01-05T14:54:08.000Z</time>
      </trkpt>
      <trkpt lat="48.48949" lon="-2.8479">
        <ele>109</ele>
        <time>2017-01-05T14:54:10.000Z</time>
      </trkpt>
      <trkpt lat="48.48951" lon="-2.84789">
        <ele>109</ele>
        <time>2017-01-05T14:54:11.000Z</time>
      </trkpt>
      <trkpt lat="48.48953" lon="-2.84789">
        <ele>109</ele>
        <time>2017-01-05T14:54:12.000Z</time>
      </trkpt>
      <trkpt lat="48.48955" lon="-2.84789">
        <ele>108</ele>
        <time>2017-01-05T14:54:13.000Z</time>
      </trkpt>
      <trkpt lat="48.48958" lon="-2.84789">
        <ele>108</ele>
        <time>2017-01-05T14:54:15.000Z</time>
      </trkpt>
      <trkpt lat="48.4896" lon="-2.84788">
        <ele>108</ele>
        <time>2017-01-05T14:54:18.000Z</time>
      </trkpt>
      <trkpt lat="48.48962" lon="-2.84785">
        <ele>108</ele>
        <time>2017-01-05T14:54:21.000Z</time>
      </trkpt>
      <trkpt lat="48.48964" lon="-2.84781">
        <ele>108</ele>
        <time>2017-01-05T14:54:23.000Z</time>
      </trkpt>
      <trkpt lat="48.48966" lon="-2.84778">
        <ele>108</ele>
        <time>2017-01-05T14:54:24.000Z</time>
      </trkpt>
      <trkpt lat="48.48967" lon="-2.84775">
        <ele>107</ele>
        <time>2017-01-05T14:54:25.000Z</time>
      </trkpt>
      <trkpt lat="48.48968" lon="-2.84772">
        <ele>107</ele>
        <time>2017-01-05T14:54:26.000Z</time>
      </trkpt>
      <trkpt lat="48.4897" lon="-2.84769">
        <ele>107</ele>
        <time>2017-01-05T14:54:27.000Z</time>
      </trkpt>
      <trkpt lat="48.48971" lon="-2.84767">
        <ele>107</ele>
        <time>2017-01-05T14:54:28.000Z</time>
      </trkpt>
      <trkpt lat="48.48973" lon="-2.84763">
        <ele>107</ele>
        <time>2017-01-05T14:54:30.000Z</time>
      </trkpt>
      <trkpt lat="48.48974" lon="-2.84762">
        <ele>106</ele>
        <time>2017-01-05T14:54:35.000Z</time>
      </trkpt>
      <trkpt lat="48.48976" lon="-2.8476">
        <ele>106</ele>
        <time>2017-01-05T14:54:38.000Z</time>
      </trkpt>
      <trkpt lat="48.48978" lon="-2.84758">
        <ele>106</ele>
        <time>2017-01-05T14:54:40.000Z</time>
      </trkpt>
      <trkpt lat="48.4898" lon="-2.84756">
        <ele>106</ele>
        <time>2017-01-05T14:54:42.000Z</time>
      </trkpt>
      <trkpt lat="48.48982" lon="-2.84754">
        <ele>105</ele>
        <time>2017-01-05T14:54:45.000Z</time>
      </trkpt>
      <trkpt lat="48.48985" lon="-2.84753">
        <ele>105</ele>
        <time>2017-01-05T14:54:52.000Z</time>
      </trkpt>
      <trkpt lat="48.48986" lon="-2.84751">
        <ele>105</ele>
        <time>2017-01-05T14:54:54.000Z</time>
      </trkpt>
      <trkpt lat="48.48986" lon="-2.84745">
        <ele>104</ele>
        <time>2017-01-05T14:54:56.000Z</time>
      </trkpt>
      <trkpt lat="48.48986" lon="-2.84742">
        <ele>104</ele>
        <time>2017-01-05T14:54:57.000Z</time>
      </trkpt>
      <trkpt lat="48.48986" lon="-2.84739">
        <ele>105</ele>
        <time>2017-01-05T14:54:58.000Z</time>
      </trkpt>
      <trkpt lat="48.48987" lon="-2.84736">
        <ele>105</ele>
        <time>2017-01-05T14:54:59.000Z</time>
      </trkpt>
      <trkpt lat="48.48988" lon="-2.84733">
        <ele>105</ele>
        <time>2017-01-05T14:55:00.000Z</time>
      </trkpt>
      <trkpt lat="48.48989" lon="-2.8473">
        <ele>105</ele>
        <time>2017-01-05T14:55:01.000Z</time>
      </trkpt>
      <trkpt lat="48.4899" lon="-2.84726">
        <ele>105</ele>
        <time>2017-01-05T14:55:02.000Z</time>
      </trkpt>
      <trkpt lat="48.48991" lon="-2.84723">
        <ele>105</ele>
        <time>2017-01-05T14:55:03.000Z</time>
      </trkpt>
      <trkpt lat="48.48992" lon="-2.84718">
        <ele>105</ele>
        <time>2017-01-05T14:55:04.000Z</time>
      </trkpt>
      <trkpt lat="48.48993" lon="-2.84713">
        <ele>105</ele>
        <time>2017-01-05T14:55:05.000Z</time>
      </trkpt>
      <trkpt lat="48.48993" lon="-2.84709">
        <ele>105</ele>
        <time>2017-01-05T14:55:06.000Z</time>
      </trkpt>
      <trkpt lat="48.48989" lon="-2.84694">
        <ele>105</ele>
        <time>2017-01-05T14:55:10.000Z</time>
      </trkpt>
      <trkpt lat="48.48983" lon="-2.84679">
        <ele>105</ele>
        <time>2017-01-05T14:55:14.000Z</time>
      </trkpt>
      <trkpt lat="48.48976" lon="-2.84665">
        <ele>105</ele>
        <time>2017-01-05T14:55:18.000Z</time>
      </trkpt>
      <trkpt lat="48.48974" lon="-2.84659">
        <ele>106</ele>
        <time>2017-01-05T14:55:20.000Z</time>
      </trkpt>
      <trkpt lat="48.48973" lon="-2.84656">
        <ele>106</ele>
        <time>2017-01-05T14:55:21.000Z</time>
      </trkpt>
      <trkpt lat="48.48972" lon="-2.84648">
        <ele>106</ele>
        <time>2017-01-05T14:55:24.000Z</time>
      </trkpt>
      <trkpt lat="48.48973" lon="-2.84643">
        <ele>106</ele>
        <time>2017-01-05T14:55:26.000Z</time>
      </trkpt>
      <trkpt lat="48.48975" lon="-2.84642">
        <ele>106</ele>
        <time>2017-01-05T14:55:27.000Z</time>
      </trkpt>
      <trkpt lat="48.48978" lon="-2.84639">
        <ele>106</ele>
        <time>2017-01-05T14:55:29.000Z</time>
      </trkpt>
      <trkpt lat="48.4898" lon="-2.84636">
        <ele>106</ele>
        <time>2017-01-05T14:55:31.000Z</time>
      </trkpt>
      <trkpt lat="48.48982" lon="-2.84631">
        <ele>106</ele>
        <time>2017-01-05T14:55:33.000Z</time>
      </trkpt>
      <trkpt lat="48.48983" lon="-2.84628">
        <ele>106</ele>
        <time>2017-01-05T14:55:34.000Z</time>
      </trkpt>
      <trkpt lat="48.48983" lon="-2.84625">
        <ele>106</ele>
        <time>2017-01-05T14:55:35.000Z</time>
      </trkpt>
      <trkpt lat="48.48984" lon="-2.84621">
        <ele>106</ele>
        <time>2017-01-05T14:55:36.000Z</time>
      </trkpt>
      <trkpt lat="48.48986" lon="-2.84618">
        <ele>105</ele>
        <time>2017-01-05T14:55:37.000Z</time>
      </trkpt>
      <trkpt lat="48.48988" lon="-2.84614">
        <ele>105</ele>
        <time>2017-01-05T14:55:38.000Z</time>
      </trkpt>
      <trkpt lat="48.48991" lon="-2.84611">
        <ele>105</ele>
        <time>2017-01-05T14:55:39.000Z</time>
      </trkpt>
      <trkpt lat="48.48994" lon="-2.84608">
        <ele>105</ele>
        <time>2017-01-05T14:55:40.000Z</time>
      </trkpt>
      <trkpt lat="48.48997" lon="-2.84605">
        <ele>105</ele>
        <time>2017-01-05T14:55:41.000Z</time>
      </trkpt>
      <trkpt lat="48.49" lon="-2.84601">
        <ele>101</ele>
        <time>2017-01-05T14:55:42.000Z</time>
      </trkpt>
      <trkpt lat="48.49003" lon="-2.84598">
        <ele>101</ele>
        <time>2017-01-05T14:55:43.000Z</time>
      </trkpt>
      <trkpt lat="48.49005" lon="-2.84595">
        <ele>101</ele>
        <time>2017-01-05T14:55:44.000Z</time>
      </trkpt>
      <trkpt lat="48.49007" lon="-2.84593">
        <ele>102</ele>
        <time>2017-01-05T14:55:45.000Z</time>
      </trkpt>
      <trkpt lat="48.4901" lon="-2.8459">
        <ele>102</ele>
        <time>2017-01-05T14:55:47.000Z</time>
      </trkpt>
      <trkpt lat="48.49012" lon="-2.84588">
        <ele>101</ele>
        <time>2017-01-05T14:55:49.000Z</time>
      </trkpt>
      <trkpt lat="48.49013" lon="-2.84586">
        <ele>101</ele>
        <time>2017-01-05T14:55:51.000Z</time>
      </trkpt>
      <trkpt lat="48.49014" lon="-2.84583">
        <ele>101</ele>
        <time>2017-01-05T14:56:00.000Z</time>
      </trkpt>
      <trkpt lat="48.49014" lon="-2.84577">
        <ele>101</ele>
        <time>2017-01-05T14:56:02.000Z</time>
      </trkpt>
      <trkpt lat="48.49013" lon="-2.84573">
        <ele>101</ele>
        <time>2017-01-05T14:56:03.000Z</time>
      </trkpt>
      <trkpt lat="48.49011" lon="-2.84568">
        <ele>101</ele>
        <time>2017-01-05T14:56:04.000Z</time>
      </trkpt>
      <trkpt lat="48.4901" lon="-2.84563">
        <ele>101</ele>
        <time>2017-01-05T14:56:05.000Z</time>
      </trkpt>
      <trkpt lat="48.49008" lon="-2.84559">
        <ele>101</ele>
        <time>2017-01-05T14:56:06.000Z</time>
      </trkpt>
      <trkpt lat="48.49006" lon="-2.84554">
        <ele>101</ele>
        <time>2017-01-05T14:56:07.000Z</time>
      </trkpt>
      <trkpt lat="48.49005" lon="-2.8455">
        <ele>101</ele>
        <time>2017-01-05T14:56:08.000Z</time>
      </trkpt>
      <trkpt lat="48.49004" lon="-2.84545">
        <ele>102</ele>
        <time>2017-01-05T14:56:09.000Z</time>
      </trkpt>
      <trkpt lat="48.49002" lon="-2.8454">
        <ele>102</ele>
        <time>2017-01-05T14:56:10.000Z</time>
      </trkpt>
      <trkpt lat="48.49001" lon="-2.84535">
        <ele>102</ele>
        <time>2017-01-05T14:56:11.000Z</time>
      </trkpt>
      <trkpt lat="48.49" lon="-2.8453">
        <ele>106</ele>
        <time>2017-01-05T14:56:12.000Z</time>
      </trkpt>
      <trkpt lat="48.48999" lon="-2.84524">
        <ele>106</ele>
        <time>2017-01-05T14:56:13.000Z</time>
      </trkpt>
      <trkpt lat="48.48997" lon="-2.84519">
        <ele>106</ele>
        <time>2017-01-05T14:56:14.000Z</time>
      </trkpt>
      <trkpt lat="48.48996" lon="-2.84514">
        <ele>106</ele>
        <time>2017-01-05T14:56:15.000Z</time>
      </trkpt>
      <trkpt lat="48.48995" lon="-2.84508">
        <ele>106</ele>
        <time>2017-01-05T14:56:16.000Z</time>
      </trkpt>
      <trkpt lat="48.48995" lon="-2.84503">
        <ele>106</ele>
        <time>2017-01-05T14:56:17.000Z</time>
      </trkpt>
      <trkpt lat="48.48994" lon="-2.84498">
        <ele>105</ele>
        <time>2017-01-05T14:56:18.000Z</time>
      </trkpt>
      <trkpt lat="48.48993" lon="-2.84493">
        <ele>105</ele>
        <time>2017-01-05T14:56:19.000Z</time>
      </trkpt>
      <trkpt lat="48.48992" lon="-2.84487">
        <ele>105</ele>
        <time>2017-01-05T14:56:20.000Z</time>
      </trkpt>
      <trkpt lat="48.48992" lon="-2.84482">
        <ele>105</ele>
        <time>2017-01-05T14:56:21.000Z</time>
      </trkpt>
      <trkpt lat="48.48991" lon="-2.84477">
        <ele>105</ele>
        <time>2017-01-05T14:56:22.000Z</time>
      </trkpt>
      <trkpt lat="48.4899" lon="-2.84471">
        <ele>105</ele>
        <time>2017-01-05T14:56:23.000Z</time>
      </trkpt>
      <trkpt lat="48.4899" lon="-2.84465">
        <ele>105</ele>
        <time>2017-01-05T14:56:24.000Z</time>
      </trkpt>
      <trkpt lat="48.48989" lon="-2.8446">
        <ele>105</ele>
        <time>2017-01-05T14:56:25.000Z</time>
      </trkpt>
      <trkpt lat="48.48989" lon="-2.84454">
        <ele>104</ele>
        <time>2017-01-05T14:56:26.000Z</time>
      </trkpt>
      <trkpt lat="48.48988" lon="-2.84449">
        <ele>104</ele>
        <time>2017-01-05T14:56:27.000Z</time>
      </trkpt>
      <trkpt lat="48.48987" lon="-2.84444">
        <ele>104</ele>
        <time>2017-01-05T14:56:28.000Z</time>
      </trkpt>
      <trkpt lat="48.48987" lon="-2.84439">
        <ele>104</ele>
        <time>2017-01-05T14:56:29.000Z</time>
      </trkpt>
      <trkpt lat="48.48986" lon="-2.84434">
        <ele>103</ele>
        <time>2017-01-05T14:56:30.000Z</time>
      </trkpt>
      <trkpt lat="48.48985" lon="-2.84429">
        <ele>103</ele>
        <time>2017-01-05T14:56:31.000Z</time>
      </trkpt>
      <trkpt lat="48.48984" lon="-2.84425">
        <ele>103</ele>
        <time>2017-01-05T14:56:32.000Z</time>
      </trkpt>
      <trkpt lat="48.48983" lon="-2.8442">
        <ele>103</ele>
        <time>2017-01-05T14:56:33.000Z</time>
      </trkpt>
      <trkpt lat="48.48981" lon="-2.84416">
        <ele>99</ele>
        <time>2017-01-05T14:56:34.000Z</time>
      </trkpt>
      <trkpt lat="48.48979" lon="-2.84412">
        <ele>98</ele>
        <time>2017-01-05T14:56:35.000Z</time>
      </trkpt>
      <trkpt lat="48.48977" lon="-2.84409">
        <ele>98</ele>
        <time>2017-01-05T14:56:36.000Z</time>
      </trkpt>
      <trkpt lat="48.48975" lon="-2.84406">
        <ele>98</ele>
        <time>2017-01-05T14:56:37.000Z</time>
      </trkpt>
      <trkpt lat="48.48972" lon="-2.84403">
        <ele>98</ele>
        <time>2017-01-05T14:56:38.000Z</time>
      </trkpt>
      <trkpt lat="48.48969" lon="-2.844">
        <ele>98</ele>
        <time>2017-01-05T14:56:39.000Z</time>
      </trkpt>
      <trkpt lat="48.48966" lon="-2.84398">
        <ele>98</ele>
        <time>2017-01-05T14:56:40.000Z</time>
      </trkpt>
      <trkpt lat="48.48963" lon="-2.84396">
        <ele>98</ele>
        <time>2017-01-05T14:56:41.000Z</time>
      </trkpt>
      <trkpt lat="48.48959" lon="-2.84394">
        <ele>98</ele>
        <time>2017-01-05T14:56:42.000Z</time>
      </trkpt>
      <trkpt lat="48.48955" lon="-2.84393">
        <ele>98</ele>
        <time>2017-01-05T14:56:43.000Z</time>
      </trkpt>
      <trkpt lat="48.48952" lon="-2.84392">
        <ele>98</ele>
        <time>2017-01-05T14:56:44.000Z</time>
      </trkpt>
      <trkpt lat="48.48948" lon="-2.84391">
        <ele>98</ele>
        <time>2017-01-05T14:56:45.000Z</time>
      </trkpt>
      <trkpt lat="48.48944" lon="-2.84391">
        <ele>98</ele>
        <time>2017-01-05T14:56:46.000Z</time>
      </trkpt>
      <trkpt lat="48.4894" lon="-2.8439">
        <ele>98</ele>
        <time>2017-01-05T14:56:47.000Z</time>
      </trkpt>
      <trkpt lat="48.48936" lon="-2.8439">
        <ele>98</ele>
        <time>2017-01-05T14:56:48.000Z</time>
      </trkpt>
      <trkpt lat="48.48932" lon="-2.84389">
        <ele>98</ele>
        <time>2017-01-05T14:56:49.000Z</time>
      </trkpt>
      <trkpt lat="48.48928" lon="-2.84389">
        <ele>99</ele>
        <time>2017-01-05T14:56:50.000Z</time>
      </trkpt>
      <trkpt lat="48.48924" lon="-2.84388">
        <ele>99</ele>
        <time>2017-01-05T14:56:51.000Z</time>
      </trkpt>
      <trkpt lat="48.48921" lon="-2.84388">
        <ele>99</ele>
        <time>2017-01-05T14:56:52.000Z</time>
      </trkpt>
      <trkpt lat="48.48917" lon="-2.84387">
        <ele>100</ele>
        <time>2017-01-05T14:56:53.000Z</time>
      </trkpt>
      <trkpt lat="48.48913" lon="-2.84387">
        <ele>100</ele>
        <time>2017-01-05T14:56:54.000Z</time>
      </trkpt>
      <trkpt lat="48.48909" lon="-2.84386">
        <ele>100</ele>
        <time>2017-01-05T14:56:55.000Z</time>
      </trkpt>
      <trkpt lat="48.48904" lon="-2.84385">
        <ele>100</ele>
        <time>2017-01-05T14:56:56.000Z</time>
      </trkpt>
      <trkpt lat="48.489" lon="-2.84385">
        <ele>100</ele>
        <time>2017-01-05T14:56:57.000Z</time>
      </trkpt>
      <trkpt lat="48.48895" lon="-2.84384">
        <ele>100</ele>
        <time>2017-01-05T14:56:58.000Z</time>
      </trkpt>
      <trkpt lat="48.48891" lon="-2.84384">
        <ele>100</ele>
        <time>2017-01-05T14:56:59.000Z</time>
      </trkpt>
      <trkpt lat="48.48887" lon="-2.84384">
        <ele>100</ele>
        <time>2017-01-05T14:57:00.000Z</time>
      </trkpt>
      <trkpt lat="48.48883" lon="-2.84384">
        <ele>100</ele>
        <time>2017-01-05T14:57:01.000Z</time>
      </trkpt>
      <trkpt lat="48.4888" lon="-2.84382">
        <ele>100</ele>
        <time>2017-01-05T14:57:02.000Z</time>
      </trkpt>
      <trkpt lat="48.48877" lon="-2.84381">
        <ele>100</ele>
        <time>2017-01-05T14:57:03.000Z</time>
      </trkpt>
      <trkpt lat="48.48874" lon="-2.8438">
        <ele>99</ele>
        <time>2017-01-05T14:57:04.000Z</time>
      </trkpt>
      <trkpt lat="48.48872" lon="-2.84379">
        <ele>99</ele>
        <time>2017-01-05T14:57:05.000Z</time>
      </trkpt>
      <trkpt lat="48.48869" lon="-2.84378">
        <ele>99</ele>
        <time>2017-01-05T14:57:06.000Z</time>
      </trkpt>
      <trkpt lat="48.48866" lon="-2.84377">
        <ele>99</ele>
        <time>2017-01-05T14:57:07.000Z</time>
      </trkpt>
      <trkpt lat="48.48863" lon="-2.84376">
        <ele>99</ele>
        <time>2017-01-05T14:57:08.000Z</time>
      </trkpt>
      <trkpt lat="48.4886" lon="-2.84376">
        <ele>99</ele>
        <time>2017-01-05T14:57:09.000Z</time>
      </trkpt>
      <trkpt lat="48.48856" lon="-2.84377">
        <ele>100</ele>
        <time>2017-01-05T14:57:10.000Z</time>
      </trkpt>
      <trkpt lat="48.48852" lon="-2.84376">
        <ele>100</ele>
        <time>2017-01-05T14:57:11.000Z</time>
      </trkpt>
      <trkpt lat="48.48848" lon="-2.84376">
        <ele>100</ele>
        <time>2017-01-05T14:57:12.000Z</time>
      </trkpt>
      <trkpt lat="48.48844" lon="-2.84375">
        <ele>99</ele>
        <time>2017-01-05T14:57:13.000Z</time>
      </trkpt>
      <trkpt lat="48.4884" lon="-2.84375">
        <ele>100</ele>
        <time>2017-01-05T14:57:14.000Z</time>
      </trkpt>
      <trkpt lat="48.48835" lon="-2.84374">
        <ele>99</ele>
        <time>2017-01-05T14:57:15.000Z</time>
      </trkpt>
      <trkpt lat="48.48831" lon="-2.84373">
        <ele>102</ele>
        <time>2017-01-05T14:57:16.000Z</time>
      </trkpt>
      <trkpt lat="48.48826" lon="-2.84372">
        <ele>101</ele>
        <time>2017-01-05T14:57:17.000Z</time>
      </trkpt>
      <trkpt lat="48.48822" lon="-2.84371">
        <ele>101</ele>
        <time>2017-01-05T14:57:18.000Z</time>
      </trkpt>
      <trkpt lat="48.48818" lon="-2.84371">
        <ele>101</ele>
        <time>2017-01-05T14:57:19.000Z</time>
      </trkpt>
      <trkpt lat="48.48814" lon="-2.8437">
        <ele>101</ele>
        <time>2017-01-05T14:57:20.000Z</time>
      </trkpt>
      <trkpt lat="48.48811" lon="-2.84369">
        <ele>101</ele>
        <time>2017-01-05T14:57:21.000Z</time>
      </trkpt>
      <trkpt lat="48.48807" lon="-2.84369">
        <ele>102</ele>
        <time>2017-01-05T14:57:22.000Z</time>
      </trkpt>
      <trkpt lat="48.48804" lon="-2.84369">
        <ele>102</ele>
        <time>2017-01-05T14:57:23.000Z</time>
      </trkpt>
      <trkpt lat="48.48802" lon="-2.84368">
        <ele>102</ele>
        <time>2017-01-05T14:57:24.000Z</time>
      </trkpt>
      <trkpt lat="48.48799" lon="-2.84368">
        <ele>102</ele>
        <time>2017-01-05T14:57:25.000Z</time>
      </trkpt>
      <trkpt lat="48.48797" lon="-2.84366">
        <ele>102</ele>
        <time>2017-01-05T14:57:26.000Z</time>
      </trkpt>
      <trkpt lat="48.48794" lon="-2.84365">
        <ele>102</ele>
        <time>2017-01-05T14:57:27.000Z</time>
      </trkpt>
      <trkpt lat="48.48792" lon="-2.84365">
        <ele>102</ele>
        <time>2017-01-05T14:57:28.000Z</time>
      </trkpt>
      <trkpt lat="48.4879" lon="-2.84363">
        <ele>102</ele>
        <time>2017-01-05T14:57:30.000Z</time>
      </trkpt>
      <trkpt lat="48.48789" lon="-2.84363">
        <ele>102</ele>
        <time>2017-01-05T14:57:48.000Z</time>
      </trkpt>
    </trkseg>
  </trk>
</gpx>